GFSSE_sfc_wetblb_000.txt.gz
Wetbulb
64.70 67.77 75.25 74.69 74.10 73.17 72.26 70.93 70.18 69.61 69.20 68.71 68.86 69.85 70.15 69.95 69.49 69.11 68.33 67.68 67.96 66.97 66.72 67.07 67.64 68.42 69.88 69.87 69.49 68.64 68.06 66.84 66.25 65.96 65.67 65.48 65.75 66.38 67.24 67.09 66.86 66.18 66.27
65.90 68.56 75.20 75.25 74.14 73.14 71.98 70.89 70.13 69.72 69.39 68.56 68.43 69.02 68.38 66.98 67.79 68.05 68.67 68.05 66.99 66.50 65.64 65.31 65.93 66.03 66.78 67.61 67.89 67.70 67.66 67.58 66.63 65.85 65.74 65.28 64.74 65.54 66.61 67.20 67.90 64.60 66.34
66.76 69.68 73.59 75.25 74.21 73.15 71.98 70.93 70.02 69.18 69.45 67.94 67.80 67.86 67.03 66.50 67.77 68.34 68.59 67.74 66.81 65.97 65.79 64.91 64.97 64.60 65.16 65.88 65.94 66.31 66.80 66.78 66.57 66.24 65.98 61.71 61.12 65.15 66.29 67.17 66.47 65.83 66.39
69.37 71.89 72.95 75.04 74.02 73.09 72.11 71.14 70.05 69.13 68.38 67.85 67.10 67.08 67.65 67.17 68.04 67.65 68.64 67.05 65.93 65.84 65.29 64.62 64.79 64.96 64.25 64.21 64.53 65.31 65.50 65.67 66.06 66.27 61.81 61.51 61.85 65.50 66.38 66.85 66.91 66.48 66.48
70.89 71.99 72.78 75.22 74.25 73.62 72.35 71.24 70.47 69.42 68.11 67.62 67.66 66.83 67.22 68.05 68.85 68.42 67.45 67.33 66.77 66.27 65.27 64.77 64.74 65.36 66.12 66.41 66.52 66.33 65.95 65.14 66.20 64.53 60.66 60.12 60.21 63.99 66.49 66.16 67.07 66.93 66.40
70.84 70.77 73.26 74.54 74.29 74.30 73.04 71.53 70.79 69.77 68.74 67.53 67.42 67.23 67.30 68.10 68.78 69.14 69.07 69.62 68.87 67.05 65.54 64.98 65.03 65.22 65.54 66.21 66.97 67.17 67.69 66.88 67.30 60.56 60.74 60.65 61.21 63.81 65.40 66.25 66.63 66.21 66.98
69.42 70.38 72.59 74.60 74.37 74.07 72.86 71.82 70.76 69.79 68.93 67.78 67.30 67.28 67.49 68.27 68.67 70.21 69.62 68.83 67.81 66.96 65.88 65.74 66.21 66.69 66.79 66.91 66.70 66.69 67.19 67.85 63.21 60.46 60.00 59.77 59.70 65.37 66.04 65.79 66.22 66.69 66.57
68.82 70.59 72.38 73.70 74.33 73.95 73.08 72.17 71.25 69.90 69.10 67.96 67.26 67.81 67.70 67.88 68.90 69.71 69.78 69.17 68.13 66.92 67.43 66.96 67.48 67.67 67.31 67.03 67.19 67.27 67.38 67.22 64.07 61.10 60.58 60.13 62.69 66.67 67.40 67.39 66.90 66.89 66.96
69.08 70.66 71.53 72.14 72.90 73.02 72.50 71.90 71.52 70.61 69.95 68.70 69.00 68.68 68.79 67.80 67.27 68.39 69.14 69.03 68.23 68.01 67.62 67.94 67.96 67.62 67.63 67.81 67.78 67.85 68.14 67.31 63.64 61.55 61.52 61.06 63.98 67.08 68.02 68.08 68.25 68.05 67.91
68.55 70.26 70.78 71.11 71.07 70.47 70.26 71.35 70.97 70.66 70.45 70.04 69.47 68.57 68.32 68.16 67.44 67.46 68.74 68.60 68.05 67.75 68.12 68.08 68.10 68.26 68.31 68.22 68.06 67.79 67.30 66.14 61.18 60.58 60.54 60.79 65.55 68.00 68.79 68.84 69.08 69.08 69.02
68.89 69.80 71.10 70.99 70.61 69.35 69.36 69.80 70.63 70.32 69.52 69.14 67.95 67.40 65.84 61.71 61.46 62.88 65.63 66.94 67.29 68.01 68.01 68.09 68.56 68.34 66.51 65.15 65.46 64.95 63.13 59.81 58.18 58.85 59.50 62.95 66.11 67.74 67.93 67.98 68.42 68.99 68.89
66.80 68.49 69.69 69.24 69.36 68.49 70.31 68.29 67.56 68.23 67.21 66.40 65.33 63.68 62.09 60.48 59.99 61.98 62.99 65.32 66.93 66.79 66.24 66.91 66.22 63.58 59.59 58.10 56.76 57.02 54.45 54.56 54.70 55.70 58.55 63.40 64.73 65.34 65.63 65.76 66.90 67.83 67.57
65.98 67.88 68.69 68.71 68.75 67.49 67.64 66.32 65.61 65.72 65.45 64.79 63.64 62.29 61.80 60.69 59.27 60.04 60.10 60.47 60.43 62.43 63.64 60.45 53.09 51.39 49.43 49.56 49.35 48.55 49.12 49.98 50.18 51.73 55.12 60.84 62.53 63.78 64.30 64.78 65.58 66.13 67.51
62.66 65.96 67.67 68.06 67.84 66.91 65.93 65.38 64.91 64.15 64.02 63.19 62.89 62.28 61.41 59.57 59.26 59.58 60.72 60.99 60.18 60.87 50.46 49.00 47.51 46.55 45.90 45.27 44.60 44.62 45.04 45.07 44.96 47.90 51.55 58.49 60.86 61.68 63.22 63.86 64.96 65.09 64.29
59.87 62.46 65.36 66.66 66.51 66.44 65.01 64.56 63.83 63.03 63.10 62.72 62.42 62.40 61.38 59.95 59.79 58.62 55.84 53.24 51.28 49.02 46.55 44.82 43.64 43.47 41.91 42.43 42.04 42.63 42.93 41.03 42.66 45.97 47.08 55.17 57.04 59.06 62.06 61.02 61.43 61.17 61.79
55.25 59.73 63.87 65.83 66.17 65.74 64.83 63.50 63.46 62.72 62.57 61.32 61.05 60.87 61.97 62.15 54.32 52.38 51.74 48.93 47.88 45.70 43.59 42.00 41.21 41.10 39.72 39.68 39.72 40.21 40.95 39.66 42.69 41.56 43.89 45.08 53.07 55.52 56.80 57.43 58.01 58.20 60.20
51.79 54.02 62.49 64.76 65.69 65.29 64.87 63.69 63.17 62.68 61.53 61.78 61.83 62.47 59.45 52.20 51.90 51.14 48.33 45.42 43.23 42.23 41.15 40.15 39.71 40.04 38.72 39.08 37.00 39.22 40.22 38.42 39.78 39.50 40.77 43.04 44.65 49.21 52.15 54.05 54.94 55.84 56.98
53.04 57.49 61.55 64.99 64.84 64.18 63.20 62.31 62.35 61.79 57.98 55.92 55.03 53.61 51.87 51.18 49.83 47.98 44.38 42.19 40.78 40.45 39.90 38.91 38.11 38.21 37.46 36.39 35.74 37.63 38.28 38.54 38.48 37.15 39.30 40.83 40.75 41.13 45.45 50.37 51.19 52.27 53.46
53.86 58.68 61.77 63.66 63.62 63.42 60.23 57.94 56.22 54.40 54.10 52.29 51.72 50.79 49.41 46.50 46.24 43.70 41.71 40.30 40.10 39.50 38.43 38.10 37.21 36.27 36.24 35.94 37.57 38.07 37.09 36.86 37.19 38.55 37.60 38.84 38.19 38.85 40.03 44.71 47.38 48.15 49.66
54.95 59.49 62.75 63.66 62.67 56.42 54.21 52.61 51.79 50.12 49.12 49.11 48.10 47.09 45.86 43.08 42.24 41.31 40.05 39.19 39.07 38.19 36.87 36.12 35.18 35.08 36.23 35.09 37.79 38.49 36.35 38.61 36.95 35.51 37.05 38.53 37.05 37.95 38.60 37.76 38.29 40.13 47.00
54.38 59.50 62.80 61.13 55.72 54.44 53.51 51.37 50.63 47.90 46.52 45.19 44.97 44.38 43.10 41.19 40.88 40.17 39.38 38.28 37.39 36.24 34.45 34.95 34.52 33.82 33.87 35.57 33.62 34.77 36.05 36.83 36.90 36.76 35.51 35.91 35.91 36.67 37.11 36.74 37.24 37.99 38.56
53.59 58.14 60.26 57.19 53.88 54.74 55.36 52.74 49.20 47.07 43.79 42.97 42.88 42.07 40.48 40.00 40.15 39.67 37.89 36.68 35.83 34.93 33.82 33.21 32.96 32.51 32.42 33.41 31.19 31.68 29.73 32.35 34.50 36.37 34.56 35.80 33.64 35.63 36.36 37.53 36.97 37.46 36.71
52.78 55.77 55.68 53.59 54.19 54.34 50.05 47.72 45.26 43.86 42.71 41.45 40.07 38.10 38.21 38.94 38.58 37.77 36.68 35.71 34.68 34.22 32.87 32.24 31.91 31.32 30.65 31.35 32.78 30.52 26.53 25.57 29.67 32.90 33.81 33.51 33.59 33.04 33.64 34.64 35.79 36.25 36.56
52.65 53.15 51.23 51.80 52.83 50.95 50.12 47.73 45.18 42.89 41.91 40.54 37.05 36.26 36.62 37.44 37.16 36.86 36.01 34.94 34.01 33.42 31.99 32.28 32.77 30.67 30.67 29.04 30.94 33.86 30.96 30.37 26.49 26.03 30.46 32.79 31.23 33.45 31.77 31.53 33.28 34.59 35.55
52.45 50.00 50.51 51.60 51.55 50.57 50.74 49.04 47.05 43.76 41.58 37.05 35.66 34.93 34.67 34.81 35.55 35.52 34.77 33.70 32.95 32.66 31.28 30.76 30.06 29.38 30.02 29.24 29.03 28.92 28.54 28.78 28.47 25.94 23.98 26.69 30.77 31.88 32.18 30.61 31.49 33.03 33.96
51.05 49.64 50.64 51.24 49.76 49.98 49.39 47.82 46.04 42.81 38.59 36.16 33.93 33.79 33.66 33.67 33.77 33.70 33.90 32.48 31.79 31.40 30.65 30.26 29.76 29.33 28.91 28.64 28.32 28.06 28.08 26.90 26.33 25.01 23.80 25.65 26.02 28.17 30.69 31.88 31.04 31.50 32.97

GFSSE_sfc_wetblb_003.txt.gz
Wetbulb
67.62 70.85 75.06 74.91 74.19 73.49 72.49 71.56 70.81 70.38 69.81 69.23 69.42 70.94 71.03 71.25 70.81 69.94 69.26 68.70 68.33 67.78 67.11 66.86 68.02 68.73 70.23 70.41 70.07 69.90 68.81 67.86 67.42 66.35 65.94 65.93 65.73 66.05 66.86 67.31 67.58 67.47 67.68
68.98 71.20 75.87 75.31 74.24 73.69 72.27 71.48 70.84 70.54 69.79 69.00 70.26 70.06 68.88 69.15 69.25 69.48 69.41 68.39 67.74 66.77 66.29 65.66 67.13 66.99 67.47 67.89 68.44 68.81 68.48 68.18 66.74 66.36 66.32 65.67 64.59 65.42 66.34 67.26 68.39 66.43 66.52
69.17 71.91 74.76 75.53 74.79 73.50 72.29 71.57 70.85 70.63 69.52 68.46 69.86 68.45 66.89 67.22 67.89 69.54 69.05 67.85 67.08 66.37 66.30 65.69 66.14 65.57 65.64 66.21 66.21 66.46 66.62 66.69 66.39 66.38 65.63 65.19 64.86 65.74 66.66 66.78 67.44 66.18 65.52
70.09 72.28 74.17 75.52 74.77 73.74 72.62 71.70 70.73 70.09 69.93 68.10 67.75 67.64 67.50 66.76 68.99 69.04 68.68 67.98 66.12 66.52 66.18 65.40 66.05 66.59 65.92 65.65 65.70 65.20 65.17 65.02 65.52 66.41 65.48 65.09 64.62 65.18 66.44 67.68 66.85 67.01 66.65
70.31 72.66 74.31 75.18 74.76 74.08 72.68 71.90 70.75 69.96 68.92 68.26 68.12 67.71 67.85 68.01 69.04 68.91 68.27 67.27 67.05 66.93 66.05 65.83 65.85 66.30 66.78 67.12 67.45 67.48 67.39 66.49 65.17 64.97 64.85 65.00 65.13 64.48 65.97 66.60 67.06 67.98 66.66
71.40 73.51 74.48 74.97 74.81 74.37 73.34 72.02 71.41 70.15 68.87 68.08 67.66 67.43 67.30 67.99 68.64 69.31 69.83 69.96 68.56 67.32 66.17 66.00 66.13 66.64 66.84 67.09 67.01 66.68 67.10 67.15 66.32 65.88 65.63 65.23 65.27 64.76 65.90 65.12 66.50 67.01 67.04
71.43 73.72 73.86 75.06 74.73 74.66 73.48 72.50 71.68 70.56 69.53 68.16 68.03 67.71 67.38 68.58 69.60 70.04 69.75 69.13 68.38 67.47 66.58 66.80 67.57 67.91 67.78 67.68 67.60 67.39 66.72 67.11 66.04 65.71 65.39 65.29 65.29 66.14 67.20 67.07 66.42 66.71 67.29
70.79 73.21 73.40 73.76 74.62 74.32 73.64 72.83 71.78 70.51 69.80 68.67 67.78 67.70 67.60 68.96 69.43 69.89 70.11 69.49 68.92 67.60 68.40 67.78 68.27 68.46 68.10 67.99 68.07 67.94 67.54 67.37 65.72 65.50 65.18 65.00 64.64 66.52 67.86 67.68 67.67 67.66 67.68
71.89 72.54 72.71 72.65 73.42 73.04 72.86 72.31 72.04 71.05 70.27 69.29 68.87 68.98 68.70 69.03 68.42 69.28 69.95 69.68 69.29 68.92 68.50 68.50 68.72 68.63 68.61 68.64 68.47 68.21 67.56 66.87 66.43 65.81 64.81 65.17 64.19 67.01 68.12 68.16 68.52 69.04 69.07
70.89 71.96 72.12 72.65 73.02 72.98 72.72 71.55 71.29 70.97 70.70 70.38 69.82 69.20 68.80 68.33 68.04 67.64 67.79 68.87 68.94 68.52 68.71 68.70 68.78 68.81 68.18 67.46 67.14 66.01 64.42 63.15 63.10 62.90 63.36 63.89 65.10 67.53 68.22 68.60 68.94 69.24 69.44
69.27 70.41 70.43 71.60 72.23 72.35 72.02 70.63 70.68 70.36 69.79 69.33 68.38 67.63 66.97 66.32 65.87 66.32 65.86 67.14 67.95 68.55 68.62 68.40 67.55 65.00 63.07 61.39 60.37 59.61 59.39 59.70 58.54 59.24 60.70 62.38 65.12 66.93 67.29 67.20 67.13 67.90 68.81
66.81 68.14 69.10 70.68 70.64 71.57 71.08 70.80 70.48 70.05 69.77 68.70 67.92 67.63 66.53 64.89 64.73 65.06 64.48 65.36 66.68 66.20 66.35 64.07 59.99 57.64 56.88 56.25 56.07 55.64 55.59 55.94 56.00 55.60 57.54 61.37 63.19 64.42 65.18 65.56 66.08 66.71 67.27
67.58 68.08 68.66 69.41 69.57 70.44 70.43 70.24 69.84 69.89 69.06 68.46 67.56 66.98 66.27 65.25 65.41 65.73 65.97 65.87 66.00 64.04 59.61 56.26 54.64 53.54 52.81 52.22 52.27 52.31 52.47 51.27 51.94 54.84 56.62 60.75 62.38 63.30 64.07 64.45 65.79 66.71 65.74
66.07 67.83 68.68 69.17 69.09 69.27 69.93 69.69 69.03 68.83 68.68 67.98 67.45 66.30 66.28 64.66 64.88 65.48 65.65 62.97 60.43 53.20 53.32 52.38 51.62 50.12 49.08 48.67 48.98 49.63 49.34 49.61 52.44 54.43 54.30 58.55 59.46 62.53 64.23 63.58 63.17 63.09 63.93
63.31 66.97 68.52 69.20 68.59 68.25 69.39 69.22 68.47 67.72 67.81 67.64 66.99 66.32 66.26 65.02 64.96 61.03 53.55 51.97 52.40 51.78 50.32 49.62 49.23 47.60 46.81 46.79 46.77 48.18 47.74 49.32 49.55 51.04 52.31 55.58 57.18 58.69 59.61 60.46 60.27 60.83 62.78
62.38 63.61 67.41 68.70 68.05 67.88 68.23 68.18 67.95 66.72 66.68 66.63 66.41 66.30 65.86 64.01 57.11 53.51 50.95 49.56 50.47 48.84 47.90 47.60 47.14 46.44 45.08 45.01 44.71 46.36 46.59 47.72 47.28 47.82 50.43 50.18 53.09 54.37 56.10 57.10 57.47 59.29 59.06
56.74 58.92 63.63 67.17 68.74 68.42 68.23 67.70 67.24 66.57 65.98 65.33 65.05 64.81 62.16 54.29 53.35 50.83 49.32 48.10 47.51 47.23 46.37 45.91 45.37 46.06 44.23 43.69 43.77 44.70 45.76 46.94 45.64 46.60 48.45 47.85 48.70 49.54 52.12 53.72 53.99 55.00 55.77
55.96 55.94 59.65 65.26 67.27 67.89 67.54 66.93 66.17 65.13 63.34 61.64 60.73 56.10 52.96 52.26 51.32 48.54 46.55 46.36 46.33 46.08 45.60 44.77 43.55 44.22 43.49 42.73 42.97 43.80 44.67 46.44 44.74 45.60 46.66 46.51 47.10 47.06 47.10 49.66 49.92 50.96 52.24
55.78 56.51 60.36 65.11 66.10 66.56 65.35 64.64 62.13 59.28 58.04 55.89 53.56 51.79 50.99 49.87 49.01 47.38 46.14 45.45 45.29 44.55 43.81 43.41 42.54 42.50 41.90 41.88 42.18 43.50 43.74 45.58 44.08 44.86 44.61 45.84 45.41 45.49 45.91 45.62 46.56 46.88 48.23
56.25 57.47 61.90 64.94 65.27 63.35 60.62 56.62 54.10 52.79 51.09 51.04 49.80 48.10 47.12 47.00 46.57 45.65 44.70 44.19 44.13 43.19 42.46 42.26 41.44 41.06 40.99 40.44 40.56 41.53 44.60 47.09 45.58 45.12 43.28 44.05 44.28 43.69 44.94 44.15 44.39 44.11 45.41
57.71 59.57 63.03 63.47 61.61 58.60 56.39 54.49 52.25 49.61 47.64 46.84 46.37 45.74 45.00 44.96 45.45 44.87 43.54 42.78 42.56 41.20 40.43 40.46 40.95 39.68 39.27 40.35 39.76 40.79 42.86 43.42 45.21 45.56 43.00 44.00 42.56 42.32 43.28 43.12 42.94 42.74 43.11
57.57 60.76 62.72 62.39 58.90 58.94 58.44 57.44 55.24 49.37 45.95 44.91 44.58 43.87 43.69 44.70 44.15 43.37 42.58 41.41 41.05 40.37 39.81 39.31 39.25 39.32 38.66 39.07 36.71 37.83 36.34 39.87 42.10 40.91 42.62 42.01 41.32 41.83 41.74 40.90 41.44 41.39 42.20
56.87 60.45 61.84 58.96 58.06 58.29 56.28 52.35 47.48 44.39 43.45 42.57 42.21 41.84 42.82 43.29 42.51 42.05 41.45 40.77 40.01 40.18 38.73 38.32 38.31 37.74 36.80 37.81 37.90 36.80 34.73 33.64 34.67 39.46 40.15 41.40 39.42 39.61 39.53 40.08 40.02 40.43 40.31
56.70 60.40 59.53 57.12 57.82 54.10 53.11 51.13 48.61 47.75 45.14 44.19 42.08 41.58 41.60 41.90 41.13 40.80 40.37 39.82 39.27 38.79 38.09 37.91 37.46 37.29 37.62 35.10 37.66 36.59 36.83 36.00 32.51 31.94 37.53 37.81 38.37 36.82 37.72 38.43 38.60 38.89 39.34
55.79 57.55 56.24 56.75 54.85 52.99 53.20 52.39 49.09 46.25 45.13 41.57 40.20 40.08 39.93 39.99 40.16 39.52 39.20 38.65 38.02 37.69 37.09 37.10 36.63 36.44 36.46 35.84 35.05 34.95 35.09 34.99 35.58 32.16 29.76 33.29 35.47 37.00 37.19 37.28 37.17 37.89 38.45
54.94 54.17 54.55 53.74 53.68 52.26 52.12 51.51 48.05 43.03 41.04 39.16 39.16 38.64 38.45 38.55 38.30 38.04 37.47 37.28 37.03 36.86 36.73 36.53 36.26 35.84 35.42 35.05 35.17 34.58 33.92 32.75 32.20 31.02 29.85 31.20 31.11 33.97 35.17 36.06 36.66 37.37 38.28

GFSSE_sfc_wetblb_006.txt.gz
Wetbulb
69.64 74.12 75.53 74.57 73.84 73.10 72.32 71.40 71.10 70.34 69.71 69.24 70.05 71.19 71.57 71.46 70.85 70.08 69.59 69.28 68.31 67.44 66.79 66.60 68.07 68.95 70.08 70.33 70.46 69.62 68.62 68.24 67.32 66.45 66.27 65.81 65.33 65.78 66.65 66.81 68.68 68.38 67.25
71.34 74.12 75.47 75.03 73.82 73.14 72.11 71.34 70.86 70.28 69.50 69.27 70.94 70.49 69.96 70.45 70.27 70.07 69.54 68.44 68.08 67.16 66.48 66.36 67.25 67.30 67.87 67.89 68.12 68.28 68.40 67.88 67.17 66.65 66.29 64.78 64.06 65.62 66.30 67.29 67.25 68.45 65.60
71.42 74.05 74.48 75.06 74.58 73.21 72.03 71.32 70.99 70.16 69.10 70.33 69.13 68.03 67.28 67.69 68.76 69.54 68.93 67.91 66.92 67.08 66.12 66.27 66.27 65.84 66.11 66.34 66.48 66.49 66.37 66.40 66.25 66.56 65.19 65.73 65.02 65.55 66.47 66.87 67.12 66.32 64.96
71.93 74.30 74.51 75.28 74.50 73.09 72.13 71.46 70.93 70.50 68.73 68.92 68.68 67.81 66.65 68.04 68.39 69.29 68.74 67.63 67.04 66.78 65.98 65.94 66.68 67.17 67.02 67.17 67.17 66.45 65.95 65.26 65.39 65.33 64.53 63.77 64.39 64.51 66.27 66.71 67.06 67.48 66.27
72.25 74.36 74.73 75.15 74.41 73.35 72.22 71.57 70.59 70.15 69.00 68.03 67.82 67.57 67.68 67.56 68.60 69.39 67.63 67.35 67.63 66.75 66.13 66.31 66.38 66.56 66.75 66.98 67.31 67.47 67.77 66.63 65.27 65.70 65.31 65.00 65.00 63.94 64.93 66.00 67.25 67.61 67.90
71.99 74.26 74.78 74.49 74.48 73.66 72.98 71.71 70.93 69.78 68.76 68.41 68.24 67.52 67.89 68.03 68.22 68.31 67.72 68.49 68.05 67.01 66.47 66.52 66.70 67.20 67.33 67.53 67.29 66.83 66.84 67.33 66.03 66.55 66.03 65.87 66.07 65.50 66.54 66.50 65.85 66.26 67.20
71.46 73.89 74.98 74.66 74.73 73.99 73.20 72.27 71.46 70.03 68.91 68.11 67.94 67.65 67.54 68.96 69.98 69.55 69.24 68.84 68.21 67.34 66.79 67.22 68.05 68.54 68.26 67.69 67.91 68.00 67.55 66.72 66.97 66.91 66.68 66.50 66.57 65.86 67.12 67.29 67.41 67.21 67.20
71.93 73.40 74.57 73.93 74.42 73.90 73.39 72.93 71.72 70.48 69.44 68.16 68.16 67.41 68.13 69.13 69.73 69.44 69.88 68.97 68.62 67.87 68.51 67.99 68.76 68.74 68.54 68.68 68.73 68.49 67.77 67.22 66.92 67.38 67.19 67.06 65.96 66.46 67.90 68.21 68.61 68.69 68.48
72.47 73.00 73.60 73.60 72.76 72.91 72.92 72.36 71.79 70.64 70.18 68.65 67.89 68.10 69.39 68.88 68.63 69.59 69.50 69.50 68.90 69.14 68.44 68.81 69.01 69.09 68.93 68.63 68.20 67.35 66.27 65.59 66.63 66.78 66.05 66.18 65.21 67.08 68.28 68.42 68.89 69.35 69.74
71.62 72.10 72.39 72.81 71.96 72.33 71.93 71.18 71.24 71.02 70.62 70.09 69.54 69.28 68.65 68.11 67.47 67.10 68.05 68.48 68.58 68.55 68.86 68.90 68.66 67.32 66.65 65.48 63.92 61.66 61.07 62.68 62.91 62.76 63.55 64.46 64.73 67.38 68.13 68.04 68.26 68.27 68.69
70.25 71.40 71.93 72.03 72.21 72.64 72.68 70.18 70.50 70.19 69.76 69.39 68.55 67.42 66.65 67.98 67.12 66.92 65.86 66.97 68.08 68.46 67.83 66.54 63.35 61.17 60.33 59.65 58.78 57.95 59.61 61.01 60.16 60.19 60.23 61.40 63.20 64.89 65.75 66.08 66.17 66.39 66.97
68.82 70.16 70.66 71.95 71.88 72.12 71.87 70.68 70.30 69.18 69.81 69.23 68.58 68.20 67.34 66.14 65.95 67.06 65.41 65.85 66.17 66.21 63.28 60.82 58.70 57.31 61.04 60.13 59.56 57.74 58.03 56.88 56.65 56.79 58.31 61.01 62.65 63.69 64.21 64.70 65.30 66.35 66.69
69.06 70.24 70.57 71.70 72.24 71.57 71.61 71.23 69.94 69.25 69.08 69.31 68.73 67.83 66.23 66.11 66.86 67.20 67.87 68.07 69.25 63.54 63.79 61.87 60.80 58.11 56.50 55.37 54.95 54.81 54.42 53.62 54.27 56.05 58.43 59.66 61.59 62.67 63.82 64.96 64.06 64.05 64.81
68.33 69.59 70.50 70.48 70.62 70.51 71.66 70.70 69.90 69.33 69.18 68.81 68.62 67.70 66.45 65.94 66.94 67.49 68.01 66.67 63.79 61.42 60.37 58.44 57.61 54.65 52.96 51.80 51.49 51.93 52.30 52.03 54.15 55.28 57.04 57.24 60.73 61.84 62.69 62.25 61.71 62.59 63.36
66.49 68.75 70.17 70.98 70.67 70.16 70.71 70.71 69.75 69.23 69.01 69.02 68.47 67.47 67.58 67.38 67.36 64.92 60.46 59.18 59.05 57.78 56.28 55.02 53.11 51.36 50.46 50.12 49.88 50.29 50.49 50.93 51.95 54.01 55.88 55.50 56.45 58.13 59.16 59.54 60.53 60.48 60.45
65.64 67.28 69.65 70.43 70.32 70.07 69.91 70.52 69.91 69.42 69.09 69.28 68.35 67.61 68.28 67.98 65.67 56.95 53.57 53.19 54.64 53.55 51.71 51.07 50.42 50.20 49.43 48.99 48.66 48.65 49.20 50.29 50.78 52.32 54.38 53.11 52.52 54.15 55.33 55.91 56.38 56.95 57.33
63.08 65.51 67.22 69.52 70.61 68.94 69.30 70.42 70.17 69.50 69.01 68.64 68.22 68.45 68.29 64.55 60.04 54.54 51.46 51.90 51.92 51.32 50.46 50.14 49.21 49.46 48.59 47.96 48.09 48.06 48.69 49.34 50.57 51.04 52.02 51.52 51.92 50.17 51.45 52.34 52.22 53.11 53.48
61.35 61.11 62.53 66.01 69.38 68.52 70.18 70.19 69.92 69.17 69.10 68.69 68.39 67.94 63.04 58.44 53.84 50.78 49.82 50.57 51.06 50.37 49.74 48.41 47.08 47.56 47.28 47.31 47.32 47.75 48.10 48.77 49.15 49.17 49.62 49.46 49.61 49.20 48.76 48.77 49.33 49.67 50.49
60.93 61.21 60.91 62.89 66.12 68.82 69.42 69.24 69.47 69.01 68.14 65.01 62.25 59.00 56.58 52.85 50.36 51.00 51.40 50.24 49.65 48.60 47.63 46.84 46.17 45.88 45.52 45.79 45.27 45.89 47.90 49.07 48.37 48.20 48.04 48.03 48.13 47.94 48.14 47.65 46.81 46.57 47.06
60.85 61.04 61.38 63.40 65.86 67.58 67.65 67.29 67.19 65.24 61.73 58.86 57.38 55.85 52.06 50.90 51.61 51.67 50.40 48.99 48.61 47.60 46.45 46.25 45.33 45.33 44.36 44.17 43.85 45.00 49.47 50.86 49.09 50.20 48.53 46.70 46.97 46.22 46.90 46.49 45.92 46.48 45.87
60.70 61.19 61.87 63.58 66.23 65.70 64.77 61.42 58.18 57.08 55.22 52.86 51.11 49.58 48.18 48.66 49.58 50.77 49.20 48.13 47.69 46.28 45.26 44.86 44.99 43.64 43.32 43.71 43.81 45.42 47.06 47.14 48.86 48.68 46.04 46.85 45.63 45.30 45.35 44.93 45.03 44.95 44.92
59.99 61.79 62.94 64.62 64.76 65.24 62.57 63.17 62.38 59.45 55.23 52.39 46.40 45.81 46.21 47.57 48.87 49.49 48.47 47.02 46.42 45.41 44.69 44.22 43.83 43.46 42.89 42.84 40.69 42.48 41.49 44.26 45.95 45.09 46.68 44.06 44.48 44.07 43.96 43.62 43.85 43.61 43.81
59.36 61.39 63.43 64.70 64.49 64.20 62.31 62.46 59.76 54.14 47.97 44.89 43.35 43.29 44.42 46.28 47.72 47.81 46.95 45.99 45.49 45.27 43.62 43.16 42.81 41.80 40.90 42.31 41.57 40.31 39.27 39.25 39.09 44.38 43.35 44.42 42.95 42.65 42.58 42.89 42.67 42.57 42.59
58.74 61.67 64.08 64.10 63.65 62.68 60.87 57.00 54.52 55.56 51.12 48.38 43.89 43.09 44.15 45.82 46.73 46.19 45.53 45.25 44.46 44.18 43.20 42.06 41.89 41.52 41.62 39.94 42.46 40.41 40.35 39.20 36.79 36.62 42.21 41.98 41.65 41.00 41.62 41.67 41.55 41.44 41.72
58.62 61.25 63.92 62.21 62.68 61.35 57.39 57.69 59.14 57.41 55.52 46.83 42.74 42.69 43.39 45.72 45.59 44.80 44.47 43.93 43.16 42.89 42.29 41.84 41.26 41.27 41.47 40.61 39.61 39.18 39.43 39.40 39.06 36.59 34.48 38.17 40.45 41.21 41.12 40.37 40.19 40.74 41.09
58.50 61.16 61.80 61.49 61.41 58.37 56.88 58.81 60.00 53.88 46.85 41.42 42.31 41.47 43.24 44.48 43.79 43.35 43.04 43.03 42.64 42.11 41.65 41.45 41.21 40.34 40.92 40.27 39.94 39.04 37.79 36.83 36.62 35.88 34.85 35.99 36.00 38.26 39.49 39.67 39.52 39.62 40.13

GFSSE_sfc_wetblb_009.txt.gz
Wetbulb
70.64 73.84 75.33 74.80 73.64 72.85 72.09 71.41 71.02 70.12 69.47 69.61 71.15 71.41 71.73 71.61 70.80 70.40 70.06 69.17 67.91 67.46 66.85 67.67 68.80 69.44 70.01 70.58 70.56 69.93 69.29 68.98 67.86 67.30 66.46 65.10 64.94 66.41 67.24 67.30 68.57 68.40 68.59
72.27 74.47 75.14 74.70 73.45 72.80 71.85 71.28 70.59 69.81 69.16 69.80 71.00 71.09 71.34 70.95 70.81 70.39 69.21 68.72 67.61 67.10 66.78 67.39 67.60 67.62 67.94 68.16 67.97 68.00 68.28 67.93 67.35 67.05 66.36 65.88 65.03 66.58 67.20 67.13 67.95 68.33 66.08
72.86 73.73 73.76 74.70 74.22 73.14 71.82 71.18 70.56 69.53 70.09 70.30 68.77 68.08 68.33 69.02 69.86 69.46 68.16 67.51 67.55 66.63 66.83 67.30 67.12 66.83 67.02 67.23 67.04 66.52 66.43 66.15 66.82 66.33 65.85 65.42 64.77 65.30 66.80 66.99 67.21 66.87 65.93
73.02 73.54 73.46 74.78 74.20 73.18 71.88 71.34 70.70 69.10 69.89 69.49 68.80 67.76 68.14 68.75 69.70 69.20 68.22 67.60 67.22 66.42 66.27 66.80 67.15 67.33 67.43 67.70 67.95 67.84 67.57 66.11 65.10 65.84 64.68 62.82 63.71 65.23 65.06 66.66 67.55 67.09 67.29
72.80 73.94 73.75 74.90 74.17 73.27 72.19 71.25 70.89 69.65 68.16 68.33 67.96 68.02 68.06 68.56 69.40 68.89 67.90 68.03 67.37 66.51 66.76 66.96 67.12 67.20 67.40 67.42 67.32 66.45 67.86 67.40 66.26 66.62 65.83 65.82 64.98 66.25 65.61 65.33 65.78 67.10 67.97
72.64 74.23 73.65 74.38 74.13 73.45 72.87 71.33 70.60 69.56 68.30 68.25 68.35 68.44 68.62 68.37 68.49 68.68 67.98 68.51 67.69 67.07 67.20 67.24 67.38 67.62 68.02 67.69 67.67 67.52 67.13 66.77 66.61 66.25 65.84 66.10 66.01 66.70 66.91 67.35 67.09 66.55 66.51
72.00 74.71 73.96 74.44 74.11 73.50 73.09 72.29 71.14 69.66 68.76 68.44 68.11 67.78 68.84 69.63 69.54 69.60 69.19 68.82 67.96 67.58 67.57 67.57 68.58 69.14 68.44 68.11 68.64 68.28 67.48 66.88 66.86 67.19 66.79 66.91 67.01 66.75 67.61 67.66 67.32 67.93 67.98
71.73 73.91 73.49 73.71 73.74 73.45 73.06 72.63 71.63 69.97 69.10 68.25 68.32 67.99 69.35 69.15 70.08 70.02 69.89 69.00 68.44 68.69 68.19 68.40 69.06 68.98 69.01 69.09 68.85 68.16 67.43 67.14 66.18 66.83 66.95 66.58 66.23 66.63 67.83 67.99 68.71 68.82 68.87
71.87 72.79 73.75 73.44 72.97 72.67 72.61 72.34 71.61 70.67 69.73 68.53 68.48 68.38 69.48 68.56 69.39 69.94 69.70 69.49 69.06 68.66 68.69 69.23 69.25 68.92 68.39 67.76 66.56 64.88 64.08 64.65 64.17 63.96 63.74 64.40 65.37 66.88 67.95 67.92 68.54 68.82 68.90
71.27 71.92 73.15 73.47 73.15 72.24 71.66 71.23 70.78 70.83 70.43 69.64 69.63 69.59 68.89 68.36 67.78 69.54 69.81 69.09 68.58 68.70 68.91 68.02 66.86 66.35 64.77 62.71 61.02 60.19 61.44 62.91 62.12 61.66 61.65 61.39 63.23 65.13 66.54 66.79 66.72 66.72 67.03
70.06 71.16 71.81 71.96 71.64 72.43 72.13 69.95 70.19 70.35 69.59 69.45 68.67 67.77 66.63 67.28 67.14 66.72 66.65 67.80 68.48 67.82 66.93 64.24 62.18 59.91 59.95 60.68 58.85 58.34 59.44 59.37 58.41 58.56 58.95 61.77 62.44 63.68 64.28 64.98 65.45 65.98 66.87
68.54 69.87 70.97 71.30 71.12 71.60 71.57 70.42 69.69 69.02 69.20 67.87 67.73 67.13 66.62 65.99 66.18 67.14 65.81 67.17 66.89 65.70 63.27 61.04 58.62 58.29 61.66 59.79 58.62 59.57 56.30 55.56 55.54 56.58 59.02 60.82 62.37 63.02 63.41 65.84 65.57 65.20 66.02
68.73 69.77 70.51 71.38 71.23 70.51 71.21 70.37 69.94 69.03 68.73 68.60 68.05 67.55 65.49 64.77 65.25 66.10 66.52 66.21 66.39 64.52 64.23 61.99 61.13 58.78 56.66 54.81 54.22 53.63 54.23 53.78 54.11 55.84 57.63 59.92 62.70 64.58 64.91 63.79 63.13 64.36 64.23
67.77 69.25 70.62 71.23 71.49 71.37 71.04 70.49 69.36 68.83 68.79 68.23 67.93 67.35 65.00 65.15 66.07 65.66 66.53 66.86 64.39 62.99 61.18 59.72 58.32 55.54 53.16 52.29 51.79 51.35 52.15 52.03 53.01 54.06 55.22 57.85 59.74 61.90 62.03 62.01 62.83 61.88 62.02
66.11 68.51 70.06 71.02 70.63 71.18 70.97 69.42 69.12 68.93 68.42 68.49 68.25 67.47 65.70 65.42 66.04 66.22 64.17 62.90 61.16 59.56 57.64 55.70 53.31 52.36 51.72 51.04 50.77 50.10 50.44 50.48 51.45 52.78 54.78 55.95 56.30 57.63 58.53 58.80 59.20 58.90 59.16
65.16 67.24 69.47 70.23 70.98 70.02 70.15 69.74 68.85 69.46 68.70 68.11 68.38 67.09 66.71 66.95 66.14 62.99 59.47 58.89 57.47 55.41 53.08 52.22 51.33 51.02 50.38 49.78 49.15 49.22 49.39 50.13 50.29 51.56 53.46 51.93 53.06 54.05 54.71 54.97 54.95 55.19 55.52
63.45 65.89 67.55 69.34 70.55 69.49 69.47 70.04 68.94 69.74 68.72 67.61 67.45 67.05 67.17 67.15 63.32 59.46 56.41 55.17 54.31 53.08 52.15 51.20 49.84 50.15 49.49 48.97 48.73 49.00 48.81 48.89 49.68 50.31 51.65 51.91 51.62 51.65 50.99 51.51 51.89 52.12 52.73
62.37 63.18 65.91 67.81 69.39 69.76 68.96 70.09 69.53 68.70 68.22 67.90 67.23 66.84 67.73 65.04 60.64 56.51 54.84 54.32 53.06 51.80 51.09 49.58 48.32 48.44 48.28 47.70 47.18 47.39 48.19 48.81 48.93 49.09 50.05 49.68 50.31 49.21 50.25 48.88 48.89 49.44 49.88
62.32 62.22 62.34 64.63 67.27 69.30 68.60 70.09 69.19 68.05 67.26 67.79 67.74 68.24 65.18 60.32 54.87 51.41 52.36 52.52 51.54 50.46 49.57 48.71 48.02 47.03 45.98 46.03 45.84 46.72 48.91 49.21 49.05 48.18 48.26 48.54 48.84 48.56 48.56 50.30 48.73 48.91 47.58
62.07 62.19 62.45 62.50 64.08 67.84 69.41 69.51 68.47 67.91 67.05 66.98 65.70 61.40 58.83 54.87 52.92 54.26 52.58 51.31 50.86 49.81 48.91 48.55 47.26 46.99 45.23 44.48 44.17 46.05 49.20 49.89 49.76 49.07 49.29 46.89 47.41 47.18 47.55 47.60 46.25 46.96 48.82
61.08 61.26 61.71 61.93 63.43 65.77 68.20 66.86 65.99 64.70 64.63 63.14 60.48 56.67 54.34 52.44 52.60 52.64 51.89 50.51 50.49 48.96 47.70 47.48 47.23 45.35 44.33 44.34 45.43 46.04 47.91 46.72 48.61 49.70 46.56 46.61 46.77 45.63 45.85 45.19 45.13 45.06 44.71
60.12 61.18 61.62 62.26 63.65 66.08 67.92 66.89 64.57 62.04 60.67 58.67 54.40 51.21 49.56 49.73 50.77 51.09 51.35 49.99 49.08 48.11 47.16 46.43 45.67 44.86 44.15 43.73 40.95 44.13 42.63 44.87 45.96 45.71 46.18 45.34 44.83 45.18 44.51 44.24 43.96 43.66 43.64
59.74 60.60 61.32 62.90 64.96 66.74 66.08 63.70 62.20 55.25 52.53 50.66 48.67 47.14 46.81 48.24 49.47 49.68 50.21 48.98 48.52 48.21 45.99 45.22 44.79 43.22 42.26 43.53 42.52 40.70 39.59 39.77 39.62 45.45 45.40 44.46 44.68 43.51 43.58 43.81 43.18 43.01 42.48
59.63 61.64 62.17 63.78 65.38 65.87 64.41 63.37 60.73 55.95 51.86 51.06 47.30 45.35 45.69 46.69 47.38 48.60 48.49 47.92 47.29 46.69 45.23 43.63 43.48 42.97 43.43 41.06 42.89 41.22 40.87 39.75 36.51 36.31 43.59 43.41 43.46 41.78 42.73 42.66 42.04 41.37 41.76
58.51 60.85 62.43 63.81 64.99 64.99 63.17 62.77 61.12 57.37 57.75 50.41 45.90 43.71 44.48 45.36 46.67 47.13 47.13 46.80 45.87 45.41 44.53 43.69 43.09 42.21 41.98 41.11 40.30 39.73 39.76 40.25 39.92 36.79 34.77 38.55 41.02 42.21 42.32 41.64 41.12 40.80 41.10
57.52 60.78 62.23 63.36 63.73 64.19 61.90 61.00 59.56 59.55 53.12 46.54 43.64 42.63 43.01 43.92 45.03 46.07 45.86 45.59 45.12 44.14 43.43 42.97 42.71 42.03 41.31 40.67 40.19 39.57 38.33 37.20 37.02 36.59 35.27 35.80 35.83 38.76 40.31 40.45 40.26 40.13 40.44

GFSSE_sfc_wetblb_012.txt.gz
Wetbulb
70.22 73.12 75.28 74.61 73.64 72.84 72.21 71.77 70.94 70.19 70.07 71.17 71.85 72.03 72.03 71.46 71.13 70.77 69.87 68.65 68.20 67.55 67.97 68.52 69.34 69.89 70.34 70.74 70.71 70.45 69.61 68.95 68.33 67.46 66.11 64.99 65.79 67.30 67.44 68.16 68.48 67.87 68.27
71.50 73.03 75.10 74.56 73.41 72.59 71.93 71.19 70.47 69.82 70.91 71.02 71.58 71.99 71.76 71.22 70.99 70.02 69.28 68.21 67.59 67.31 67.67 67.86 67.95 68.16 68.39 68.46 68.21 67.96 67.90 67.46 67.32 66.72 66.93 66.96 67.15 67.22 67.72 67.88 67.46 67.26 67.14
71.57 72.74 73.54 74.33 73.99 72.72 71.74 71.05 70.16 69.77 71.23 70.35 69.64 70.51 70.42 70.93 69.80 68.69 68.01 67.89 67.03 67.31 67.79 67.96 68.08 68.33 68.32 68.36 67.96 67.26 66.72 65.86 65.31 65.31 66.79 63.54 63.21 66.16 66.73 67.17 67.62 67.02 66.58
72.08 71.93 71.92 74.45 73.95 72.35 71.67 71.06 69.84 70.90 70.01 70.54 69.02 69.03 69.50 70.14 69.41 68.90 68.27 67.33 66.87 66.73 67.01 67.37 67.45 67.51 67.60 67.82 67.56 67.98 68.09 66.69 66.05 67.34 64.34 62.53 63.25 65.72 64.73 65.40 66.50 67.12 67.90
71.31 71.63 72.49 74.27 73.79 72.60 71.79 71.29 69.82 69.56 70.11 69.47 69.76 69.13 69.47 70.00 69.74 68.94 68.77 67.73 66.87 67.07 67.28 67.60 67.73 67.82 68.06 67.80 67.57 67.23 67.48 67.14 67.83 66.75 63.07 61.65 61.15 66.63 66.89 66.57 65.95 66.23 66.81
71.14 71.71 73.43 73.90 73.68 73.11 72.40 71.38 70.80 68.84 68.71 68.86 69.23 69.45 69.35 69.35 69.25 68.61 68.91 68.17 67.42 67.47 67.68 68.14 68.49 68.54 68.02 67.96 68.50 68.13 67.59 67.01 68.01 63.04 62.80 64.24 63.99 67.44 67.32 67.28 66.84 67.08 66.79
70.72 71.50 72.83 74.16 73.78 73.36 72.67 72.00 70.61 69.17 68.91 69.18 68.91 69.27 70.16 69.99 69.33 68.83 69.36 68.55 67.95 67.96 68.23 68.57 69.33 69.02 68.95 69.12 68.83 68.16 67.49 67.45 65.17 64.12 63.61 63.65 64.67 67.43 67.54 67.34 67.51 68.42 68.49
71.23 71.58 72.34 73.30 73.47 73.19 72.91 72.34 71.42 70.00 69.01 68.92 68.85 69.07 69.71 69.64 69.73 70.34 69.58 68.94 68.52 68.83 68.34 69.35 69.53 69.54 69.20 68.70 68.00 67.09 66.42 66.42 63.69 62.23 61.60 62.71 66.21 67.01 67.61 67.60 68.21 69.08 69.03
72.21 71.75 71.43 71.54 71.92 72.39 72.27 71.94 71.42 70.70 69.62 69.22 69.89 69.89 69.41 69.39 70.82 70.65 69.79 69.38 69.50 68.56 69.25 69.23 68.72 68.40 67.77 66.44 64.24 62.31 62.82 63.52 60.18 58.36 60.54 59.39 64.90 65.41 66.80 67.18 67.21 67.23 67.24
68.93 71.52 70.98 71.03 70.92 70.34 70.70 71.26 70.76 70.43 69.95 69.73 69.74 69.96 68.60 68.08 70.16 70.46 70.04 69.61 68.77 69.04 68.52 67.30 66.66 65.64 64.18 62.08 60.07 60.41 61.28 61.73 56.86 55.25 57.70 59.09 62.78 63.70 64.49 65.08 65.58 66.07 66.52
67.90 70.27 71.32 71.10 70.54 70.42 69.87 69.60 70.11 70.16 69.24 69.01 69.07 68.16 67.11 64.82 65.47 67.55 67.35 68.35 68.58 68.35 66.36 64.47 62.11 60.64 62.15 62.34 61.68 60.32 60.47 51.71 50.52 52.37 56.48 61.87 62.07 63.25 63.77 65.92 66.58 66.49 67.15
65.39 66.99 70.03 71.33 70.40 70.47 70.57 68.28 67.46 68.27 66.73 66.23 66.10 65.39 64.48 63.15 63.94 64.98 65.76 67.16 67.91 66.26 64.89 62.59 60.69 62.66 59.79 53.71 53.33 55.83 50.05 49.16 49.05 51.28 56.18 61.69 62.74 64.01 65.86 64.77 64.98 65.77 65.41
65.52 66.36 67.31 67.70 69.76 70.26 69.53 68.00 67.54 67.26 66.56 65.56 64.78 64.10 62.69 62.79 62.89 63.54 63.89 64.45 63.74 62.94 59.59 59.45 57.35 53.25 50.10 48.78 48.32 47.27 47.98 47.65 46.75 52.72 57.68 61.52 62.90 64.35 63.51 63.71 63.47 63.12 63.79
64.85 66.14 67.35 68.07 68.80 69.30 69.67 68.74 68.45 66.36 66.19 65.03 64.72 64.15 60.42 61.06 61.27 61.94 63.48 64.80 61.76 59.76 55.70 53.80 51.52 48.66 47.68 46.96 46.08 45.40 45.67 45.64 46.00 50.80 55.61 59.39 60.22 61.40 61.65 61.66 60.90 60.83 60.97
63.53 65.61 67.48 67.50 68.00 68.16 69.24 68.52 67.09 65.43 65.95 65.17 64.62 63.54 61.62 61.99 61.77 61.81 60.01 58.63 55.36 52.99 50.89 48.37 47.36 46.91 45.95 45.71 44.90 44.43 44.39 44.25 44.62 48.01 50.85 57.49 57.28 57.72 58.09 58.01 57.94 57.61 57.38
60.57 64.68 67.83 67.94 67.92 68.26 68.64 68.31 67.17 65.92 66.35 66.37 66.12 64.11 62.45 62.61 62.45 57.16 55.16 53.94 50.92 49.00 47.69 46.54 44.90 44.72 44.11 43.74 44.04 43.67 43.27 43.95 44.53 45.48 47.98 50.29 54.68 54.01 54.23 54.55 54.55 54.67 54.94
58.59 63.12 65.50 67.84 68.69 67.71 67.60 67.59 67.71 66.77 67.12 64.91 66.01 64.72 63.17 63.33 59.95 55.44 53.12 50.62 48.54 48.00 46.86 45.24 44.17 44.50 43.68 44.34 42.30 43.35 43.12 42.57 43.61 45.17 45.63 46.80 49.10 53.31 51.99 51.83 51.81 52.05 52.42
57.74 60.31 64.10 68.14 68.57 68.04 68.24 68.32 67.82 67.57 66.70 65.31 66.07 64.51 65.02 61.64 56.49 52.99 51.15 48.92 47.77 46.70 45.33 43.71 42.84 42.72 41.83 41.11 40.03 40.50 41.27 42.93 43.34 43.74 44.48 44.30 43.94 45.80 48.97 49.75 49.72 50.33 50.09
57.80 57.78 61.11 65.40 67.22 67.59 67.58 68.27 68.50 67.35 66.50 66.51 65.43 65.25 62.87 56.42 52.06 49.35 49.61 47.85 46.73 45.32 44.08 43.94 42.29 41.20 39.44 39.40 40.39 39.73 42.76 43.16 42.94 45.07 42.98 43.72 43.56 42.69 42.74 48.37 49.11 49.31 49.10
56.58 57.57 57.95 60.31 64.73 67.63 66.65 67.58 67.13 65.18 66.11 66.24 64.74 63.20 56.42 51.84 49.59 49.48 49.76 46.72 46.20 44.51 43.42 42.74 41.25 41.14 39.13 38.74 41.88 42.50 41.85 42.86 42.53 42.48 41.81 43.05 41.63 41.50 41.07 40.53 40.08 41.55 47.70
55.01 56.68 57.40 57.56 59.73 66.32 65.98 65.61 66.11 63.72 63.59 63.23 60.22 57.32 52.52 50.04 50.29 48.52 48.67 46.19 45.45 43.30 42.03 42.18 41.44 39.83 38.53 38.48 38.38 39.43 40.15 41.42 42.76 43.20 40.27 39.95 40.61 40.11 39.96 39.71 39.35 39.07 39.51
54.37 54.95 56.57 57.11 57.87 60.55 66.46 66.19 65.62 64.43 61.90 58.24 55.27 50.34 49.21 48.75 49.01 49.62 48.42 45.42 43.78 42.74 41.73 40.67 39.66 39.37 38.47 37.92 35.12 36.30 35.01 38.37 39.22 40.09 39.68 40.14 38.44 39.29 39.56 40.00 38.78 38.40 37.29
54.70 54.40 56.39 56.97 58.51 60.26 66.02 65.27 60.27 55.48 53.92 51.09 48.60 45.14 45.78 47.08 47.70 49.12 47.35 46.32 43.50 42.56 40.44 39.36 38.79 37.90 36.88 37.35 36.66 35.16 32.49 31.89 32.94 37.47 38.06 38.18 38.21 36.46 37.16 38.50 38.64 38.15 37.30
54.81 55.54 55.56 56.88 58.50 62.87 64.94 61.25 58.34 56.75 52.22 48.97 47.14 47.95 43.98 46.30 47.34 47.59 45.32 45.73 42.56 41.77 39.37 38.47 39.56 37.51 37.31 35.34 36.86 38.57 35.06 33.93 30.62 29.89 35.39 36.38 36.87 37.41 36.11 36.38 36.68 36.67 36.71
50.23 54.74 56.09 56.98 59.74 63.98 63.18 62.02 57.09 53.96 53.36 46.86 45.57 44.97 45.09 45.93 46.36 45.43 46.00 44.41 41.54 40.39 38.70 38.32 37.75 36.88 36.68 35.72 34.92 34.31 33.95 34.03 33.41 30.83 28.68 31.60 34.56 35.92 36.38 35.65 35.38 35.43 36.42
49.73 50.90 55.29 56.77 60.58 63.22 62.06 61.97 58.08 55.37 49.69 44.50 43.79 43.23 44.16 44.60 44.87 45.03 44.99 43.09 40.14 39.15 38.53 38.10 37.58 37.02 36.21 35.62 35.23 34.63 33.83 32.35 31.43 30.46 28.70 29.01 29.68 32.72 33.90 35.90 34.73 34.40 35.00

GFSSE_sfc_wetblb_015.txt.gz
Wetbulb
69.78 72.70 75.41 74.39 73.50 72.85 72.41 71.73 70.93 70.80 72.21 72.57 72.65 72.59 72.24 71.77 71.22 70.23 69.36 68.60 67.97 68.53 68.64 69.50 69.98 70.94 71.14 71.08 70.77 70.12 69.55 68.94 68.04 66.61 65.85 65.47 66.77 67.68 67.69 68.23 68.57 67.99 68.24
71.39 73.18 74.92 74.48 73.20 72.52 71.73 70.98 70.19 70.51 72.13 71.53 72.10 72.03 71.69 71.48 70.62 69.61 68.84 67.88 67.87 67.87 68.06 68.62 69.07 69.54 69.38 68.78 68.38 68.01 67.32 66.86 65.93 65.43 66.26 65.98 67.74 67.57 68.18 68.04 67.89 66.27 67.02
71.87 73.11 72.95 74.25 73.61 72.29 71.39 70.52 70.17 70.92 71.92 71.82 72.24 72.06 71.69 70.48 69.76 68.61 67.93 67.15 67.76 67.92 68.23 68.53 68.81 68.69 68.57 68.38 68.25 67.92 67.20 66.12 65.13 65.22 66.67 62.54 62.80 66.10 66.87 67.49 67.20 66.85 66.51
72.13 72.66 72.10 74.10 73.40 71.92 71.30 70.31 71.48 71.34 70.25 70.59 70.46 70.73 70.67 69.65 68.78 68.24 67.36 67.11 67.16 67.35 67.58 67.57 67.58 67.55 67.70 67.49 67.70 68.43 67.73 66.64 66.65 67.72 63.92 62.59 63.21 65.78 64.83 65.15 65.76 67.05 67.68
71.45 71.91 72.57 73.94 73.34 72.04 71.25 70.22 71.53 70.32 70.36 70.59 70.97 70.43 70.57 69.70 69.32 69.21 67.68 67.27 67.33 67.61 68.10 68.16 68.12 68.13 67.76 67.78 67.57 67.21 66.76 66.33 67.40 65.99 61.93 60.31 62.90 66.60 67.05 66.82 65.84 65.54 66.03
70.14 70.68 73.21 73.67 73.37 72.86 72.18 71.01 70.09 70.65 69.28 69.60 70.29 70.25 70.85 70.09 69.52 69.46 68.37 67.62 67.73 67.93 68.35 68.89 68.71 68.20 68.14 68.57 68.48 68.04 67.35 67.42 67.67 63.19 61.03 65.25 63.85 67.43 67.42 66.93 66.24 66.39 67.06
69.63 71.23 72.45 73.86 73.57 73.06 72.67 71.97 70.29 69.75 69.58 69.86 69.84 70.01 70.12 69.96 69.67 69.65 68.83 68.27 68.17 68.41 68.30 69.41 69.22 69.14 69.26 68.99 68.56 67.90 67.43 67.29 63.71 61.37 63.80 63.32 64.45 67.45 67.07 66.67 66.86 68.75 68.31
69.96 70.99 71.51 72.90 73.31 72.94 72.64 72.00 70.82 70.61 70.14 69.58 70.21 70.39 70.13 70.08 69.97 70.07 69.24 68.81 69.08 68.18 69.29 69.54 69.57 69.55 69.09 68.29 67.13 65.83 65.06 65.03 61.52 58.70 60.76 61.14 66.11 66.15 66.69 66.24 67.85 67.87 68.13
70.81 70.60 70.73 71.39 71.90 72.13 71.97 71.39 70.82 70.60 70.46 69.87 70.47 70.25 69.81 70.55 71.33 70.42 69.52 69.36 69.16 68.78 69.50 69.12 68.85 68.46 67.59 65.57 62.65 61.11 62.67 62.92 56.95 57.21 59.22 58.44 64.90 63.65 64.31 64.98 65.62 65.92 65.91
69.96 70.50 70.21 70.16 70.49 70.44 70.53 70.90 70.37 70.10 69.82 70.21 70.40 69.60 68.36 69.40 70.65 70.88 70.10 70.09 68.93 69.26 68.48 67.98 67.41 66.24 64.32 61.65 60.24 61.46 61.67 58.49 50.87 56.33 57.24 59.07 63.42 63.31 63.89 64.39 65.19 66.64 67.14
69.61 69.64 69.80 69.49 69.51 69.49 69.19 69.42 69.97 69.61 69.10 69.11 69.32 67.83 66.43 65.08 67.82 67.47 67.68 68.52 69.15 68.60 67.12 65.36 63.60 62.56 62.88 62.62 61.56 61.19 57.12 48.06 48.93 54.92 56.18 63.31 62.30 62.02 66.79 65.94 66.46 66.86 66.49
68.00 68.89 69.61 69.29 69.11 69.17 69.84 68.08 67.29 67.69 66.19 66.43 66.53 65.87 64.74 62.97 64.61 66.42 66.27 67.34 68.63 67.42 66.11 64.09 62.26 61.64 57.01 51.26 49.08 52.26 47.50 46.59 48.17 54.13 57.44 64.04 65.26 66.12 64.51 65.44 64.94 64.56 65.33
64.31 68.80 69.73 69.70 69.28 69.10 68.59 67.48 66.03 65.77 64.77 64.57 64.65 64.43 62.67 62.39 63.23 63.35 63.77 64.48 63.77 63.60 59.98 58.89 55.67 50.66 46.79 46.04 45.54 44.16 45.65 45.15 49.42 53.84 59.21 62.79 63.58 63.82 63.82 63.06 62.91 62.96 62.82
63.86 65.61 68.45 70.53 69.17 69.09 67.96 67.30 66.26 66.10 64.87 63.58 63.55 63.59 59.96 60.18 61.38 61.41 62.10 62.54 61.88 60.36 53.06 50.23 46.55 45.66 45.16 44.61 43.59 43.36 43.71 43.51 47.61 51.46 57.16 61.42 61.02 61.49 61.59 61.05 60.11 59.60 59.49
63.22 64.95 65.56 68.36 69.54 68.64 67.59 67.57 67.51 66.75 65.64 64.72 63.95 62.62 60.00 59.93 59.60 60.51 61.95 60.81 52.60 49.45 46.92 45.67 44.85 44.10 43.16 43.08 42.69 42.21 42.65 42.55 45.36 49.35 51.50 58.80 58.42 57.75 57.68 57.29 57.02 56.90 56.74
62.66 64.64 66.22 66.89 68.51 68.29 67.63 67.26 67.24 66.14 65.64 64.24 63.74 61.18 60.49 61.43 60.00 56.99 54.83 50.39 47.70 46.55 45.43 43.97 42.72 42.40 41.76 41.75 41.84 41.43 40.80 42.68 42.79 46.71 47.34 51.58 55.20 54.21 54.31 54.47 54.17 54.18 54.72
56.70 64.60 66.36 66.48 67.43 66.67 67.54 67.51 66.92 66.27 65.66 65.26 65.41 62.45 61.24 61.27 56.56 53.74 50.35 47.28 46.15 45.32 44.25 42.92 42.54 42.12 41.32 41.74 39.53 40.13 41.06 40.39 41.90 45.02 45.58 46.33 48.58 54.35 52.49 52.39 52.27 52.22 52.86
55.08 61.06 66.73 68.00 67.55 66.82 66.37 66.81 67.09 66.84 64.85 65.52 65.48 64.43 61.81 59.22 55.94 52.26 48.89 46.76 45.87 44.72 43.24 41.93 41.34 40.55 39.10 38.51 37.51 38.42 40.15 41.42 41.32 41.32 43.33 43.63 43.33 45.70 48.39 50.37 50.29 50.82 51.37
54.42 55.70 64.49 67.14 67.21 67.43 66.04 66.74 66.25 66.54 64.81 65.51 65.07 63.75 60.23 57.13 54.75 51.51 47.92 45.60 44.75 43.51 42.53 42.80 40.35 39.27 37.24 37.30 39.00 38.38 41.14 41.67 41.03 43.18 40.73 41.35 41.96 40.99 40.46 47.66 48.55 48.41 48.95
53.82 54.60 58.73 66.12 67.28 67.20 66.95 66.42 65.85 65.93 65.79 65.42 64.41 62.97 56.94 53.71 50.20 49.32 46.46 44.94 44.37 42.93 41.71 40.96 39.46 38.55 37.09 36.39 40.66 41.04 39.81 41.87 40.80 41.15 39.50 42.12 40.07 39.67 38.96 39.13 38.83 40.15 47.06
51.73 51.91 54.12 61.01 66.49 66.48 65.64 65.28 65.20 64.51 64.79 63.73 62.85 56.93 52.42 50.76 49.83 47.49 45.89 44.59 43.61 41.98 40.70 40.64 39.45 37.61 36.94 36.18 36.28 37.69 39.15 39.61 41.03 41.81 38.43 37.91 38.68 38.83 38.69 38.13 37.75 36.99 37.80
52.20 52.53 53.01 57.07 63.89 66.17 66.09 65.97 65.70 62.76 61.38 60.75 56.51 53.75 52.29 50.54 47.95 46.92 45.96 44.28 42.97 41.19 39.79 38.79 38.94 37.81 36.80 35.76 34.40 35.20 33.82 37.12 37.29 38.02 37.75 38.43 36.23 37.33 38.15 38.84 37.45 36.63 35.49
50.08 51.50 53.58 54.23 61.21 65.80 65.93 64.37 58.08 55.44 52.95 51.70 51.05 49.32 49.17 49.33 47.17 46.66 45.56 45.03 42.29 42.01 38.90 37.79 37.32 37.47 35.74 35.85 34.56 34.74 31.93 31.92 31.42 35.77 35.98 36.01 35.41 35.14 35.20 36.31 37.03 36.84 36.01
47.96 51.33 52.64 54.59 55.23 63.62 65.02 63.69 61.31 60.21 56.65 52.18 49.66 48.49 47.97 47.92 45.91 46.07 45.42 45.66 42.65 40.29 38.19 37.21 38.21 36.37 36.71 34.43 35.72 36.90 33.62 32.90 30.18 29.73 33.66 34.14 34.54 35.29 33.88 34.58 34.64 35.18 35.41
46.93 49.39 51.61 53.23 55.04 60.48 64.81 62.85 61.45 59.19 50.79 48.24 47.37 46.17 47.20 47.22 46.92 46.71 45.92 43.98 41.16 38.75 38.69 37.18 36.20 35.91 35.93 35.01 34.34 33.52 32.98 32.80 31.58 29.83 27.93 30.50 32.52 33.77 33.86 33.40 33.79 33.27 34.22
45.78 45.97 50.04 52.05 54.50 62.95 62.82 61.70 61.28 55.24 46.70 46.06 45.94 44.96 45.87 46.08 46.04 45.63 44.75 42.12 41.90 40.46 39.66 36.76 36.15 35.69 35.16 34.68 34.34 33.81 33.05 31.68 30.66 29.51 27.65 27.27 27.97 30.72 32.16 33.09 32.55 31.70 32.43

GFSSE_sfc_wetblb_018.txt.gz
Wetbulb
69.59 72.24 74.89 73.61 73.16 72.79 72.37 72.11 72.36 72.96 73.07 73.01 73.13 73.00 72.44 71.62 70.59 69.79 68.87 68.32 68.84 68.62 69.27 70.86 71.72 72.05 71.59 71.37 70.83 70.05 69.12 68.32 66.76 65.79 65.96 66.79 67.27 67.61 67.87 68.33 68.06 67.63 68.10
70.85 72.81 74.63 73.84 73.08 72.54 71.62 70.98 71.22 72.52 73.12 72.61 72.51 72.26 71.82 71.08 69.90 69.24 68.25 68.14 67.89 67.72 68.65 69.48 70.37 70.20 69.75 69.41 68.67 67.73 66.57 65.67 65.25 65.37 65.56 65.99 67.30 67.54 67.95 67.45 67.66 65.58 66.23
71.63 72.89 72.82 73.99 73.19 71.61 70.98 70.22 70.73 71.35 71.60 72.48 71.96 71.80 71.60 70.48 69.26 68.20 67.38 67.72 67.77 67.95 68.54 69.49 69.58 69.26 68.74 68.35 68.05 67.68 66.87 65.80 65.77 65.48 65.72 61.49 62.14 65.82 66.81 67.20 66.82 66.57 66.35
71.96 72.21 71.79 73.80 72.54 71.49 70.44 70.67 71.52 71.31 72.06 72.27 72.18 71.68 70.35 69.20 68.19 67.31 67.12 67.52 67.46 67.46 67.22 67.31 67.41 67.54 67.48 67.69 68.25 68.00 66.91 66.75 66.82 67.26 62.04 62.03 62.70 65.32 64.64 65.20 65.76 66.84 67.03
71.40 71.56 71.91 73.46 72.33 71.37 70.44 71.93 70.93 70.13 70.54 71.36 71.88 71.55 69.53 68.75 68.19 67.42 67.22 67.09 67.24 67.65 67.93 67.97 67.77 67.42 67.52 67.52 67.20 66.71 66.46 66.58 67.62 64.76 60.64 60.39 61.69 66.27 66.79 66.54 65.54 65.35 65.73
70.50 70.81 72.66 73.28 72.68 72.13 71.56 71.98 70.66 69.47 69.57 70.63 70.95 71.56 70.45 69.45 69.31 67.91 67.33 67.30 67.82 68.23 68.57 68.65 68.26 68.04 68.41 68.53 68.20 67.68 67.55 67.42 66.08 61.51 60.36 62.17 63.30 67.06 67.03 66.75 66.15 66.29 67.08
69.59 70.96 71.87 73.49 72.58 71.73 71.36 72.06 71.43 70.08 69.64 69.81 70.07 70.51 70.28 69.81 69.68 68.79 67.93 67.76 67.85 68.12 69.14 69.41 68.86 68.99 69.05 68.66 68.01 67.34 66.68 65.68 60.36 61.30 61.72 63.06 63.94 66.76 66.55 66.04 66.07 68.76 68.49
69.29 71.09 71.47 72.81 72.94 72.52 71.56 70.90 71.24 70.80 70.25 70.22 70.44 70.51 70.29 69.97 69.87 69.45 68.58 68.32 68.57 68.20 69.13 69.22 69.46 69.44 68.76 67.64 66.12 64.35 63.05 63.79 58.69 60.05 59.89 59.94 65.25 65.33 66.33 66.54 67.08 67.09 66.98
69.94 70.53 70.72 71.18 71.60 71.97 71.87 70.67 70.42 70.83 70.73 70.92 71.12 70.94 70.82 70.87 70.75 70.09 69.02 69.10 68.23 69.00 69.37 69.32 69.14 68.51 67.08 64.53 61.73 61.29 62.58 62.10 55.29 57.22 58.30 57.62 64.76 63.00 63.78 64.33 64.81 65.35 66.29
69.18 69.52 69.60 70.27 70.56 70.26 70.08 70.45 69.90 70.23 70.13 70.31 70.64 69.91 68.89 69.51 70.57 70.59 69.63 69.85 68.60 69.12 68.54 68.26 67.62 66.16 63.75 61.56 61.10 62.43 58.51 56.72 54.31 55.58 56.62 57.66 62.81 62.44 64.60 65.25 66.19 67.09 67.92
68.02 68.41 68.95 69.15 69.40 69.51 69.01 68.91 69.68 69.62 69.37 69.53 69.24 67.56 66.40 66.85 68.11 68.25 67.87 68.55 69.32 68.63 67.50 66.10 64.36 62.71 62.71 61.52 60.66 58.66 53.55 46.68 52.74 54.27 55.71 63.85 63.40 66.45 66.20 66.79 66.54 66.80 66.49
66.21 67.57 68.06 68.74 68.82 68.92 69.37 68.09 66.90 66.95 66.26 66.51 66.61 65.06 63.17 64.65 65.93 67.01 66.25 67.52 68.86 67.91 66.69 64.22 62.29 60.91 54.13 48.10 46.40 50.41 45.21 46.66 52.45 55.31 57.89 65.42 65.79 65.37 65.65 64.86 64.75 64.97 64.45
67.64 67.56 68.17 68.31 68.31 68.32 68.25 67.57 66.56 65.24 64.37 65.40 64.97 64.31 63.04 62.40 63.72 64.16 64.20 64.62 64.07 63.81 59.81 56.97 51.41 47.44 44.58 44.22 43.61 43.03 43.78 47.29 51.46 54.57 60.82 64.25 63.79 64.24 63.68 62.74 62.45 61.80 61.62
67.03 67.93 68.28 68.26 67.84 67.99 67.95 66.90 66.31 65.32 64.09 63.90 64.59 63.84 61.62 60.55 61.46 61.51 62.00 62.05 61.21 59.11 53.88 49.52 44.95 44.09 43.40 42.34 41.58 41.54 41.74 45.22 49.63 52.79 58.24 62.25 61.85 61.99 61.33 60.01 59.19 58.46 58.23
63.53 67.64 68.34 68.68 68.08 68.08 66.85 66.44 65.82 65.16 64.30 63.43 63.01 63.05 60.40 60.60 61.56 60.67 60.94 61.40 58.99 53.51 46.03 44.27 43.51 42.75 41.61 41.54 41.22 40.97 40.68 43.69 47.10 50.33 52.79 59.51 58.89 58.08 57.63 57.18 56.64 56.21 56.24
61.19 63.95 68.13 68.57 68.52 68.20 67.11 66.05 65.23 65.45 64.75 63.69 63.12 62.30 60.05 60.73 60.24 59.99 59.01 54.84 47.55 45.58 44.11 42.93 42.08 41.30 40.38 40.37 40.22 39.73 39.83 41.69 46.23 46.61 49.02 51.55 56.49 55.17 54.60 54.26 54.20 54.13 54.78
54.43 63.73 64.27 68.12 68.33 67.72 67.11 66.33 66.19 65.91 65.46 64.05 63.56 61.81 59.98 60.13 59.13 55.81 52.08 46.78 45.18 43.87 42.84 42.34 41.60 40.58 39.82 40.02 38.04 38.73 39.96 39.05 44.08 44.63 45.85 45.95 49.24 54.73 52.59 52.46 53.06 52.93 53.43
53.48 58.91 64.33 67.68 67.93 67.33 67.03 66.69 66.05 65.27 64.93 63.91 64.04 62.55 60.21 59.77 55.35 51.16 47.55 45.49 44.52 43.27 42.43 41.53 40.60 38.95 37.90 37.28 36.39 37.06 39.46 39.79 40.93 43.11 43.91 42.83 43.89 43.75 48.41 50.71 50.21 50.57 51.52
52.48 55.21 62.78 65.31 66.35 67.14 67.09 66.70 65.57 65.32 64.29 64.45 65.11 63.63 59.90 57.75 54.12 50.44 47.47 45.33 43.92 42.81 42.01 41.87 39.15 38.21 36.16 36.18 37.99 37.85 39.94 39.70 39.57 41.83 39.97 39.80 41.00 39.67 39.67 48.13 47.99 48.14 48.74
53.32 52.33 60.34 65.14 66.03 66.25 66.11 65.97 64.33 64.00 63.99 64.34 64.93 63.27 58.85 56.50 52.81 49.48 46.38 44.41 43.46 42.33 41.19 40.20 38.40 37.02 35.90 35.45 40.46 39.75 37.98 39.47 38.94 38.28 38.61 40.26 38.40 38.02 37.52 37.96 37.35 40.34 46.90
49.93 49.77 53.39 63.10 65.35 65.88 64.91 64.37 63.66 63.28 63.43 63.15 64.14 60.72 57.03 54.00 51.63 47.68 45.78 44.37 43.00 42.16 40.46 39.47 38.08 36.66 35.72 34.84 36.21 37.29 37.82 38.01 39.07 38.04 37.06 36.94 37.24 37.04 36.96 36.97 36.51 35.85 36.69
50.03 50.23 49.56 56.42 64.75 65.57 65.67 65.58 64.42 63.98 62.15 62.89 58.82 55.81 55.54 53.65 50.47 48.20 46.69 43.69 42.28 40.73 39.66 39.17 38.59 36.84 35.72 34.25 34.40 34.80 33.65 36.37 36.29 36.66 35.88 36.70 34.87 35.97 36.64 37.05 35.86 35.52 34.34
46.83 48.45 50.28 51.49 61.61 65.77 65.78 63.65 57.92 55.80 54.84 52.94 54.46 53.61 52.34 51.41 49.66 48.49 46.59 43.65 41.48 40.33 38.80 37.91 37.83 37.34 35.07 34.55 33.69 34.72 31.66 32.13 31.07 34.36 34.48 34.28 34.14 33.81 33.86 34.77 35.08 35.14 34.62
46.05 47.13 49.16 51.39 56.73 65.24 64.88 63.40 60.86 60.68 58.92 54.30 54.74 51.79 50.66 50.07 48.32 47.18 45.90 43.81 42.16 41.69 39.95 37.11 37.88 36.59 36.08 34.17 34.59 35.73 32.75 32.51 30.18 30.14 32.91 33.19 33.24 33.89 32.30 32.85 33.14 33.41 33.04
45.61 45.22 47.30 49.94 52.65 63.73 64.37 63.54 62.17 61.04 60.66 51.81 50.32 50.48 49.21 47.70 47.59 46.84 45.92 44.37 42.81 40.40 39.50 37.26 36.23 35.90 35.50 34.59 33.95 33.03 32.31 31.87 30.70 29.55 28.57 30.34 32.10 32.47 32.67 32.30 31.81 31.04 31.96
44.03 44.46 44.61 47.10 49.92 56.89 63.49 63.04 62.25 60.61 50.17 48.94 48.30 47.01 46.73 46.31 46.27 46.57 46.07 45.45 43.25 41.06 39.66 38.23 37.80 37.54 34.66 34.23 33.78 33.37 32.76 31.53 30.34 29.35 27.92 27.41 28.00 30.41 31.26 31.44 30.66 30.08 30.75

GFSSE_sfc_wetblb_021.txt.gz
Wetbulb
68.32 71.16 74.31 73.32 73.38 73.11 73.04 73.03 73.48 73.51 73.88 73.56 73.23 73.00 72.23 71.27 70.37 69.61 68.71 68.86 68.96 69.09 69.61 71.31 71.34 71.08 70.74 70.72 70.55 69.55 68.59 67.06 65.91 66.71 66.92 67.52 67.82 67.89 68.67 68.31 67.63 66.97 67.50
70.30 72.03 74.13 73.16 72.83 72.75 72.54 72.62 73.52 73.69 73.77 73.32 73.08 72.77 71.80 70.68 69.91 68.94 68.42 68.50 68.20 68.41 69.38 71.01 71.00 71.23 70.89 69.87 68.69 67.28 65.96 65.21 65.87 65.91 65.51 66.43 67.25 67.53 67.65 67.72 67.56 65.31 65.96
70.79 72.28 72.32 73.67 73.13 72.24 71.66 71.69 72.47 72.75 73.16 73.22 72.53 71.98 71.24 70.07 69.29 68.18 67.94 67.55 67.63 67.96 69.69 70.03 69.58 69.30 68.78 68.28 67.61 66.91 65.72 66.21 66.28 65.99 65.41 60.98 61.50 66.16 66.81 67.03 66.73 66.35 66.39
71.36 71.88 71.46 73.64 72.39 71.23 70.55 70.49 71.50 72.11 72.32 72.65 72.11 71.68 70.76 69.47 67.71 67.24 67.73 67.65 67.77 67.83 68.32 68.19 68.08 67.83 67.67 68.00 67.67 67.01 67.48 67.21 67.04 66.08 61.10 61.34 62.05 65.43 64.79 65.22 66.08 66.86 66.93
71.02 71.24 71.54 73.31 72.03 70.98 70.37 70.66 71.23 71.45 71.95 72.38 71.98 70.90 69.50 68.11 67.43 67.36 67.41 67.26 67.25 67.25 67.29 67.28 67.13 67.18 67.38 67.24 67.15 67.00 67.38 67.85 66.47 63.44 59.82 60.19 60.96 66.11 67.06 66.62 65.88 65.95 65.98
70.12 70.41 72.51 72.92 71.96 71.54 71.52 71.40 70.85 71.53 71.76 71.93 71.95 70.82 68.90 68.30 67.62 67.42 67.21 67.37 67.83 68.01 68.15 67.96 67.62 68.16 68.45 68.34 68.11 67.81 67.46 66.38 63.26 60.51 58.97 61.03 62.76 67.10 67.07 66.80 66.06 66.77 67.17
69.16 70.47 71.42 72.95 71.97 71.00 72.29 71.64 70.82 70.43 70.52 70.95 70.87 70.01 69.45 69.32 68.27 67.54 67.38 67.63 67.99 68.16 69.14 68.53 68.51 68.74 68.71 68.29 67.40 66.36 65.05 63.20 60.97 60.28 62.28 62.48 63.30 66.45 66.48 65.86 66.97 68.41 68.79
69.49 70.68 71.04 72.00 72.18 71.49 72.14 71.62 71.09 70.74 70.42 70.61 71.33 71.02 69.99 69.65 69.20 68.37 67.79 67.85 67.92 68.17 69.08 68.97 69.26 69.08 68.17 66.32 64.04 62.84 62.80 61.77 60.77 60.06 59.32 58.48 63.80 64.55 65.56 66.41 66.43 66.65 67.16
70.12 70.19 70.26 70.70 70.99 71.01 70.91 71.29 70.78 70.70 70.55 70.83 71.19 71.42 70.74 70.47 70.15 69.08 68.53 68.44 68.05 68.80 69.24 69.45 69.11 68.12 65.62 61.80 61.41 61.60 61.70 61.10 55.90 56.13 57.55 56.97 64.30 63.20 63.86 64.10 64.50 65.23 67.62
68.95 69.76 69.55 69.69 70.34 69.84 69.00 69.90 70.16 70.16 70.33 70.72 70.65 70.09 69.43 69.48 70.10 70.04 69.34 69.54 68.13 69.22 68.65 68.37 67.75 65.80 62.77 61.26 60.92 58.92 58.86 58.86 53.75 55.04 55.26 56.00 62.46 62.66 65.80 66.13 67.14 67.71 67.24
67.72 67.93 68.52 69.02 69.30 69.26 68.64 67.93 69.36 69.78 69.36 69.49 69.22 68.04 67.05 66.75 67.91 67.93 67.47 68.54 69.00 68.85 68.02 67.06 64.99 63.07 61.31 59.59 58.47 56.25 52.46 51.16 52.51 54.10 55.82 62.28 64.28 66.21 67.16 66.69 67.06 66.34 65.65
66.66 67.01 68.11 68.49 68.55 68.41 69.02 67.00 66.24 67.04 66.52 66.66 66.41 64.54 63.78 65.41 66.43 67.06 66.22 67.39 69.04 68.42 67.10 64.47 61.87 58.21 51.24 45.36 44.71 49.15 44.49 50.00 53.01 55.20 56.57 66.16 65.15 66.16 65.50 65.21 64.61 64.01 63.65
66.91 67.30 67.91 68.19 68.30 68.03 67.65 67.09 65.96 64.86 64.25 64.94 64.88 63.46 61.86 64.19 64.56 64.84 64.60 65.27 64.51 63.67 59.37 54.69 48.33 45.38 43.33 43.15 42.33 42.44 44.37 50.21 52.12 55.23 60.90 64.71 64.02 63.76 63.31 62.41 62.08 61.70 61.12
66.25 67.07 67.84 68.18 67.88 67.76 67.68 66.89 65.96 64.84 63.64 63.28 64.08 63.43 61.26 60.81 61.97 62.38 62.67 62.29 61.32 58.39 54.76 48.39 43.73 42.69 41.92 41.06 40.45 40.81 42.75 48.76 50.97 53.47 57.89 62.62 62.54 62.03 60.98 59.83 59.13 58.51 58.17
66.03 66.99 67.56 67.85 67.61 67.57 66.68 66.61 65.64 64.77 64.06 63.85 63.27 63.12 61.60 59.99 60.77 60.90 60.84 60.72 59.60 53.71 47.24 43.67 42.42 41.82 40.75 40.57 39.95 40.36 41.72 46.56 48.59 51.42 53.16 59.42 59.69 58.48 57.92 57.17 56.67 56.45 56.81
62.73 66.54 67.35 67.72 67.79 67.53 66.96 66.09 65.53 65.07 64.15 63.32 63.13 63.01 61.27 60.38 60.32 60.14 59.65 59.52 55.26 48.09 43.77 42.44 41.61 40.96 39.64 39.49 38.80 38.97 39.78 45.38 46.52 48.47 48.63 51.42 57.45 55.75 55.05 54.68 54.90 54.90 55.44
56.25 63.29 66.99 67.61 68.00 67.31 66.98 66.08 65.47 64.97 64.40 62.85 62.53 62.36 61.63 60.03 59.73 59.56 58.17 53.30 47.10 43.62 42.31 41.58 40.71 39.75 39.10 38.97 37.18 38.07 38.53 41.42 43.98 45.75 45.28 46.19 48.61 54.83 53.44 54.26 53.20 53.24 54.38
52.41 55.13 64.09 68.46 67.87 67.52 66.95 65.83 65.69 65.28 64.55 63.52 62.79 62.64 60.97 59.76 59.24 56.12 52.84 47.57 43.99 42.37 41.96 41.36 40.02 38.21 37.20 36.62 35.89 36.41 38.46 39.02 42.78 43.25 43.09 42.68 42.97 42.57 49.35 50.67 50.42 50.67 51.07
51.35 52.66 60.13 65.17 67.25 67.45 66.64 66.12 65.97 65.34 64.61 64.05 63.45 62.69 59.96 59.41 56.37 53.83 50.31 45.27 43.11 42.11 41.57 41.59 38.62 37.70 35.53 35.93 37.44 38.24 38.74 37.92 39.92 43.28 39.87 40.03 40.69 39.65 40.60 47.88 48.31 48.27 48.77
50.86 51.17 56.93 63.78 66.12 67.01 66.36 66.26 65.50 64.35 64.19 63.82 63.46 62.42 59.41 58.08 53.48 50.62 46.40 44.27 43.21 42.03 40.83 39.96 37.85 36.00 35.28 35.51 40.10 38.64 37.91 37.42 37.70 37.68 37.90 39.38 37.47 36.68 36.55 36.70 36.27 39.08 47.01
48.28 48.57 50.98 61.22 64.61 65.73 65.50 64.82 64.00 62.93 62.67 62.98 63.46 60.65 59.71 56.94 52.29 50.23 46.88 44.78 44.65 44.02 40.85 39.37 37.26 35.87 34.70 34.56 36.78 36.87 36.90 36.88 37.27 35.92 36.16 35.61 36.12 35.78 36.08 35.84 35.36 34.88 35.39
48.51 48.60 47.99 53.71 63.01 64.90 65.27 65.24 63.44 64.17 63.29 63.01 61.64 59.44 58.91 56.14 53.28 50.66 48.11 45.92 45.06 43.04 39.59 38.64 37.97 35.94 34.72 33.54 34.34 34.67 33.82 35.73 35.24 35.72 34.64 35.68 34.03 35.36 35.51 35.68 34.52 34.28 33.45
45.42 46.77 48.47 49.21 56.50 64.33 65.27 63.07 58.14 57.71 55.84 55.67 55.61 54.68 56.69 56.38 52.82 51.67 48.96 46.91 44.70 43.93 40.77 38.92 37.93 37.24 34.53 33.45 33.34 35.08 31.37 31.76 31.64 33.42 33.35 33.55 33.28 32.76 32.83 34.30 33.83 33.51 32.76
44.39 45.46 46.67 48.40 50.56 60.63 64.73 62.27 60.42 60.21 59.44 60.68 57.63 56.37 52.10 53.97 52.24 50.78 48.29 46.36 44.69 43.53 41.16 38.44 38.33 36.85 36.04 33.89 33.55 34.72 32.05 32.74 30.40 29.68 32.05 32.60 32.59 33.01 31.69 32.19 31.83 32.30 32.33
44.23 43.73 44.39 46.21 49.01 53.97 63.55 63.82 62.31 60.71 61.37 57.39 53.04 53.16 52.60 50.54 50.60 49.70 47.21 45.47 44.40 43.83 42.10 38.92 36.48 36.58 35.87 34.83 33.87 32.57 31.72 31.34 30.21 29.66 28.56 29.72 31.53 31.74 31.92 31.25 30.72 30.61 31.53
42.72 43.00 42.93 43.67 45.81 51.74 61.74 63.21 61.96 60.93 53.24 52.83 52.26 52.09 49.93 48.57 47.65 47.31 46.74 45.93 44.79 43.38 42.16 40.04 38.37 38.27 35.81 36.22 35.23 33.13 32.72 31.79 30.44 29.37 27.82 27.09 27.35 29.58 30.50 30.44 29.64 29.41 29.98

GFSSE_sfc_wetblb_024.txt.gz
Wetbulb
65.76 70.37 74.87 74.17 73.89 73.30 73.34 73.28 73.65 74.32 74.41 73.96 73.57 72.52 71.77 71.48 70.55 69.63 69.43 69.66 69.37 69.73 71.18 70.27 71.01 70.95 70.64 70.42 69.92 68.94 67.67 66.45 67.20 67.23 67.95 68.41 68.45 68.90 68.93 68.19 68.43 66.83 66.84
68.69 71.46 74.27 74.17 73.20 72.97 72.86 72.98 73.70 73.86 74.07 73.82 73.16 72.70 71.59 70.80 69.87 69.07 69.14 68.75 68.62 68.87 71.01 71.48 71.49 71.31 70.81 69.52 68.11 66.61 65.79 66.67 66.52 66.13 66.30 66.40 67.86 67.97 68.20 67.92 67.57 64.90 66.82
70.16 71.48 71.68 73.43 73.02 72.44 72.78 72.99 73.41 73.37 73.63 73.54 73.01 72.16 71.05 70.19 69.18 68.64 67.98 67.66 67.70 68.99 70.92 71.02 69.72 69.53 69.05 68.38 67.32 66.06 66.75 67.09 66.98 66.18 65.15 60.97 61.88 65.99 67.01 67.07 67.11 66.84 67.00
70.97 71.22 70.79 73.43 72.98 72.35 72.00 72.43 72.74 72.89 73.01 72.87 72.24 71.47 70.50 69.56 67.94 67.89 67.87 68.10 67.86 69.46 69.63 69.14 68.45 68.24 68.14 67.72 67.10 67.51 67.61 67.79 66.99 64.83 60.87 60.92 62.11 66.92 65.92 65.64 66.24 66.14 66.71
70.49 70.75 71.14 73.41 72.42 71.33 71.02 71.48 72.11 72.54 72.48 72.69 72.35 71.09 69.75 67.89 67.61 68.09 67.88 67.70 67.50 67.52 67.51 67.33 67.35 67.39 67.47 67.33 67.37 67.76 68.24 67.48 65.71 62.28 59.64 59.94 61.94 66.52 67.57 67.12 66.44 66.56 66.29
69.27 69.63 72.33 72.87 71.86 71.55 71.43 71.40 71.08 71.25 72.07 72.28 72.00 70.30 68.48 67.85 67.77 67.76 67.61 67.71 67.94 67.94 67.92 67.64 68.22 68.64 68.66 68.43 68.14 67.84 66.80 65.15 63.22 59.19 58.56 61.42 62.65 67.33 67.09 67.05 66.24 68.45 67.30
68.57 70.02 71.13 72.71 71.59 71.05 71.98 71.96 71.94 72.05 72.61 71.74 70.47 69.52 68.57 68.00 67.90 67.68 67.77 68.13 68.42 68.82 68.74 68.53 68.99 69.08 68.73 67.68 66.51 65.47 64.42 64.95 60.25 60.79 61.68 62.13 62.38 66.47 67.03 66.55 67.76 68.23 68.30
69.24 70.32 70.63 71.63 71.80 71.70 72.29 71.47 71.17 71.47 71.44 71.55 71.37 70.20 69.46 68.70 67.98 67.65 67.77 68.04 68.26 69.15 69.07 69.11 69.40 68.87 66.98 64.19 63.23 63.23 63.42 63.56 60.85 59.27 58.07 57.15 63.12 64.44 64.83 65.57 66.06 66.65 68.01
69.91 69.76 69.51 69.75 70.24 71.41 71.36 70.99 70.61 70.91 71.03 71.14 71.47 70.98 70.39 70.17 69.01 68.14 67.99 68.00 67.84 68.73 68.91 69.49 69.05 67.11 62.76 62.31 62.10 62.64 62.84 60.91 54.78 55.58 56.97 56.33 64.37 63.59 64.10 64.08 64.64 66.86 68.03
69.47 69.41 69.06 68.76 69.19 68.31 69.08 70.60 70.17 70.27 70.28 70.50 70.61 70.55 69.43 69.45 69.77 69.25 69.05 69.02 67.83 69.30 69.00 68.59 67.59 64.46 62.22 61.42 60.05 59.89 60.61 58.41 53.09 53.50 54.09 55.50 63.33 66.70 67.66 67.77 67.65 67.21 66.75
68.52 68.43 68.00 68.00 68.43 67.98 67.13 68.04 69.65 69.62 69.32 69.32 69.13 68.24 67.50 66.25 67.25 67.43 67.16 68.31 68.75 68.64 68.21 67.28 65.27 62.99 60.01 58.50 57.79 55.94 55.03 51.24 52.21 54.24 56.01 63.53 66.39 67.18 67.50 67.06 66.66 66.01 65.25
66.17 67.44 67.94 68.15 68.17 68.11 68.66 65.99 65.86 67.09 66.55 66.49 66.48 65.32 64.19 64.63 65.71 66.65 65.79 67.36 68.92 68.38 67.07 64.55 61.56 56.30 49.85 43.92 44.67 49.06 48.53 51.24 53.29 54.83 57.58 66.02 65.98 65.83 65.38 64.67 64.13 63.52 63.20
66.54 67.12 67.88 68.65 67.86 67.83 67.72 65.81 65.06 65.04 64.77 65.09 65.18 63.58 62.20 64.47 64.75 64.87 64.74 65.15 64.71 62.81 56.76 51.21 45.91 43.77 42.19 42.27 41.80 42.06 48.89 50.98 52.85 55.08 60.90 65.32 63.74 63.11 63.09 62.33 61.44 61.13 60.82
65.28 66.29 67.37 68.56 67.80 67.27 66.70 66.23 65.28 64.90 64.01 63.98 64.34 63.08 60.73 62.38 63.60 64.90 63.47 62.93 61.81 58.54 53.42 45.15 42.75 41.53 40.99 40.36 40.29 40.99 47.35 49.90 51.60 53.35 58.40 63.08 62.66 61.87 60.91 59.84 59.47 59.06 58.86
65.00 66.61 66.78 67.82 68.11 67.59 66.16 66.11 65.04 64.58 64.19 64.14 63.92 63.22 61.33 60.91 61.80 62.16 61.81 61.25 59.71 54.29 49.66 43.28 41.75 41.06 40.34 39.85 39.42 40.54 46.30 47.89 49.59 51.73 52.76 59.85 60.51 59.18 58.49 57.71 57.45 57.55 57.47
65.52 66.06 66.65 67.04 68.12 67.75 66.77 65.99 65.04 64.65 64.02 63.39 63.53 63.57 61.97 60.47 61.51 61.17 60.29 59.72 58.03 49.90 44.32 42.29 41.00 40.36 39.25 38.68 38.33 39.05 43.44 46.14 48.16 48.23 48.12 52.42 58.08 56.57 55.98 56.26 55.80 56.18 56.67
60.12 66.36 66.48 67.02 67.15 67.11 66.92 66.07 65.36 65.16 64.09 62.93 62.93 62.97 62.71 60.54 60.11 60.26 59.87 58.11 54.97 45.45 42.18 40.85 39.94 39.28 38.51 38.37 36.80 37.79 40.23 43.60 45.35 45.41 45.41 45.77 47.41 55.38 55.57 54.40 53.80 54.74 53.88
51.40 57.82 65.55 67.65 67.60 66.99 66.96 66.42 65.78 65.06 64.25 63.13 62.13 62.29 62.51 61.10 59.92 59.03 58.56 56.29 47.69 42.53 41.78 40.74 39.52 38.03 36.87 36.55 35.55 36.84 37.28 41.74 42.62 42.90 42.61 42.38 41.48 42.90 49.26 51.29 51.12 51.32 51.97
50.55 51.22 56.79 65.81 67.00 67.00 67.10 66.70 65.49 65.11 64.39 63.64 62.31 61.67 61.36 60.43 59.81 58.61 57.75 51.65 43.79 41.78 41.30 41.10 38.53 37.75 35.61 35.64 36.88 37.99 37.16 38.67 41.22 43.11 39.74 40.21 40.44 39.45 39.32 47.84 48.96 48.94 49.16
49.46 49.82 51.19 59.99 66.30 66.84 67.04 66.56 65.97 65.50 64.43 64.10 63.19 62.35 60.65 60.20 58.57 57.07 53.17 47.35 43.42 41.66 40.53 39.74 37.74 35.74 35.39 35.99 39.84 38.20 36.64 36.53 37.50 38.32 37.15 38.88 36.15 35.99 35.71 35.85 35.61 38.40 46.58
47.90 47.79 49.22 54.25 61.39 65.77 66.58 65.31 64.46 64.17 64.32 62.98 63.56 62.79 60.33 59.70 56.60 54.31 50.74 45.44 43.10 42.76 42.01 39.89 36.78 35.77 34.75 35.38 36.62 36.18 35.84 35.94 35.79 35.10 35.57 34.95 35.14 35.15 35.15 34.86 34.55 34.19 34.79
46.85 47.13 47.13 49.92 59.13 64.43 65.48 65.52 63.62 64.87 64.54 64.04 63.50 62.18 61.11 58.26 55.65 52.96 50.38 47.39 45.13 44.02 42.46 40.67 37.75 35.52 34.13 34.11 34.90 34.41 34.17 35.44 34.38 34.66 33.77 35.13 33.55 34.48 34.66 34.36 33.41 33.05 32.42
43.62 45.48 47.03 47.56 53.27 62.24 64.87 64.69 59.19 58.67 57.67 58.74 58.63 59.00 59.27 58.08 54.44 54.25 52.00 48.77 46.45 45.84 43.25 41.61 38.44 37.24 34.10 33.03 33.35 35.45 31.09 32.09 31.92 32.58 32.49 33.08 32.80 32.11 32.19 33.06 32.87 32.46 32.10
43.09 43.68 45.45 47.04 48.22 56.88 62.79 63.46 62.92 61.43 60.38 60.96 61.51 61.02 57.17 57.08 54.86 53.26 52.06 49.53 47.68 46.44 44.32 42.60 40.71 37.45 35.92 33.40 32.86 34.17 31.60 33.14 31.56 29.66 31.51 31.73 31.83 32.26 31.08 31.39 31.24 31.43 31.62
42.44 42.31 42.78 44.24 45.98 49.14 61.32 63.43 62.29 61.58 61.56 59.12 59.78 59.24 57.00 55.51 54.16 53.63 51.92 49.48 47.36 45.81 45.10 42.80 40.53 39.03 36.71 34.69 33.74 32.03 31.21 30.71 29.85 29.81 28.41 29.69 30.96 31.47 31.21 30.68 30.17 29.96 30.51
42.34 43.40 42.65 42.38 43.79 46.30 52.08 62.00 61.83 60.95 59.37 54.66 53.23 55.38 54.38 53.09 52.17 51.64 49.85 47.70 48.04 46.94 43.85 42.84 42.22 40.94 38.26 36.73 35.24 35.56 32.98 32.33 30.53 29.43 28.08 27.30 28.27 29.48 29.96 29.96 29.25 29.08 29.33

GFSSE_sfc_wetblb_027.txt.gz
Wetbulb
68.69 73.38 75.30 74.75 74.52 74.58 74.70 74.80 75.07 75.32 75.07 74.50 74.00 73.27 72.61 71.69 70.78 70.26 70.34 69.87 69.85 70.48 70.48 70.83 71.23 70.74 70.53 69.85 69.45 68.28 67.42 67.82 67.95 68.61 68.77 69.38 69.21 69.13 68.78 68.89 68.14 67.48 66.75
69.96 73.39 74.76 74.80 74.39 74.42 74.15 74.45 74.70 74.72 74.63 74.11 73.21 72.88 71.66 70.95 70.02 69.83 69.70 69.19 69.26 70.88 71.57 71.58 71.34 70.89 70.37 68.84 67.47 66.77 67.40 67.33 66.89 66.91 66.58 67.19 68.80 68.54 68.49 67.90 67.24 66.61 68.01
71.02 73.03 72.68 74.44 74.20 73.75 73.29 73.68 73.92 74.32 74.53 74.21 73.05 72.18 71.09 70.34 69.56 69.29 68.52 68.22 68.48 71.06 71.29 70.92 70.51 69.93 69.07 67.93 66.79 67.29 67.65 67.51 66.76 66.12 65.39 66.23 66.00 66.60 67.62 67.23 67.51 67.03 67.74
72.07 72.07 71.65 73.69 73.21 73.03 73.11 73.27 73.69 74.02 73.91 73.72 72.55 71.69 70.76 69.68 68.79 68.09 68.16 68.05 70.34 70.52 70.31 69.75 68.95 68.66 68.02 67.48 67.72 67.93 68.17 67.68 66.13 64.87 65.28 66.57 67.51 67.86 66.67 66.02 65.85 65.80 66.92
71.66 71.60 71.52 73.19 73.12 72.85 72.57 72.70 73.48 73.75 73.88 73.12 72.34 71.13 70.01 68.15 68.34 68.30 68.49 68.37 68.53 68.85 68.68 68.07 67.66 67.78 67.64 67.74 68.02 68.56 68.09 67.02 65.41 64.73 65.54 67.10 68.23 68.13 67.59 67.13 66.71 66.83 66.69
71.38 71.62 72.33 73.08 72.70 72.46 72.41 72.50 72.73 73.02 72.97 72.76 72.51 70.54 68.38 68.06 68.46 68.26 67.89 67.78 67.99 67.97 67.70 67.97 68.69 68.88 68.70 68.35 68.20 67.48 66.41 65.72 64.38 64.75 65.25 67.25 67.80 67.01 67.01 65.96 68.52 69.53 67.96
70.94 71.53 71.74 72.86 71.91 71.36 71.88 72.05 71.91 72.35 72.61 72.66 71.25 69.55 68.37 68.22 68.19 68.02 68.16 68.40 68.57 68.48 68.53 68.99 69.28 69.10 67.98 66.75 66.02 65.67 66.03 64.56 65.15 66.05 66.56 66.80 66.21 66.23 67.10 67.19 67.52 68.00 69.16
70.74 71.54 71.48 71.73 71.85 71.82 72.20 72.23 72.61 72.60 73.27 71.81 71.27 69.80 68.50 68.34 68.06 68.04 68.40 68.74 68.90 69.62 69.12 69.33 69.49 67.57 64.65 63.97 64.14 64.28 65.53 64.44 65.21 65.43 64.19 63.64 64.39 64.15 64.61 64.81 65.80 68.16 68.49
71.35 71.26 71.28 71.02 70.62 71.29 71.52 71.25 71.52 72.09 72.44 71.76 71.21 70.65 70.11 69.53 68.30 68.00 68.17 68.43 68.70 69.31 69.31 69.59 67.95 63.80 63.13 62.95 63.45 63.91 62.89 60.98 62.64 61.86 60.87 62.46 64.90 63.46 64.38 64.60 66.27 68.29 67.73
70.68 71.12 70.87 70.80 70.17 71.02 70.52 70.27 70.28 70.65 71.05 71.27 70.73 69.95 69.21 69.07 69.22 68.78 68.87 68.84 68.08 70.01 69.46 68.47 65.84 63.27 62.34 61.24 61.71 62.71 60.76 58.79 59.59 59.69 61.76 63.42 65.69 68.10 68.59 67.90 67.63 67.19 66.53
69.41 70.06 70.65 70.31 69.95 70.49 70.34 69.46 69.64 69.72 69.55 69.43 69.43 68.46 68.14 69.35 69.11 68.48 67.39 68.00 69.04 68.89 68.40 67.10 64.72 62.43 59.70 59.29 57.96 58.29 57.03 58.50 59.75 62.38 65.15 64.37 67.13 67.70 67.57 66.84 66.35 65.55 64.67
66.57 67.82 69.07 70.36 69.81 69.31 69.43 69.85 69.42 68.94 69.09 69.19 69.36 69.85 69.27 69.36 69.64 68.54 66.76 67.27 68.98 68.31 67.30 64.59 60.62 56.68 52.49 51.79 52.97 55.35 57.52 58.83 59.97 63.61 65.16 66.80 66.23 66.14 65.43 64.43 64.01 63.62 63.01
66.59 67.49 68.85 69.42 69.85 69.43 68.60 68.58 68.89 68.59 68.76 68.89 69.02 68.84 68.32 68.10 68.73 69.02 68.47 68.68 68.68 63.88 61.46 56.14 52.66 51.31 50.85 50.64 50.77 54.74 56.72 58.63 61.49 62.69 64.26 65.30 63.64 63.19 63.28 62.28 61.62 61.43 61.12
66.15 66.72 68.05 68.72 68.77 69.78 69.88 68.05 67.66 67.85 67.98 67.89 68.51 68.00 66.54 67.09 67.87 68.41 67.89 68.34 67.31 64.68 58.53 53.78 51.02 49.34 48.80 48.44 49.27 52.94 55.67 58.66 60.61 61.64 62.95 63.40 62.96 62.02 61.21 60.32 60.00 60.04 59.84
66.57 66.62 67.57 68.10 67.94 68.55 69.01 68.75 67.36 67.31 67.32 67.53 67.64 67.45 65.91 66.58 66.84 67.20 66.08 67.11 65.96 62.75 58.10 51.81 49.76 48.94 48.34 47.52 48.11 51.93 54.68 57.00 58.57 59.30 60.68 60.57 61.50 59.92 59.06 58.58 58.58 58.67 58.21
67.15 67.98 68.55 68.52 68.24 68.24 68.25 68.32 67.66 66.94 67.30 67.14 67.09 67.08 65.83 65.62 67.19 66.70 65.22 65.68 64.81 61.35 56.23 51.64 49.45 48.78 47.87 47.45 47.05 50.70 53.46 55.65 56.68 56.33 57.32 57.74 58.94 58.14 57.19 56.79 57.07 57.65 57.23
63.46 67.74 68.04 68.54 68.76 67.77 67.70 68.17 67.84 67.58 66.44 66.33 66.39 66.68 66.26 64.67 65.69 66.39 65.61 64.74 64.11 57.95 52.56 48.84 47.57 47.22 46.72 45.68 46.21 47.97 51.75 53.75 54.19 53.53 53.89 54.12 54.86 56.90 56.44 55.13 55.90 54.59 54.86
55.39 60.37 67.07 68.61 68.25 67.91 67.41 67.74 67.66 67.53 67.14 66.31 66.01 65.98 66.00 65.26 64.29 64.92 64.80 64.42 62.45 54.04 50.09 48.53 47.34 46.23 45.99 45.85 45.32 46.03 49.31 51.34 51.65 51.52 51.08 50.82 51.25 51.70 52.70 52.32 52.20 52.56 52.45
54.25 54.69 56.52 66.48 68.33 67.82 67.69 67.72 67.30 67.33 66.98 67.14 65.92 65.38 65.31 65.00 64.27 63.72 63.81 63.85 58.89 52.46 49.07 47.88 46.07 46.46 44.90 44.19 44.41 45.87 45.74 49.40 50.00 48.74 48.88 48.02 49.10 48.91 49.50 50.05 49.96 49.76 49.56
53.22 53.33 54.33 58.00 65.88 68.35 68.27 67.35 66.70 66.32 66.28 66.95 65.87 65.07 64.51 64.38 63.91 63.24 62.61 61.59 55.71 51.20 48.31 47.13 46.02 43.94 44.71 44.53 44.20 44.51 44.90 46.63 48.09 48.09 47.04 45.83 45.61 44.77 44.59 44.50 45.60 45.77 46.92
51.18 51.47 52.26 53.55 58.10 66.45 66.24 65.91 65.26 64.35 65.18 65.15 65.67 65.48 63.98 63.79 63.03 62.75 61.74 58.97 53.88 51.13 48.63 47.40 44.75 43.66 42.74 44.97 44.81 43.87 43.82 44.32 44.56 45.45 45.12 44.50 43.18 43.26 43.31 43.49 44.02 43.94 43.42
49.08 50.21 50.82 51.64 53.95 61.04 65.87 66.40 66.15 65.19 65.55 65.72 65.03 65.02 64.58 63.61 62.31 61.87 60.28 56.88 52.71 50.34 47.45 45.85 43.27 42.19 42.90 44.21 44.45 44.53 42.18 42.74 42.84 42.33 43.02 42.64 42.45 42.44 42.01 41.49 41.68 41.54 41.98
46.49 47.59 48.99 50.85 52.23 56.95 63.35 66.19 64.22 62.90 62.29 63.93 63.45 63.56 63.56 63.61 61.83 61.53 59.88 57.02 52.57 50.74 47.84 46.04 43.20 43.06 42.16 41.94 42.48 45.01 40.17 42.07 41.54 41.10 40.72 41.38 41.11 41.28 41.44 40.87 40.15 39.87 40.67
45.89 46.45 46.93 48.41 50.46 54.18 63.16 64.65 63.95 62.06 61.28 62.98 63.67 63.79 63.18 63.07 61.41 60.45 58.89 57.39 54.42 51.46 49.71 46.25 44.80 43.77 43.43 41.67 39.15 39.39 39.98 42.07 41.22 38.24 39.64 39.81 40.13 39.92 40.44 40.22 39.72 39.09 39.26
45.74 47.86 47.04 46.60 47.70 50.83 58.00 64.66 64.25 62.72 63.60 64.22 63.67 63.40 62.55 60.90 61.01 59.25 58.21 56.15 54.13 51.14 51.02 49.16 45.33 44.27 43.24 42.07 42.19 37.91 38.34 38.78 38.50 40.57 38.26 38.07 38.28 39.59 39.84 39.66 39.27 38.64 37.84
47.88 48.43 49.12 48.76 47.11 48.00 49.87 59.52 63.57 63.05 62.53 61.82 61.46 61.82 60.38 59.62 59.42 57.72 56.51 55.78 54.67 52.31 51.23 49.27 47.18 45.88 43.35 41.60 40.02 40.11 40.06 39.54 38.13 38.16 38.08 37.37 39.03 38.45 38.99 38.76 38.02 37.71 37.28

GFSSE_sfc_wetblb_030.txt.gz
Wetbulb
71.74 74.31 75.56 75.56 75.28 75.30 75.27 75.42 75.40 75.46 75.36 74.79 74.47 73.90 72.93 71.86 71.30 70.95 70.50 70.03 70.29 71.08 70.52 71.18 71.00 71.12 70.37 69.78 68.60 68.03 68.14 68.43 68.79 69.16 69.12 69.86 69.48 69.11 69.03 68.02 67.55 67.36 67.36
73.06 74.28 74.30 75.07 75.56 75.34 75.39 75.48 75.64 75.35 75.09 74.41 73.84 73.20 72.21 71.01 70.43 70.45 69.54 69.43 70.70 71.45 71.37 71.51 71.43 70.66 69.65 68.14 67.50 67.83 67.69 67.27 67.24 67.07 67.88 68.63 69.38 68.61 68.26 67.51 67.89 68.06 68.20
73.07 73.62 72.83 74.36 74.27 74.50 74.86 74.47 74.79 74.90 74.85 73.87 73.17 72.33 71.52 70.38 70.02 69.72 68.76 68.73 71.57 71.83 71.86 71.32 70.51 69.70 68.50 67.48 67.62 67.81 67.56 67.01 66.42 66.08 66.01 66.56 65.97 67.05 67.39 67.76 67.48 67.43 68.53
73.11 73.51 73.34 73.91 73.98 74.20 73.69 73.78 74.31 74.84 74.37 73.85 72.58 71.59 70.66 69.93 69.16 68.37 68.22 70.36 71.01 70.89 70.51 69.82 69.25 68.37 67.71 67.90 68.03 68.02 67.91 66.63 65.94 64.96 66.99 67.84 67.82 67.82 66.91 66.41 66.06 66.15 66.79
73.07 73.12 73.08 73.54 73.63 73.05 73.62 72.91 73.51 74.35 74.28 73.47 72.27 71.14 69.99 68.78 68.43 68.62 68.64 69.53 69.72 69.49 69.02 68.28 67.98 67.82 67.90 67.97 68.42 68.30 67.57 66.71 65.01 66.22 67.78 68.60 68.73 67.60 67.66 66.62 67.03 67.11 66.85
72.64 72.74 72.29 73.15 73.08 72.90 73.14 72.94 73.33 74.44 73.72 72.43 72.09 70.42 68.40 68.65 68.60 68.52 68.33 68.44 68.57 68.30 68.13 68.66 68.89 68.80 68.51 68.34 67.85 67.22 66.43 65.73 65.56 67.17 67.88 67.53 67.86 67.31 66.70 68.78 68.91 69.33 69.12
71.99 72.47 71.99 73.22 72.82 72.29 72.24 72.45 73.04 73.75 73.48 72.32 71.18 69.19 68.58 68.78 68.51 68.15 68.06 68.20 68.24 68.08 68.63 69.16 69.27 68.44 67.31 66.42 66.28 65.87 66.34 64.62 67.37 67.29 67.78 66.77 66.67 66.27 66.67 66.76 67.42 69.04 68.91
71.85 72.16 72.05 71.97 72.29 71.96 72.16 72.25 72.19 72.95 73.47 72.57 71.12 69.18 68.76 68.67 68.43 68.37 68.61 69.05 68.93 68.93 69.14 69.77 68.57 66.00 64.68 64.65 64.79 66.18 65.40 66.14 66.84 67.20 66.13 65.13 64.54 64.06 64.39 64.81 66.70 68.72 68.16
72.34 71.09 71.76 71.81 71.16 71.36 71.92 72.30 72.37 72.40 73.18 71.71 70.97 70.13 69.74 69.44 68.58 68.61 68.94 69.05 69.89 69.41 69.52 68.95 65.23 63.86 63.90 63.70 64.12 64.48 63.18 61.89 65.50 64.66 62.85 63.39 64.57 63.98 64.42 64.87 68.32 67.93 67.41
72.10 72.05 71.78 71.31 70.45 70.33 71.31 70.80 71.30 72.20 71.71 71.03 70.59 70.11 69.06 68.66 68.90 68.77 69.17 69.02 68.79 69.71 69.46 67.08 64.13 63.18 62.30 62.54 63.95 62.72 60.88 61.12 61.89 61.85 62.42 63.94 67.08 68.83 68.33 67.94 67.48 66.99 66.39
70.10 71.35 71.81 70.81 70.36 70.55 70.87 69.93 69.94 70.17 70.45 70.18 69.60 68.29 68.13 68.45 68.40 67.96 67.46 68.15 69.75 69.48 68.44 66.26 64.02 62.04 60.81 59.66 59.76 58.97 58.10 60.71 61.17 62.63 63.94 65.36 67.62 67.79 67.34 66.74 66.01 65.40 64.42
67.70 69.31 70.98 71.06 70.27 70.43 70.13 70.29 69.41 68.99 69.85 70.41 70.54 69.67 69.01 68.54 68.47 67.94 66.41 67.38 68.98 68.76 67.71 65.60 63.28 58.56 57.32 58.04 56.99 56.73 59.27 59.86 61.24 63.78 65.55 67.36 66.57 66.05 65.27 64.66 63.99 63.47 63.02
67.79 68.80 69.11 71.04 70.87 70.26 70.09 70.33 70.08 69.26 68.87 69.24 69.84 70.27 69.60 69.58 70.32 69.76 68.54 68.26 68.21 65.65 65.95 62.83 58.52 58.31 56.68 56.20 55.84 57.58 58.68 59.53 61.07 62.36 64.71 65.52 64.71 64.32 63.52 62.74 62.22 61.88 61.53
67.02 67.71 68.79 69.61 70.58 70.70 70.65 69.89 70.23 69.07 68.70 68.70 68.86 69.64 69.98 69.29 69.21 69.36 69.29 68.82 68.49 67.07 65.01 62.20 59.49 56.90 54.89 54.33 54.59 56.02 57.12 58.91 60.60 61.48 63.07 63.80 63.40 62.23 61.50 61.21 61.05 60.74 60.23
67.22 67.71 68.40 69.34 69.41 69.96 70.77 70.82 70.16 69.47 68.33 68.32 68.93 69.28 69.30 68.67 68.14 68.68 68.39 68.90 68.42 67.81 65.19 61.60 58.46 55.93 54.69 53.63 53.40 54.95 56.30 58.02 59.29 60.62 62.13 61.32 62.35 60.42 59.64 59.57 59.64 58.98 58.72
69.23 69.90 69.68 69.06 69.30 69.81 70.06 71.06 70.71 69.98 69.22 68.46 68.45 68.82 69.06 68.48 68.03 68.30 68.16 67.57 67.77 67.51 65.58 61.52 58.10 56.22 55.17 53.82 52.37 54.45 55.93 57.60 58.18 58.71 60.02 59.55 60.00 59.38 58.06 57.67 58.26 58.19 57.62
64.21 67.07 70.22 70.96 71.11 70.22 69.58 71.00 70.86 70.77 69.61 68.94 68.70 68.59 68.39 68.06 67.80 68.04 67.33 66.80 66.65 67.38 64.83 60.74 57.22 55.54 54.03 52.54 51.92 53.44 55.19 56.64 57.03 57.17 57.72 57.64 56.44 58.26 57.44 56.81 57.11 55.60 55.76
59.87 60.72 65.20 69.18 70.84 70.31 69.07 69.39 70.17 70.86 70.24 69.52 69.33 69.29 68.53 67.78 67.28 67.54 67.21 66.12 67.18 66.89 63.02 58.86 56.25 54.22 53.57 52.10 51.34 51.79 53.79 55.22 55.64 55.55 55.43 55.40 55.30 55.46 54.27 54.32 53.71 53.82 53.00
59.17 59.59 60.10 63.70 68.16 69.71 69.82 69.33 68.81 69.20 70.37 70.36 69.85 69.40 69.01 68.29 67.45 66.62 66.72 67.25 67.28 65.38 60.72 58.11 55.47 54.68 52.64 51.43 50.54 50.66 51.97 53.35 53.98 53.31 53.21 53.10 53.71 53.60 53.05 51.10 51.51 50.62 50.19
58.49 58.86 59.49 60.30 62.24 66.72 69.47 68.50 68.31 67.91 68.07 69.98 69.61 69.41 69.21 68.58 67.81 66.94 66.13 66.13 66.53 63.89 60.04 57.21 55.09 53.32 52.88 51.32 47.82 48.62 49.72 52.09 53.05 52.42 51.97 51.15 51.63 51.36 50.77 50.05 49.99 48.79 47.87
55.99 56.98 57.23 57.94 58.90 61.40 65.29 66.78 66.30 65.57 66.49 66.36 67.27 69.05 69.06 68.60 67.95 66.78 66.85 65.65 65.73 62.76 60.56 57.56 55.15 51.10 49.70 50.51 49.08 48.39 48.24 49.24 50.70 51.67 51.27 50.36 49.46 49.02 48.22 47.93 48.20 47.82 46.63
53.40 54.46 55.22 55.99 56.97 58.38 61.55 65.23 66.95 66.89 66.67 66.92 66.41 66.52 67.44 68.24 67.85 66.90 66.27 65.51 64.89 62.56 61.35 57.61 53.43 51.02 51.27 50.12 49.67 49.25 45.96 46.07 47.87 49.48 49.94 48.93 48.42 47.87 46.96 46.77 46.70 46.22 46.33
51.32 52.38 52.74 53.72 54.71 56.34 58.28 62.72 65.90 67.40 67.06 65.98 65.43 65.66 65.49 67.38 67.51 66.99 66.10 65.93 64.21 62.41 60.83 57.40 53.31 51.43 48.40 48.41 50.50 50.04 45.78 45.63 45.96 46.97 47.02 47.67 47.08 46.52 46.57 46.11 45.37 44.81 44.81
53.30 53.66 53.29 52.49 52.99 54.18 56.35 58.85 62.17 63.64 63.08 64.38 65.07 66.03 65.66 65.17 65.61 66.32 65.41 65.07 63.42 61.35 59.66 57.10 54.32 52.67 51.85 47.39 47.23 46.79 46.49 48.85 45.39 42.39 44.66 45.22 46.00 45.18 45.90 45.16 44.43 43.94 44.16
54.15 54.42 54.75 55.03 53.67 53.34 54.65 57.54 61.42 62.53 63.41 64.01 64.78 65.44 65.50 65.52 64.20 64.66 64.86 64.37 62.60 60.57 60.27 58.16 54.75 52.21 51.64 51.38 47.50 44.58 43.64 44.01 44.89 45.29 43.35 41.68 43.63 44.18 45.07 44.79 44.20 43.62 42.95
54.92 55.00 54.98 54.16 54.89 55.13 53.67 54.85 58.63 61.68 62.88 63.16 63.96 64.13 63.97 63.52 62.66 62.99 62.70 63.02 62.67 61.08 59.87 58.50 55.95 53.17 50.98 51.30 47.89 44.72 44.21 42.35 41.84 42.06 42.98 43.51 42.55 42.84 43.63 43.66 43.27 42.96 42.87

GFSSE_sfc_wetblb_033.txt.gz
Wetbulb
72.73 73.81 76.14 75.95 75.30 75.06 75.21 75.45 75.36 75.41 75.31 74.82 74.60 73.85 72.91 72.06 71.55 71.16 70.42 70.31 70.87 70.41 71.34 71.28 71.60 70.96 70.27 69.22 69.01 68.76 68.79 68.82 69.08 69.72 69.81 70.11 69.42 69.14 68.30 67.65 69.43 67.49 68.63
73.78 73.89 75.01 75.77 75.91 75.37 75.52 75.57 75.70 75.48 75.17 75.12 74.32 73.40 72.34 71.26 70.89 70.12 69.68 69.92 71.45 71.16 71.62 71.60 71.08 70.14 68.88 68.55 68.51 68.08 67.73 67.55 67.36 67.86 69.35 69.19 69.55 68.50 68.06 67.73 68.60 67.96 68.07
73.29 73.49 72.81 74.95 75.17 75.95 75.71 75.39 75.58 75.18 74.95 74.14 73.24 72.37 71.48 70.59 70.53 69.38 68.91 71.41 72.10 72.10 71.90 71.37 70.36 69.16 68.11 68.04 67.95 67.72 67.28 66.71 66.31 65.88 67.73 65.75 65.72 67.37 67.55 67.37 67.48 68.34 68.37
73.31 72.77 72.55 74.33 74.29 74.90 74.89 74.43 74.95 74.93 74.16 73.33 72.47 71.66 70.40 70.17 69.50 68.48 69.32 71.43 71.54 71.22 70.65 69.84 68.79 68.00 68.05 68.04 68.02 67.93 67.00 66.21 64.88 65.77 66.81 67.33 67.49 68.14 68.05 67.65 66.70 66.56 67.07
72.88 72.94 72.94 73.73 73.69 73.61 73.26 73.92 74.74 74.71 73.74 73.48 72.16 71.11 70.14 69.11 68.50 68.55 70.58 70.62 70.15 69.57 68.94 68.36 68.10 68.11 68.08 68.48 68.48 68.18 67.32 65.39 65.26 66.63 67.75 68.33 68.06 67.53 67.64 68.95 68.68 67.36 68.64
72.65 73.29 72.34 73.22 73.24 72.74 72.80 73.04 73.88 74.36 73.56 72.43 71.56 70.26 68.97 68.81 68.98 69.00 69.33 69.19 68.98 68.71 68.71 68.80 68.75 68.68 68.58 68.34 67.89 67.14 66.63 65.12 66.01 67.21 67.37 66.74 66.94 67.54 68.67 68.62 69.83 70.02 70.09
71.87 72.96 71.89 73.13 72.88 72.66 72.47 72.53 73.31 74.29 72.86 71.82 70.82 68.81 68.94 68.92 68.71 68.43 68.64 68.63 68.27 68.42 69.12 69.34 69.00 68.12 67.00 66.82 66.47 66.95 65.87 65.22 66.66 67.11 66.64 65.96 65.49 65.91 66.22 67.05 69.09 69.21 68.84
71.55 72.10 71.51 71.94 72.73 72.37 72.11 72.06 72.62 73.71 73.01 71.97 70.33 68.82 68.94 68.82 68.43 68.29 68.34 68.34 68.42 68.90 69.36 69.44 67.59 65.65 65.07 65.34 66.10 66.47 65.29 65.85 66.20 65.93 64.73 64.58 65.41 64.60 64.86 65.26 68.84 68.46 67.96
72.05 71.67 71.26 71.21 71.32 71.56 71.88 71.94 71.81 72.85 72.90 71.85 70.64 70.06 69.86 69.36 68.62 68.64 69.08 69.18 69.22 69.11 69.83 67.73 64.93 64.60 64.17 64.64 65.04 64.69 63.30 63.77 64.14 63.29 61.33 62.45 67.19 64.96 64.87 66.15 68.23 67.75 67.07
71.81 71.45 70.95 70.94 69.97 69.50 69.64 71.52 71.72 71.60 71.93 71.01 70.18 69.69 68.93 68.74 69.17 69.15 69.43 69.41 69.69 69.54 69.17 65.56 63.92 63.73 63.54 64.38 64.01 62.55 61.33 62.51 61.17 60.94 61.23 64.94 68.68 68.47 68.49 68.11 67.42 67.02 66.14
70.90 71.42 71.29 70.46 69.83 69.70 70.15 70.13 70.70 71.47 70.47 69.75 69.22 68.12 67.41 67.02 67.21 67.56 68.02 68.44 69.35 70.13 68.08 65.16 63.37 62.65 61.58 61.64 61.04 59.47 60.10 59.65 59.91 61.32 63.68 67.54 68.03 68.33 67.61 66.92 66.22 65.36 64.57
68.15 70.01 71.13 70.59 69.75 70.02 69.97 69.93 70.09 70.87 71.08 69.63 68.76 68.82 67.71 67.59 67.04 66.14 66.55 67.92 69.30 69.13 67.99 65.56 62.83 60.84 60.16 58.88 57.14 57.09 58.20 59.01 60.08 62.43 65.81 67.54 66.71 66.34 66.00 65.04 64.33 63.84 63.29
67.99 69.02 69.89 70.97 70.56 69.95 69.75 69.85 68.58 68.66 68.80 69.52 70.08 68.75 68.19 68.17 67.92 67.53 67.32 66.77 68.42 66.08 66.31 64.57 61.99 60.40 59.83 58.39 57.22 57.55 58.06 58.63 60.17 61.62 64.73 66.20 65.48 65.02 64.00 63.50 62.96 62.54 62.09
67.66 68.30 69.22 70.58 70.92 70.29 70.22 69.96 69.89 69.05 68.36 68.04 68.68 69.47 68.57 68.52 68.14 68.39 67.73 66.93 66.39 66.92 65.93 64.65 61.76 59.86 58.24 57.01 56.62 56.69 57.21 58.41 59.64 60.85 62.79 64.47 64.42 63.41 62.60 62.26 61.97 61.32 60.70
68.42 68.40 68.61 69.27 70.22 70.70 70.24 70.54 70.43 69.99 68.65 68.30 68.40 69.01 69.22 68.99 68.15 67.84 68.17 67.98 67.60 67.35 66.26 63.83 61.37 58.77 57.17 56.29 55.71 55.88 56.55 57.96 59.18 60.42 62.38 61.96 62.92 61.33 60.69 60.76 60.54 59.78 59.75
68.90 69.37 69.78 68.78 69.45 69.94 70.39 70.48 70.59 70.65 70.19 68.87 68.39 68.45 68.54 68.53 68.50 67.90 67.39 67.15 68.34 67.93 67.11 64.93 61.69 58.86 57.49 56.21 55.02 55.14 56.06 57.60 58.32 58.92 60.97 59.64 61.01 60.80 59.31 59.58 59.23 58.84 58.81
67.64 69.53 70.29 70.43 70.14 69.58 70.58 70.81 71.03 70.94 70.50 69.56 68.82 68.78 68.56 68.35 67.81 67.26 67.53 66.79 67.54 68.49 66.47 65.50 62.02 59.20 57.57 56.10 54.67 54.72 55.84 56.92 57.39 57.53 58.93 58.53 56.88 58.57 59.09 58.76 58.52 57.16 57.34
62.16 62.90 65.90 69.24 70.93 70.74 70.86 70.98 71.12 71.28 70.93 70.39 69.92 69.51 68.80 68.37 67.90 67.17 67.24 67.28 66.38 67.56 65.58 65.07 61.05 57.61 56.72 55.24 54.33 53.53 54.55 55.87 56.28 56.14 56.88 56.96 56.23 55.77 55.92 57.67 55.90 55.62 54.53
60.50 61.13 61.65 62.88 66.76 69.39 70.74 70.04 69.37 70.99 71.05 70.84 70.47 69.92 69.65 68.82 68.15 67.28 67.23 67.67 66.31 66.15 66.31 64.32 60.56 58.10 56.29 55.16 54.33 53.46 53.63 54.49 54.92 54.67 54.46 54.85 55.34 55.55 54.28 53.21 54.95 53.04 52.07
59.20 59.72 60.20 60.87 61.46 64.36 68.35 69.73 69.06 68.60 69.09 70.77 70.61 70.35 69.70 69.72 69.03 68.18 67.24 67.10 66.72 66.28 65.10 62.80 60.04 58.11 56.97 55.21 52.15 51.04 52.11 53.46 54.34 53.67 52.93 52.87 53.40 53.51 53.30 51.40 50.80 49.34 50.07
57.21 57.52 58.70 59.06 59.95 60.97 62.47 65.52 67.60 67.06 66.88 67.47 69.73 70.40 70.17 69.73 69.35 68.62 67.72 66.88 66.30 64.87 64.52 62.24 59.71 56.64 55.04 55.04 50.85 50.27 50.67 50.64 51.90 52.64 52.39 51.62 51.40 51.28 51.07 50.03 49.68 49.21 46.96
53.80 55.30 56.42 57.50 58.57 59.44 60.28 62.20 65.71 67.66 66.58 67.04 67.32 67.51 69.03 69.60 69.35 68.52 67.69 66.77 66.39 65.40 64.33 62.29 59.09 55.46 53.69 52.87 50.84 50.50 46.83 46.83 48.29 50.21 51.11 50.18 49.60 49.53 48.44 48.06 47.95 47.64 47.68
53.63 54.03 54.30 55.23 56.10 57.11 58.24 59.60 61.50 65.10 67.50 66.99 66.23 66.00 66.41 67.29 68.66 68.06 67.58 66.68 66.33 65.93 63.98 62.31 59.45 55.83 52.41 51.89 53.54 52.02 48.75 46.43 45.75 47.83 48.78 48.83 48.49 47.81 47.18 46.87 46.55 46.35 46.18
54.94 56.24 55.65 55.83 54.72 54.98 56.09 56.18 57.53 60.11 62.34 65.23 65.65 66.54 66.86 66.84 65.78 67.72 66.64 66.01 65.65 65.21 63.39 62.79 60.34 56.09 55.17 50.11 50.69 51.44 50.89 50.51 46.00 41.88 45.81 46.48 47.40 46.45 46.13 46.11 45.27 45.14 44.98
55.92 56.38 56.66 56.13 56.01 56.68 55.20 55.18 55.72 57.69 61.13 64.18 64.82 64.70 65.03 66.67 65.71 64.86 65.89 65.58 64.28 64.89 63.67 62.46 59.81 55.19 55.27 52.83 49.98 48.34 47.70 46.41 47.00 46.06 40.76 41.34 44.56 45.42 45.59 45.84 44.86 44.14 43.95
55.67 55.66 55.93 55.37 55.17 55.92 56.55 55.84 54.92 56.53 58.66 61.29 62.90 63.13 63.97 65.31 65.38 64.07 63.99 64.17 64.32 63.62 62.65 61.59 60.00 56.50 55.14 54.54 51.66 48.98 46.28 44.82 42.71 43.07 43.27 41.88 40.53 42.62 44.01 44.73 44.40 43.64 42.88

GFSSE_sfc_wetblb_036.txt.gz
Wetbulb
70.14 73.04 76.26 75.71 75.47 75.62 75.62 75.66 75.80 75.39 75.16 74.59 74.35 73.82 72.99 72.29 71.89 71.17 70.60 70.86 71.07 71.71 71.98 71.78 71.65 70.65 70.11 69.93 69.49 69.31 68.97 69.21 69.89 70.38 70.72 70.35 69.22 68.36 68.51 69.91 69.80 67.84 69.36
71.42 73.33 75.97 76.12 75.54 75.94 76.10 76.09 75.44 75.18 75.18 74.74 74.12 73.51 72.53 71.81 71.07 70.26 69.99 71.62 71.44 71.90 71.96 71.64 70.65 69.63 69.69 69.21 68.65 68.32 67.94 67.62 68.49 69.52 69.52 68.95 69.20 68.54 67.98 68.58 69.12 67.70 68.38
71.28 72.50 73.98 75.98 75.91 76.12 76.09 75.71 75.32 75.13 75.18 74.86 73.32 72.34 71.59 71.25 70.34 69.39 71.42 72.36 72.35 72.29 72.04 71.07 69.79 69.13 68.72 68.35 67.99 67.69 66.97 66.51 66.65 68.43 69.55 63.63 64.45 67.64 67.10 67.10 68.14 68.58 67.77
71.71 71.21 71.54 74.97 75.96 75.97 75.60 75.86 75.36 75.25 74.78 73.66 72.44 71.29 70.46 70.45 69.22 69.03 71.96 72.25 72.11 71.65 70.51 69.51 68.51 68.40 68.31 68.36 68.26 67.33 66.27 65.14 65.69 66.99 65.19 66.34 66.44 68.72 68.54 69.12 67.24 67.52 68.29
70.28 70.72 72.10 74.01 74.55 74.50 74.82 75.01 75.30 74.88 73.64 73.18 72.58 70.92 70.27 69.17 68.77 71.34 71.68 70.99 70.38 69.81 69.00 68.62 68.39 68.36 68.82 68.79 68.45 67.73 66.30 65.08 66.77 66.65 64.49 64.94 63.57 67.92 69.80 70.49 68.98 69.65 70.24
69.91 70.30 72.16 73.38 73.67 72.51 73.05 73.96 74.58 74.43 73.28 72.36 71.43 70.29 69.14 69.02 69.33 70.28 70.12 69.71 69.33 69.16 68.86 68.83 68.92 68.96 68.71 68.28 67.79 67.38 66.31 66.03 67.17 63.96 63.06 66.56 64.53 68.37 68.85 70.08 70.44 70.07 69.71
69.77 70.13 70.90 73.31 72.38 72.35 72.68 72.79 73.57 74.52 73.00 71.91 70.43 69.31 69.10 69.22 69.42 69.47 69.21 68.90 68.93 69.02 69.38 69.36 68.70 67.79 67.26 67.15 67.35 66.87 65.64 66.52 64.21 62.82 61.84 61.79 62.26 66.05 67.07 68.93 69.51 69.18 68.73
69.65 69.97 69.91 71.62 71.04 72.39 72.16 72.34 73.54 73.87 72.67 71.59 70.35 69.38 69.21 68.95 68.53 68.99 68.92 68.51 68.68 69.45 69.80 68.69 66.93 65.95 65.94 66.31 66.97 66.32 65.74 65.96 63.36 61.03 60.19 59.85 65.68 65.17 65.40 68.71 68.84 68.46 67.65
69.88 69.15 68.82 69.20 70.50 71.29 71.22 71.29 72.83 73.18 72.60 71.46 70.47 70.31 70.06 69.37 68.66 68.57 68.95 68.90 69.21 69.71 69.54 66.49 65.57 65.18 65.25 65.68 65.38 64.54 64.31 63.89 58.32 58.02 59.97 61.89 68.16 65.70 65.89 68.94 68.25 67.54 66.79
68.41 69.03 68.48 68.42 68.95 67.91 68.90 70.75 70.52 71.99 71.56 70.73 70.20 69.52 68.57 68.52 69.00 69.44 69.40 70.02 69.86 70.06 67.84 65.56 64.81 64.25 64.81 64.63 63.65 62.22 62.57 62.32 55.32 56.48 62.34 66.12 68.87 68.19 68.69 68.34 67.61 66.89 66.19
68.13 67.73 68.13 67.73 66.37 66.07 66.24 69.17 70.41 70.44 70.16 69.61 68.78 67.80 66.82 65.03 66.13 67.03 67.35 68.24 69.35 70.07 66.97 64.92 64.28 62.91 63.23 63.08 61.72 61.80 60.92 54.94 54.26 57.34 63.68 68.33 68.69 68.70 68.20 67.33 66.36 65.50 64.94
65.76 67.09 67.25 66.80 66.25 66.16 68.43 68.19 67.03 69.64 69.15 68.18 67.32 65.56 64.53 63.46 63.74 65.65 65.96 67.93 69.71 69.07 67.21 65.29 63.46 62.43 61.26 53.68 53.52 57.34 51.67 53.49 55.02 62.14 64.41 67.95 67.34 67.33 66.68 65.59 64.95 64.15 63.63
67.13 67.45 68.11 67.38 66.34 66.54 66.78 67.11 66.18 68.87 68.68 67.70 66.85 65.97 65.20 64.30 63.21 64.56 64.75 65.81 65.78 65.31 63.87 63.49 60.32 56.79 54.40 53.62 51.48 51.24 52.78 53.04 54.43 61.84 64.57 66.71 66.18 65.63 64.89 64.11 63.50 63.04 62.49
66.50 67.56 68.17 68.36 67.19 66.25 66.44 66.54 65.34 65.17 65.93 65.74 67.26 66.57 65.57 63.70 64.44 63.53 64.74 62.75 64.67 64.45 63.13 61.23 58.35 56.69 53.98 52.34 51.07 50.99 52.38 52.54 53.36 59.89 61.46 64.89 65.47 64.44 63.68 63.12 62.62 62.06 61.60
65.51 67.23 68.08 67.78 67.77 67.08 66.25 66.22 66.48 65.81 65.03 64.68 64.94 66.45 66.42 65.30 65.12 65.94 66.78 64.52 63.46 64.39 62.34 60.31 57.83 54.16 52.59 51.47 50.72 50.66 51.11 52.32 53.13 58.68 58.32 62.44 63.65 63.09 62.36 62.29 61.52 61.08 60.67
66.13 66.78 67.83 68.44 67.99 67.83 66.92 66.81 67.38 67.36 65.91 65.16 64.60 65.13 65.45 66.05 65.77 65.76 65.58 65.60 64.81 65.39 64.83 60.83 57.81 54.26 52.23 50.84 50.07 49.85 50.50 52.15 52.79 57.07 56.83 57.61 61.62 62.02 61.13 61.26 60.65 60.44 60.35
66.36 67.83 67.66 67.69 68.54 68.46 67.52 67.66 68.04 67.76 67.64 65.62 64.95 65.16 65.20 64.94 64.65 65.52 64.88 64.77 64.96 65.58 64.85 63.75 58.57 54.65 52.28 51.40 49.55 49.31 50.53 51.28 52.31 53.37 56.13 54.24 56.07 59.32 60.60 60.24 60.04 59.35 59.41
57.67 60.51 68.29 69.54 68.15 67.80 68.27 67.91 68.08 68.81 67.77 66.99 66.37 65.54 65.34 65.23 64.65 63.53 62.85 64.03 64.39 65.44 65.16 62.07 59.25 53.16 51.41 49.80 48.44 48.08 49.53 50.76 51.75 51.89 53.11 53.74 52.54 52.90 56.97 60.67 58.92 58.16 57.59
56.07 56.84 57.75 62.03 67.69 68.30 67.72 68.66 67.73 67.89 68.64 67.38 67.52 66.86 66.01 65.49 65.12 63.75 62.81 63.58 64.10 63.63 64.08 62.76 59.25 52.72 50.77 49.56 49.25 47.42 47.79 48.90 49.96 51.81 50.42 50.89 51.18 51.10 50.16 56.39 57.44 56.97 55.16
53.79 54.38 54.95 56.82 58.18 59.44 65.95 67.55 67.08 67.00 66.34 67.63 67.60 67.35 66.70 66.20 65.30 64.28 63.40 62.90 64.36 62.99 63.84 63.06 58.20 53.90 51.73 49.93 50.45 47.94 46.23 47.59 48.71 48.51 48.51 50.11 48.93 50.10 48.27 48.15 48.18 48.79 53.84
51.47 52.24 52.75 53.96 55.19 55.64 56.34 59.84 65.27 65.38 65.94 65.99 66.91 67.42 67.00 66.83 66.10 63.89 64.11 62.53 64.46 63.41 63.28 63.79 57.70 53.24 51.28 49.72 45.42 44.08 44.63 45.52 46.30 47.67 47.25 46.67 47.31 47.81 46.85 47.16 46.55 44.94 47.27
48.52 49.48 50.66 52.04 53.66 54.55 54.84 55.44 60.22 65.40 65.72 65.82 65.34 66.30 66.22 66.30 66.55 65.72 65.44 62.96 62.04 63.68 62.86 62.96 58.92 52.37 50.25 48.12 44.04 43.51 40.60 42.11 43.38 45.39 46.29 46.43 45.17 46.25 45.85 45.74 45.45 44.31 42.87
49.99 49.94 51.17 51.16 50.89 51.63 52.16 52.91 53.74 55.22 61.75 62.90 62.96 64.24 65.48 66.17 65.66 66.03 65.55 65.79 63.35 61.56 62.93 61.86 59.06 54.07 50.45 47.91 48.28 45.72 42.76 40.85 39.85 42.69 44.64 45.16 44.55 43.77 43.89 43.81 43.60 43.79 42.88
51.06 52.46 52.74 52.71 52.16 51.41 51.20 50.44 49.91 50.87 52.62 57.98 62.92 64.61 64.31 64.74 65.02 65.99 64.10 63.57 64.80 64.94 63.24 61.99 59.65 56.12 51.01 48.24 47.17 49.74 45.94 44.72 40.55 37.95 42.86 44.06 44.15 44.03 43.34 43.00 42.23 42.75 42.28
52.02 51.89 52.18 52.48 51.82 51.94 51.64 50.23 49.28 49.33 51.26 54.16 58.67 60.80 62.04 63.72 64.64 63.67 64.81 64.15 63.54 64.32 63.86 62.36 59.77 56.60 53.31 50.66 49.06 47.60 46.78 43.74 42.34 40.97 37.75 40.16 42.60 43.10 42.08 42.83 42.36 41.40 41.50
50.84 50.87 50.79 50.68 50.72 50.99 50.50 51.24 50.19 48.79 49.59 50.78 53.96 57.36 58.68 59.72 62.07 62.58 63.66 63.47 63.65 63.28 63.04 62.14 61.06 58.11 53.85 52.83 49.32 48.02 46.89 45.91 42.58 42.32 39.83 38.30 39.53 40.07 40.55 41.89 41.91 41.02 40.82

GFSSE_sfc_wetblb_039.txt.gz
Wetbulb
69.55 73.59 76.11 75.87 76.07 75.87 75.93 75.80 75.97 75.65 75.10 74.52 74.16 73.59 73.05 72.29 71.51 70.99 71.19 71.42 72.26 72.31 72.15 71.80 70.99 70.74 70.37 69.93 69.61 69.21 69.35 69.94 70.21 70.37 69.96 69.59 68.60 69.29 70.07 69.10 68.97 67.85 68.23
71.86 74.22 75.75 76.05 76.03 76.01 76.19 75.75 75.62 75.26 75.00 74.93 73.99 73.38 72.61 71.68 70.80 70.29 71.50 71.76 72.10 72.32 71.28 70.68 70.36 70.15 69.58 68.95 68.61 68.10 68.16 69.10 69.45 69.36 69.21 68.74 68.95 67.94 68.34 68.96 69.23 66.38 67.74
72.18 74.28 74.69 75.86 76.15 76.33 76.17 75.45 75.39 75.29 74.99 74.61 73.06 72.41 71.96 71.01 69.85 71.46 72.34 72.39 72.46 72.17 71.06 70.20 69.66 69.07 68.50 67.96 67.65 67.09 67.42 67.78 68.50 68.99 67.87 63.43 64.70 68.25 67.42 67.47 68.30 68.30 68.03
72.32 73.17 74.13 75.91 76.19 76.20 75.90 75.47 75.18 75.25 74.74 73.75 72.51 71.55 71.24 69.85 69.45 72.34 72.85 72.80 72.20 71.08 69.79 68.88 68.45 68.28 68.25 68.09 67.03 66.24 66.18 66.07 65.93 67.02 65.12 65.12 66.17 69.02 70.17 67.99 67.58 69.01 68.37
69.96 70.83 73.65 75.79 75.75 75.71 75.95 75.36 75.08 74.46 74.00 73.01 72.22 70.68 70.11 69.02 70.97 72.18 71.88 71.42 70.43 69.48 68.88 68.46 68.41 68.71 68.68 68.35 67.61 66.80 66.26 66.41 67.67 65.38 63.40 62.64 64.07 68.60 70.60 69.83 69.93 70.33 70.33
68.82 69.62 72.54 73.98 74.39 74.54 74.89 75.05 74.50 74.12 72.76 71.88 71.14 70.28 69.02 69.72 70.87 71.12 70.52 69.75 69.41 69.10 68.79 68.87 69.02 68.86 68.46 67.96 67.57 66.90 66.64 67.08 66.17 62.06 63.39 65.27 63.82 68.46 70.27 70.38 70.01 70.14 70.09
68.54 69.59 70.74 73.40 73.38 73.41 73.94 74.18 74.04 74.03 72.69 71.58 70.29 69.36 69.41 69.75 70.14 70.06 69.57 69.39 69.28 69.17 69.11 68.94 68.44 67.91 67.62 67.33 67.23 66.63 66.62 66.76 63.00 60.44 60.40 60.69 61.87 66.55 68.34 69.54 69.33 68.98 68.59
68.34 69.35 70.12 71.30 71.34 72.55 72.74 73.12 73.92 73.69 72.77 70.93 70.54 69.48 69.37 69.36 69.40 69.58 69.11 69.03 69.27 69.40 69.23 68.14 66.93 66.63 66.59 67.27 66.69 66.17 65.91 65.03 61.28 58.77 58.32 59.66 65.71 65.56 66.64 69.10 68.63 67.70 67.00
68.72 68.17 67.84 68.03 69.70 70.99 71.23 71.62 73.06 73.08 72.23 71.05 70.76 70.49 70.10 69.09 68.88 69.12 68.66 68.66 69.45 70.10 68.56 66.62 66.10 65.78 66.23 66.08 65.40 64.06 64.22 63.64 55.66 57.16 62.14 63.12 67.74 66.09 69.08 68.84 67.86 66.74 66.46
67.67 67.70 66.64 67.56 68.57 68.23 68.24 70.22 71.59 71.76 71.15 70.51 70.31 69.71 68.72 68.58 69.06 69.49 69.43 69.56 69.87 70.18 66.90 65.78 65.07 65.38 65.37 64.70 63.19 62.99 62.75 60.89 53.66 60.36 64.42 66.19 68.43 67.21 68.91 68.16 67.58 66.51 65.61
66.82 67.18 67.31 67.19 66.76 66.54 67.54 68.65 69.55 70.56 69.89 69.31 68.70 67.57 66.83 65.30 66.62 67.42 67.31 68.71 69.62 69.70 66.55 65.27 64.33 64.46 64.84 64.03 63.04 62.50 60.83 52.88 52.85 61.31 64.61 68.59 69.29 69.17 68.55 67.34 66.58 65.35 64.85
64.25 64.87 66.91 66.53 65.56 64.84 67.69 67.47 67.24 68.70 67.65 66.89 65.96 65.26 64.04 63.65 64.38 66.18 65.83 67.08 68.84 68.83 66.96 65.56 64.24 63.14 60.73 53.38 52.07 57.88 50.25 51.11 57.23 63.15 64.56 68.54 68.46 68.24 67.26 66.27 65.45 64.45 63.65
63.55 66.54 66.11 64.54 65.14 64.88 66.73 66.51 65.02 67.56 66.70 65.94 64.81 64.33 63.58 63.27 62.25 63.63 64.26 66.15 66.12 65.25 63.38 63.16 60.88 57.05 53.27 52.37 50.88 48.77 50.94 51.17 56.67 62.54 64.96 67.51 66.80 66.05 65.43 64.93 64.23 63.39 62.64
63.99 65.16 67.04 67.40 64.84 64.62 66.62 66.06 65.45 67.72 67.05 66.07 65.16 64.44 63.43 61.95 61.04 63.20 63.62 64.20 64.15 63.83 61.83 60.78 58.60 56.37 54.32 51.97 49.87 49.57 50.66 51.04 57.44 60.11 63.08 65.75 66.32 65.54 64.73 63.98 63.19 62.74 62.03
64.16 65.29 66.23 66.74 66.65 65.32 65.27 64.35 64.37 65.24 66.86 66.48 66.22 65.71 65.04 62.76 62.23 62.90 62.68 62.84 64.16 63.46 62.41 60.44 58.58 56.12 53.05 50.66 49.85 49.14 49.70 50.49 55.90 58.03 59.46 63.41 65.31 64.90 63.88 63.58 62.68 62.35 61.39
64.88 65.28 66.83 66.71 66.80 66.76 65.60 64.31 64.44 64.94 65.49 64.14 63.91 65.88 65.52 64.22 64.25 64.21 63.86 61.94 61.18 62.54 62.76 61.40 58.42 53.90 51.00 49.91 48.85 48.36 48.97 50.41 52.86 56.70 57.85 59.77 63.32 63.86 63.07 62.77 62.21 61.95 60.96
65.36 66.27 66.53 66.99 67.25 66.77 66.60 66.58 66.10 65.74 65.24 63.97 63.39 63.76 65.18 64.81 64.78 64.81 64.37 64.01 63.76 63.36 62.68 62.59 59.61 54.69 50.76 49.71 48.25 47.76 48.38 49.25 52.31 55.95 55.39 55.82 58.74 61.07 62.46 61.94 61.52 61.50 60.96
64.04 65.99 66.64 68.12 67.52 66.75 66.36 66.79 67.00 67.94 66.79 66.61 65.21 63.67 63.96 64.15 64.76 64.03 63.75 63.77 64.65 64.08 63.68 62.16 59.82 56.01 50.88 48.63 47.59 46.77 47.61 49.18 50.01 54.29 54.23 53.21 53.47 54.16 59.25 62.06 61.25 60.69 60.68
54.72 62.36 65.69 67.02 66.96 66.95 66.61 66.84 66.96 66.79 68.31 66.69 65.84 64.97 63.91 64.03 63.76 63.02 62.82 63.59 63.80 64.43 64.14 63.14 61.03 55.67 50.77 48.36 47.65 46.97 46.49 47.66 49.33 50.87 52.54 52.05 51.48 51.36 50.82 58.88 60.26 59.80 59.64
50.66 51.24 52.41 60.02 65.92 66.85 67.03 67.07 66.56 66.51 66.52 66.91 66.47 65.61 65.91 64.68 63.96 63.47 62.57 61.96 63.72 62.89 63.47 62.04 60.32 53.50 50.99 49.56 49.85 47.97 45.41 46.53 47.72 47.97 48.38 52.15 50.12 50.06 49.49 50.34 51.92 52.39 57.26
48.28 48.87 49.43 50.84 51.89 53.77 56.74 62.88 63.89 65.32 64.11 63.57 64.45 66.24 66.18 65.47 65.26 62.73 62.00 61.21 63.14 62.85 63.01 62.80 59.25 55.15 50.77 49.67 46.92 43.49 43.53 43.91 45.12 46.59 46.51 46.69 47.77 49.53 47.53 47.71 46.67 46.04 49.94
48.14 48.68 49.43 49.45 49.35 50.17 51.90 52.70 60.31 63.74 64.13 65.10 64.49 64.61 65.16 64.92 65.18 65.78 64.29 61.75 61.38 62.18 61.43 61.00 58.98 53.92 54.39 50.00 46.99 41.70 40.02 42.14 43.20 44.29 45.57 46.20 45.76 47.58 47.66 47.18 45.83 44.31 44.64
49.28 49.44 50.41 50.24 50.09 49.58 49.19 49.67 50.09 51.66 57.09 61.41 61.39 62.39 64.32 64.75 64.77 64.34 63.73 63.42 62.98 62.37 61.82 61.08 60.39 56.50 52.47 50.22 47.89 46.51 40.62 40.50 39.56 41.64 43.46 44.54 44.42 44.53 45.51 46.79 45.96 44.93 43.03
49.87 50.98 51.33 51.63 50.69 51.23 49.42 48.54 47.10 47.24 47.90 53.32 60.71 62.30 63.03 63.35 64.06 64.15 63.31 62.79 61.81 61.85 61.12 62.17 62.20 59.18 53.24 50.40 47.85 48.17 47.91 44.02 40.33 39.50 42.36 44.10 44.74 44.03 44.49 43.65 44.69 43.23 42.65
50.54 49.97 50.00 50.34 50.05 49.72 49.30 49.39 47.57 46.75 47.60 49.03 50.93 54.13 60.43 62.78 63.50 63.52 63.61 62.17 61.40 61.94 62.68 60.34 59.36 58.00 55.14 53.50 50.10 47.33 46.17 45.50 42.25 39.60 38.95 42.41 44.35 44.86 44.83 45.20 43.51 43.08 41.94
49.49 49.54 49.16 49.06 48.99 49.15 48.81 48.42 47.65 47.39 47.00 47.04 47.97 48.88 51.95 56.70 60.32 62.67 62.84 62.28 62.69 62.88 61.04 59.70 59.30 59.54 57.48 55.21 52.11 49.73 47.99 46.90 45.80 41.83 40.37 40.28 42.46 44.18 43.38 43.38 42.92 41.46 40.13

GFSSE_sfc_wetblb_042.txt.gz
Wetbulb
70.79 73.71 76.13 76.29 75.62 76.04 76.12 75.81 75.77 75.43 74.86 74.33 73.97 73.49 72.84 71.71 71.15 71.27 71.44 72.46 72.45 72.30 71.56 71.21 71.05 70.81 70.43 69.94 69.77 70.01 70.22 70.18 69.90 69.51 68.91 69.07 69.51 70.04 69.02 68.84 68.83 65.98 68.08
71.98 73.87 75.73 76.47 76.04 75.93 76.18 75.77 75.61 75.18 74.89 74.51 73.69 73.06 72.03 71.20 70.50 71.17 71.67 72.35 72.01 71.04 70.73 70.51 70.23 69.89 69.33 68.93 68.50 69.02 69.59 69.17 68.63 68.38 68.54 68.15 68.40 68.24 68.76 68.37 67.44 66.06 67.54
72.47 73.92 74.57 76.00 76.20 76.23 75.79 75.07 75.34 75.13 74.94 74.32 72.90 72.49 71.46 70.30 70.57 71.98 72.13 72.33 72.13 71.07 70.52 69.96 69.32 68.67 68.07 67.81 67.68 68.48 68.95 68.82 68.18 67.20 66.74 63.36 65.17 67.94 67.41 67.90 68.26 67.74 67.87
72.88 73.62 73.91 75.90 76.19 75.96 75.64 75.33 75.29 74.83 74.07 73.55 72.33 71.84 70.48 69.71 72.26 72.65 72.65 72.47 71.46 70.25 69.20 68.39 68.09 67.82 67.47 66.83 67.07 67.39 66.99 66.36 65.94 67.49 64.24 64.72 66.15 69.64 68.63 67.31 68.55 68.47 69.74
72.23 73.28 74.27 75.73 76.09 75.70 75.41 75.15 75.52 74.74 72.98 72.70 71.79 70.65 69.34 70.18 72.67 72.71 72.35 71.29 70.09 69.11 68.49 68.09 68.31 68.31 67.97 67.50 67.16 67.01 67.20 67.37 66.62 65.71 62.83 62.96 64.64 69.07 70.04 69.74 69.77 70.46 70.87
69.00 71.13 74.63 75.33 75.56 75.49 75.04 75.13 74.87 73.82 72.21 71.48 70.88 69.65 69.55 71.54 72.02 71.70 70.71 69.84 69.22 68.72 68.29 68.69 68.69 68.43 67.97 67.60 67.48 67.43 67.47 67.27 65.56 63.01 63.37 65.28 63.93 69.90 70.48 70.37 70.18 70.11 69.85
68.39 70.46 72.72 74.40 74.90 74.99 74.89 74.30 74.11 73.61 72.28 71.32 70.16 69.09 69.91 70.75 71.04 70.57 69.84 69.42 69.01 68.74 68.77 68.76 68.36 68.00 67.45 67.31 67.14 67.06 66.95 65.76 60.91 59.61 59.63 60.13 61.37 67.71 70.03 69.54 68.92 68.68 68.59
68.10 68.95 70.12 72.14 73.22 73.48 73.52 73.70 73.85 73.39 72.02 70.89 69.97 69.67 69.80 69.42 69.49 69.69 69.54 69.41 69.17 69.16 68.89 68.04 67.43 67.18 67.23 67.02 66.68 66.42 65.24 64.14 60.32 57.99 58.33 59.24 65.90 65.43 69.23 68.80 67.80 67.24 66.42
68.45 67.99 67.63 68.13 70.08 71.62 71.88 72.77 73.20 72.89 71.81 71.21 70.66 70.45 70.23 69.64 69.26 69.00 69.01 69.08 69.20 69.27 68.10 66.83 66.40 66.31 66.70 66.50 65.71 64.69 63.84 62.14 54.79 57.17 60.29 60.55 66.37 65.91 68.99 68.46 67.28 66.39 66.19
67.13 67.01 65.94 66.53 67.37 67.46 68.10 71.21 71.72 71.75 71.04 70.60 70.32 69.75 68.55 68.48 69.36 69.26 69.07 69.50 70.05 69.25 66.76 66.14 65.35 65.82 65.70 64.80 63.39 63.30 62.40 59.86 56.25 62.37 63.86 63.96 67.93 68.39 68.79 67.93 67.17 66.11 65.17
66.01 65.87 66.06 66.29 66.63 66.78 66.92 68.21 70.67 70.54 69.81 69.44 68.96 67.70 66.86 65.28 66.64 67.42 67.28 68.38 69.62 68.86 66.48 65.52 64.90 65.09 65.54 64.81 64.02 62.75 59.50 51.50 53.47 61.82 64.12 68.55 68.42 69.00 68.31 67.71 66.81 65.59 64.32
63.72 64.81 66.06 66.07 65.83 65.89 68.17 66.69 67.15 68.49 67.14 66.34 65.85 65.23 64.19 63.79 64.72 66.55 65.76 67.45 69.26 68.41 66.94 65.95 64.60 64.46 62.12 53.49 50.97 55.78 49.27 50.18 58.50 62.43 64.17 69.04 69.08 68.99 67.80 66.85 65.88 64.52 63.45
63.43 64.24 65.43 65.59 64.95 64.41 65.50 65.86 65.41 66.79 65.78 65.11 64.42 63.97 63.19 63.18 62.70 63.74 63.73 64.93 65.38 65.27 63.04 63.30 61.24 57.84 53.71 51.63 50.21 47.20 49.07 50.87 59.65 62.34 65.01 68.36 68.33 67.85 66.38 65.39 64.84 63.95 62.71
64.46 64.86 64.61 63.91 63.16 63.27 65.39 65.68 64.98 66.37 65.64 64.39 63.93 63.58 62.19 60.94 60.75 61.88 62.75 63.79 64.22 63.67 61.51 60.68 58.31 56.38 53.32 52.09 50.75 48.64 48.93 49.42 57.40 60.92 62.60 66.24 67.43 65.96 65.49 64.87 63.95 63.13 62.29
63.79 64.81 65.70 65.97 63.41 63.27 64.56 64.38 63.92 66.04 66.48 65.76 64.62 63.96 63.08 61.55 60.35 61.89 62.51 63.07 63.78 63.02 61.63 60.00 59.15 57.73 54.90 52.97 48.81 47.95 48.60 48.63 57.03 59.37 59.97 63.76 65.90 66.25 65.21 64.60 63.64 62.84 61.99
63.69 64.55 65.65 65.99 65.99 64.34 63.54 63.02 63.88 65.02 66.56 65.88 65.64 65.17 64.46 63.06 61.87 61.75 62.12 62.08 63.12 63.48 63.00 61.31 59.87 57.83 54.64 51.19 48.97 47.73 47.99 48.51 54.24 57.36 58.45 60.69 64.61 65.37 65.06 64.06 63.39 62.89 62.08
64.14 64.78 64.94 65.91 66.18 65.72 65.32 63.77 62.98 63.12 64.38 63.96 64.45 65.32 65.17 64.04 63.17 62.41 62.42 61.79 61.70 62.14 62.79 61.18 60.06 56.96 52.43 50.12 48.16 47.44 47.07 47.50 50.62 56.36 57.06 57.80 60.73 62.72 64.10 63.76 63.01 62.58 61.81
64.36 64.42 65.46 67.28 66.42 65.90 65.76 65.99 66.23 65.91 64.57 64.17 63.62 63.05 64.88 65.17 64.28 63.29 63.31 63.34 63.01 61.72 61.88 60.96 58.79 55.90 52.38 49.31 47.82 47.07 46.44 47.26 48.72 55.11 55.18 55.34 55.81 56.73 61.07 63.30 62.87 62.27 62.11
62.29 64.35 64.72 65.78 66.12 66.09 66.00 66.01 66.08 66.39 66.14 65.62 65.52 64.42 63.04 63.89 64.37 64.48 64.08 64.00 63.48 63.96 62.86 62.19 60.15 55.67 52.15 49.51 48.30 47.11 45.87 46.29 47.74 51.35 53.90 53.36 52.99 53.48 53.27 58.79 61.85 61.68 62.13
50.22 53.46 57.18 64.03 65.69 65.65 65.71 65.42 65.14 65.42 65.66 66.40 66.02 65.38 64.87 63.40 62.81 62.94 63.12 63.17 62.98 63.16 63.41 62.05 61.65 55.28 52.78 50.75 50.03 49.08 45.89 45.99 46.44 47.47 51.04 53.80 51.67 51.65 50.83 51.40 56.19 56.27 60.26
47.94 48.59 49.34 50.69 50.36 59.86 63.57 63.64 63.26 64.10 64.77 63.66 64.80 65.59 65.51 64.97 63.88 62.30 61.56 60.97 61.55 62.22 62.59 62.64 61.42 58.58 53.60 50.71 49.97 47.76 46.43 46.28 44.38 45.92 46.74 50.19 50.77 50.78 49.22 49.91 51.78 50.38 54.60
47.78 48.52 48.79 48.99 49.06 49.77 51.19 52.45 61.03 62.88 63.77 64.24 63.66 63.98 64.52 64.96 65.14 64.55 62.30 61.20 61.49 61.74 60.33 60.27 59.54 56.26 56.54 51.04 49.30 44.31 44.60 45.14 43.11 44.56 44.85 46.58 48.05 49.97 49.12 48.28 48.00 47.13 48.00
48.77 49.17 50.26 50.06 49.37 49.29 48.71 49.28 49.50 49.97 53.71 59.96 61.25 61.74 62.80 63.64 64.21 63.92 63.74 62.60 60.99 61.66 61.71 61.17 60.61 57.98 57.56 51.11 50.39 48.97 40.31 41.29 40.63 41.46 42.07 44.64 45.25 45.28 48.58 48.97 48.30 47.15 45.69
49.06 49.08 49.60 49.52 49.11 49.56 48.89 47.94 46.47 46.43 46.78 49.42 56.19 58.93 60.18 61.75 62.37 63.10 62.70 62.13 61.40 60.77 60.50 59.63 59.95 59.65 55.09 52.05 50.01 50.24 50.35 45.38 41.69 42.35 40.97 41.10 42.92 43.54 44.21 46.12 47.77 47.13 45.95
49.12 47.60 47.40 48.15 48.58 48.36 48.16 47.41 46.71 46.07 46.18 46.87 47.83 48.78 50.94 55.21 59.87 61.75 62.56 61.78 61.01 60.70 60.47 60.18 60.04 60.32 58.83 58.49 51.15 47.79 47.86 48.14 44.69 42.95 41.01 41.33 44.80 44.60 44.12 45.34 46.46 46.51 45.19
47.85 47.32 47.11 47.68 47.47 47.79 47.83 47.64 47.12 45.62 45.37 46.36 46.83 47.23 48.14 49.88 53.39 57.99 60.74 60.91 60.57 60.07 60.02 59.23 59.76 57.99 58.11 56.29 55.93 53.86 50.38 48.73 48.19 44.63 43.43 42.24 43.53 45.81 44.87 45.38 44.38 43.68 42.61

GFSSE_sfc_wetblb_045.txt.gz
Wetbulb
68.79 71.81 75.81 76.04 75.54 75.29 75.27 75.33 75.29 75.26 74.74 74.07 73.67 73.08 72.16 71.57 71.40 71.28 72.44 72.41 72.19 71.51 71.28 71.08 71.11 70.81 70.34 70.39 70.84 70.63 70.27 69.49 69.03 68.81 68.90 69.80 69.67 68.54 68.78 68.53 67.31 65.21 68.66
71.56 73.21 75.70 75.78 75.62 75.84 75.98 75.70 75.05 74.73 74.58 73.82 73.39 72.49 71.68 70.98 71.01 71.43 72.33 71.73 70.97 70.58 70.24 70.09 70.15 69.84 69.43 69.20 69.82 69.83 69.34 68.29 68.02 67.55 67.32 67.53 68.52 68.35 68.29 67.22 67.34 65.62 68.12
72.13 73.48 74.63 75.94 76.03 76.16 75.72 75.15 74.98 74.70 74.46 73.82 72.58 71.93 71.10 70.42 71.20 71.76 72.40 71.63 71.10 70.56 69.86 69.40 69.00 68.62 68.28 68.31 69.35 69.42 68.93 68.25 67.38 67.35 66.95 63.89 64.79 67.11 67.69 67.97 67.72 67.63 67.46
72.50 73.41 74.06 75.91 76.16 75.75 75.23 75.10 74.79 74.24 73.47 72.78 72.35 71.27 70.07 70.69 72.21 72.32 72.54 71.85 70.79 69.63 68.28 67.87 67.51 67.10 67.09 67.71 68.18 67.73 67.21 66.21 65.99 67.33 63.18 64.22 66.19 69.26 66.81 67.33 68.52 68.76 69.61
71.82 72.91 73.65 75.68 75.82 75.50 75.04 75.03 74.55 73.88 72.88 72.36 71.67 70.21 69.71 72.39 72.63 72.75 72.69 71.18 69.62 68.58 67.91 67.77 67.81 67.48 67.10 67.13 67.30 67.51 67.41 66.79 67.31 65.72 62.24 63.15 64.16 69.34 69.33 69.39 69.80 70.83 70.60
71.37 71.90 73.94 75.27 75.58 75.23 75.02 75.20 74.69 73.08 72.14 71.40 70.53 69.25 70.02 72.59 73.02 72.22 71.13 69.83 69.03 68.29 68.12 68.30 68.22 68.03 67.60 67.51 67.57 67.81 67.35 67.24 65.05 61.81 62.76 64.60 63.73 70.25 70.59 70.31 69.83 69.63 69.40
70.05 72.56 73.78 75.48 75.30 75.08 74.87 75.10 74.18 73.10 71.92 71.10 69.69 69.46 71.18 71.78 71.72 70.75 69.89 69.19 68.66 68.22 68.45 68.42 68.01 67.55 67.29 67.44 67.34 67.37 66.08 66.81 61.01 59.66 59.21 59.66 61.25 68.90 69.88 69.54 68.77 68.58 68.37
69.48 71.15 72.64 73.94 74.72 74.54 74.67 74.02 73.56 73.14 71.79 70.58 69.67 69.60 70.42 70.74 70.82 69.84 69.49 69.05 68.53 68.42 68.40 67.86 67.28 66.78 66.69 66.71 66.77 66.16 65.04 64.54 60.16 57.82 58.49 58.94 63.55 66.51 69.06 68.38 67.37 66.60 65.65
68.57 68.07 68.47 69.72 71.09 72.03 72.88 73.16 73.13 72.73 71.83 70.97 70.59 70.58 70.44 69.99 69.05 69.03 69.32 69.12 68.78 68.74 67.76 66.44 65.84 65.72 66.31 66.16 65.70 64.35 64.09 62.00 56.35 56.04 58.01 58.41 64.10 65.13 68.47 68.00 66.92 66.40 65.31
66.57 66.65 65.76 66.76 68.17 68.32 69.53 71.67 71.77 71.42 71.04 70.58 70.20 69.71 68.69 68.54 69.15 69.38 69.28 69.51 69.62 68.84 66.83 65.97 65.12 65.30 65.34 64.77 63.45 63.09 61.31 59.88 55.93 60.63 62.60 61.39 66.44 67.53 68.79 67.40 66.70 65.77 64.31
65.64 65.18 65.32 65.52 65.97 66.30 66.58 68.91 70.72 70.25 69.79 69.44 68.88 67.59 66.54 64.72 66.13 66.74 66.67 68.06 69.68 68.96 66.65 65.69 64.97 65.03 65.57 64.40 63.56 62.24 56.46 51.01 52.08 60.80 62.92 66.43 67.55 69.06 68.38 67.85 66.58 65.51 63.86
63.20 64.25 65.13 65.17 65.31 65.48 67.47 66.90 67.97 68.24 67.08 66.53 65.85 64.94 63.76 63.32 64.35 66.09 65.31 66.89 68.70 68.11 67.02 66.13 65.12 65.31 62.56 53.01 50.45 52.86 48.44 49.38 55.73 60.83 63.09 68.44 68.48 68.79 68.23 67.54 64.79 64.84 63.25
63.20 63.92 64.77 64.96 64.87 64.96 65.65 65.16 66.00 66.12 65.15 64.87 64.20 63.74 63.03 63.07 62.92 63.79 63.36 64.93 64.98 65.46 62.89 63.62 61.43 57.89 54.05 50.82 50.06 47.35 47.69 49.26 55.62 61.13 64.12 68.37 68.95 68.47 67.71 65.25 63.99 63.99 62.87
62.94 63.72 64.53 64.81 64.19 63.71 64.11 64.62 64.46 65.64 64.44 63.59 63.57 63.32 61.90 60.95 60.58 61.38 61.84 62.80 63.07 63.92 61.37 60.40 58.43 56.83 53.70 51.62 50.42 50.44 47.67 48.80 57.09 60.44 61.92 66.46 68.49 67.72 66.17 65.31 64.82 63.86 62.53
63.17 64.14 64.03 63.81 62.91 62.72 63.33 64.00 63.64 64.54 64.94 64.09 63.39 63.26 62.15 60.65 60.13 60.48 61.40 62.05 62.65 62.73 61.48 59.85 58.86 57.95 56.26 54.04 52.35 48.77 48.94 48.80 50.11 58.94 59.93 62.96 66.05 67.39 65.92 65.51 64.50 63.59 62.60
63.63 64.29 64.90 64.69 63.16 62.36 63.41 62.90 63.25 64.28 65.39 64.67 64.05 63.67 62.94 61.71 60.43 60.47 61.00 61.49 61.93 62.53 62.45 60.97 59.83 58.78 57.34 54.34 51.82 47.93 47.45 47.25 48.62 57.21 58.43 59.64 64.41 66.04 66.45 65.39 64.62 63.79 62.99
63.24 64.45 64.71 65.58 65.42 62.51 63.38 63.47 62.50 63.01 65.26 65.14 65.28 64.68 63.94 63.04 61.61 60.78 60.73 60.75 61.73 61.92 62.30 61.28 60.23 58.94 56.94 54.02 50.15 48.78 47.16 46.40 47.85 54.29 56.90 57.80 59.94 63.30 65.23 65.18 64.68 63.77 63.02
63.25 63.46 64.04 66.55 65.64 64.85 63.80 63.88 63.21 63.26 62.80 64.38 64.36 64.70 64.93 64.34 63.14 61.55 61.22 61.33 61.45 60.57 61.49 61.02 60.55 58.86 56.66 53.56 49.93 48.34 47.10 46.37 46.67 50.23 55.11 56.04 57.13 58.74 61.75 64.77 65.06 63.86 63.11
63.02 63.58 63.94 64.90 65.07 65.52 65.15 65.28 64.82 64.74 63.94 63.66 63.22 62.89 63.42 64.86 64.15 63.61 62.68 62.56 62.09 61.40 60.72 60.90 59.97 58.53 55.66 53.32 50.50 48.47 46.91 45.99 46.42 48.93 53.17 54.55 55.01 55.99 55.35 59.44 62.47 63.00 63.28
55.76 61.47 63.39 64.30 64.87 65.11 65.18 64.75 64.31 64.53 64.82 65.40 64.88 63.94 62.34 62.81 63.14 63.29 63.42 63.01 62.21 62.48 62.48 61.34 60.64 57.47 55.90 54.98 53.36 51.10 49.23 48.77 46.67 46.43 48.56 54.22 53.65 53.92 53.13 53.16 54.45 58.08 61.66
47.50 48.14 49.41 55.96 51.17 63.32 63.66 63.45 63.13 63.42 63.96 64.17 65.09 65.95 65.05 64.06 63.17 61.70 61.98 61.48 61.26 61.89 62.30 62.27 60.97 59.02 56.84 52.94 51.71 48.86 45.76 45.93 44.79 45.10 46.39 49.16 52.30 52.79 51.41 51.28 51.66 53.81 56.13
47.44 48.02 48.55 48.44 48.35 49.07 52.43 55.76 62.07 62.56 63.29 63.75 63.53 64.00 64.28 64.59 64.35 63.62 62.07 61.27 60.31 60.58 60.00 60.30 60.80 58.63 56.45 53.01 51.97 45.69 46.64 47.29 43.97 45.14 44.43 46.49 47.71 50.83 50.81 51.03 50.23 51.55 51.80
48.04 48.66 49.13 48.33 48.23 48.39 47.54 48.08 48.45 48.77 51.33 56.97 60.25 61.32 62.37 62.92 63.39 63.42 63.52 62.28 60.77 59.87 60.22 60.05 59.11 58.22 58.56 51.47 50.49 53.26 44.27 43.23 42.56 43.73 41.53 42.74 44.63 45.18 48.31 49.15 48.95 49.50 49.37
47.66 47.67 47.62 47.70 47.79 48.10 48.03 47.60 46.10 45.65 45.64 46.88 50.52 52.48 51.76 54.86 59.01 61.13 61.66 61.34 60.98 59.89 59.22 59.90 59.16 58.60 56.05 58.28 51.43 51.94 50.38 46.76 45.88 45.41 42.64 42.12 41.66 44.96 44.56 48.23 48.86 49.00 49.36
47.24 46.18 46.32 47.24 47.50 47.58 47.70 47.09 46.32 45.85 46.11 46.99 47.43 47.67 48.52 50.11 51.77 55.64 59.12 60.13 59.96 60.11 59.54 58.60 58.00 57.54 58.93 59.07 54.65 50.75 49.58 49.52 45.86 45.06 48.23 45.88 45.60 45.10 46.71 45.56 47.88 48.43 48.18
46.07 46.21 46.16 46.21 45.74 45.82 45.58 45.57 45.30 44.79 44.92 45.77 46.42 47.31 48.29 49.67 51.55 53.20 56.41 58.23 58.98 58.75 58.79 58.66 58.42 57.49 58.64 58.63 56.30 53.73 51.54 49.38 47.91 46.43 44.32 47.45 45.72 46.00 46.43 45.63 46.46 47.00 46.32

GFSSE_sfc_wetblb_048.txt.gz
Wetbulb
66.77 71.03 75.99 75.65 75.33 75.38 75.31 75.07 75.13 75.03 74.27 73.28 73.28 72.57 72.19 71.75 71.60 72.59 72.40 72.34 71.73 71.57 71.51 71.47 70.94 70.87 71.23 71.50 71.25 70.51 69.44 68.85 68.83 69.17 69.24 69.54 68.60 68.61 68.44 67.23 67.18 65.72 69.76
68.84 72.22 75.70 75.87 75.41 75.40 75.74 75.59 75.41 74.84 74.46 73.42 72.89 72.21 71.59 71.27 71.60 72.59 72.01 71.25 70.74 70.34 70.20 70.63 70.57 70.05 70.00 70.54 70.29 69.58 68.74 67.79 67.26 67.09 67.00 67.33 68.77 68.34 67.60 67.66 67.54 66.41 69.87
70.91 72.56 74.24 75.69 75.86 75.96 75.90 74.70 74.46 74.36 74.35 73.53 72.11 71.74 70.96 70.92 71.62 72.72 71.58 71.24 70.85 70.01 69.41 69.35 69.12 69.03 69.13 69.99 69.75 69.15 68.84 68.12 68.07 67.76 67.21 64.07 65.42 67.31 67.90 68.16 67.79 68.19 68.27
71.98 73.19 73.62 75.78 76.09 75.96 75.57 74.93 74.62 74.09 73.40 72.48 71.88 71.02 70.37 71.33 71.91 72.83 72.17 71.32 70.35 68.72 68.14 67.85 67.54 67.62 68.38 68.80 68.45 67.95 67.48 66.83 67.17 66.31 63.18 64.72 65.80 67.58 67.33 68.94 69.96 69.59 69.26
71.59 72.69 74.03 75.76 75.82 75.53 75.34 75.11 74.46 73.53 72.86 72.30 71.21 70.02 70.84 72.48 72.46 72.88 72.07 70.74 69.13 68.02 67.72 67.74 67.47 67.21 67.68 67.66 67.93 68.09 67.50 66.93 67.13 63.83 62.61 63.05 64.79 68.41 70.01 70.44 70.55 70.84 70.26
70.61 71.34 74.55 75.45 75.51 75.15 75.09 74.87 74.32 73.12 72.61 71.59 70.00 69.62 72.07 73.35 73.38 72.72 71.15 69.59 68.64 68.01 68.21 68.22 68.05 67.72 67.69 67.85 68.00 67.97 67.95 67.23 64.55 61.63 62.15 62.53 63.44 70.54 70.86 70.08 69.93 69.47 69.06
70.64 71.17 73.79 75.33 75.24 75.09 75.01 74.74 73.97 72.80 71.82 70.84 69.41 69.76 72.20 72.94 72.33 71.20 69.97 69.07 68.29 68.10 68.48 68.25 68.10 67.74 67.66 67.67 67.76 66.69 67.45 65.65 60.97 59.48 58.77 59.32 61.07 70.00 70.06 69.41 68.72 67.94 67.77
70.75 71.62 72.85 74.27 74.69 74.59 74.64 74.19 73.47 72.84 71.65 70.22 70.23 71.08 71.67 71.97 71.19 70.02 69.40 68.89 68.31 68.39 68.30 67.83 67.49 67.16 67.27 67.23 67.26 65.02 66.53 64.08 59.53 57.51 58.06 58.42 63.51 67.26 69.16 68.03 67.17 66.49 66.01
69.70 69.86 70.48 73.03 72.93 73.07 73.49 73.22 73.00 72.69 71.56 70.52 70.41 71.21 71.04 70.50 70.51 69.87 69.35 68.88 68.58 68.68 67.83 66.92 66.39 66.38 66.92 66.60 65.88 63.71 64.36 62.12 56.16 55.49 57.19 57.25 63.33 65.21 68.32 67.79 66.56 66.70 65.19
66.98 67.20 67.14 68.42 69.44 69.64 72.21 72.06 71.87 71.60 71.04 70.64 70.33 69.78 68.64 68.54 69.06 69.39 69.45 69.48 69.00 68.37 66.89 66.06 65.49 65.77 65.74 65.05 63.90 62.18 60.84 59.69 55.24 59.13 61.33 61.42 64.81 66.58 68.71 67.08 66.29 65.30 64.63
65.41 65.02 65.53 66.05 66.45 67.14 68.22 70.19 70.73 70.31 69.73 69.31 68.70 67.51 66.54 64.67 65.38 66.05 66.60 67.89 69.50 68.66 66.42 65.49 64.62 64.97 64.79 62.48 61.95 60.78 56.08 50.54 50.80 59.23 61.65 65.55 67.39 68.26 68.73 67.82 65.98 65.52 64.64
62.89 63.87 64.69 64.93 65.08 65.27 67.15 67.31 68.93 68.21 67.00 66.30 65.57 64.39 63.23 62.98 63.94 65.59 64.84 66.63 68.45 68.25 67.15 65.87 64.87 64.89 59.80 51.90 49.88 51.74 47.94 48.37 52.26 58.07 61.70 66.66 68.18 68.75 68.54 67.97 65.21 63.52 63.03
62.85 63.69 64.28 64.49 64.51 64.65 65.34 65.66 66.04 65.62 65.05 64.85 64.12 63.23 62.39 62.52 62.48 63.37 62.64 63.77 64.05 65.12 62.85 63.17 61.09 57.54 53.72 50.58 49.78 47.68 46.50 48.09 50.80 58.69 62.74 66.85 69.05 69.09 67.87 66.08 64.50 63.35 63.25
62.76 63.44 63.97 64.16 63.95 63.57 64.29 64.33 65.24 64.92 63.85 63.37 63.32 63.03 61.66 60.81 60.53 61.14 61.29 61.88 62.49 63.15 61.68 59.84 58.70 57.37 54.78 51.88 50.07 49.81 48.96 47.81 51.90 58.29 60.73 64.70 68.12 68.06 67.61 64.84 64.61 64.37 63.33
62.34 63.11 63.61 63.86 63.44 63.39 62.80 63.48 63.49 64.40 63.95 63.38 62.94 62.86 61.87 60.42 59.75 59.81 60.35 60.91 61.65 62.02 61.76 60.17 58.95 57.93 56.78 55.25 53.01 51.06 48.91 46.75 47.43 53.16 58.84 62.05 65.18 67.48 67.42 66.22 65.60 64.25 63.14
62.94 63.37 63.94 63.75 63.36 62.86 62.62 62.78 63.04 63.49 64.54 63.61 62.81 62.80 62.41 61.23 60.17 59.87 59.70 60.47 60.93 61.73 61.88 60.94 59.68 58.76 58.07 56.74 55.31 52.45 48.64 46.75 47.02 50.14 57.04 59.04 63.21 65.67 66.74 66.31 65.72 64.88 63.76
62.78 64.24 64.02 64.18 63.85 61.96 62.07 62.67 62.49 63.13 64.63 64.21 64.16 63.48 62.97 62.18 60.96 60.21 59.89 59.76 60.56 61.21 61.69 61.16 60.35 59.13 57.96 57.19 54.18 52.16 49.31 47.24 46.48 48.06 53.92 57.11 59.04 62.51 65.13 66.26 65.73 65.23 64.45
62.57 63.03 64.24 66.03 64.90 62.73 61.93 62.65 62.73 62.49 63.16 64.48 64.44 64.36 64.07 63.50 62.41 60.91 60.03 59.92 60.59 60.44 60.87 60.53 60.26 59.02 58.10 56.91 55.33 53.68 50.67 47.65 46.54 46.68 50.65 55.25 56.75 58.79 61.55 65.25 66.24 65.32 64.63
61.82 62.49 62.85 64.26 64.53 64.64 63.00 62.70 62.75 62.65 62.13 62.41 63.52 63.59 63.93 64.37 63.52 62.66 61.84 61.74 60.71 60.18 59.76 60.07 59.61 59.25 57.84 57.19 56.27 54.70 50.80 48.89 49.00 47.63 47.91 52.30 54.82 56.98 57.48 60.35 63.19 63.82 64.62
59.21 61.32 62.55 63.58 64.03 64.26 64.41 63.99 63.13 63.03 63.31 63.49 62.82 62.40 62.44 63.04 63.92 63.27 63.16 62.30 61.45 61.04 60.39 59.37 59.35 57.62 58.40 57.43 55.94 53.85 51.20 50.00 48.61 46.38 47.05 51.35 53.42 54.66 55.40 55.53 55.92 58.11 61.89
47.89 51.61 56.67 61.00 60.21 63.31 62.66 62.04 61.70 62.80 62.67 63.37 64.58 65.18 64.31 62.31 61.80 61.81 62.62 61.90 61.35 61.25 61.70 61.15 59.98 58.95 57.56 53.16 54.45 54.92 50.24 48.49 47.37 47.65 46.33 46.90 49.56 52.40 52.52 52.91 52.88 53.05 55.32
47.05 47.55 47.66 47.86 48.17 51.66 57.85 60.18 61.95 61.91 62.43 63.10 63.17 63.63 64.10 64.26 63.94 62.61 61.22 60.64 59.93 59.89 59.83 59.79 59.26 58.12 59.29 53.61 56.15 50.14 51.17 50.57 46.35 45.31 44.05 44.84 45.06 49.36 50.86 51.16 50.66 51.03 51.88
47.05 47.97 47.86 47.51 47.78 47.66 47.45 48.14 48.56 49.06 50.18 53.79 58.21 60.16 60.30 60.65 62.76 63.05 62.98 62.46 61.14 59.62 59.76 59.25 58.18 58.33 58.74 52.38 51.70 55.72 49.23 47.73 46.11 48.81 45.36 43.17 42.74 44.15 47.36 49.36 49.26 49.72 50.38
46.55 46.87 47.16 47.80 47.78 47.81 47.62 47.11 45.74 45.23 45.40 46.09 47.20 48.80 49.12 50.57 52.08 55.94 59.66 60.71 60.82 59.84 59.03 59.10 58.37 57.33 56.31 58.08 52.40 53.04 51.60 48.51 48.10 47.95 47.34 44.82 44.06 44.36 44.20 47.10 48.26 48.72 50.13
45.66 45.12 46.10 46.72 46.83 46.92 46.99 46.65 45.87 45.43 45.51 46.11 46.81 47.87 49.00 50.12 51.30 51.84 52.68 55.62 57.31 58.18 58.47 58.35 57.19 56.67 56.41 58.54 55.84 51.90 50.99 48.75 47.01 47.08 48.05 49.12 48.43 45.33 44.83 45.52 47.43 47.26 47.98
44.87 45.13 45.14 45.04 44.56 44.87 44.84 44.59 44.80 44.76 44.86 45.63 46.09 46.63 47.34 48.41 50.06 52.63 54.06 55.35 56.24 57.22 57.70 57.57 57.41 56.78 58.85 58.73 57.89 54.69 51.98 49.36 47.19 46.92 45.69 46.00 47.49 45.96 44.97 45.51 44.39 44.38 45.72

GFSSE_sfc_wetblb_051.txt.gz
Wetbulb
69.74 73.83 75.99 75.91 75.79 75.60 75.54 75.12 74.83 73.95 73.92 73.11 73.06 72.77 72.09 72.39 72.82 72.83 72.72 72.20 71.99 71.79 71.64 70.95 71.47 72.17 72.28 71.71 70.69 69.83 69.05 68.68 69.12 69.52 69.04 69.40 68.94 68.37 67.83 67.61 67.88 69.90 71.08
70.78 73.98 75.67 75.76 75.73 75.77 75.78 75.67 75.12 74.44 73.92 73.19 72.70 72.17 71.81 72.29 73.27 72.40 71.58 71.08 70.48 70.49 71.00 70.82 70.86 71.12 71.32 70.90 70.03 69.27 68.26 67.61 67.60 67.58 67.39 67.66 69.21 68.42 68.29 68.11 67.97 69.59 70.79
71.68 73.54 74.38 75.44 75.65 75.83 75.85 75.13 74.90 74.56 74.16 72.96 72.24 71.68 71.43 71.99 73.15 71.66 71.62 71.20 70.17 69.78 70.02 70.04 69.95 70.36 70.66 70.26 69.73 69.44 68.99 68.65 68.10 67.82 67.61 69.02 67.82 67.89 68.63 68.84 68.18 68.82 69.48
72.50 73.27 73.97 75.71 75.79 76.01 75.50 74.90 74.71 74.12 72.87 72.29 71.67 71.01 71.11 71.86 73.02 72.39 71.75 70.87 69.05 68.76 68.52 68.32 68.50 69.32 69.52 69.01 68.74 68.43 67.90 67.81 67.23 66.79 67.77 69.19 68.71 68.40 69.12 71.14 70.59 70.06 70.33
72.55 73.16 74.49 75.77 75.96 75.80 75.37 75.04 74.52 73.68 72.72 72.01 70.90 70.30 71.80 72.07 73.19 72.50 71.55 69.74 68.40 68.25 68.18 67.75 67.77 68.49 68.36 68.66 68.80 68.41 68.24 67.34 66.31 66.85 67.56 69.74 70.37 70.46 70.92 70.84 70.59 70.35 69.75
72.58 73.49 74.92 75.34 75.67 75.35 75.20 74.99 74.17 73.09 72.58 71.46 70.05 70.46 72.74 72.63 73.15 72.30 70.58 69.15 68.34 68.62 68.58 68.20 68.14 68.17 68.33 68.58 68.52 68.45 68.19 67.00 65.81 66.34 65.31 66.91 69.53 70.63 70.67 69.95 69.35 68.85 68.52
72.09 73.74 74.37 75.35 75.24 75.09 74.87 74.63 73.93 73.08 72.02 70.36 69.85 71.37 73.71 73.52 72.69 71.45 69.86 68.95 68.44 68.75 68.62 68.32 67.95 68.03 68.10 68.26 67.49 67.36 67.25 65.14 65.21 64.16 64.17 65.13 67.18 70.22 70.18 69.01 68.13 67.45 67.23
71.70 73.81 73.91 74.31 74.68 74.74 74.70 73.98 73.48 72.90 71.49 70.18 71.20 71.97 72.97 72.23 71.72 70.39 69.51 68.84 68.50 68.75 68.44 68.11 67.77 67.69 67.63 67.68 65.97 66.37 66.36 63.76 62.94 62.77 63.16 64.06 64.99 67.78 69.07 67.99 67.13 66.77 66.20
72.44 73.02 73.60 73.71 73.55 73.33 73.61 73.17 72.87 72.64 71.50 70.82 71.79 72.14 71.64 71.92 71.03 70.03 69.40 68.73 68.59 68.66 67.86 67.16 66.99 67.40 67.38 66.91 64.53 64.77 64.20 62.17 63.12 62.18 62.10 63.97 63.08 66.07 68.60 67.35 66.84 65.75 65.56
71.61 71.83 72.45 73.21 72.82 73.09 73.33 72.01 71.76 71.64 70.97 70.61 70.51 69.68 68.65 68.60 69.64 69.61 69.56 69.31 68.80 68.15 66.91 66.28 66.11 66.42 66.11 65.04 63.55 62.05 61.06 60.11 62.08 64.13 65.53 66.59 64.81 67.04 68.72 67.64 66.05 64.46 64.20
69.22 70.05 70.90 71.13 71.74 72.43 71.80 70.94 70.92 70.37 69.72 69.37 69.04 67.55 67.32 68.46 68.51 68.63 67.42 68.19 69.42 68.31 66.51 65.58 65.25 65.46 64.04 62.44 61.66 59.83 57.42 58.81 59.20 62.50 65.47 66.07 67.34 68.38 69.18 67.86 65.67 64.68 64.23
67.30 67.54 68.66 69.36 69.76 70.67 70.74 71.18 70.44 69.58 69.53 69.00 68.72 68.48 67.93 67.86 68.25 67.88 66.15 66.60 68.33 68.51 67.19 65.60 64.90 64.36 60.28 59.44 58.36 55.15 57.15 56.93 58.67 61.65 64.96 65.90 68.45 68.80 69.23 67.95 65.26 63.88 62.93
67.44 66.97 67.07 67.69 68.06 68.72 69.28 70.16 69.90 69.21 68.75 68.44 67.82 67.15 66.48 66.52 67.63 68.05 67.67 67.81 68.93 66.65 67.78 66.42 65.40 63.39 60.00 58.89 57.93 57.37 55.21 55.92 58.06 60.37 63.96 65.65 68.33 69.79 68.61 67.29 64.84 63.75 63.55
65.99 66.74 66.86 67.16 67.14 67.45 68.00 69.09 69.16 68.31 68.02 67.57 67.30 66.62 65.82 65.38 65.86 66.52 66.35 66.70 67.31 68.06 67.93 66.74 65.50 64.26 62.47 60.06 58.50 57.68 57.36 56.76 56.64 60.57 63.42 63.78 66.60 68.73 67.98 65.70 64.80 64.45 63.71
65.13 66.04 66.46 66.71 66.80 66.72 67.03 67.52 68.62 68.42 67.68 67.42 66.93 66.57 65.94 65.00 64.50 64.99 65.40 65.68 66.52 67.12 66.94 66.66 65.57 64.67 63.87 62.95 62.13 60.18 59.05 57.29 55.78 56.28 60.27 61.88 64.19 66.95 68.16 67.68 66.34 65.47 64.22
65.24 65.84 66.55 66.36 66.65 66.49 66.36 66.79 67.13 68.26 68.25 67.24 66.76 66.46 65.94 65.46 64.76 64.03 63.79 64.24 64.83 65.71 66.35 66.01 65.55 65.04 64.52 63.76 63.31 62.58 60.45 57.63 55.54 55.18 56.83 60.01 62.67 64.84 66.74 67.28 66.63 66.17 65.18
65.22 66.22 66.09 66.39 66.46 66.02 66.17 66.44 66.60 66.86 67.30 67.77 67.32 66.70 66.14 65.74 65.11 64.57 63.96 63.57 63.91 64.69 65.13 65.40 65.36 64.84 64.19 63.77 63.01 62.92 61.78 60.02 56.82 55.44 55.44 57.81 60.86 61.84 64.14 66.60 66.68 66.21 65.71
64.89 65.37 66.45 66.62 66.23 65.82 65.65 65.95 66.20 66.32 66.75 67.18 67.52 67.63 66.91 66.30 65.87 65.17 64.34 64.16 64.54 64.03 64.15 64.20 64.33 63.91 63.67 63.30 63.63 63.77 62.90 61.72 60.38 58.26 55.80 55.86 58.20 60.14 62.15 64.41 66.18 66.40 65.78
64.58 65.15 65.61 66.73 66.66 66.42 65.80 65.27 65.67 65.71 65.68 66.14 66.91 67.08 67.26 67.09 66.71 65.89 65.55 65.50 65.01 64.31 63.55 63.47 63.44 63.15 63.14 63.40 62.67 63.25 62.62 61.61 61.71 59.63 57.87 55.89 56.07 57.92 60.06 61.62 63.04 64.47 65.53
63.84 64.42 65.32 65.89 66.75 66.87 66.64 65.88 65.74 65.51 65.67 65.91 65.69 65.81 66.23 66.51 66.70 66.47 66.20 65.92 65.20 64.25 64.08 63.36 63.06 63.42 63.12 62.99 61.50 60.94 61.44 60.84 59.71 59.39 59.16 56.91 56.02 56.51 57.70 59.14 60.80 62.13 62.40
55.94 60.44 63.75 64.59 65.52 65.85 65.71 65.66 65.69 65.68 66.37 66.40 66.73 66.59 66.16 65.95 65.22 65.44 65.54 65.22 64.68 64.18 64.41 64.45 64.05 62.97 62.82 61.60 58.80 60.54 60.05 60.79 59.21 58.31 57.96 56.06 55.44 55.07 56.01 56.91 58.43 59.83 61.06
50.66 51.92 53.93 60.40 59.42 64.15 65.11 65.50 65.87 65.83 66.03 66.45 66.71 66.79 66.88 66.93 66.77 65.34 64.29 63.96 64.07 63.98 63.82 63.72 63.44 62.49 61.69 59.07 59.29 54.32 54.97 58.00 56.53 55.50 54.24 52.88 53.19 52.91 53.34 54.57 55.59 56.72 58.40
49.77 50.34 50.38 50.64 50.78 50.85 52.44 53.15 53.32 53.74 54.23 56.74 59.33 60.99 57.47 55.45 60.52 64.59 65.35 64.78 65.10 63.24 63.12 63.35 62.76 62.06 60.83 58.16 58.40 58.50 52.78 52.29 52.26 57.07 53.67 50.62 50.87 51.20 51.70 52.72 53.54 54.09 55.58
49.38 49.41 49.78 50.05 50.25 50.13 50.98 50.80 50.39 50.56 50.42 50.07 51.04 51.97 52.75 53.41 54.19 54.76 57.63 61.44 63.26 63.32 62.93 63.00 62.71 62.15 61.34 59.77 55.70 56.13 55.98 53.65 52.06 50.69 53.69 52.08 50.15 51.67 51.10 51.39 52.18 52.96 53.63
48.41 48.89 49.29 49.20 48.91 49.40 49.80 50.13 50.13 49.53 49.61 49.94 50.57 51.19 52.16 53.15 53.63 55.71 56.37 55.85 57.40 59.79 61.24 61.82 61.99 61.10 61.06 60.58 58.53 55.49 54.20 52.31 53.43 52.77 49.38 52.62 54.84 55.38 53.82 52.50 51.50 51.81 52.20
47.78 48.08 48.15 47.58 46.70 47.42 47.83 47.91 48.39 48.51 48.50 49.28 49.52 50.04 50.70 51.38 52.50 53.31 55.33 57.64 59.36 59.83 59.21 59.47 60.26 60.65 60.54 59.97 59.96 58.27 56.59 55.28 53.25 50.80 48.70 48.87 49.90 53.92 52.81 52.15 51.20 50.91 50.80

GFSSE_sfc_wetblb_054.txt.gz
Wetbulb
72.26 74.73 76.41 75.97 75.52 75.39 75.40 75.34 74.96 74.49 73.85 73.27 73.20 72.41 72.98 72.96 73.28 72.93 72.50 72.16 71.73 71.68 71.57 72.24 72.90 72.72 71.74 70.95 70.10 69.02 68.37 68.63 68.78 68.66 69.11 69.31 68.53 68.37 68.30 68.59 71.01 70.66 70.30
72.81 74.08 75.94 76.39 75.97 75.86 75.83 75.35 74.77 74.16 73.95 73.27 72.74 72.23 73.15 73.48 72.78 71.76 71.25 70.58 70.67 71.21 71.12 71.25 71.69 71.51 71.15 70.52 69.62 68.91 68.66 68.75 68.95 68.70 68.24 68.55 69.38 68.67 68.80 68.53 69.39 70.75 70.76
72.72 73.43 74.46 76.13 76.17 75.94 75.72 75.16 74.62 74.15 73.80 72.65 72.17 71.98 72.92 73.28 71.88 72.02 71.25 70.10 70.09 70.44 70.44 70.69 71.07 70.77 70.57 70.21 69.63 69.36 68.78 68.27 68.34 68.11 68.25 69.04 67.90 68.67 70.12 69.18 69.19 69.10 70.31
73.03 73.38 73.77 75.76 76.02 75.97 75.50 74.91 74.70 73.43 72.73 72.13 71.62 71.46 72.29 73.27 72.54 72.01 70.99 69.17 69.10 69.07 69.04 69.43 70.18 69.90 69.38 69.22 68.97 68.50 68.30 67.79 67.24 67.58 70.00 70.10 69.72 70.44 71.64 71.11 70.53 70.85 70.67
73.06 73.24 74.39 75.42 75.96 75.67 75.10 74.88 74.20 73.01 72.46 71.57 70.87 71.28 71.93 73.31 72.79 71.91 70.11 68.69 68.61 68.42 68.03 68.57 69.05 68.90 69.15 69.08 68.90 68.89 68.20 67.27 66.50 67.29 69.93 70.61 70.26 70.93 71.15 70.78 70.19 69.65 69.39
72.80 73.33 74.69 75.55 75.77 75.38 74.97 74.92 73.80 72.98 72.28 71.08 70.07 71.53 72.14 73.44 72.85 71.23 69.59 68.65 68.77 68.67 68.41 68.49 68.64 68.75 68.90 68.74 68.82 68.62 67.83 66.46 67.00 64.70 66.52 69.45 70.37 70.63 70.30 69.23 68.70 68.13 68.05
72.17 74.18 74.49 75.46 75.63 75.36 75.12 74.59 73.92 72.80 71.56 70.18 70.63 72.08 72.67 73.40 72.40 70.87 69.43 68.76 68.92 68.82 68.44 68.20 68.44 68.46 68.45 67.96 67.45 68.19 66.79 64.92 65.09 64.50 64.30 64.94 69.21 70.22 69.43 68.35 67.74 67.26 67.06
72.25 73.70 74.29 74.34 74.86 74.87 74.60 74.05 73.73 72.43 70.94 69.75 71.10 73.51 73.99 72.49 71.68 70.38 69.35 68.72 68.91 68.64 68.36 68.08 67.85 67.92 67.99 67.18 66.16 67.71 65.13 63.80 64.66 63.67 63.97 64.29 65.39 68.83 68.53 67.75 67.06 66.46 66.25
72.75 72.93 74.33 74.13 74.02 73.61 73.47 73.23 73.04 72.43 71.03 70.74 71.83 71.88 72.44 72.08 71.23 70.01 69.25 68.76 68.90 68.52 67.86 67.43 67.36 67.40 67.15 66.26 64.64 65.88 63.30 61.85 63.86 63.72 64.12 66.74 63.87 66.90 68.28 67.31 66.22 65.47 65.42
73.39 73.25 72.83 73.52 73.23 73.59 73.78 71.86 71.79 71.67 70.96 71.35 71.33 69.80 69.39 69.84 70.43 70.09 69.52 69.21 68.93 67.88 66.90 66.38 66.46 66.60 65.95 64.90 62.91 61.95 60.63 61.39 63.19 64.35 65.72 66.94 65.31 67.22 68.43 67.23 65.45 64.60 64.05
71.58 72.53 72.16 72.77 72.67 73.36 73.63 71.02 70.89 70.39 69.75 69.53 69.20 67.77 67.97 69.78 69.43 69.08 67.82 68.73 69.14 67.48 66.42 65.57 65.70 65.46 63.68 62.99 61.03 59.05 57.80 63.00 62.01 62.65 65.20 66.10 67.46 68.58 69.38 67.62 65.07 64.64 64.30
69.36 70.78 71.70 71.98 71.77 72.75 72.57 71.06 70.98 69.85 70.70 70.46 69.51 68.54 67.89 67.96 68.62 68.93 67.04 67.28 68.39 68.38 66.76 65.22 65.08 64.16 61.91 63.23 62.08 58.05 61.25 60.71 60.84 62.54 64.30 65.05 67.67 69.16 69.47 68.14 65.24 64.28 63.69
68.84 69.78 71.10 72.04 72.26 72.47 72.07 71.17 70.27 70.06 71.02 70.94 70.01 69.16 67.42 67.16 68.06 68.26 68.39 67.62 68.70 66.75 69.17 67.63 67.00 66.41 63.59 63.17 62.88 62.13 60.77 59.64 60.55 61.78 64.67 64.60 66.87 69.01 69.20 68.37 64.75 63.83 63.85
68.50 69.54 70.50 70.97 71.53 71.83 72.04 71.67 70.97 70.83 70.62 70.64 70.11 69.33 68.13 66.77 66.69 66.89 66.69 66.75 67.32 68.53 68.64 68.72 68.23 67.58 66.76 65.64 64.63 63.64 62.79 62.33 61.67 61.09 63.69 63.72 65.38 67.57 68.87 67.06 65.24 64.93 64.21
68.56 69.62 70.19 70.43 70.41 70.80 71.13 71.09 70.90 70.60 70.34 70.42 70.22 69.77 69.14 67.98 67.05 66.53 65.96 66.16 66.88 67.93 67.70 67.90 67.95 67.29 67.12 66.96 66.61 65.70 64.88 64.22 62.65 61.47 61.11 62.32 63.37 65.54 67.59 68.36 67.70 66.40 65.36
68.78 69.48 70.34 70.06 70.40 70.13 69.83 70.47 70.86 71.00 70.75 70.43 70.11 69.84 69.38 68.97 68.30 67.48 67.18 66.11 65.79 67.08 67.81 67.90 67.82 67.81 67.72 67.70 67.11 67.09 66.31 65.44 63.77 62.52 61.81 62.16 61.53 63.44 65.70 67.19 67.35 66.86 66.60
68.21 68.92 69.26 69.49 69.75 69.43 69.12 69.52 69.95 70.21 70.33 69.90 69.80 69.94 69.48 69.16 68.75 68.19 68.02 67.70 67.47 67.30 67.29 67.69 67.82 67.81 67.39 67.42 66.96 67.16 67.05 67.12 66.50 64.76 63.49 62.65 62.76 61.31 62.98 65.30 66.67 66.79 66.49
68.11 67.90 68.48 68.51 68.84 68.98 68.81 68.92 68.85 69.13 69.34 69.42 69.84 69.97 69.52 69.14 69.09 68.80 68.30 68.22 68.69 68.23 67.70 67.48 67.43 67.06 67.12 67.08 66.78 67.19 67.49 67.40 67.05 66.94 66.60 64.73 63.01 62.17 62.78 63.07 64.59 66.24 66.48
68.02 67.79 67.60 68.40 68.35 68.66 69.20 69.06 69.05 69.03 69.23 69.67 69.92 69.88 69.83 69.58 69.29 68.93 68.82 69.00 69.19 68.50 67.98 67.67 67.18 67.06 66.28 66.89 66.79 66.88 67.07 66.85 66.72 66.26 66.29 65.97 64.45 62.35 62.08 61.78 62.22 63.50 65.46
67.81 68.06 67.71 67.98 68.49 69.35 69.46 69.24 68.91 68.65 68.85 69.42 69.45 69.44 69.41 69.47 69.30 69.18 69.14 69.30 69.47 68.67 68.06 67.89 66.65 66.85 66.20 66.30 65.61 64.93 65.98 66.09 66.00 65.69 65.43 64.96 64.91 62.85 62.13 61.53 61.59 61.61 61.79
64.85 66.89 67.06 66.90 68.20 68.90 68.76 68.15 68.43 67.96 68.64 68.79 69.20 69.31 69.25 69.28 69.10 68.87 69.00 68.91 69.09 68.11 67.78 67.70 67.01 66.17 66.01 66.15 62.27 63.08 64.78 64.91 64.86 64.71 64.44 63.14 61.94 61.46 61.01 60.56 60.29 60.38 60.83
58.00 63.80 65.55 66.53 67.69 68.55 68.74 68.95 69.03 69.18 69.48 69.86 70.16 69.98 70.08 69.90 69.72 69.13 68.86 68.53 68.47 67.51 67.37 67.09 66.51 64.39 63.62 64.07 61.39 57.57 57.71 59.99 61.83 62.07 61.93 60.23 59.77 59.26 58.41 58.07 58.49 58.49 58.94
54.89 57.16 59.11 61.01 62.63 64.61 66.82 65.61 64.22 64.64 64.05 65.01 66.47 67.21 64.05 60.54 62.09 65.24 66.72 66.65 66.42 65.90 64.49 65.33 65.39 64.40 62.80 62.83 61.78 60.09 56.84 54.74 58.31 61.08 60.40 59.18 58.34 57.30 58.25 57.20 56.61 57.39 57.61
54.19 54.23 54.23 54.28 54.57 54.41 55.76 59.15 61.35 62.70 61.67 57.01 56.23 56.27 56.97 57.23 57.61 57.82 58.08 59.70 62.28 63.97 63.19 63.51 64.03 63.50 63.25 60.67 59.92 60.65 61.11 60.06 55.71 53.66 58.90 58.88 59.97 58.70 58.56 59.12 57.63 57.02 56.66
52.60 53.13 53.66 53.62 53.55 53.79 54.32 55.63 55.55 54.76 54.94 55.15 55.28 54.81 55.96 56.87 56.81 57.73 59.10 59.99 59.09 59.14 60.50 61.50 62.01 62.25 61.97 61.00 60.89 59.18 59.19 56.38 55.10 53.91 52.50 54.93 57.33 58.14 58.65 57.98 57.12 56.60 55.75
52.89 52.66 52.81 52.41 51.94 53.09 53.85 54.34 54.64 54.17 53.34 54.14 53.95 54.15 54.91 55.29 56.08 56.19 55.94 59.45 60.68 61.29 61.22 61.29 61.32 61.25 60.79 62.02 61.44 60.94 58.49 57.52 55.57 54.52 52.37 52.20 52.76 55.32 57.27 57.07 54.96 53.58 52.60

GFSSE_sfc_wetblb_057.txt.gz
Wetbulb
72.83 74.62 76.13 75.62 74.98 75.34 75.07 74.49 74.31 74.11 73.79 73.20 72.59 72.58 72.52 73.27 72.92 72.39 72.09 71.81 71.98 71.99 72.87 73.35 72.60 71.84 71.16 70.22 69.16 68.44 68.32 68.21 68.48 68.87 69.00 69.43 69.16 68.95 69.64 70.49 71.85 70.06 70.77
73.58 74.41 75.89 76.07 75.53 75.61 75.48 74.33 74.43 74.27 73.92 73.20 72.35 72.93 73.31 72.56 71.70 71.19 70.73 70.78 71.50 71.20 72.29 72.53 71.73 71.38 70.82 70.22 69.71 69.17 69.28 69.57 69.01 68.37 68.38 69.04 69.63 70.03 69.40 69.80 70.10 69.56 71.12
72.92 74.17 75.09 76.11 75.93 75.81 75.42 74.86 74.44 74.03 73.39 72.58 72.03 72.62 72.63 72.10 72.01 71.09 70.05 70.29 70.79 70.73 71.12 72.01 71.12 70.75 70.37 69.81 69.50 68.78 68.49 68.10 67.56 68.20 69.46 68.76 69.82 71.62 70.67 69.67 70.89 71.19 71.22
72.64 73.66 74.40 76.15 75.95 75.80 75.11 74.45 73.95 73.11 72.54 72.09 71.66 72.39 72.95 72.48 71.67 70.65 69.33 69.51 69.63 69.84 70.33 70.55 70.11 69.75 69.65 69.33 68.99 68.62 68.17 67.02 67.10 68.53 69.92 70.49 70.45 71.53 71.46 71.02 70.61 70.32 70.28
72.30 73.31 74.95 75.74 76.00 75.50 74.93 74.30 73.42 72.69 72.14 71.57 71.22 71.84 73.43 73.00 71.91 70.15 68.93 68.88 68.61 68.52 69.36 69.49 69.36 69.45 69.29 69.33 69.14 68.71 67.67 66.59 67.66 68.80 70.26 70.16 69.93 70.71 70.60 70.16 69.31 69.12 68.82
72.13 73.25 74.33 75.58 75.75 75.24 74.84 74.46 73.27 72.66 71.64 70.90 71.04 71.68 73.07 73.14 71.61 69.90 68.86 68.87 68.66 68.59 68.72 68.98 69.09 69.06 68.88 69.02 68.78 68.15 67.11 67.01 67.18 64.15 67.53 70.22 69.77 70.32 69.84 69.00 68.35 68.02 67.58
71.84 74.31 74.02 75.62 75.33 75.11 74.89 74.41 73.51 72.40 70.94 70.42 71.66 72.53 73.04 72.65 71.33 69.95 68.98 69.03 68.92 68.51 68.56 68.73 68.73 68.73 68.45 67.62 68.57 67.59 65.97 65.92 64.13 63.96 63.92 65.73 68.62 69.76 68.91 68.06 67.66 67.28 66.91
71.86 73.30 73.46 74.50 74.80 74.61 74.49 74.03 73.42 71.85 70.07 70.47 71.75 73.08 73.57 72.29 71.39 69.93 68.93 68.97 68.88 68.61 68.26 68.05 68.13 68.19 68.06 66.52 67.76 67.08 65.24 65.39 64.18 63.41 64.65 64.86 67.19 69.45 68.26 67.47 66.59 66.35 66.20
72.80 72.48 73.19 73.95 73.82 73.54 73.38 73.33 73.01 71.82 70.41 70.45 72.23 73.09 72.60 72.04 71.02 69.87 68.88 68.84 68.83 68.32 67.83 67.49 67.53 67.47 67.29 65.61 65.60 65.27 63.35 63.65 63.26 63.88 64.85 65.38 65.90 67.76 67.75 66.75 66.17 65.37 65.41
71.59 72.90 72.82 72.46 73.09 73.09 72.96 71.88 71.80 71.37 70.89 72.16 70.98 70.48 69.99 70.08 70.55 70.06 69.23 69.19 68.60 67.41 66.70 66.41 66.71 66.71 65.89 64.83 62.91 61.50 61.57 62.81 62.58 63.59 64.95 65.75 66.25 67.57 68.10 66.23 64.96 64.77 64.97
71.37 71.15 72.02 71.18 72.30 72.03 72.11 70.74 70.77 70.00 69.81 70.04 68.98 68.23 68.44 69.45 69.42 68.71 67.76 69.06 68.68 66.91 66.04 65.43 65.82 65.36 63.93 63.61 61.69 60.66 61.29 62.32 61.33 62.01 64.03 66.62 67.32 68.41 70.01 67.70 65.02 64.52 64.30
69.85 70.07 71.29 71.47 71.59 73.06 72.19 70.69 71.31 69.97 69.98 69.28 67.90 67.83 67.94 67.94 68.07 68.29 67.47 67.81 68.73 67.77 66.63 65.21 65.20 64.49 62.57 63.06 62.00 60.45 60.34 60.83 60.72 61.91 63.38 65.38 66.39 68.54 69.51 68.70 65.49 64.49 63.84
69.08 70.54 70.23 70.49 71.13 72.64 71.94 71.08 70.69 69.84 70.33 70.58 69.87 68.31 66.76 66.58 67.55 67.19 67.77 66.97 67.62 66.70 68.13 66.63 65.60 65.21 64.49 63.71 63.13 62.62 62.06 61.49 61.04 61.98 63.96 64.60 65.12 67.22 69.66 69.23 66.10 64.05 64.08
68.49 69.17 69.97 70.34 70.52 70.89 71.29 70.72 70.17 69.87 69.99 70.11 70.18 69.57 67.73 65.72 66.46 66.42 66.34 66.56 66.85 68.12 68.01 68.15 67.47 66.95 66.71 66.23 65.49 64.67 64.19 63.58 63.17 62.67 63.36 63.90 63.96 65.65 67.95 68.01 65.84 65.26 64.66
67.23 68.07 68.93 70.76 70.64 70.44 70.08 70.71 69.83 70.09 69.66 69.77 69.92 69.77 68.93 67.64 66.68 65.89 65.29 65.46 65.75 66.54 66.80 66.89 67.61 67.10 66.97 67.24 67.21 66.64 66.02 65.79 65.15 63.97 63.04 62.92 63.55 64.13 65.87 67.69 68.26 67.42 66.18
68.39 68.17 69.05 69.24 69.52 69.75 70.00 69.95 69.57 69.65 70.15 69.58 69.57 69.64 69.39 68.75 67.98 67.32 66.83 65.77 65.21 66.25 67.23 67.34 67.53 67.69 67.61 67.75 67.35 67.47 67.17 67.00 66.24 65.04 64.27 63.98 62.18 62.79 63.64 65.69 66.72 66.87 67.05
68.40 69.37 69.32 69.57 70.42 69.57 69.64 69.74 69.95 70.47 69.81 69.24 69.22 69.55 69.28 69.01 68.64 68.15 68.02 67.84 67.57 67.04 67.10 67.58 67.70 67.82 67.43 67.55 67.12 67.44 67.54 67.38 67.31 66.97 66.41 65.46 64.45 61.39 63.09 63.29 64.94 66.12 66.51
68.84 68.90 69.56 69.40 69.21 68.79 68.41 68.67 68.63 69.10 69.05 69.30 69.58 69.81 69.24 68.78 69.18 69.02 68.59 68.53 69.04 68.73 68.13 67.59 67.39 67.00 67.04 66.98 66.82 67.24 66.37 66.85 67.13 67.19 67.33 67.19 66.47 64.28 63.11 63.93 64.18 64.44 65.72
68.41 68.59 68.93 69.25 68.69 68.84 68.99 68.87 68.62 68.40 68.78 69.31 69.71 69.81 69.93 69.53 69.19 68.97 68.92 69.14 69.41 68.88 68.34 67.77 67.45 66.65 66.03 66.65 66.61 66.44 66.71 66.61 66.63 66.37 66.09 66.24 66.42 65.76 64.28 63.57 62.93 63.11 64.18
68.10 68.61 68.82 68.97 68.69 68.74 69.00 69.04 69.05 68.87 68.95 69.46 69.55 69.78 69.86 69.84 69.77 69.42 69.16 68.74 68.21 67.73 67.70 67.54 66.22 67.63 66.67 66.19 65.38 65.11 66.18 66.42 66.42 65.80 65.27 65.13 64.57 64.79 64.12 63.38 62.98 61.68 61.18
67.13 67.81 68.21 68.18 68.63 68.57 68.41 67.62 67.72 67.38 68.29 68.78 69.30 69.44 69.49 69.51 69.52 69.33 69.16 68.24 68.12 67.25 67.13 67.59 67.16 66.02 65.70 66.15 64.06 63.24 64.41 65.23 64.29 64.38 64.63 63.86 63.10 62.52 61.73 61.11 61.25 60.94 61.03
59.19 66.66 67.58 67.81 68.25 68.78 68.83 68.77 68.89 68.83 69.05 69.55 69.86 69.54 69.55 69.11 69.33 68.58 68.28 67.85 67.80 67.63 67.48 66.58 65.55 64.98 64.71 65.12 62.19 59.09 57.56 59.64 62.12 62.33 62.59 61.55 60.78 60.56 60.05 59.33 59.06 58.97 59.45
56.12 60.61 65.76 66.84 67.44 68.28 68.81 68.91 67.74 67.25 66.68 67.25 68.27 68.12 67.75 64.16 64.91 66.44 67.21 66.97 66.67 66.41 65.47 65.72 64.99 63.97 62.10 62.81 62.43 60.22 56.91 54.64 58.06 60.62 61.12 60.70 59.72 59.35 60.06 59.07 58.14 58.39 58.03
55.90 57.75 59.60 61.33 63.62 63.89 65.28 65.35 64.07 64.11 64.38 64.72 61.66 60.60 59.21 58.53 58.55 58.72 58.89 59.20 60.16 63.17 64.22 63.69 63.81 63.51 63.37 61.08 61.07 61.11 61.23 60.46 55.99 54.16 59.25 59.30 59.56 58.36 59.46 59.16 57.76 57.41 56.73
55.18 55.74 56.38 56.50 56.79 56.54 57.44 59.44 60.83 60.49 58.55 56.98 56.24 56.01 56.77 57.28 57.35 57.59 58.55 59.51 60.03 59.58 59.28 59.71 60.63 61.40 62.24 59.81 59.37 60.00 60.11 57.32 56.19 54.37 51.98 54.09 57.51 57.99 57.66 58.06 56.70 55.72 54.72
54.96 55.02 55.36 54.66 54.39 55.29 55.73 56.03 56.35 56.79 55.26 55.02 55.36 54.74 55.31 55.86 56.40 56.67 56.51 57.36 59.52 60.26 60.79 61.07 61.37 61.02 60.95 60.30 59.47 60.23 59.17 55.86 54.85 54.22 52.74 54.47 52.68 54.40 56.61 56.22 54.03 52.90 52.21

GFSSE_sfc_wetblb_060.txt.gz
Wetbulb
71.52 73.99 75.85 75.84 75.43 75.27 74.86 74.51 74.07 74.10 73.97 72.86 72.78 72.91 73.43 72.74 71.95 71.83 71.73 72.42 73.43 73.32 73.13 72.42 72.08 71.35 70.44 69.44 68.91 68.85 68.65 68.58 68.72 68.82 69.55 70.09 69.93 70.42 71.21 71.03 70.79 69.89 71.05
72.22 73.81 75.47 75.67 75.68 75.34 75.21 74.61 74.49 74.25 74.08 73.02 73.17 73.57 72.32 71.80 71.04 70.67 71.19 71.78 71.99 72.90 72.67 71.72 71.48 71.23 70.63 69.80 69.18 69.02 69.11 69.36 69.00 68.29 69.29 69.46 70.57 70.31 70.21 70.90 71.54 70.42 71.37
71.88 73.71 74.56 75.67 75.47 75.39 75.05 74.69 74.44 74.18 73.63 73.10 73.03 72.24 72.35 71.52 70.74 70.11 70.71 71.05 71.52 72.22 71.94 71.03 71.00 70.43 70.02 69.54 69.08 68.05 67.44 67.64 68.04 69.07 69.75 68.60 69.91 70.84 71.57 71.14 70.93 70.62 70.59
72.44 72.90 73.84 75.81 75.55 75.43 74.93 74.59 74.07 73.17 72.45 72.36 72.93 72.86 72.33 71.58 70.02 69.68 69.98 70.30 70.46 70.83 70.51 70.29 70.19 69.82 69.60 69.28 68.93 67.98 67.31 67.82 69.13 69.60 68.88 69.37 69.83 71.57 71.09 70.30 69.87 69.83 69.59
71.68 72.37 74.39 75.63 75.58 75.21 74.81 74.31 73.25 72.46 72.05 71.75 72.79 73.68 73.04 71.79 70.01 69.33 69.17 69.01 69.32 70.02 69.81 69.84 69.70 69.53 69.57 69.37 69.03 67.83 67.71 68.06 68.15 69.42 68.86 68.50 68.46 69.73 70.02 69.31 68.52 68.34 68.07
70.53 73.03 74.56 75.21 75.24 74.85 74.46 74.11 72.84 72.12 71.66 71.34 72.53 73.37 73.12 71.70 70.18 69.29 69.18 68.79 68.87 69.16 69.29 69.46 69.37 69.04 69.24 68.94 68.39 67.61 67.00 67.35 67.20 59.73 65.93 69.43 68.06 69.64 69.02 68.48 68.05 67.67 67.24
71.49 72.85 74.29 75.28 75.15 74.79 74.52 73.88 73.14 71.66 70.91 71.51 72.17 72.78 72.67 71.60 70.39 69.35 69.29 69.00 68.69 68.93 69.03 69.08 69.11 68.83 67.87 68.64 68.16 67.36 66.67 66.60 61.32 59.75 59.84 65.03 67.02 69.24 68.82 67.90 67.04 66.94 66.12
71.14 72.03 73.39 74.24 74.56 74.43 74.18 73.59 72.84 71.59 70.98 72.16 72.68 73.50 72.43 71.62 70.62 69.44 69.28 69.16 68.97 68.58 68.32 68.39 68.50 68.48 67.30 67.17 67.98 66.55 65.96 64.85 61.02 59.67 60.47 61.97 68.80 68.94 68.19 67.25 66.34 66.18 65.89
71.31 71.37 72.07 72.86 73.33 73.30 73.21 72.91 72.26 71.22 71.47 72.53 73.57 73.48 72.49 71.69 70.67 69.54 69.12 69.12 68.73 68.34 67.94 67.87 67.86 67.64 67.06 65.38 65.54 64.68 64.39 63.92 58.55 59.96 63.02 61.44 67.70 68.66 67.76 66.83 66.21 66.13 65.90
70.34 70.54 71.60 71.43 72.07 71.83 71.59 71.58 71.10 70.55 72.06 71.66 71.08 70.40 69.83 69.91 70.22 69.74 69.23 69.48 68.28 67.38 67.04 66.94 67.19 66.73 65.76 64.51 62.81 63.34 62.35 62.40 56.45 58.29 62.89 63.58 67.20 67.85 68.06 66.12 65.32 65.39 65.48
70.19 71.01 71.47 71.25 71.18 70.83 70.36 70.26 69.96 69.49 70.21 69.64 68.59 68.46 67.87 67.56 67.96 67.48 67.55 68.43 68.39 67.56 66.46 66.03 66.19 65.27 65.43 64.40 63.92 62.99 62.23 56.66 55.10 57.27 62.12 67.21 67.44 68.22 69.83 67.91 65.31 65.08 64.69
67.79 69.59 69.89 69.74 70.27 70.98 70.73 69.43 68.52 67.00 66.53 66.18 67.18 65.91 66.28 65.03 65.50 67.44 66.34 67.63 68.43 67.30 66.85 66.00 65.81 65.64 63.73 59.24 57.95 61.10 55.10 55.03 54.87 56.09 60.39 65.96 65.89 67.34 68.99 69.15 65.94 64.90 64.22
68.18 69.25 69.90 69.69 70.01 70.65 69.33 68.59 68.36 67.11 67.16 67.23 64.45 63.46 62.94 64.30 64.06 64.72 64.58 64.77 65.18 65.47 64.03 64.64 63.35 61.73 58.87 59.21 58.48 57.32 57.12 56.83 55.83 56.06 61.49 64.60 64.57 65.72 68.25 69.28 67.25 64.69 64.54
67.98 68.39 68.93 69.37 69.32 70.65 69.47 68.81 67.90 66.77 67.64 66.03 66.57 65.40 62.35 61.09 62.23 61.98 63.42 63.21 63.11 64.82 64.58 63.47 63.16 62.82 62.65 62.49 61.02 59.88 59.90 58.22 58.47 57.96 59.60 63.17 64.33 63.90 65.69 68.23 67.07 65.78 65.41
66.48 68.01 68.40 68.76 68.65 69.81 69.01 69.23 68.39 66.80 66.88 66.74 66.90 66.41 64.63 62.68 61.58 61.38 60.85 61.13 61.24 61.98 62.39 62.48 63.09 63.10 62.20 62.67 62.84 62.53 62.03 61.61 60.71 59.80 57.48 61.66 63.26 64.08 64.05 66.13 68.49 67.59 66.85
66.76 66.31 67.99 68.73 68.82 69.10 69.00 68.67 68.23 67.70 68.11 65.72 66.05 66.27 66.19 64.71 63.52 63.10 61.52 60.60 60.16 61.33 62.36 62.46 62.78 63.42 63.46 63.45 63.35 63.44 63.04 62.94 62.40 61.69 60.20 59.37 62.82 63.10 63.72 63.73 65.67 66.64 67.02
67.43 67.09 66.79 67.76 68.34 67.91 67.96 68.20 68.26 68.25 68.25 65.62 65.75 66.11 66.10 65.56 64.63 63.99 63.69 62.91 62.12 61.48 62.31 62.71 63.31 63.54 63.20 63.98 63.13 63.60 63.58 63.55 63.45 63.17 62.21 60.92 61.08 61.68 63.36 64.06 64.28 65.28 66.18
67.18 67.23 67.21 68.71 68.21 67.34 67.61 67.38 66.93 68.38 67.06 65.64 65.64 66.00 66.27 65.87 65.63 64.87 64.47 64.49 65.06 64.18 63.63 63.20 63.10 62.85 62.75 63.07 63.62 64.21 64.32 64.64 64.22 64.39 63.82 62.85 62.91 61.23 61.42 63.99 65.15 64.81 64.70
66.20 66.50 66.63 67.38 66.28 65.60 65.39 65.27 65.00 65.03 64.96 65.41 65.87 66.11 66.36 66.20 65.90 65.47 65.28 65.52 65.79 65.41 65.12 65.07 64.79 64.34 63.37 63.74 63.85 63.10 63.57 62.89 62.67 63.47 61.83 62.02 62.20 62.95 61.14 62.58 62.64 62.89 63.85
65.62 66.49 66.42 66.81 66.53 66.39 66.19 65.58 65.36 65.27 65.17 65.74 65.92 66.20 66.92 66.77 66.70 65.69 65.76 66.39 66.39 65.64 65.47 65.28 64.60 64.95 63.65 63.54 63.90 62.91 62.31 62.86 62.68 62.02 61.46 62.29 60.25 59.09 58.88 58.76 58.66 58.48 61.14
64.24 65.22 65.97 65.74 66.14 65.95 65.17 64.51 64.40 64.00 64.80 65.37 66.01 67.19 67.06 66.69 67.50 66.61 65.71 66.21 66.28 65.46 65.35 65.45 64.78 63.77 62.91 63.52 62.40 61.78 61.15 61.97 61.20 60.81 60.98 60.61 57.55 56.55 55.78 55.55 55.46 55.28 55.74
54.00 64.45 65.34 65.72 66.01 66.24 66.36 66.04 65.88 65.63 66.07 66.45 66.76 66.88 67.30 67.43 67.75 67.28 67.04 66.77 66.72 66.08 65.90 65.37 64.81 63.55 63.42 63.38 60.41 57.80 56.23 55.75 56.94 59.41 56.99 57.22 54.85 55.36 54.97 54.79 53.99 54.12 53.79
52.73 57.05 64.10 65.52 65.86 66.13 66.53 66.47 65.64 64.28 65.13 65.10 65.76 65.98 64.72 61.81 61.16 61.75 63.87 65.22 65.60 65.43 64.70 64.74 64.25 63.06 61.84 61.80 61.62 59.06 54.76 51.30 53.43 55.74 56.21 55.26 54.13 53.79 54.09 54.05 53.83 53.54 52.97
51.96 54.93 57.41 61.68 64.08 64.50 65.80 64.34 61.89 61.36 61.26 60.60 57.57 56.37 56.43 56.17 56.14 56.59 56.31 55.46 55.02 57.29 60.78 61.36 61.97 60.93 60.25 59.32 58.84 60.92 60.34 59.00 54.44 51.22 54.31 54.42 53.81 54.04 53.31 55.01 53.33 52.29 51.88
52.73 52.96 53.93 55.35 56.79 56.48 57.44 59.69 61.41 60.78 54.18 53.03 52.86 53.08 53.72 54.43 54.67 54.93 55.66 55.05 56.15 56.43 55.26 55.35 55.76 58.49 58.85 57.85 56.33 57.64 58.46 56.96 56.07 54.38 52.18 53.12 54.74 54.30 52.62 54.01 52.04 49.01 49.43
52.25 52.34 52.12 52.51 52.27 53.24 53.94 54.61 55.25 54.08 51.79 51.32 50.83 50.76 51.44 52.15 53.01 54.06 54.41 54.28 54.92 56.44 57.01 57.40 57.02 57.10 56.69 56.61 58.40 57.03 56.26 53.78 51.60 50.82 52.33 50.57 51.99 52.95 51.59 50.12 48.29 47.28 47.76

GFSSE_sfc_wetblb_063.txt.gz
Wetbulb
71.04 73.79 76.00 75.69 74.90 74.78 74.55 74.25 73.98 73.94 73.60 72.72 73.51 73.50 72.16 71.73 71.86 72.43 72.73 73.38 73.70 73.06 72.27 72.11 71.33 70.32 69.57 69.58 69.51 69.10 69.42 69.21 69.36 70.09 70.37 70.92 70.83 70.94 72.07 71.37 71.77 69.89 70.95
72.37 73.54 75.60 75.71 75.39 74.96 74.63 74.51 74.39 73.99 73.71 74.13 73.36 72.01 71.39 70.68 70.89 71.86 72.21 73.20 72.94 72.27 71.78 71.72 71.14 70.26 69.48 68.90 69.19 69.89 70.16 69.81 68.67 68.58 69.75 70.65 70.43 71.76 71.35 70.75 71.21 70.12 70.93
72.37 73.31 74.13 75.63 75.50 75.13 74.83 74.37 74.43 73.86 73.55 73.77 72.94 72.12 71.22 70.12 70.48 71.11 70.90 72.18 72.57 71.89 71.20 70.89 70.43 70.03 69.62 68.68 67.83 68.28 68.44 68.14 67.73 68.91 69.30 68.61 69.24 71.47 70.66 70.09 69.44 69.56 70.09
72.69 73.10 73.85 75.46 75.32 75.08 74.79 73.98 73.83 73.13 72.61 73.78 73.34 72.08 71.05 69.88 70.08 70.67 70.81 70.73 70.73 70.66 70.52 70.20 69.87 69.71 69.33 68.78 68.09 68.42 68.68 68.76 69.98 70.42 68.56 68.66 68.78 70.45 69.96 69.31 68.98 68.73 68.68
72.04 73.24 74.32 75.27 75.17 74.92 74.28 73.71 72.79 72.24 72.25 73.52 73.73 72.95 70.92 69.51 69.48 69.69 70.03 70.40 69.96 70.10 70.00 69.67 69.69 69.54 69.43 68.78 68.18 68.31 68.02 68.31 67.98 68.70 68.24 66.80 66.55 68.72 69.13 68.65 67.78 67.86 67.61
70.77 73.02 74.42 74.81 74.97 74.63 74.20 73.41 72.27 71.91 71.85 72.73 73.74 72.84 71.03 69.61 69.40 69.25 69.06 69.25 69.45 69.59 69.50 69.47 69.19 69.36 68.92 68.50 67.92 67.49 67.49 67.40 63.41 61.98 66.92 68.17 66.29 69.08 68.73 67.69 67.19 66.45 66.09
72.01 73.38 73.74 74.95 74.82 74.40 73.97 73.23 72.47 71.70 71.65 72.30 73.51 72.58 71.45 70.18 69.58 69.37 68.87 69.03 69.19 69.23 69.24 69.28 68.83 68.17 68.78 68.56 67.59 67.18 66.50 65.65 59.64 60.03 63.77 65.66 66.29 69.03 68.10 67.07 66.64 66.42 65.84
72.04 73.03 73.50 74.03 74.20 74.03 73.61 72.94 72.22 71.83 72.00 72.52 73.74 72.75 71.65 70.59 69.49 69.60 69.35 69.01 68.68 68.73 68.81 68.73 68.65 67.73 67.29 67.94 67.10 65.86 65.67 64.57 59.75 58.85 60.89 64.80 69.43 68.74 67.81 66.88 66.67 66.58 66.18
72.17 72.34 72.76 73.09 73.02 72.87 72.69 72.00 71.40 72.16 72.71 72.84 73.41 72.69 71.90 70.83 69.63 69.27 69.24 69.01 68.66 68.34 68.13 68.02 67.83 67.60 66.33 65.33 64.66 64.33 63.90 63.50 56.97 59.02 61.25 61.90 68.76 68.89 67.49 66.40 66.20 66.30 66.14
70.89 71.58 71.29 71.83 72.24 71.40 70.74 70.78 70.32 71.78 71.61 72.28 72.08 71.11 70.07 69.73 69.75 69.49 69.50 69.15 68.06 67.53 67.29 67.40 67.29 66.54 65.51 64.24 63.47 64.27 63.03 62.11 54.99 59.76 61.35 62.97 67.91 68.13 68.15 66.24 65.24 65.73 65.50
69.70 70.05 70.81 70.82 70.86 70.43 69.69 68.73 69.29 70.61 69.69 69.39 69.05 68.25 67.76 67.39 67.18 66.94 67.18 67.83 68.02 67.28 66.47 66.47 66.14 65.20 65.26 64.57 64.13 63.35 62.42 54.87 53.25 56.82 61.53 67.38 67.68 68.10 69.22 67.85 65.58 65.31 64.71
68.48 69.27 69.94 70.13 69.96 69.62 69.71 67.27 66.23 67.99 67.34 66.90 66.57 66.32 65.86 65.83 65.65 66.75 65.91 66.86 67.56 67.06 66.47 66.19 66.14 65.74 63.65 58.25 57.43 60.78 54.86 53.76 52.97 54.13 59.90 66.65 66.46 67.06 68.30 69.25 66.73 65.49 64.39
67.93 68.63 69.64 69.97 69.81 69.02 68.16 67.55 65.60 64.68 64.39 64.68 65.85 65.05 64.40 64.24 65.01 64.76 64.40 65.18 64.57 64.46 62.79 64.11 62.77 61.29 57.53 56.87 56.83 55.36 55.80 54.77 55.28 55.00 59.97 65.23 65.38 65.08 66.71 68.83 67.33 65.87 64.97
67.63 68.36 69.58 69.57 69.73 67.93 67.74 67.90 66.42 65.70 65.27 64.58 63.16 62.77 60.14 61.38 61.66 62.48 62.76 62.50 62.85 63.94 63.00 62.03 61.05 60.81 59.92 59.98 59.84 58.93 58.24 56.62 56.72 57.09 57.27 63.34 64.85 64.00 64.83 68.26 68.83 66.13 65.81
66.60 67.23 68.55 68.76 69.64 68.45 67.61 67.87 66.83 65.05 65.45 65.15 64.80 63.89 60.96 60.50 60.15 60.06 61.03 61.79 61.37 62.61 62.63 62.58 61.88 61.46 60.71 60.84 60.99 60.46 60.67 60.21 59.76 59.25 56.33 61.29 63.31 64.83 64.35 64.92 67.87 67.98 67.13
65.70 67.09 67.88 68.19 69.62 68.48 68.38 67.63 67.61 66.08 66.32 64.96 64.96 64.92 63.61 61.91 60.81 60.90 59.66 58.82 58.65 59.77 60.52 60.59 60.92 61.88 61.98 61.94 62.20 62.23 61.87 61.68 61.31 60.94 59.94 58.33 63.22 64.07 65.26 64.51 64.93 65.84 66.92
65.69 66.96 67.44 67.96 68.11 68.88 68.16 68.43 68.05 66.84 67.97 65.49 64.96 65.29 65.17 64.02 62.54 62.44 61.62 60.08 59.76 59.55 60.43 60.83 61.63 61.97 61.82 62.61 62.01 62.58 62.96 63.70 63.55 63.35 61.63 60.77 60.75 62.14 63.98 65.26 65.17 65.11 65.50
65.70 66.12 67.13 68.42 67.72 66.95 67.52 68.00 68.18 68.13 66.56 66.37 64.85 64.75 65.22 65.08 64.40 63.28 62.91 63.04 62.91 61.79 61.24 61.71 61.80 61.58 61.55 61.98 62.65 63.45 64.00 64.04 63.87 62.25 62.15 62.29 62.01 60.79 61.34 64.58 65.59 65.03 64.64
65.48 66.13 66.15 67.37 66.57 67.15 66.93 67.09 66.75 66.76 66.15 65.81 64.69 64.58 64.97 65.14 64.99 64.45 64.18 64.23 64.46 64.00 63.62 63.78 63.99 63.78 62.88 63.17 63.73 63.64 62.48 61.78 61.69 62.58 61.08 61.09 61.19 60.88 60.98 62.24 62.65 62.66 63.55
64.40 66.08 65.85 66.36 65.83 64.79 64.68 63.94 63.42 63.18 63.93 64.33 64.22 64.78 65.33 65.15 64.90 64.42 64.42 64.52 65.92 65.11 64.89 64.83 64.24 64.50 63.76 63.33 63.89 62.85 63.09 62.58 61.83 61.81 61.41 61.63 58.94 58.29 56.79 56.65 56.77 57.20 61.00
63.60 63.94 64.59 65.65 65.34 64.93 64.14 63.25 62.53 62.39 63.35 63.48 64.68 66.21 66.79 66.73 66.67 65.63 64.91 65.54 65.66 65.15 64.83 65.08 64.42 63.66 62.43 63.13 62.21 61.44 60.09 61.95 61.03 61.08 60.38 58.14 55.80 54.45 54.09 53.56 53.34 53.21 54.88
59.60 63.54 63.76 64.86 64.59 65.20 65.03 64.65 64.74 63.91 64.22 64.62 65.10 65.91 67.07 67.04 67.34 66.86 66.49 66.28 66.35 65.75 65.52 65.36 64.74 63.58 63.13 63.38 60.06 58.11 56.70 55.96 56.39 56.46 56.02 54.86 53.68 53.95 53.51 53.32 52.88 52.32 52.66
51.96 61.71 64.64 64.40 65.47 64.82 65.70 65.55 64.32 64.14 64.33 64.62 65.08 65.38 61.28 61.06 59.90 60.72 62.65 64.49 65.24 65.18 64.46 64.43 64.14 63.09 61.48 60.80 60.54 60.00 55.25 50.79 53.00 55.13 55.32 54.05 53.21 52.81 52.21 52.44 51.96 51.97 50.37
50.14 54.97 63.07 63.82 64.95 65.53 65.98 64.89 63.36 61.94 60.82 61.73 61.46 57.63 55.42 56.21 56.22 56.65 56.36 55.27 54.38 54.63 55.79 59.63 60.83 59.01 58.09 57.21 57.23 59.22 58.49 58.22 54.38 51.49 53.48 53.70 52.96 52.35 53.51 53.33 51.21 49.83 47.95
50.62 52.93 57.01 60.12 59.10 59.22 61.34 62.66 61.52 60.86 59.10 55.11 53.99 54.11 55.04 54.22 54.60 54.66 54.88 54.04 54.57 55.57 55.05 54.03 54.15 54.80 57.05 55.85 55.35 54.83 55.42 56.06 55.71 54.55 51.29 51.42 53.05 53.29 53.29 51.12 50.14 47.83 47.35
50.67 50.98 51.71 53.63 52.90 55.80 56.66 57.44 60.23 57.56 53.52 53.36 52.91 52.15 51.92 52.18 52.53 53.21 53.68 53.70 53.87 54.73 55.75 56.75 56.27 55.44 55.16 54.93 55.23 56.05 54.52 52.81 51.81 50.70 50.15 50.11 50.45 51.64 49.62 48.91 47.79 46.33 46.13

GFSSE_sfc_wetblb_066.txt.gz
Wetbulb
70.45 73.45 75.39 75.28 74.75 74.66 74.43 74.08 73.52 72.90 73.37 73.54 73.07 72.59 72.31 72.45 73.19 73.45 73.69 73.28 72.76 72.22 71.95 70.97 70.06 69.83 70.01 69.93 70.32 70.00 69.80 70.57 70.91 70.59 70.41 71.18 71.72 71.71 71.23 70.91 70.35 68.82 70.42
72.26 73.76 75.27 75.32 75.01 74.71 74.34 73.69 73.27 73.63 73.32 73.47 71.45 70.86 71.01 72.00 72.59 73.21 73.16 72.81 72.22 72.00 71.52 70.43 69.73 69.39 70.26 70.73 70.67 70.32 69.84 69.05 69.10 69.71 70.48 70.36 70.94 70.96 70.27 69.15 70.47 68.71 71.06
72.17 73.71 73.95 75.23 74.89 74.72 74.27 73.35 72.97 73.18 73.34 72.93 71.29 70.34 70.43 71.12 71.61 72.36 73.03 72.09 71.52 71.32 70.84 70.29 69.82 68.95 68.78 68.88 68.79 68.56 68.73 68.49 68.23 69.74 70.30 68.35 68.36 69.93 69.35 68.72 68.88 69.27 69.71
72.33 73.29 73.55 75.07 74.97 74.48 74.13 73.32 73.18 72.99 73.36 72.95 71.17 69.90 70.18 70.80 70.44 71.20 71.38 71.03 70.87 70.56 70.10 69.99 69.58 69.03 68.46 68.46 68.70 68.69 70.25 71.25 70.61 69.86 67.73 67.25 67.53 69.21 68.78 68.37 68.18 68.02 68.23
71.43 73.05 73.84 74.79 74.62 74.40 73.63 73.10 72.85 73.36 73.31 73.11 71.45 69.96 69.75 70.19 70.73 71.12 70.51 70.26 70.18 69.80 69.67 69.71 69.52 69.16 68.47 68.33 68.20 68.34 68.31 70.07 69.82 68.38 66.28 65.48 65.40 68.03 68.14 67.69 66.72 66.52 66.58
71.32 72.52 74.03 74.48 74.46 74.21 73.64 73.10 72.38 73.29 73.10 72.78 71.44 69.87 69.39 69.47 69.83 70.25 69.89 69.72 69.74 69.39 69.48 69.52 69.24 68.84 68.36 68.06 67.88 67.59 66.92 65.24 66.48 66.04 66.09 67.21 65.29 67.88 67.52 66.86 66.40 66.01 65.46
71.82 72.80 73.37 74.51 74.10 73.79 73.10 72.81 72.59 72.66 73.35 72.96 71.70 70.52 69.52 69.39 69.24 69.33 69.40 69.39 69.46 69.37 69.37 68.80 68.81 68.94 68.51 67.79 67.26 66.38 65.75 64.49 59.83 62.83 64.22 64.94 65.54 68.18 67.82 67.22 66.98 66.60 65.72
71.93 72.34 72.73 73.24 73.75 73.48 72.72 72.44 72.24 72.50 72.90 73.47 72.53 71.07 69.87 69.61 69.29 69.02 69.22 69.27 69.21 69.18 69.20 68.89 67.94 67.76 68.08 67.38 66.28 65.21 64.71 63.50 58.86 59.88 63.31 64.58 68.87 68.23 67.44 66.88 66.85 66.69 66.02
72.09 71.88 72.24 72.35 72.47 72.36 72.09 71.74 71.69 72.32 72.68 73.49 72.67 71.88 70.81 69.63 69.52 69.40 69.01 68.76 68.64 68.54 68.45 68.33 67.97 66.83 66.05 65.09 63.91 63.99 63.91 63.49 55.36 58.62 61.42 63.22 69.17 68.32 67.30 66.20 66.12 66.16 65.90
71.46 71.62 71.45 71.60 71.46 70.30 69.33 70.56 71.40 71.98 72.31 72.63 71.83 70.84 69.65 69.07 69.32 69.33 69.32 69.05 68.34 68.07 67.99 67.81 67.26 66.62 65.38 63.90 64.27 63.84 63.08 60.38 53.91 58.86 59.67 61.10 68.19 68.45 68.10 66.39 65.37 65.56 65.31
70.05 70.25 70.78 70.56 69.85 68.95 67.97 68.06 70.66 70.42 70.72 70.90 69.99 68.59 67.84 66.76 66.80 67.17 66.87 67.60 68.07 67.48 67.00 66.94 66.56 65.72 65.04 64.38 64.27 63.64 61.43 53.46 51.76 57.52 60.47 66.49 67.58 68.00 68.70 68.84 65.88 65.47 64.57
67.77 69.13 70.00 69.82 69.00 68.23 68.18 65.69 67.21 68.43 67.64 67.64 67.30 66.45 65.72 65.29 64.83 65.95 65.55 66.32 67.32 67.14 66.69 66.52 66.20 65.90 63.20 57.32 57.07 59.64 54.67 52.97 52.00 53.71 59.34 66.84 66.89 66.63 67.93 68.90 67.19 65.98 64.58
67.64 69.20 69.51 69.62 69.35 68.00 66.92 64.71 64.69 65.21 65.74 65.83 65.59 65.03 64.75 65.15 64.32 64.36 63.91 64.17 62.92 63.57 61.65 63.26 61.97 60.47 57.11 56.02 56.34 55.82 55.08 54.00 54.05 54.29 58.01 65.59 65.99 64.85 65.37 67.84 69.24 66.67 65.41
66.46 67.93 69.21 69.64 69.11 67.56 67.06 65.43 63.98 63.33 62.86 63.25 64.49 64.47 62.58 62.53 63.27 62.85 62.61 62.68 62.01 62.92 61.18 60.91 60.20 60.10 59.56 58.34 57.15 57.26 56.97 56.44 55.45 56.44 56.06 64.03 65.59 65.01 64.97 66.62 69.08 67.30 65.91
66.12 67.29 67.64 68.87 69.09 67.86 66.60 66.70 65.00 64.13 64.03 63.72 62.58 62.45 60.44 61.69 61.87 61.72 61.89 61.39 60.89 61.62 61.88 61.73 61.36 61.29 60.74 60.52 59.98 59.54 59.30 59.14 58.62 58.61 57.01 60.80 63.91 65.76 65.33 65.17 66.99 68.32 67.31
66.08 67.09 67.34 68.88 68.82 68.06 67.04 67.45 66.28 64.99 64.89 64.43 63.60 62.66 60.25 61.19 60.09 59.51 58.97 60.95 60.52 60.34 61.93 60.82 61.71 60.82 60.47 60.58 61.25 61.28 61.11 60.97 60.44 60.36 59.75 58.09 62.57 64.62 66.21 65.47 65.51 66.10 66.64
65.83 67.32 67.62 67.57 68.30 67.76 67.79 68.11 67.01 66.18 65.90 64.25 64.52 63.82 62.18 61.25 60.28 60.37 59.86 57.84 58.43 58.33 59.37 59.54 60.04 60.77 60.87 61.50 61.15 61.70 61.71 63.25 62.95 63.09 62.43 61.44 60.36 62.12 64.23 65.83 66.41 65.08 65.60
65.37 66.72 67.32 68.34 68.76 67.86 67.88 67.93 68.31 67.90 66.56 65.82 64.55 64.43 64.06 63.28 62.20 61.70 61.38 61.36 60.66 59.39 59.03 59.66 60.62 60.68 60.89 61.20 62.30 62.26 63.64 63.64 63.10 62.19 61.22 60.93 61.23 62.08 61.90 64.30 66.23 65.48 64.55
65.41 66.22 66.79 66.73 66.43 67.45 68.10 67.86 67.94 67.75 66.68 66.50 65.78 65.07 64.24 64.27 63.87 62.94 62.60 62.97 63.28 62.67 61.61 62.13 62.66 63.19 62.45 62.55 62.93 63.26 63.07 62.91 62.33 62.54 61.45 61.08 60.40 60.05 59.50 61.91 62.31 61.88 62.44
65.16 65.41 65.34 66.06 66.13 66.82 66.73 66.12 65.66 66.23 65.18 65.70 65.15 64.84 64.18 64.26 64.17 63.60 63.84 63.98 64.54 64.83 64.46 64.14 63.73 64.05 63.81 63.45 62.81 62.92 62.17 63.05 62.29 60.85 60.81 61.19 58.31 57.49 56.83 56.08 55.37 57.81 62.37
64.05 63.86 64.86 65.22 65.44 64.71 63.54 62.98 61.67 61.52 62.34 63.35 64.27 65.19 64.99 65.68 64.94 63.68 63.65 63.99 63.98 64.31 64.54 64.53 64.20 63.76 63.35 62.17 61.87 59.25 60.08 60.17 60.50 59.28 58.26 58.66 55.41 54.99 53.20 54.24 52.91 53.59 55.44
63.22 64.17 64.05 64.89 64.40 65.11 65.02 63.74 63.06 62.42 63.04 63.37 63.72 64.97 66.19 66.14 66.23 65.52 65.28 65.20 65.46 65.21 64.65 64.99 64.53 63.49 63.18 62.67 58.55 56.16 54.66 54.84 54.84 54.94 54.22 53.18 52.82 54.67 54.00 53.54 52.20 52.39 50.88
58.78 62.65 64.37 65.12 65.03 65.15 64.79 64.15 63.44 63.69 63.87 63.65 63.56 64.07 63.48 64.33 65.54 65.74 65.62 65.55 65.22 64.99 64.31 64.03 63.22 62.79 60.29 59.22 58.87 57.08 52.14 50.02 52.14 54.25 53.59 53.68 53.85 53.37 52.73 51.40 51.27 49.95 48.61
51.75 58.96 63.35 64.79 65.16 64.90 64.54 63.80 62.92 62.42 61.45 62.25 62.55 60.54 57.43 58.28 57.23 57.15 56.32 55.97 55.76 55.85 56.12 57.82 59.94 58.20 57.11 55.60 55.78 58.02 57.04 55.55 52.61 49.62 52.70 53.53 52.63 52.44 50.87 51.36 50.16 48.12 47.58
48.59 50.03 58.42 61.64 62.78 63.11 64.25 64.52 63.48 61.29 61.82 58.47 57.57 57.49 58.52 58.20 58.32 57.93 56.83 55.34 54.50 55.04 54.95 54.23 53.48 53.28 55.38 54.95 54.01 53.70 54.12 53.41 53.78 51.90 48.84 50.36 51.60 52.10 50.93 49.20 47.96 47.09 47.42
49.44 51.26 54.03 57.60 57.72 58.67 59.87 60.93 61.74 61.72 57.44 56.19 55.11 55.60 55.45 54.78 54.72 55.06 54.97 53.12 53.00 53.68 54.30 55.01 55.43 55.00 54.98 54.81 54.58 54.66 53.48 51.95 50.46 49.98 49.21 49.39 49.51 49.43 48.63 48.33 47.68 46.89 45.31

GFSSE_sfc_wetblb_069.txt.gz
Wetbulb
70.03 72.32 74.61 74.83 74.46 74.24 74.02 73.36 72.51 73.05 73.56 72.66 72.44 72.74 73.75 73.82 74.06 73.73 73.37 72.82 72.39 71.49 70.44 70.00 69.93 70.17 70.91 70.96 70.82 71.06 70.74 70.25 70.29 70.58 71.27 71.44 71.01 70.52 70.22 70.68 69.92 68.79 71.61
71.64 72.64 74.61 75.00 74.52 74.26 73.88 73.23 72.53 73.49 73.33 72.04 71.77 72.36 73.34 73.60 73.64 73.76 72.90 72.49 71.86 71.15 70.14 69.99 71.03 71.08 71.13 70.91 70.43 70.05 69.82 69.91 70.01 70.58 70.39 69.79 70.02 69.61 68.87 69.10 69.54 69.50 70.66
71.88 72.83 73.21 74.65 74.32 73.86 73.66 72.78 72.65 72.71 72.60 70.99 70.37 71.54 72.57 73.28 73.47 73.06 72.26 71.76 71.36 70.49 69.80 69.70 70.42 70.19 69.74 69.12 69.20 69.37 68.92 69.51 70.35 70.47 69.75 66.60 66.25 68.90 68.65 68.15 68.26 68.89 69.18
72.24 72.57 72.46 74.41 74.09 73.71 72.95 72.72 73.24 72.99 71.48 70.33 69.99 70.55 71.45 72.13 73.12 72.57 71.84 71.06 70.38 70.13 69.84 69.21 69.27 69.21 68.90 68.84 69.65 71.08 71.10 69.61 69.61 68.78 66.13 65.69 66.41 68.23 68.22 67.78 67.55 67.52 67.62
71.82 72.50 72.90 74.26 74.20 73.90 72.79 72.96 73.19 72.91 71.44 70.20 70.19 70.73 71.40 70.90 71.38 71.01 71.08 70.50 69.84 69.74 69.69 69.31 68.85 68.62 68.52 68.54 68.70 70.35 71.06 70.40 69.33 67.09 65.07 64.49 64.56 66.94 67.44 66.92 66.07 66.05 66.01
70.64 72.03 73.08 73.68 73.95 73.88 73.30 73.32 73.24 72.38 71.79 70.16 69.58 69.90 70.45 70.88 70.39 70.14 70.16 69.60 69.39 69.49 69.40 69.26 68.79 68.32 68.16 68.21 67.67 67.22 68.12 69.56 67.56 64.86 64.74 66.33 63.88 67.82 67.61 67.43 67.00 66.32 65.76
70.56 72.08 72.24 73.68 73.46 73.25 72.87 73.01 73.55 73.35 72.36 70.61 69.43 69.48 69.79 70.11 70.38 69.54 69.29 69.36 69.25 69.24 69.23 69.04 68.62 68.19 67.85 67.62 66.83 66.49 65.28 65.11 62.62 62.98 63.53 63.98 64.65 68.10 67.85 67.70 67.33 66.65 65.84
71.08 71.85 71.92 72.82 73.03 72.93 72.56 72.53 73.06 73.65 72.65 71.13 70.08 69.37 69.21 69.29 69.52 69.44 69.29 69.20 69.20 69.17 68.64 68.40 68.45 68.33 67.76 66.71 65.77 65.21 64.21 62.35 59.84 60.61 63.16 63.70 68.39 67.80 67.29 67.04 67.01 66.85 65.98
71.10 71.27 71.39 71.70 71.78 71.81 71.84 71.79 72.08 73.09 72.84 72.23 71.37 70.24 69.63 69.25 69.06 69.19 69.18 69.07 69.00 68.93 68.60 67.98 67.21 66.97 66.57 65.34 64.15 64.26 63.89 61.49 56.49 58.47 63.17 63.44 68.08 67.81 67.04 66.18 66.25 66.36 65.85
70.17 71.09 70.71 70.73 70.36 69.18 69.08 70.69 71.01 71.63 72.18 72.04 71.16 70.03 68.89 68.93 69.30 69.06 69.11 69.07 68.56 68.29 68.03 67.67 67.15 66.11 64.95 64.12 64.19 63.57 62.09 59.67 54.79 58.10 58.62 60.05 67.78 68.15 67.71 66.40 65.44 65.55 65.38
69.93 69.84 70.22 69.98 68.79 67.57 66.82 68.76 70.55 70.84 70.90 70.59 69.69 68.25 67.27 65.85 66.38 66.87 66.51 67.75 68.38 67.98 67.60 67.20 66.53 65.69 65.49 63.94 63.77 63.18 58.95 52.35 51.15 58.21 59.37 63.48 67.33 67.33 68.09 69.57 65.89 65.47 64.64
68.22 68.93 69.30 69.34 68.44 66.98 67.17 66.89 67.48 68.37 69.11 69.26 67.48 66.09 65.18 64.64 64.82 65.56 64.97 66.18 67.38 67.33 67.07 66.77 66.26 65.84 62.92 56.35 56.07 58.63 53.91 52.30 51.45 52.70 58.78 64.36 66.82 66.26 66.81 68.40 67.53 65.99 64.75
66.99 68.08 68.95 68.72 68.22 66.70 65.12 64.49 65.88 65.97 66.11 66.52 65.91 65.11 64.21 64.17 63.11 63.77 63.19 63.43 62.21 63.39 61.07 62.76 61.23 59.61 56.34 55.40 55.75 55.22 54.63 54.03 53.13 53.64 56.03 63.96 65.92 65.56 65.33 66.28 68.12 67.53 66.14
65.40 66.45 68.68 69.26 68.29 66.77 65.32 64.14 65.33 65.54 65.03 64.72 64.87 64.49 63.17 62.75 62.31 62.39 62.17 62.09 61.25 61.10 59.20 59.41 59.46 59.08 59.00 57.97 56.75 57.00 56.95 56.25 54.98 55.30 56.43 61.72 65.79 65.40 65.43 65.61 67.59 67.72 66.77
65.32 65.70 66.45 67.37 68.33 67.20 65.35 64.64 63.67 63.20 64.39 64.66 63.94 63.91 62.45 61.65 62.32 62.41 61.75 61.22 60.71 60.54 60.80 60.41 60.47 60.36 60.44 60.42 59.83 59.11 58.80 58.45 58.30 57.96 57.50 59.90 63.48 66.04 65.88 65.77 66.37 67.61 67.46
61.70 62.37 65.55 67.15 67.26 67.18 66.30 65.70 64.81 63.86 63.32 62.90 62.22 62.67 61.70 61.86 62.19 61.91 61.18 60.93 60.11 60.15 61.15 61.22 60.88 61.24 60.49 59.75 59.91 60.26 60.07 60.36 60.20 60.66 61.23 60.71 61.53 63.61 66.30 65.71 65.90 66.36 66.24
64.29 63.92 65.63 67.03 67.34 66.32 66.25 66.11 66.45 65.72 65.14 64.14 63.87 62.42 60.25 60.87 60.61 60.19 58.68 58.12 60.46 59.88 59.61 60.20 59.06 59.43 59.91 60.67 60.48 61.09 61.23 61.23 61.82 62.86 62.71 62.35 62.26 61.51 63.48 65.46 66.84 65.97 65.51
64.74 64.45 66.71 67.79 68.11 67.81 66.66 66.49 67.21 66.53 65.47 65.06 64.15 63.81 62.11 60.73 60.19 59.29 59.05 58.66 58.04 57.73 57.81 58.20 59.36 59.99 60.27 60.47 60.60 61.35 62.64 63.52 63.24 62.89 62.52 62.15 61.40 62.11 62.17 63.70 65.64 65.60 64.22
65.33 65.48 65.83 66.21 65.89 66.32 67.71 67.96 67.89 66.85 65.90 65.64 65.07 63.99 63.36 62.53 61.66 61.22 60.80 61.14 61.30 59.65 59.02 59.27 60.11 62.05 61.09 61.86 62.24 62.69 61.21 62.47 62.39 62.41 61.18 60.75 60.60 60.11 60.17 61.84 62.09 61.72 62.47
65.20 66.12 66.28 66.43 66.85 67.22 67.92 67.85 67.39 67.40 66.35 66.49 65.53 65.59 65.15 64.01 63.21 62.06 61.98 62.01 62.69 62.31 62.35 62.73 62.55 63.35 63.14 63.28 63.10 62.21 61.15 60.81 61.37 59.98 59.14 60.52 59.33 58.02 57.01 55.85 57.21 60.02 62.63
64.34 63.84 64.89 64.74 65.20 65.60 64.88 65.00 64.65 64.19 64.27 64.31 64.93 65.18 65.13 64.70 64.25 63.19 62.66 62.93 63.10 62.91 63.38 64.08 63.76 63.24 62.93 62.46 61.07 59.13 58.56 59.14 58.82 56.68 55.58 57.09 55.42 53.95 53.21 54.07 56.84 56.08 56.88
62.59 63.21 64.38 64.78 65.09 65.52 65.34 64.00 63.28 62.36 62.26 63.30 64.01 64.57 65.11 64.68 64.89 64.26 63.50 63.15 64.16 64.25 64.12 63.38 63.34 62.87 62.75 62.66 59.31 56.26 54.35 54.96 54.20 54.38 53.02 52.92 51.68 52.46 53.16 53.74 53.76 52.41 50.66
60.14 61.84 63.90 64.58 64.99 65.15 64.71 63.95 63.15 62.63 63.04 62.64 63.71 64.01 64.64 65.23 65.51 65.17 64.91 65.03 65.04 64.63 64.01 63.91 63.47 62.74 60.38 58.54 58.45 58.01 53.96 49.71 51.19 53.71 52.88 52.05 51.36 51.64 52.40 52.27 50.69 49.14 48.42
52.29 60.43 62.74 63.24 63.43 63.58 63.18 62.88 62.39 60.90 60.48 62.24 62.66 61.31 58.93 59.12 59.69 60.08 59.63 59.91 59.28 58.15 57.78 58.19 60.86 60.44 58.93 56.04 55.02 56.95 56.02 55.27 53.38 49.47 51.72 52.49 51.50 51.43 50.51 50.49 48.54 47.83 47.26
50.77 51.71 59.87 61.81 62.96 63.42 63.29 63.76 62.86 61.29 61.75 61.36 59.65 58.07 57.69 58.07 59.10 59.31 59.05 58.18 56.41 56.10 55.86 55.01 53.03 52.85 54.87 54.17 53.65 52.93 52.61 52.79 53.32 54.01 49.36 51.16 50.40 50.37 49.48 49.03 48.23 46.98 46.91
47.53 50.45 55.59 59.57 61.13 60.88 61.47 62.57 62.65 62.07 59.48 58.28 57.03 57.15 57.33 57.06 57.13 56.57 55.41 54.41 53.82 54.06 53.96 53.88 53.81 53.59 53.25 53.19 53.16 53.03 55.00 52.46 49.49 49.32 49.07 48.91 47.89 46.94 46.83 47.71 47.42 45.79 46.50

GFSSE_sfc_wetblb_072.txt.gz
Wetbulb
69.10 71.62 74.60 74.59 74.29 73.81 72.76 72.25 72.52 73.63 73.21 72.80 73.59 74.31 74.45 74.24 74.04 73.84 73.29 72.54 71.53 70.62 70.22 70.50 70.95 71.47 71.59 71.40 71.12 69.93 70.34 70.58 71.55 71.06 70.56 70.50 69.98 69.67 70.11 70.72 70.50 69.42 71.74
70.54 72.18 74.50 74.86 74.45 73.96 73.34 72.12 73.03 73.37 72.99 72.65 73.25 73.77 74.00 73.96 74.01 73.43 72.78 72.12 71.01 70.44 70.78 70.82 71.13 71.43 71.28 70.97 70.77 70.36 70.08 71.15 70.69 69.98 69.31 68.75 69.46 69.12 69.09 69.03 69.27 68.30 70.49
71.25 72.25 72.95 74.60 74.45 74.03 73.44 72.34 72.97 72.66 71.92 71.73 72.81 73.43 73.75 73.75 73.43 73.01 72.20 71.57 70.14 70.01 70.95 71.21 71.16 70.52 69.96 69.77 69.68 69.97 70.63 71.05 70.32 69.40 68.47 65.16 65.67 68.53 68.54 68.00 68.02 68.29 68.98
71.49 72.20 72.11 73.97 73.94 73.50 72.55 72.49 72.94 71.54 70.40 70.80 72.45 73.09 73.32 73.63 72.86 72.08 71.76 70.89 70.03 69.81 70.63 70.45 69.91 69.66 69.61 70.64 71.47 70.51 70.53 70.30 69.13 67.79 64.95 64.82 65.26 67.72 67.46 67.11 66.93 66.89 67.27
71.14 71.69 72.18 73.81 73.77 73.20 72.44 73.17 72.38 71.12 70.06 70.27 71.80 72.62 73.11 73.50 72.72 71.88 70.91 70.25 70.02 69.51 69.54 69.67 69.13 68.99 69.12 70.22 71.37 71.17 70.87 69.62 68.27 66.00 64.09 63.28 63.12 67.06 68.25 67.58 66.51 66.61 66.39
70.20 71.17 72.56 73.30 73.47 73.22 73.35 73.04 72.02 71.16 69.83 69.82 70.89 71.59 72.24 71.99 71.61 71.06 70.02 69.62 69.64 69.53 69.14 69.14 68.70 68.43 68.64 69.02 68.81 70.75 70.31 69.13 66.74 63.70 63.82 65.05 63.46 68.36 68.53 68.05 67.40 66.76 66.37
70.03 71.37 71.65 73.04 73.23 72.97 73.04 72.73 72.68 71.39 69.86 69.58 70.07 70.55 71.03 71.21 70.45 69.63 69.28 69.28 69.42 69.24 69.00 68.51 68.24 67.95 67.90 68.04 67.12 66.76 68.49 66.57 62.46 62.60 62.78 63.40 64.35 68.51 68.60 68.15 67.73 66.90 66.22
70.20 71.03 71.00 71.94 72.72 72.82 72.59 72.52 73.08 72.40 70.28 69.42 69.81 69.93 70.35 69.94 69.78 69.31 69.13 69.24 69.19 69.04 68.88 68.61 68.15 67.67 67.25 66.44 65.96 65.41 63.75 63.44 60.52 61.97 62.53 63.12 67.83 68.08 67.90 67.63 67.46 67.05 66.03
70.49 70.31 70.21 70.72 71.38 71.65 71.87 71.91 72.32 72.55 71.12 70.05 70.12 69.85 69.89 69.94 69.62 69.25 69.17 69.12 69.22 68.87 68.28 67.95 67.79 67.34 66.32 65.12 64.41 64.26 63.04 61.64 56.81 59.27 63.27 62.93 67.32 67.84 67.25 66.59 66.77 66.93 66.15
68.13 69.84 70.07 69.94 69.48 68.84 69.09 70.84 71.16 71.74 71.44 70.89 69.94 69.45 68.62 68.58 69.11 69.27 69.20 69.34 69.02 68.71 68.30 67.68 66.85 66.12 65.10 64.35 64.14 63.49 61.35 59.01 56.07 57.62 57.89 59.27 67.04 67.86 67.69 67.83 65.99 66.12 65.79
68.13 68.05 69.16 69.66 67.69 67.34 67.31 68.41 70.10 70.83 70.66 70.19 69.13 67.61 66.83 65.37 65.90 66.32 66.37 67.80 68.60 68.23 67.60 67.05 66.25 65.46 64.24 62.44 63.02 62.74 57.60 51.33 51.94 57.49 58.53 62.33 66.50 66.77 67.02 68.59 65.99 65.69 65.04
67.05 68.32 68.76 68.88 66.84 65.90 67.78 67.11 67.23 68.60 70.49 68.33 66.53 65.31 64.43 64.12 64.47 65.19 64.74 66.35 67.67 67.66 67.46 66.51 65.72 65.41 60.66 55.46 55.03 57.63 53.12 51.90 51.24 51.74 57.01 63.25 66.27 66.24 65.60 67.17 67.45 66.14 65.26
67.47 68.44 67.71 68.60 67.36 65.47 64.99 66.15 66.10 66.35 68.90 68.36 65.66 64.61 63.75 63.47 63.08 62.69 62.24 62.57 61.58 63.01 60.66 61.78 60.26 58.78 55.58 54.80 55.40 54.70 54.33 54.12 52.60 53.40 55.46 61.70 65.64 65.70 65.13 65.36 66.67 67.99 66.73
65.15 66.86 68.32 68.34 66.91 64.88 64.04 65.22 65.62 66.02 66.59 66.97 65.29 64.52 63.07 61.86 61.11 61.46 61.14 60.97 59.93 59.91 58.41 58.69 58.76 58.31 58.18 58.00 56.59 56.81 57.08 56.57 55.88 54.82 56.06 60.73 63.62 65.70 65.88 65.70 66.49 67.70 67.16
62.36 64.86 65.83 67.30 66.86 65.91 63.51 63.97 64.73 65.09 65.68 65.85 64.91 64.24 62.99 62.25 61.61 61.79 61.10 60.65 59.90 59.52 59.44 59.09 59.33 59.55 59.48 60.06 60.01 59.03 58.90 58.55 58.09 58.27 57.67 60.25 61.84 63.79 65.52 65.98 66.24 67.17 67.45
61.72 63.41 64.71 66.11 67.01 66.58 65.65 64.00 63.59 64.04 65.04 64.28 63.60 63.87 62.98 61.80 61.73 61.68 61.03 60.35 59.49 59.17 59.89 60.13 60.05 60.35 60.56 59.50 59.79 59.87 59.86 60.00 60.20 60.20 60.40 61.28 62.61 63.62 64.60 65.62 66.03 66.63 66.29
62.73 61.75 62.33 62.81 66.47 66.85 66.20 65.31 65.27 64.53 64.03 62.26 63.25 62.92 62.85 61.78 61.96 62.24 60.94 59.96 60.18 59.53 59.39 59.61 59.45 58.74 59.02 60.10 59.98 60.65 60.84 60.83 61.08 62.56 62.03 62.32 62.77 61.96 63.33 65.61 66.10 66.59 65.46
62.43 61.78 63.56 64.26 64.78 66.36 66.47 66.05 66.82 66.12 65.30 64.77 64.06 62.45 61.74 60.74 61.09 60.49 59.55 58.24 57.90 59.31 58.53 57.65 58.18 58.53 59.22 59.64 59.98 60.72 60.75 61.96 62.15 62.08 62.01 61.01 61.03 61.40 62.60 63.20 64.77 65.80 64.36
63.34 63.01 64.11 65.38 65.88 66.64 66.30 66.59 66.88 67.08 65.82 65.70 64.86 64.12 62.74 60.75 60.42 59.97 58.89 58.94 58.44 57.41 57.00 57.39 57.93 59.33 59.77 60.01 60.67 62.12 62.05 60.64 60.82 60.99 59.98 59.52 60.27 60.45 59.41 61.29 62.81 62.44 63.09
64.24 63.84 63.22 64.27 65.39 66.25 65.05 66.66 66.61 66.71 66.70 66.82 65.67 64.66 64.04 63.20 60.89 60.23 60.56 60.58 61.44 60.13 59.20 59.01 58.93 61.41 62.34 62.59 62.76 61.50 60.76 60.38 60.14 59.14 58.22 59.23 59.41 58.21 57.61 56.75 58.20 60.35 63.20
64.00 64.09 63.42 63.98 65.00 65.17 64.74 64.36 64.26 63.50 64.23 65.85 66.00 65.97 65.58 65.00 64.20 62.28 62.17 61.68 61.86 61.75 61.93 63.38 63.08 62.50 62.65 62.58 61.31 57.73 57.71 58.38 57.24 54.40 54.46 55.20 56.06 54.89 54.31 55.54 56.93 57.16 57.97
62.15 62.84 63.61 64.20 64.88 64.22 64.34 64.09 63.56 63.16 64.18 65.29 65.15 65.27 65.23 64.95 64.53 63.99 63.42 62.80 62.76 62.58 63.39 63.52 63.16 61.60 61.93 62.36 59.56 54.77 52.65 53.99 53.51 53.70 51.76 52.36 51.62 51.78 52.05 52.95 52.27 52.10 52.09
58.79 61.19 62.80 64.38 64.61 65.06 65.21 63.84 62.55 62.66 62.63 62.62 62.77 63.14 63.66 64.52 64.54 64.16 63.86 63.88 64.09 64.39 63.36 63.45 63.42 62.77 61.16 58.91 57.66 58.75 54.16 48.92 50.28 52.92 52.07 51.12 50.44 50.24 50.46 50.88 50.31 50.06 49.11
50.60 55.54 61.61 62.79 62.91 63.59 63.91 63.19 62.69 61.64 60.83 61.93 62.32 62.09 61.07 62.47 62.71 62.93 62.43 61.93 61.05 60.06 59.98 59.93 61.16 60.33 60.09 58.77 56.33 56.27 55.38 53.81 50.37 47.96 50.95 50.64 50.45 50.12 49.49 49.32 47.81 47.77 49.03
49.59 49.68 55.28 60.71 61.77 62.30 62.97 63.46 62.84 62.21 62.56 62.20 60.99 59.68 59.39 59.83 60.25 59.98 59.85 59.80 59.42 57.56 56.32 55.33 53.59 53.53 55.83 53.12 52.46 51.86 51.54 52.09 55.35 53.15 48.80 48.68 49.14 49.51 50.14 47.91 46.98 46.28 47.85
47.75 48.09 52.22 57.10 59.22 60.13 60.18 61.24 61.16 60.86 59.83 59.09 59.27 59.53 58.14 57.41 57.85 58.70 58.56 57.92 56.23 55.40 55.11 54.96 54.97 54.62 52.88 51.92 51.93 51.82 54.32 51.87 48.70 49.85 50.50 49.33 47.75 48.20 47.52 47.45 46.56 44.67 45.99

GFSSE_sfc_wetblb_075.txt.gz
Wetbulb
70.32 72.97 74.65 74.69 74.31 73.74 73.01 73.02 73.92 73.77 73.82 73.83 72.55 73.67 74.24 74.30 74.31 74.14 73.44 72.30 72.09 71.09 71.07 71.42 72.29 72.43 71.07 70.89 71.15 71.12 72.04 71.25 70.71 70.32 69.88 70.14 69.84 70.18 70.45 70.21 71.00 70.22 70.93
71.58 73.00 74.33 74.64 74.12 73.71 72.65 73.16 73.99 73.57 73.72 73.65 74.49 74.00 74.30 74.59 74.22 73.53 72.54 71.55 70.86 70.97 71.27 71.68 71.88 71.42 71.33 70.99 70.54 70.94 71.56 70.82 69.79 69.11 69.03 69.00 69.31 68.90 69.07 68.93 69.28 69.56 71.27
71.87 72.91 73.33 74.43 74.56 74.00 73.16 73.01 73.52 73.57 73.07 73.46 74.02 74.56 74.96 74.47 73.89 73.06 72.06 71.17 71.16 71.18 71.30 71.70 71.36 70.94 70.68 70.73 70.59 71.37 71.27 70.32 69.38 68.78 68.27 67.97 67.79 68.10 67.72 67.51 67.69 68.70 69.36
72.17 72.91 73.02 74.02 74.24 73.96 72.61 73.22 73.06 71.90 71.85 73.24 73.63 73.76 73.92 73.82 73.15 72.65 71.35 70.56 71.04 71.37 71.38 70.89 70.60 70.55 71.23 70.98 70.70 71.11 70.74 69.55 68.44 67.73 67.19 67.22 67.26 68.33 68.06 67.67 67.40 67.04 67.12
72.15 72.93 72.85 73.70 73.73 73.49 72.74 73.17 71.98 70.66 70.87 72.68 73.00 73.26 73.70 73.70 72.77 71.71 70.83 70.29 71.28 71.20 70.61 70.11 69.91 70.33 71.51 72.19 70.93 70.81 70.16 69.05 67.69 67.41 67.27 67.85 68.35 68.56 68.61 67.83 67.26 67.23 67.07
72.06 72.87 73.27 73.35 73.40 73.09 73.46 73.26 71.43 70.29 70.22 71.36 72.78 72.76 73.44 73.45 71.99 70.57 70.42 70.56 70.48 70.43 69.95 69.42 69.26 69.09 69.86 71.13 71.15 70.81 69.82 68.54 67.35 68.08 67.65 68.09 68.73 69.15 69.08 68.31 67.43 67.10 66.84
71.77 72.63 72.56 72.99 73.39 73.34 73.67 72.72 71.78 70.02 69.91 70.50 71.34 72.09 72.97 72.21 71.22 69.98 69.32 69.35 69.64 69.56 69.59 68.99 68.63 68.41 67.98 68.59 68.78 70.05 68.78 66.34 67.17 67.71 67.89 68.30 68.75 69.00 68.99 68.63 67.94 66.95 66.60
71.34 72.04 71.94 71.77 72.90 73.27 72.56 72.33 71.95 70.46 69.67 70.51 71.23 71.50 71.82 70.61 69.64 69.58 69.31 69.52 69.51 69.19 68.91 68.64 68.24 67.93 67.23 67.08 66.40 65.71 65.57 64.44 65.41 66.78 67.81 68.51 68.71 68.53 68.37 68.13 67.83 67.03 66.22
71.76 71.45 71.58 71.65 71.98 71.96 71.76 71.92 72.07 70.90 69.95 70.26 70.41 70.77 69.98 70.29 69.46 69.26 69.37 69.38 69.25 69.02 68.84 68.66 68.19 67.36 66.34 65.44 65.15 64.32 63.02 62.00 64.55 65.82 66.18 68.18 67.65 68.11 67.52 67.05 67.36 67.18 66.00
70.76 70.84 70.87 71.44 71.27 70.92 71.49 71.09 71.13 70.71 70.03 69.99 69.58 69.12 68.73 68.03 69.20 69.45 69.23 69.65 69.37 68.74 68.19 67.63 67.05 66.14 65.29 64.78 64.27 62.86 61.09 60.65 63.36 63.66 64.26 65.63 66.53 67.69 67.34 67.90 66.67 66.55 65.85
68.92 69.83 70.17 70.30 70.18 70.08 70.29 70.38 70.90 70.52 69.86 69.25 68.73 67.49 67.46 68.50 68.75 68.46 67.28 68.15 68.99 68.64 68.04 67.44 66.64 65.49 63.69 62.87 63.45 61.25 59.06 59.31 62.62 63.80 64.40 62.44 65.81 66.59 66.76 68.01 66.44 66.15 65.41
66.48 68.25 69.66 69.41 68.96 69.08 69.01 69.97 70.81 70.97 70.77 69.61 68.65 68.36 68.09 68.33 68.36 67.47 66.21 66.68 68.07 67.99 67.73 67.02 66.12 64.51 61.36 61.59 61.46 59.77 61.04 60.41 60.10 60.04 61.98 62.50 65.45 66.36 65.49 66.92 67.73 66.79 65.94
64.10 68.15 68.81 68.77 68.24 67.83 67.98 68.81 69.49 70.67 70.37 69.48 68.16 67.57 67.28 67.07 67.54 67.06 67.27 66.96 66.96 64.69 65.79 65.72 64.95 63.12 61.27 61.88 62.51 62.23 61.76 62.27 61.97 61.65 61.54 60.62 63.58 66.19 65.73 65.54 66.64 67.99 67.36
61.11 65.83 67.78 68.94 67.62 66.69 67.36 67.83 68.33 68.58 69.73 68.35 67.79 67.15 66.55 65.72 65.95 65.48 65.41 65.30 64.79 64.95 63.35 63.57 63.46 63.07 62.57 62.90 63.30 63.77 64.03 64.35 63.89 63.01 62.79 60.73 62.24 65.44 66.12 66.32 66.43 67.63 67.39
60.11 62.72 66.48 68.47 67.62 66.28 65.85 67.41 68.08 67.96 68.69 68.41 67.56 67.10 66.38 65.28 64.53 64.98 64.80 64.87 64.40 64.13 63.38 63.32 64.12 64.29 64.61 64.90 65.07 64.67 64.50 64.53 64.71 64.65 64.86 61.17 62.70 64.00 65.77 66.16 66.48 66.82 67.26
61.31 60.76 64.89 65.82 67.29 67.29 65.26 65.54 66.81 67.75 68.27 68.80 67.80 67.37 66.38 66.03 65.16 65.36 65.55 65.02 64.71 63.92 63.97 63.99 64.77 65.08 65.39 65.00 64.67 64.85 65.11 65.66 65.73 65.72 65.97 66.07 63.13 64.19 65.13 66.67 66.63 66.57 66.61
60.71 61.03 62.09 64.10 66.74 67.19 66.50 65.65 65.88 66.32 66.56 67.24 67.73 67.66 66.92 66.17 65.82 65.73 65.64 65.08 64.76 63.92 63.11 64.33 64.46 64.21 64.16 63.99 64.86 65.63 65.83 66.08 65.78 65.58 66.49 66.41 66.50 62.44 63.62 65.59 66.69 66.72 66.31
60.31 60.56 62.02 63.21 64.51 66.70 67.53 66.52 66.29 66.73 66.55 65.97 66.16 66.55 66.67 66.40 65.76 65.14 65.34 64.95 64.62 64.13 63.31 63.33 63.48 63.32 62.98 63.77 64.72 65.49 65.63 65.55 65.95 66.10 65.95 65.89 65.89 65.64 64.63 62.84 64.39 66.28 65.90
60.61 61.39 61.97 62.67 63.93 66.42 67.13 66.36 67.33 67.51 67.08 67.09 66.75 66.18 65.22 64.82 64.96 64.69 64.38 64.64 63.19 62.26 63.10 62.78 62.09 62.97 63.09 63.90 64.05 65.02 64.29 65.20 65.41 64.79 65.00 64.66 64.53 64.65 65.11 62.90 62.33 63.91 64.29
62.69 62.42 62.58 63.05 64.09 65.84 66.85 66.52 66.12 66.71 67.26 67.35 67.14 66.99 66.65 66.05 64.02 63.27 63.41 63.73 62.87 61.61 61.15 61.23 61.47 62.20 63.45 63.67 63.07 63.21 65.07 65.02 64.81 64.11 63.31 62.57 63.31 63.42 63.35 63.05 62.92 62.90 63.55
62.90 62.56 62.93 62.86 62.26 65.29 65.23 64.89 64.11 62.46 63.89 66.39 66.44 67.02 66.68 66.06 64.36 62.07 61.90 62.68 63.42 62.99 62.97 62.62 62.78 62.09 62.94 64.30 63.62 63.21 63.54 63.15 61.47 60.46 60.24 60.93 60.92 60.75 60.66 61.72 62.53 62.21 61.23
62.12 63.20 62.67 63.14 63.85 64.40 64.67 64.44 64.29 64.67 63.98 64.61 65.39 65.79 66.78 65.97 65.22 63.47 62.54 62.43 63.31 63.99 64.51 64.10 65.04 64.32 64.95 65.00 61.67 60.36 58.03 59.60 59.65 58.90 58.45 58.35 57.63 58.43 58.48 58.65 58.42 57.49 56.90
58.71 61.95 62.81 62.90 63.47 64.59 64.85 64.06 63.32 63.41 63.19 63.34 63.39 64.02 64.88 65.03 65.41 65.07 64.16 64.15 63.50 64.44 65.29 65.15 65.00 63.86 62.86 61.53 61.77 61.04 57.30 54.86 56.40 58.58 57.15 56.85 56.53 56.75 56.58 55.72 55.12 54.77 54.67
53.92 56.34 61.98 62.54 63.64 64.10 64.70 63.59 62.63 61.84 60.95 62.21 62.76 63.20 63.21 62.25 62.38 63.78 64.47 64.36 64.53 64.39 63.42 63.23 63.10 62.35 62.18 61.66 60.85 60.08 60.52 59.38 55.70 52.85 56.53 56.33 55.76 54.83 55.12 54.69 53.38 52.74 52.40
51.85 52.31 52.95 60.27 62.58 62.80 63.70 63.81 63.07 62.14 60.33 61.77 62.97 62.30 61.28 60.66 61.00 61.15 61.54 61.69 61.46 61.34 59.97 59.19 56.26 56.53 59.27 58.52 58.58 57.28 57.54 57.22 56.59 54.42 51.67 54.83 54.84 54.62 54.31 53.41 50.98 52.13 51.24
50.30 50.97 53.50 57.25 59.36 60.82 62.61 62.95 62.53 62.02 61.43 61.41 61.18 60.91 60.81 60.41 60.10 59.94 59.94 60.20 59.98 59.13 57.64 57.14 56.33 55.24 54.79 55.76 56.35 56.34 56.13 54.86 54.26 52.51 51.73 52.45 52.79 54.17 52.47 51.62 49.13 48.33 49.44

GFSSE_sfc_wetblb_078.txt.gz
Wetbulb
71.44 73.76 74.84 74.67 74.34 73.66 73.47 73.51 73.78 73.87 73.63 73.10 73.89 74.41 74.23 74.27 74.44 74.18 73.02 72.26 72.09 71.42 71.68 71.59 71.35 71.43 71.67 71.85 72.52 72.00 70.97 70.51 70.23 69.84 69.72 70.18 70.13 70.25 70.34 70.24 71.79 71.23 71.45
72.40 73.91 74.62 74.60 74.40 73.54 73.84 74.33 74.22 74.07 74.06 73.34 74.36 74.24 74.23 74.38 74.28 73.63 72.41 71.68 71.35 71.57 72.22 72.52 72.12 70.83 71.27 71.30 72.07 71.29 70.56 69.62 69.25 68.84 69.19 69.09 69.28 68.66 68.78 69.07 70.04 70.00 70.58
72.47 73.38 74.05 74.25 74.42 73.94 74.01 73.67 73.53 73.18 73.43 74.09 74.34 74.97 74.66 74.33 73.87 72.94 71.80 71.43 71.47 71.72 72.25 72.22 71.26 71.29 70.92 71.13 71.77 70.95 70.20 69.32 68.77 67.94 68.96 67.64 67.88 68.01 67.77 67.29 67.48 68.27 69.14
72.71 72.99 73.52 74.00 74.09 73.54 73.28 73.51 73.59 72.67 72.86 73.96 74.78 75.07 74.74 74.36 73.47 72.28 71.68 71.37 71.69 72.11 71.66 71.06 71.00 70.88 70.82 71.04 71.41 70.57 69.71 68.69 67.57 67.64 67.95 68.08 67.60 68.19 68.17 67.96 67.75 67.26 67.27
71.92 72.52 73.01 74.02 74.11 73.45 73.45 73.38 72.41 72.09 72.56 73.27 73.68 74.05 74.02 73.74 72.81 71.67 71.26 72.24 71.17 71.29 70.89 70.75 71.14 71.77 71.32 70.96 70.85 70.31 69.39 68.17 67.15 68.17 68.68 69.14 69.13 68.80 68.33 67.65 67.41 67.38 67.16
72.54 72.99 73.26 73.50 73.60 73.40 73.90 73.13 71.48 70.93 72.23 72.80 73.16 73.22 73.40 73.57 71.89 71.00 71.12 71.76 71.54 71.12 70.36 70.23 70.48 71.30 71.84 71.50 70.96 70.10 69.21 67.79 68.11 68.41 68.80 68.71 69.39 68.85 68.94 67.89 67.29 67.15 67.07
72.03 73.09 73.39 73.14 73.27 73.41 73.63 72.70 71.51 70.68 71.58 72.14 72.62 73.01 73.31 72.22 71.09 70.52 69.85 70.01 70.32 70.16 69.71 69.52 69.17 68.88 69.98 70.88 70.60 69.85 68.28 66.55 67.31 67.96 68.47 68.87 69.04 68.54 68.82 68.49 67.23 66.86 66.84
71.46 72.44 72.73 72.02 72.56 73.37 73.02 72.06 71.31 71.02 70.65 71.26 71.94 72.49 73.02 71.69 70.35 69.58 69.51 69.57 69.93 69.88 69.14 68.72 68.36 67.81 67.72 67.38 67.95 68.11 65.99 65.99 66.02 67.05 68.03 68.61 68.38 68.28 68.24 68.10 67.68 66.63 66.43
71.68 71.80 72.27 72.30 71.71 71.93 71.89 71.41 70.80 70.75 70.82 71.26 71.51 71.88 71.16 70.69 69.83 69.03 69.05 69.22 69.42 69.17 68.86 68.42 68.00 67.22 66.71 66.09 65.27 64.69 63.50 63.00 66.33 66.31 66.46 68.47 67.96 67.75 67.58 67.36 67.25 66.67 65.83
70.91 71.27 71.16 71.71 71.06 72.29 71.45 70.93 70.10 69.99 70.28 70.24 70.17 69.46 69.03 68.68 68.93 69.17 68.84 68.95 69.39 69.05 68.80 68.39 67.58 66.23 65.48 64.97 64.17 62.82 62.00 62.87 64.90 64.95 65.81 66.44 66.90 67.59 67.12 67.71 66.80 66.59 65.60
62.77 70.40 70.73 70.70 70.85 70.93 71.28 71.10 70.01 69.45 69.22 68.64 68.63 67.65 67.05 68.51 68.33 68.27 68.01 68.56 69.43 68.81 68.00 67.39 66.62 65.41 64.57 64.29 63.43 60.53 59.65 63.33 64.40 65.20 65.79 63.26 65.52 66.70 66.70 67.45 66.62 66.38 65.54
59.57 68.28 69.90 70.29 70.02 69.66 70.59 71.29 71.25 69.73 68.75 67.96 68.39 68.94 68.82 68.70 68.78 67.91 67.05 67.44 68.67 68.50 68.15 67.09 66.10 64.24 62.21 63.04 62.79 60.45 64.22 64.09 63.77 64.59 65.22 62.50 64.95 66.79 65.74 67.01 67.49 66.86 66.12
60.53 62.99 69.16 69.49 69.58 67.98 68.48 70.71 71.29 70.73 70.05 69.05 67.73 67.35 67.47 68.00 68.38 67.82 67.80 67.43 67.19 65.49 66.15 66.04 65.22 63.91 63.44 63.74 63.93 63.86 65.17 65.75 66.32 66.66 64.22 60.61 63.32 66.49 66.46 66.11 66.60 67.39 67.58
60.93 62.30 67.65 69.14 69.33 67.92 67.70 69.95 70.59 70.73 70.66 69.50 68.15 66.86 66.73 66.55 66.97 66.49 66.34 66.34 66.07 65.44 65.07 65.09 64.28 63.90 63.87 64.70 64.97 65.52 66.42 67.22 67.72 67.88 66.81 62.00 63.41 65.04 66.89 66.89 66.81 66.90 67.50
59.95 62.34 62.55 68.98 69.06 68.34 67.15 67.68 69.61 70.03 70.26 70.25 68.59 68.25 67.82 66.61 65.82 65.67 65.33 65.23 64.86 64.96 64.35 63.79 64.19 64.44 65.45 66.66 66.96 66.95 67.02 67.26 67.41 68.14 68.33 62.59 63.21 64.90 66.25 66.95 66.96 67.26 67.25
60.05 61.15 62.08 65.43 68.87 67.44 66.72 66.93 67.53 69.09 70.58 69.94 69.75 68.75 68.55 67.57 66.08 65.26 65.78 65.62 65.96 65.25 64.93 64.82 65.84 66.48 66.71 67.21 67.15 67.34 67.36 67.68 67.78 67.62 67.84 67.70 63.95 64.77 65.92 67.24 67.81 67.32 67.02
60.88 61.71 61.40 62.55 64.93 67.05 66.72 67.46 68.17 68.59 68.47 69.82 69.57 69.12 68.88 67.68 67.15 67.43 67.61 67.31 67.12 66.64 64.54 65.67 66.39 67.22 66.92 67.25 67.02 67.56 67.60 67.59 67.22 66.95 67.28 67.20 67.26 62.93 64.30 66.26 66.99 67.75 66.85
61.22 61.25 61.90 62.64 63.47 66.04 67.87 67.37 67.79 69.04 69.24 69.04 69.21 69.45 68.77 68.87 68.52 67.44 67.23 67.43 67.33 66.82 65.52 65.66 66.41 65.88 65.63 65.93 66.41 66.90 66.64 67.01 66.87 67.00 67.42 67.24 67.04 66.93 65.44 64.96 64.71 65.89 66.68
61.05 61.01 61.71 62.23 62.99 64.48 67.11 68.35 67.25 67.13 67.94 68.24 68.64 69.22 69.15 69.20 68.51 67.24 66.93 67.47 67.32 66.27 66.05 65.33 65.16 65.08 64.81 65.74 66.01 66.38 66.84 65.77 66.51 66.40 66.24 66.50 66.76 66.45 66.60 64.42 62.59 63.81 65.64
61.34 61.75 61.48 62.59 63.23 64.70 66.95 67.99 68.17 67.44 68.35 68.25 68.22 68.15 67.73 67.21 66.81 66.70 66.65 67.07 67.07 65.40 64.98 65.25 64.32 64.77 65.55 65.90 64.25 63.20 65.07 66.10 66.06 65.76 65.16 64.69 64.85 65.06 65.57 65.66 65.38 63.81 63.83
61.85 61.54 62.11 61.99 62.93 64.41 65.88 65.35 65.22 64.68 66.35 66.74 67.77 68.16 68.45 68.37 67.87 67.77 65.96 65.06 66.50 65.52 64.76 64.55 64.62 64.42 64.63 65.43 64.14 63.59 64.43 64.99 64.78 64.23 64.07 63.77 63.69 63.98 64.49 65.39 65.76 64.82 62.76
61.58 61.94 62.41 62.60 63.08 63.58 64.99 65.45 65.65 65.37 65.40 65.04 66.28 66.69 67.40 67.38 67.08 67.02 66.22 64.97 63.64 64.82 65.85 64.94 65.05 64.67 64.76 65.71 63.21 62.84 59.13 61.02 62.69 62.34 62.72 62.23 62.46 63.18 63.21 63.37 63.45 62.51 61.76
60.71 61.43 61.79 62.44 63.17 63.25 63.45 65.40 64.57 65.11 64.78 64.21 64.56 65.20 66.09 66.08 66.17 66.30 65.76 64.67 64.01 64.10 65.64 66.83 66.55 65.78 64.47 65.29 63.91 62.31 58.23 56.17 59.35 61.43 60.41 60.86 60.87 61.49 61.70 61.10 60.18 59.41 59.04
59.29 61.59 62.80 63.11 62.48 63.49 64.04 63.20 63.24 61.38 60.62 61.71 61.23 62.15 63.43 64.78 64.58 64.82 65.20 64.40 64.08 63.88 63.62 65.56 67.13 66.57 65.18 62.60 63.79 63.83 63.74 62.18 56.77 53.78 58.33 59.07 59.51 59.12 59.77 59.49 58.20 57.79 57.50
53.09 54.48 56.92 61.69 63.61 63.68 64.03 63.76 62.80 61.76 62.18 61.58 60.92 61.23 61.61 62.26 62.65 62.11 62.58 62.70 62.92 63.07 61.95 61.39 60.05 60.52 61.67 61.56 61.19 59.05 59.57 60.35 59.50 55.78 52.12 54.89 58.10 58.71 58.69 57.96 57.22 56.43 55.52
53.09 54.69 56.56 59.48 61.81 62.67 63.97 64.01 63.63 62.51 61.98 60.46 60.42 60.47 61.46 61.93 62.11 61.95 61.47 61.92 62.07 60.46 59.28 58.82 58.09 56.97 56.14 56.73 56.72 56.58 56.18 54.84 55.17 55.12 53.50 54.01 54.00 56.14 57.58 57.20 56.60 55.65 54.99

GFSSE_sfc_wetblb_081.txt.gz
Wetbulb
71.68 73.36 75.05 74.70 74.20 73.84 73.63 73.34 72.82 72.52 73.21 74.15 74.65 74.40 74.13 74.26 74.23 73.83 73.02 72.02 71.69 71.40 71.29 71.44 71.79 72.54 72.83 73.14 71.82 70.95 70.49 70.24 70.16 69.95 69.90 70.34 70.15 70.51 70.98 71.25 71.98 70.42 71.63
72.62 73.11 74.67 74.97 74.20 73.75 73.89 74.22 74.17 73.87 73.36 74.23 74.56 74.39 74.15 74.43 74.32 73.37 72.56 71.68 71.60 71.88 71.56 71.60 71.61 71.61 72.25 72.42 70.67 70.23 69.65 69.15 68.70 69.11 69.01 68.73 68.96 68.60 69.19 69.55 70.24 69.71 70.57
72.06 72.59 73.68 74.79 74.50 74.26 74.53 73.91 73.71 73.55 73.83 73.77 74.69 74.29 74.49 74.40 73.93 73.00 72.18 71.63 71.89 72.70 72.14 71.24 71.22 71.09 71.67 71.69 70.59 69.89 69.12 68.35 68.19 68.65 69.49 66.93 67.29 68.51 67.91 67.51 67.85 68.70 69.11
72.33 72.44 73.03 74.41 74.48 74.16 74.35 73.52 73.21 73.34 73.41 73.58 74.48 74.46 74.52 74.23 73.49 72.52 71.93 71.80 72.78 72.73 72.13 70.93 70.87 70.84 71.63 71.50 70.40 69.72 68.42 67.49 66.79 67.78 67.56 67.01 66.94 68.42 68.31 68.28 68.14 67.85 67.52
71.48 72.29 72.77 73.96 74.09 73.76 73.93 73.18 72.78 72.94 73.16 74.14 73.85 74.29 74.18 74.13 72.99 72.23 71.64 72.39 71.36 72.08 71.19 70.91 71.08 70.93 71.18 71.09 70.30 69.55 68.16 66.71 67.50 68.57 68.52 68.65 68.37 68.36 68.37 68.08 67.68 67.70 67.39
70.64 71.72 72.90 73.67 73.85 73.59 74.03 73.37 72.24 72.53 72.62 74.00 73.95 73.99 73.42 73.48 72.43 71.77 72.47 71.15 71.51 70.15 70.85 71.37 72.09 71.40 71.35 70.91 70.22 69.34 67.94 67.48 68.24 68.14 68.14 68.97 68.15 68.41 68.51 67.73 67.50 67.52 67.27
70.37 71.76 72.92 73.34 73.65 73.68 73.82 73.07 71.84 72.14 72.37 72.86 73.54 73.23 73.09 73.23 71.38 71.17 71.49 71.53 71.10 70.56 70.40 70.38 70.88 71.55 71.27 70.97 70.20 69.05 67.03 66.71 67.55 67.69 68.10 68.20 67.85 68.65 68.83 68.15 67.23 67.25 67.16
70.12 71.34 72.45 71.96 72.79 73.08 73.01 72.20 71.57 71.79 71.96 72.21 72.66 72.78 72.82 71.75 70.81 69.80 70.58 70.71 70.46 70.03 69.77 69.39 68.93 68.92 69.72 70.03 69.58 67.62 65.87 66.51 66.10 67.14 67.95 67.98 68.58 68.36 68.45 67.96 67.22 66.71 66.75
63.85 70.37 71.62 71.86 71.74 71.85 72.02 71.29 71.12 71.33 71.80 71.74 71.93 72.13 71.78 70.95 70.33 69.44 69.60 69.55 69.84 69.54 69.02 68.66 67.90 67.67 67.21 66.67 66.17 65.61 64.36 64.84 64.98 66.25 67.15 67.83 68.42 67.87 67.75 67.39 67.11 66.20 65.88
63.33 63.22 69.85 71.07 70.57 70.90 71.39 70.47 70.26 70.45 71.07 71.16 71.10 70.09 69.30 69.03 68.55 69.15 67.77 68.88 69.94 69.75 69.04 68.35 67.60 66.81 66.14 65.24 64.25 63.40 63.61 63.90 65.01 65.25 65.83 66.77 68.08 67.66 67.30 67.70 66.76 66.33 65.27
62.39 62.56 65.20 69.97 69.75 69.92 70.34 69.66 69.48 69.58 69.28 69.37 68.76 67.75 67.34 67.85 67.42 67.85 67.74 67.68 69.39 69.40 68.54 67.86 66.81 65.92 65.59 64.92 64.04 62.56 61.68 63.27 64.41 64.58 64.95 65.52 65.81 66.81 66.67 67.55 66.96 66.45 65.43
59.54 60.86 61.97 62.49 69.55 68.91 70.44 69.57 68.61 67.79 68.26 67.52 68.79 68.03 68.58 67.98 67.96 67.59 67.10 67.65 69.05 68.83 68.35 67.34 66.44 64.97 63.16 62.57 61.94 61.03 60.98 63.28 63.32 64.34 64.55 64.79 64.85 67.00 66.25 67.10 67.26 66.94 66.37
60.40 61.10 61.95 62.50 64.97 68.58 69.81 69.83 68.96 67.47 66.21 67.30 68.24 68.18 67.90 67.76 67.67 68.01 67.99 67.62 67.44 66.09 65.89 65.94 64.84 62.89 62.14 63.01 63.24 62.55 64.28 64.73 65.01 65.56 63.00 63.58 64.02 66.26 67.39 66.67 66.91 67.51 67.96
59.98 61.14 62.25 62.86 61.75 68.86 69.85 69.78 69.94 68.04 67.17 66.16 66.68 67.21 66.84 67.34 67.49 66.44 66.25 66.16 66.05 65.17 65.10 64.74 64.27 63.42 63.28 63.41 63.69 63.92 65.14 65.94 66.19 66.49 65.25 63.77 64.54 65.14 66.82 67.57 67.48 67.22 67.64
59.08 60.77 61.87 62.65 62.64 67.20 67.00 69.54 69.70 69.75 68.43 67.06 66.16 66.22 66.41 66.30 66.24 65.76 65.43 65.46 65.54 65.05 64.55 64.13 63.68 63.07 63.05 64.14 65.23 65.44 66.26 66.56 66.62 66.80 67.26 63.16 64.51 65.68 66.62 67.29 67.80 67.58 67.56
60.11 61.01 62.16 62.26 62.50 65.74 66.17 68.93 69.60 70.03 69.89 69.15 67.27 66.66 66.10 65.96 65.45 65.32 64.68 64.45 64.19 64.50 64.44 63.68 63.23 63.93 64.12 65.63 66.04 66.73 66.70 66.91 66.85 67.03 67.09 66.38 64.80 65.43 66.07 67.20 68.29 68.59 67.77
60.64 61.42 61.76 62.31 63.09 64.53 66.77 66.76 68.39 69.86 70.08 69.49 68.93 67.81 67.58 67.07 65.92 64.97 65.10 64.94 65.49 65.43 64.15 63.99 64.11 65.38 65.55 65.75 65.86 66.56 66.81 66.82 66.86 66.52 66.43 66.93 66.10 63.78 65.52 66.76 67.07 67.44 67.63
60.90 60.66 61.40 62.66 62.68 64.16 67.08 67.47 66.77 67.55 68.37 69.30 69.18 69.34 68.31 67.89 67.31 66.70 66.65 66.89 66.83 66.40 65.33 63.64 64.16 64.55 65.14 65.19 65.37 66.05 66.19 66.53 66.24 65.90 66.37 66.53 67.28 66.10 64.99 66.30 65.95 65.17 66.08
61.24 61.02 61.53 62.22 62.18 63.38 66.02 66.91 67.14 67.41 67.74 67.87 68.55 69.06 68.93 68.88 68.48 67.37 66.06 66.91 67.20 66.57 65.51 64.56 64.67 65.02 64.39 64.55 65.18 65.97 65.19 65.66 65.05 65.38 65.29 65.71 66.04 66.46 66.13 64.63 63.35 63.51 65.88
61.90 62.02 61.84 62.07 62.38 63.35 65.72 66.66 66.64 67.07 68.08 67.86 67.92 68.21 68.74 68.79 68.67 67.43 66.49 66.81 67.27 66.57 65.52 65.40 64.25 64.80 64.44 64.34 63.08 63.34 65.05 64.77 66.04 65.19 64.62 64.16 63.71 64.20 64.80 65.37 64.61 62.86 63.74
61.23 61.38 61.47 61.51 62.05 63.36 64.37 64.28 64.58 63.84 65.43 66.29 68.03 68.16 67.89 67.63 67.46 67.26 67.63 66.42 66.32 65.72 65.45 65.17 64.56 63.74 63.64 65.47 62.80 63.37 63.75 64.46 64.65 64.75 63.99 62.72 62.80 62.91 63.53 64.33 65.04 63.88 62.26
60.86 60.61 61.21 61.43 62.07 62.88 63.97 63.89 64.40 64.71 64.80 66.10 66.84 66.66 66.60 66.74 67.05 66.74 66.80 66.79 65.74 64.44 63.58 65.03 64.18 63.36 63.56 65.11 62.64 62.44 59.37 61.14 62.66 62.55 62.25 61.56 61.40 62.61 62.54 63.15 63.87 63.36 62.39
59.43 60.15 60.32 60.82 61.69 62.36 62.49 63.44 63.52 64.59 64.43 64.13 64.83 65.23 65.50 65.67 66.15 66.28 66.40 66.32 65.69 64.74 63.16 63.15 63.59 64.10 63.35 64.56 64.72 62.15 57.91 56.47 59.10 61.01 61.25 60.50 60.17 60.72 61.70 61.76 61.82 61.23 60.81
58.99 59.19 60.21 61.43 61.80 62.39 62.48 61.97 61.63 61.46 60.90 61.83 63.49 63.84 63.61 64.49 64.58 65.28 65.86 65.86 65.46 64.52 63.35 62.76 63.64 63.86 63.70 61.66 62.92 63.00 63.40 62.05 56.59 54.72 59.03 59.17 59.48 59.13 60.10 60.27 59.80 59.17 58.73
55.86 59.38 60.29 60.92 62.09 62.85 62.48 62.18 60.99 61.39 61.23 61.75 61.61 60.90 61.77 62.95 62.85 63.16 63.16 64.04 64.19 64.18 63.72 63.28 61.13 59.74 60.16 60.67 60.20 59.74 58.02 57.82 57.93 56.85 52.16 55.32 57.94 58.41 58.96 59.29 58.70 58.12 57.44
54.40 55.27 55.79 57.40 61.03 62.68 62.72 62.45 61.77 61.00 60.68 60.33 60.84 59.93 60.44 61.38 61.61 61.47 62.03 62.17 63.03 62.41 61.51 59.88 58.70 58.06 57.40 56.91 56.68 55.77 55.17 53.46 52.71 52.42 51.34 52.23 53.88 56.62 57.73 58.06 57.63 57.36 56.51

GFSSE_sfc_wetblb_084.txt.gz
Wetbulb
70.37 72.47 75.24 74.59 74.10 74.06 73.73 73.33 73.16 74.05 75.05 75.07 74.66 74.38 74.55 74.44 74.16 73.70 72.69 72.10 72.00 71.76 71.66 72.83 73.16 73.28 72.77 71.27 70.91 70.54 70.48 70.63 70.82 70.41 69.93 70.08 70.47 71.36 71.59 71.44 71.51 69.61 71.56
71.60 72.68 75.11 75.03 74.24 74.06 73.95 73.79 73.63 73.25 74.14 74.94 74.83 74.23 74.39 74.45 74.31 73.50 72.37 71.81 71.57 71.57 71.70 72.07 72.21 73.26 72.14 70.77 70.09 69.54 68.90 68.66 68.86 69.18 68.63 68.47 68.97 69.24 69.40 69.71 70.47 68.84 70.14
71.12 72.23 73.63 74.86 74.69 74.66 74.55 74.46 74.18 73.61 73.58 74.83 74.36 74.78 74.59 74.54 73.91 73.07 72.17 71.99 72.56 71.99 71.75 71.95 72.19 72.17 71.34 70.48 69.53 68.54 68.96 69.15 68.80 69.49 68.81 65.42 66.26 68.77 68.23 68.01 68.58 68.38 69.29
71.70 71.86 72.22 74.46 74.61 74.55 74.65 74.10 74.03 73.80 73.58 74.40 74.16 74.44 74.64 74.33 73.62 72.63 72.06 72.44 73.57 72.62 71.55 70.98 71.12 72.14 71.18 70.38 69.32 67.92 67.94 67.42 68.04 68.55 65.46 65.50 66.29 68.74 68.69 68.46 68.49 68.11 67.51
71.07 71.55 72.26 74.20 74.34 74.41 74.43 73.74 73.44 73.47 73.83 73.67 73.92 73.99 74.20 74.26 73.17 72.40 72.50 72.88 72.66 72.03 70.71 70.83 71.00 71.73 71.17 70.36 69.37 67.78 66.78 66.77 68.23 67.68 65.91 65.48 64.94 67.94 68.57 68.28 67.85 67.87 67.60
70.66 71.25 73.09 73.60 73.69 74.03 74.02 73.59 73.09 72.93 73.51 73.75 73.62 73.57 73.74 73.86 73.05 72.25 72.65 70.97 71.72 70.63 70.92 71.32 71.07 71.23 71.46 70.34 69.22 67.95 67.16 68.00 68.10 64.91 65.71 67.38 64.80 68.44 68.31 67.96 67.84 67.67 67.46
69.55 71.84 72.40 73.10 73.38 73.82 73.83 73.34 72.92 72.70 73.26 74.14 73.73 73.73 73.40 73.24 72.50 72.50 71.33 70.84 70.34 70.95 71.43 72.13 71.37 71.05 71.08 70.34 69.20 67.41 66.65 67.36 64.47 64.39 65.91 64.89 65.60 68.57 68.71 67.75 67.41 67.57 67.44
65.00 69.92 71.39 71.85 72.83 73.22 73.17 72.65 72.33 72.64 72.58 73.98 73.26 73.46 72.90 72.75 71.86 71.87 70.37 70.28 70.68 70.70 70.63 70.69 71.28 71.13 70.89 70.25 68.89 66.70 66.67 65.99 63.87 64.29 65.14 65.33 68.81 68.61 68.46 67.90 67.07 67.10 67.11
64.17 64.75 69.49 70.20 71.05 71.75 71.67 71.48 71.63 72.53 72.24 72.52 72.73 72.34 71.91 71.43 71.21 70.50 71.08 70.10 69.94 70.18 69.94 69.56 68.92 68.77 68.83 68.70 68.00 66.37 65.58 64.53 60.64 63.51 66.04 65.48 68.83 68.26 67.96 67.55 67.08 66.30 66.35
63.50 63.42 63.30 67.52 69.25 69.67 69.47 70.38 70.35 71.16 71.21 71.45 71.25 70.60 69.57 69.15 69.56 69.77 68.77 70.24 68.97 70.15 69.81 69.25 68.35 67.58 67.05 66.21 65.62 65.35 63.56 63.29 59.19 61.71 64.80 66.54 68.91 67.65 67.50 67.80 66.92 66.27 65.48
63.25 63.83 62.18 62.81 62.70 63.91 69.04 68.71 69.51 69.99 69.83 69.78 69.32 68.02 67.31 66.69 66.02 66.64 67.10 68.63 69.33 69.70 69.38 68.37 67.65 67.11 66.16 64.93 64.52 63.29 62.16 57.99 59.32 60.33 61.09 67.44 67.77 66.84 66.91 67.73 66.87 66.33 65.38
59.92 61.42 61.07 62.44 61.98 62.60 63.00 67.67 66.68 67.88 67.81 68.43 67.80 67.04 66.84 65.68 65.77 66.14 65.72 66.87 68.73 68.77 68.39 68.17 67.04 66.31 63.82 58.76 58.53 61.23 55.75 55.97 58.45 59.85 60.22 66.14 66.37 67.28 66.48 67.36 67.18 67.13 66.46
58.89 59.71 60.31 62.02 62.24 62.09 62.59 66.24 66.08 65.86 66.07 66.83 66.95 67.05 66.63 65.49 64.82 66.05 65.56 65.53 65.51 65.40 64.72 65.17 63.84 60.81 57.84 57.53 58.06 56.40 56.88 58.94 58.99 59.94 61.95 65.37 65.61 66.60 67.40 66.86 67.24 67.63 67.95
58.92 59.48 60.57 62.14 62.10 62.14 62.87 63.29 65.99 64.00 64.15 64.22 66.13 65.62 64.88 64.62 63.96 65.40 65.11 64.50 63.76 63.55 61.81 62.22 61.55 59.77 58.71 58.52 58.29 58.23 59.46 60.94 61.12 61.39 60.65 63.76 65.65 65.81 66.64 67.77 67.78 67.60 67.43
58.55 59.80 60.42 62.10 61.94 62.43 62.92 65.28 66.25 64.39 63.07 63.73 65.50 65.61 64.27 64.27 62.74 62.18 63.08 62.50 61.99 61.93 60.97 60.95 60.11 59.51 58.68 59.24 59.50 59.43 60.65 61.59 62.05 62.39 61.00 62.94 65.26 67.17 67.05 67.40 67.85 68.31 68.02
59.16 59.60 61.39 61.83 62.93 63.08 62.48 64.67 66.13 66.26 64.25 63.40 62.73 62.49 63.59 63.56 62.57 61.74 61.19 61.25 61.08 60.86 60.38 59.83 58.94 58.61 58.43 59.46 60.83 61.84 62.18 62.76 62.53 63.78 62.99 62.75 64.59 66.09 67.49 67.49 67.95 68.17 68.34
59.26 60.84 61.03 62.28 62.40 62.51 63.98 64.00 66.38 65.84 66.58 64.10 63.49 62.57 62.76 63.36 62.18 61.48 60.53 60.18 60.36 60.74 60.66 59.20 59.22 60.12 61.12 61.57 61.25 62.17 62.94 62.60 64.23 63.36 62.65 62.69 63.62 63.91 66.19 67.87 67.99 66.80 67.01
59.89 60.10 61.28 62.29 62.63 63.94 64.58 64.65 65.67 66.29 66.14 66.59 64.92 64.63 64.49 64.29 63.18 61.75 61.92 61.52 62.37 62.70 61.01 59.34 59.54 59.86 60.73 60.94 61.04 61.88 62.69 64.06 62.74 61.98 62.49 63.63 62.81 63.19 64.06 66.33 67.15 65.69 65.43
59.77 60.07 60.66 61.24 61.71 62.40 62.97 63.33 64.75 65.45 65.87 66.08 66.80 67.00 65.67 65.61 64.97 63.95 63.51 63.99 64.22 62.95 61.55 60.94 60.30 61.20 60.36 60.53 60.85 61.47 62.91 62.65 62.55 62.25 61.03 61.38 61.15 61.89 61.73 64.08 63.47 63.11 64.61
60.02 60.64 61.20 61.32 61.92 62.99 63.39 63.48 64.01 64.55 65.53 66.15 66.09 67.04 67.47 67.14 67.02 65.56 63.93 63.75 64.69 64.16 62.20 62.20 61.26 61.56 60.88 60.48 61.38 60.89 62.33 62.38 60.95 61.27 60.81 60.39 59.02 59.56 60.03 61.05 60.36 61.02 63.54
60.30 60.77 61.02 61.04 61.49 62.27 62.44 62.10 61.95 61.80 64.27 65.08 65.43 65.64 67.11 66.43 65.81 65.11 64.46 64.33 64.09 63.62 63.48 62.83 61.85 60.73 59.83 60.18 61.06 60.79 61.37 61.35 59.91 61.16 59.10 58.07 58.12 58.97 59.65 60.27 60.78 60.30 61.14
59.38 60.39 60.79 61.11 61.32 61.73 61.90 62.15 62.10 61.95 62.40 63.25 64.42 65.03 65.24 64.86 65.13 64.78 64.64 64.06 64.12 62.98 63.28 63.29 62.54 61.32 60.09 60.55 59.44 58.30 57.08 57.82 60.02 58.96 57.17 57.21 56.20 58.45 59.10 59.95 60.31 59.95 58.40
57.57 59.16 60.34 61.05 61.39 61.44 61.92 61.81 61.66 62.08 61.90 61.75 62.65 62.84 63.20 64.10 64.62 64.88 64.63 64.63 64.05 63.08 62.33 62.93 62.89 62.15 60.88 61.77 61.59 58.48 54.52 52.28 54.91 55.98 55.94 55.99 55.77 55.73 57.30 58.24 58.46 58.46 57.79
58.00 58.67 60.12 60.96 60.96 61.01 61.73 60.78 60.28 59.47 58.96 60.34 61.47 62.37 62.50 63.17 63.81 64.39 64.51 64.17 64.05 63.37 62.47 62.13 62.76 61.95 61.63 59.73 61.48 62.30 60.88 59.19 52.73 50.73 55.04 54.43 54.48 54.88 55.73 56.71 56.39 56.14 55.51
54.04 57.59 58.83 59.52 60.94 61.46 61.48 61.04 60.09 59.37 60.05 60.63 60.95 60.46 60.71 61.73 62.17 62.22 62.50 62.61 63.24 63.42 63.22 62.82 61.58 61.65 61.42 60.69 60.50 59.48 57.32 56.58 55.53 54.01 50.43 52.12 55.38 55.90 55.09 55.71 55.14 54.26 54.29
53.89 54.62 55.39 57.33 59.48 60.28 60.21 60.39 60.48 59.72 59.72 59.44 59.55 59.65 59.80 60.04 61.12 61.23 61.35 61.20 60.90 61.67 62.48 62.09 61.70 59.86 57.96 57.58 57.13 56.54 55.54 53.64 52.24 51.43 50.75 51.42 51.23 53.43 54.48 54.52 53.73 53.23 52.63

GFSSE_sfc_wetblb_087.txt.gz
Wetbulb
69.85 72.52 75.23 74.55 74.15 73.90 73.80 74.28 75.55 76.03 75.55 75.35 74.73 74.68 74.62 74.37 74.18 73.15 71.83 71.18 72.27 72.65 73.73 73.66 73.50 72.19 71.35 71.06 70.96 71.04 71.28 71.07 70.51 69.55 69.48 70.38 70.92 71.25 71.65 71.04 70.50 69.33 71.04
71.01 73.03 74.83 74.74 74.22 73.90 73.75 74.04 74.42 75.22 75.20 75.40 75.00 74.45 74.33 74.37 73.94 73.05 72.23 71.77 71.72 72.45 73.58 73.41 73.21 71.60 70.84 70.25 69.56 69.04 69.26 68.75 68.33 68.68 68.68 68.66 69.16 69.20 69.55 69.48 69.31 68.41 69.65
71.30 73.04 73.51 74.74 74.80 74.69 74.40 73.35 73.51 73.98 75.03 74.98 74.82 74.67 74.30 74.52 73.90 72.61 72.09 71.78 72.18 72.36 72.41 73.36 72.63 71.11 70.48 69.24 68.91 69.61 69.33 68.90 69.16 69.32 68.58 65.01 66.18 68.74 68.65 68.31 67.91 68.69 68.88
71.82 72.82 73.10 74.86 74.87 74.72 74.52 73.52 73.23 72.71 73.97 74.76 74.50 74.79 75.22 74.45 73.44 72.34 72.03 72.31 72.98 72.33 72.06 71.70 72.12 70.78 70.19 68.74 68.65 69.24 68.96 68.23 67.93 67.70 64.63 65.22 66.42 68.97 68.81 68.59 68.35 67.75 67.60
71.11 72.00 73.03 74.73 74.78 74.63 74.48 73.62 73.06 73.06 73.29 74.48 74.46 74.21 74.42 74.28 73.39 72.22 73.25 73.42 72.57 72.07 72.25 71.38 72.28 70.91 70.24 68.87 67.87 68.10 67.87 68.14 68.95 66.66 64.31 64.10 64.59 67.76 68.58 68.19 67.84 68.00 67.73
70.09 70.85 73.29 74.33 74.55 74.44 73.95 73.83 73.17 73.42 73.08 73.85 73.67 73.83 73.98 73.67 73.34 73.01 73.25 72.53 70.78 70.30 70.22 70.68 71.96 70.94 70.23 69.14 67.93 67.81 68.12 68.30 66.84 64.89 64.84 66.28 64.45 68.54 68.49 68.30 68.02 67.87 67.50
67.97 71.34 72.47 74.10 74.05 74.03 73.43 73.55 73.41 72.81 73.00 73.40 73.46 73.71 73.63 73.59 73.09 73.02 72.30 71.02 70.04 69.83 71.38 71.06 71.31 71.08 70.35 69.27 67.91 67.26 67.02 66.83 63.39 63.90 63.49 64.39 65.45 68.77 68.41 67.82 67.90 67.96 67.54
65.73 69.35 71.66 72.28 72.54 72.99 72.67 72.85 72.69 72.56 72.49 73.71 73.01 73.26 73.45 73.14 73.19 72.42 71.27 70.12 69.94 71.46 72.16 71.28 70.89 71.01 70.49 69.42 67.98 66.51 66.28 65.22 62.90 64.20 64.31 64.65 68.82 68.71 68.44 67.58 67.19 67.36 67.31
64.55 63.65 63.31 63.92 68.10 70.51 71.19 71.49 71.99 72.26 71.71 73.70 72.72 72.47 72.36 71.95 72.11 70.70 70.23 70.34 70.83 70.97 70.94 71.48 71.39 70.82 70.36 69.34 67.48 66.50 65.67 64.49 59.51 64.08 65.37 64.86 69.15 68.67 68.16 67.66 66.85 66.57 66.53
63.53 62.97 62.99 63.00 63.03 63.05 62.52 67.11 68.95 71.05 71.08 71.39 71.53 70.94 70.22 70.16 70.50 70.54 69.70 70.28 70.71 70.74 70.21 69.88 69.32 68.72 68.49 67.71 66.44 65.60 64.20 63.42 58.75 63.62 64.55 65.37 68.82 67.96 67.90 67.42 66.97 66.11 65.69
63.18 61.87 62.59 62.97 62.51 62.46 62.90 63.44 64.23 68.27 69.67 69.19 69.55 68.65 67.86 67.74 68.19 68.28 67.73 68.63 69.48 69.90 69.53 68.81 68.44 68.07 66.88 65.36 64.78 63.43 62.52 56.85 57.14 61.35 64.10 68.70 68.83 67.65 67.57 67.86 67.04 66.47 65.37
59.26 61.82 62.13 62.81 62.35 61.90 62.74 62.59 62.68 65.81 67.45 69.01 68.90 67.85 66.87 66.28 65.77 66.80 66.41 67.25 68.86 69.05 68.67 68.57 67.82 67.04 64.17 58.95 58.45 61.44 55.60 54.11 55.15 59.17 60.80 67.97 68.22 67.86 67.51 67.75 67.30 67.17 66.40
57.44 58.75 60.44 61.74 62.01 61.16 61.85 62.19 62.06 62.89 65.85 68.20 67.50 67.09 66.09 65.45 64.66 64.93 65.31 66.25 66.27 65.27 65.00 65.62 64.66 61.29 58.11 56.61 56.53 55.78 55.12 54.60 55.66 58.70 61.94 66.55 67.81 68.35 67.94 67.29 67.83 68.00 68.00
57.12 58.77 59.86 61.11 61.23 60.81 62.05 62.12 61.83 63.13 65.06 66.22 66.98 66.84 65.51 64.62 64.82 64.83 64.37 63.98 63.82 63.13 61.99 61.78 60.94 59.32 57.57 56.46 56.02 55.72 55.50 57.97 58.55 58.49 60.19 65.23 67.27 67.69 68.30 68.21 67.95 67.75 67.65
57.40 58.11 58.58 61.12 61.01 61.22 61.39 62.74 62.97 63.21 64.34 65.27 65.69 66.46 65.78 64.46 64.71 64.85 64.09 64.23 62.93 62.25 60.88 60.55 59.90 58.61 57.40 57.33 56.92 56.84 57.00 59.06 59.97 60.02 58.77 62.76 65.28 67.52 67.83 67.81 67.87 68.08 68.38
58.44 58.26 59.64 61.43 61.91 62.25 61.74 62.90 63.66 64.99 64.97 64.00 65.40 64.98 64.47 64.51 64.02 63.79 63.35 62.89 62.28 61.37 60.60 60.50 59.06 58.17 57.31 56.94 57.87 58.56 59.18 60.49 60.80 61.95 62.17 62.11 64.59 66.23 68.28 68.19 68.05 68.29 67.95
59.33 59.05 60.04 61.13 62.30 61.96 62.37 63.26 65.12 65.97 63.83 62.96 64.92 62.18 64.67 63.99 62.28 62.20 61.77 61.55 61.38 60.89 59.22 58.77 58.26 57.12 57.02 57.93 58.35 60.44 61.39 61.29 61.57 62.30 62.14 61.18 62.66 63.69 66.32 68.22 68.20 67.59 66.89
59.13 59.58 60.20 62.06 61.70 61.85 63.48 63.76 65.92 65.99 64.70 63.31 63.38 63.02 64.09 63.63 62.12 60.35 59.60 59.43 59.47 59.00 58.56 57.70 57.52 57.55 58.62 59.51 60.05 60.66 61.25 62.28 62.46 63.32 63.05 63.14 63.44 63.40 64.11 66.62 67.93 67.11 65.85
59.19 59.58 59.87 61.25 60.77 62.67 63.25 64.09 65.00 65.35 65.09 64.48 63.14 62.99 62.87 62.83 61.21 60.18 60.40 59.92 60.54 60.74 59.47 59.42 58.22 58.76 59.29 60.06 60.21 60.86 60.50 60.86 62.45 62.03 59.87 60.41 61.84 61.50 61.23 63.39 64.30 63.50 64.26
58.81 59.57 60.40 60.47 60.41 61.93 61.82 62.39 63.96 64.56 64.85 65.38 64.45 64.69 63.79 63.46 62.95 62.22 62.31 62.43 62.66 61.82 60.78 60.50 59.19 60.15 60.52 60.34 60.61 60.43 60.51 60.98 61.57 61.58 60.12 60.22 59.95 59.17 60.23 60.84 59.97 61.00 64.13
59.78 60.08 60.64 60.56 60.76 62.11 61.47 60.95 60.95 61.79 64.00 64.42 64.70 66.17 66.05 65.76 65.63 64.06 62.88 62.95 63.59 62.44 61.72 61.49 60.87 60.12 59.26 59.51 59.20 59.63 59.92 60.70 61.08 60.59 60.00 57.04 57.68 58.29 59.04 59.33 59.58 60.23 62.29
58.23 59.77 60.51 60.62 60.79 61.55 61.32 62.02 61.82 61.98 62.62 63.76 64.35 64.64 65.00 65.01 65.34 64.51 63.45 63.00 63.02 62.36 62.22 62.41 61.93 60.72 59.67 59.73 58.02 58.13 56.13 57.29 59.04 58.98 57.31 55.99 56.83 57.96 58.45 59.12 59.61 58.82 58.12
56.57 57.38 60.20 60.77 61.01 61.33 61.50 61.61 61.41 61.28 60.93 61.19 62.06 62.43 63.00 63.64 64.12 63.63 63.47 63.41 63.08 62.49 61.81 61.83 61.94 61.53 60.56 61.09 60.63 58.53 55.08 53.67 54.43 55.34 54.96 55.27 55.59 55.85 56.97 57.67 58.96 58.60 57.14
53.92 56.98 59.56 60.43 61.07 61.03 61.07 60.51 59.86 58.67 58.28 60.16 60.79 61.37 61.79 62.36 62.56 63.31 63.23 63.20 63.56 62.80 61.73 61.73 62.21 61.41 60.95 59.65 60.13 61.48 60.50 59.61 54.58 52.60 55.40 55.46 54.54 53.76 55.56 56.20 55.97 55.95 55.19
53.78 54.63 55.41 58.62 60.26 60.74 60.31 60.36 59.50 59.01 59.59 60.13 60.55 59.71 60.16 61.10 61.48 61.62 62.25 62.42 62.25 62.35 61.82 61.53 60.52 60.88 61.50 60.20 59.72 58.92 59.11 57.46 56.04 54.35 51.12 52.58 54.87 55.02 54.23 56.40 56.38 55.14 54.32
52.64 55.08 54.94 55.58 57.62 59.09 59.27 59.77 59.61 58.95 58.86 58.56 58.93 58.71 59.18 59.73 60.44 60.87 61.12 61.00 60.64 61.39 61.98 61.99 60.98 60.09 59.48 59.24 58.83 58.47 56.49 55.33 53.61 52.68 51.24 51.76 52.04 53.44 54.90 55.27 54.75 53.08 51.89

GFSSE_sfc_wetblb_090.txt.gz
Wetbulb
69.71 72.25 75.27 74.61 74.63 75.18 75.46 75.98 76.08 75.47 75.23 74.65 74.67 74.61 74.72 74.47 73.73 72.46 71.66 73.17 73.49 73.43 72.70 73.48 72.53 72.21 71.86 71.53 71.78 71.65 71.00 70.75 70.41 69.99 70.13 70.91 71.24 71.28 70.75 70.19 70.04 68.22 70.71
70.69 72.73 74.85 74.69 74.18 74.28 75.20 75.75 75.88 75.37 75.26 75.19 74.45 74.34 74.20 74.05 73.21 71.95 71.64 72.92 73.12 73.90 73.71 73.23 71.74 71.06 70.55 70.39 70.80 70.23 68.59 68.21 68.57 68.47 68.67 68.77 69.28 69.53 69.58 68.88 69.68 67.78 69.67
71.05 72.74 73.34 74.65 74.63 74.61 74.53 74.12 74.71 74.81 74.97 75.10 74.96 74.03 73.65 74.09 73.20 72.27 71.55 72.13 72.82 73.78 73.41 72.69 71.28 70.42 69.52 68.93 69.20 69.30 69.42 69.13 68.64 68.48 68.02 65.02 65.79 68.99 68.64 67.97 68.20 68.61 68.72
71.70 72.41 72.47 74.71 74.63 74.11 73.59 73.05 73.41 74.32 74.26 74.45 74.79 74.76 74.57 74.24 73.31 72.44 71.96 71.77 72.89 73.45 73.14 72.11 70.74 69.74 68.93 69.74 69.97 69.71 69.19 68.54 67.91 67.37 64.41 65.01 66.31 68.88 68.69 68.47 68.05 67.67 67.42
71.31 71.96 72.63 74.81 74.76 74.41 73.72 73.03 72.37 72.65 74.04 74.04 74.27 74.05 74.18 73.96 73.35 72.15 72.42 72.78 72.32 72.16 72.99 71.52 70.53 69.63 68.68 69.33 69.29 68.73 68.41 68.44 68.56 65.90 63.73 63.68 64.20 67.79 68.54 68.25 67.90 67.90 67.60
70.74 71.28 73.50 74.36 74.47 74.28 73.72 73.46 72.81 72.18 72.44 73.86 73.91 73.95 73.68 73.49 73.33 72.37 73.09 72.49 71.89 71.61 71.89 71.89 70.67 69.95 68.76 68.69 68.61 68.74 68.56 68.58 67.29 63.75 63.95 66.08 64.55 68.52 68.61 68.32 68.06 67.69 67.52
68.60 70.64 72.35 73.28 73.67 74.40 73.66 73.64 73.24 73.02 72.89 73.46 73.72 73.58 73.35 73.39 73.47 73.39 73.09 72.00 71.46 70.63 71.03 72.03 71.00 70.02 68.96 68.37 68.56 68.07 67.19 67.39 63.57 62.37 62.99 63.81 65.12 68.40 68.39 68.14 67.96 67.66 67.46
68.08 68.15 69.22 70.96 72.25 72.82 72.09 72.31 72.86 72.38 71.98 72.76 73.34 73.27 73.27 73.31 72.80 73.11 72.61 70.29 70.22 70.96 71.15 71.48 71.15 70.24 69.21 68.23 67.84 66.94 66.05 65.87 64.20 63.34 63.58 64.36 68.51 68.59 68.06 67.67 67.49 67.44 67.21
64.96 63.94 63.81 63.95 65.59 66.92 67.44 67.48 68.80 71.28 71.62 72.01 73.22 72.65 72.07 71.93 71.93 72.47 71.38 70.86 70.70 70.97 71.54 71.41 70.87 70.67 69.63 68.48 67.13 66.31 65.09 64.36 62.57 63.62 64.78 64.58 69.26 68.62 68.11 67.28 66.84 66.69 66.47
62.94 63.30 62.64 62.67 62.88 63.56 63.15 64.64 66.11 67.29 69.37 70.86 71.89 70.73 69.93 69.98 70.34 70.99 70.10 69.97 70.96 71.68 72.03 71.59 71.17 70.61 70.01 68.98 67.45 65.19 63.46 63.20 61.79 63.21 64.03 64.29 68.86 68.45 68.14 67.37 66.57 66.15 65.89
61.47 61.92 62.45 62.74 63.16 63.28 63.63 62.77 63.27 64.85 65.65 68.54 69.66 68.57 68.11 68.82 68.92 68.30 67.40 68.64 70.01 70.39 70.24 70.15 70.16 69.67 68.35 66.73 65.81 63.92 61.82 56.85 58.90 62.90 63.57 68.13 68.99 67.99 67.98 67.49 66.99 66.17 65.52
60.79 60.83 61.78 62.59 62.58 63.49 63.82 61.45 60.86 62.33 64.17 65.30 68.31 68.04 68.07 68.18 68.11 67.54 66.18 67.51 69.24 69.29 68.92 69.27 68.81 68.05 64.83 59.16 58.49 61.61 55.03 54.30 54.54 60.58 63.06 68.85 68.60 68.16 68.09 67.78 67.43 66.95 66.11
58.94 60.34 62.02 61.56 61.87 62.10 63.48 63.00 61.91 61.48 64.32 65.35 66.99 67.72 66.93 66.84 66.18 66.57 66.49 66.88 67.17 65.94 65.57 66.19 65.42 61.96 58.33 56.28 55.75 54.81 54.44 53.16 54.56 58.26 61.30 68.06 69.05 68.59 68.12 68.05 67.82 67.67 67.70
57.23 58.14 60.01 61.47 60.77 60.22 60.96 61.46 61.23 61.15 62.11 64.34 65.95 67.07 66.50 65.15 65.23 65.14 65.80 65.84 65.57 64.55 62.82 62.09 61.02 59.33 57.24 55.82 55.12 54.71 53.89 54.23 55.69 57.97 58.55 65.70 68.47 68.88 68.82 68.29 68.03 67.92 67.85
57.23 57.36 58.35 59.69 59.24 59.46 60.28 60.82 61.00 61.27 61.47 62.54 65.03 66.79 66.70 65.02 64.14 64.68 64.90 64.81 64.94 63.75 61.56 60.56 59.57 58.29 56.21 55.55 55.21 55.27 54.99 55.17 57.77 58.49 57.28 63.12 65.77 68.39 69.18 68.75 68.47 68.22 68.17
57.65 57.37 57.88 59.42 59.52 60.03 59.75 60.64 61.51 61.96 61.91 62.01 63.72 65.54 65.95 65.47 64.83 64.66 64.36 64.26 64.26 63.63 62.16 60.73 58.96 57.73 56.33 55.98 56.07 55.81 56.16 57.10 58.61 59.74 58.11 59.62 64.32 66.05 68.26 68.39 68.30 68.07 68.36
58.08 58.29 58.17 59.66 60.61 60.07 60.24 60.86 62.36 63.15 63.56 62.82 63.23 65.08 65.64 65.11 65.31 64.70 64.12 63.73 63.64 62.50 60.78 59.52 58.50 58.19 56.81 56.79 55.60 56.46 58.42 59.25 60.34 60.63 60.54 60.51 61.23 63.47 66.16 68.27 68.76 68.08 67.60
57.81 57.88 59.03 60.88 60.80 60.76 60.71 61.03 61.61 63.53 64.43 64.44 64.49 65.20 64.66 64.47 65.10 64.38 63.42 62.80 62.27 60.87 59.53 58.67 57.77 56.19 55.98 55.96 56.09 57.65 59.56 60.75 61.11 61.26 62.08 62.47 62.36 63.08 64.26 66.54 68.08 68.39 66.95
57.92 58.49 59.29 60.06 59.89 60.94 60.83 61.63 62.20 63.45 63.73 64.23 64.01 64.38 63.89 64.17 63.35 63.42 62.24 61.88 60.38 59.97 58.96 57.94 56.60 56.61 56.89 58.17 58.97 59.74 60.13 60.31 60.87 62.18 61.52 61.16 61.30 62.04 60.97 63.23 64.43 64.96 65.16
58.24 58.66 59.15 59.65 60.75 60.65 61.94 62.50 62.39 63.16 63.54 63.91 63.41 62.84 63.80 64.21 63.09 61.45 60.84 60.20 60.07 59.44 58.54 58.44 57.19 58.07 58.60 59.10 60.05 59.79 59.48 60.46 60.62 60.33 60.61 60.35 60.30 60.55 60.45 60.80 61.27 60.21 62.68
57.33 57.62 58.41 58.82 59.62 59.78 59.72 59.65 60.84 61.24 62.76 63.02 63.55 63.61 62.81 63.46 62.49 61.52 61.33 60.71 60.80 60.23 60.11 59.62 58.66 58.04 58.69 59.54 58.44 58.68 58.79 60.09 59.39 59.42 60.09 58.47 58.87 58.32 59.80 59.57 59.13 59.40 61.20
58.14 59.19 58.33 59.06 59.68 60.76 60.77 60.89 61.54 61.91 62.80 63.88 63.79 63.89 63.45 63.13 62.96 62.39 62.48 62.37 62.34 61.87 61.03 60.63 60.18 59.05 59.02 58.79 57.50 57.30 55.49 57.18 59.01 59.38 57.38 56.49 57.12 57.77 58.03 59.07 58.82 58.68 58.97
55.63 57.82 59.31 60.61 60.20 60.23 61.58 61.51 61.25 61.82 61.56 61.79 62.73 62.84 62.95 63.04 63.26 63.45 63.22 62.93 62.37 62.36 61.44 61.28 61.18 60.72 59.07 59.61 59.41 58.03 54.37 54.00 54.89 55.95 54.91 54.43 55.24 55.83 56.90 58.44 58.46 58.10 57.16
54.12 55.64 57.47 59.28 60.13 61.00 61.41 60.87 59.94 58.66 58.75 60.19 61.19 61.73 62.07 62.40 62.01 62.04 62.17 61.92 61.82 61.41 60.77 61.34 61.51 60.76 60.25 58.86 59.78 60.70 59.54 57.87 53.48 52.93 55.73 55.46 55.78 55.71 57.25 56.88 57.49 57.21 56.28
53.95 54.92 55.75 58.02 58.10 60.50 60.52 60.47 59.49 59.27 59.77 60.68 60.99 60.43 60.56 61.13 61.64 61.50 61.30 61.46 61.49 61.72 61.21 60.83 60.45 60.19 60.38 59.31 59.01 58.73 58.36 58.88 57.35 54.69 52.47 53.11 55.53 55.85 55.75 56.64 56.07 54.94 55.42
52.04 54.18 53.91 53.92 54.26 55.67 58.05 58.81 58.88 58.76 58.99 58.57 58.70 58.82 59.30 59.69 60.24 60.54 60.79 60.70 61.17 61.27 61.41 61.39 60.75 60.08 59.81 59.52 58.40 58.40 56.64 56.04 54.63 53.07 51.25 52.04 53.33 55.03 55.80 55.68 55.90 55.12 54.23

GFSSE_sfc_wetblb_093.txt.gz
Wetbulb
68.11 71.64 75.11 74.95 75.47 75.66 75.65 75.25 75.10 75.07 75.06 74.75 73.97 73.98 74.17 73.92 73.41 72.14 71.88 72.19 72.12 72.35 73.02 72.93 72.73 71.96 71.77 71.60 71.58 71.63 71.15 70.21 70.37 70.49 70.39 71.28 70.79 70.27 69.73 69.27 69.67 68.46 71.46
70.25 72.54 74.75 74.73 75.07 75.35 75.62 75.88 75.51 75.12 75.03 74.95 74.15 73.73 73.37 73.48 72.77 71.96 73.39 73.51 73.13 72.67 73.54 72.57 72.30 71.82 71.13 71.60 70.40 69.82 69.95 69.41 68.81 68.45 68.64 68.93 69.62 69.34 69.16 68.97 68.85 67.91 70.42
71.00 72.48 73.12 74.56 74.70 74.53 74.85 75.40 75.34 75.24 75.16 74.96 74.65 73.23 74.11 73.48 72.35 71.97 73.27 73.34 73.85 73.57 73.15 71.55 70.67 70.21 70.35 70.50 68.87 68.50 68.00 68.22 68.38 68.37 67.84 64.60 65.80 68.55 68.09 68.10 68.27 68.17 68.32
71.50 72.24 72.37 74.52 74.42 73.98 74.03 74.49 74.23 74.56 74.45 74.77 74.56 74.14 74.12 73.61 72.52 71.67 72.76 72.97 73.64 73.23 72.39 70.80 69.81 69.06 69.21 69.52 69.65 69.53 69.02 68.15 67.70 67.19 64.29 64.69 65.98 68.56 68.47 68.01 67.61 67.45 67.40
70.89 71.84 72.33 74.52 74.51 74.09 73.42 73.25 73.97 73.99 73.90 73.89 73.96 74.24 74.07 73.69 73.19 72.16 71.88 73.15 73.71 73.15 72.36 70.50 69.11 69.27 69.96 69.98 69.61 68.87 68.19 67.67 67.54 65.25 63.32 63.41 64.13 67.41 68.26 68.09 67.66 67.71 67.44
70.21 70.87 73.14 74.30 74.52 74.20 73.77 73.08 72.24 73.25 73.63 73.42 73.46 73.79 73.66 73.29 73.32 72.15 72.76 72.66 72.23 72.80 71.70 70.46 69.06 68.99 70.15 70.00 68.89 69.18 69.35 68.29 66.04 62.82 63.57 65.78 64.22 68.35 68.53 68.06 67.71 67.60 67.51
69.92 70.98 72.68 74.43 74.46 74.10 73.61 73.39 73.04 72.11 72.23 73.40 73.75 73.28 73.20 73.33 72.89 72.93 72.67 72.36 71.69 72.08 71.81 70.55 69.56 68.96 68.69 69.27 69.16 68.27 68.95 67.82 62.93 61.95 62.73 63.59 64.43 68.40 68.43 68.13 67.72 67.55 67.39
67.93 70.31 71.24 72.43 73.23 73.25 72.76 72.65 73.03 72.57 72.43 72.91 73.21 73.40 73.38 73.05 73.33 73.02 72.90 71.94 71.57 70.76 72.18 71.01 69.74 68.81 68.56 68.86 68.37 67.12 68.16 66.36 63.18 62.76 63.07 63.67 68.17 68.10 67.93 67.77 67.50 67.29 67.20
65.33 65.21 65.56 67.25 68.95 68.66 68.59 69.23 69.71 69.93 70.38 71.00 72.49 72.78 72.64 72.01 72.14 72.46 72.14 71.45 71.01 70.79 70.43 71.81 70.21 69.12 68.56 68.51 67.63 66.55 66.79 66.08 62.13 62.81 64.08 64.25 68.97 68.28 67.58 66.97 66.80 66.58 66.43
63.97 63.88 63.69 63.63 63.32 62.46 63.32 66.14 66.26 66.67 67.00 68.13 70.67 71.58 70.40 70.13 70.81 71.06 70.80 70.18 69.39 69.81 70.88 71.42 70.78 69.71 69.09 68.76 67.65 65.86 64.80 65.47 61.95 62.74 63.57 64.23 68.96 68.32 67.79 66.77 66.35 66.12 65.87
62.45 61.35 62.04 62.61 63.13 63.50 62.74 62.86 63.22 64.25 64.59 66.21 68.27 68.72 68.36 68.38 68.93 68.64 67.71 68.28 69.16 70.53 71.05 71.07 71.02 70.73 69.48 67.92 66.69 64.56 62.06 58.62 60.83 62.02 62.89 66.38 68.72 68.46 68.13 67.37 66.54 65.85 65.48
60.40 61.69 62.17 61.63 62.33 63.40 64.10 62.79 60.76 61.60 61.27 61.55 65.16 66.87 67.20 67.41 67.85 67.69 65.91 66.89 68.70 69.97 70.41 71.03 70.61 69.80 67.18 61.43 60.33 62.08 54.91 55.77 58.39 61.91 62.75 67.43 68.95 68.30 68.28 67.63 67.29 66.68 65.77
60.28 60.22 61.01 61.00 61.26 61.41 63.38 62.99 63.04 61.79 62.34 62.85 64.43 67.80 66.12 66.63 65.91 66.28 65.97 66.19 67.38 66.22 67.11 67.41 66.66 63.60 59.54 57.07 55.76 54.96 53.88 52.75 52.98 57.89 62.68 67.43 69.07 68.61 68.29 68.09 67.64 67.50 67.38
58.47 59.57 60.61 60.77 60.87 61.16 62.05 62.01 61.95 61.91 61.86 63.02 63.95 67.03 66.29 65.47 64.83 65.52 65.58 65.98 66.43 66.35 65.04 64.12 62.49 60.40 58.26 55.42 54.08 53.43 53.20 52.42 52.93 56.12 59.00 65.08 68.80 69.09 68.80 68.42 68.21 68.06 68.02
57.57 57.91 58.76 60.27 60.21 59.84 59.32 59.29 59.53 59.42 60.75 61.82 63.66 66.48 66.20 65.34 65.23 65.79 65.73 65.68 65.53 65.02 64.33 63.14 61.86 58.77 56.62 55.25 54.47 54.25 53.95 52.72 54.15 55.83 57.44 61.35 65.89 69.00 69.80 69.08 68.66 68.39 68.22
57.75 57.55 57.82 58.82 59.92 59.11 58.72 58.90 58.93 59.22 60.24 60.25 62.89 65.27 66.26 65.94 64.94 65.30 65.39 65.16 64.71 64.68 64.00 63.15 61.28 58.91 56.31 54.92 54.60 54.37 54.60 54.77 55.21 57.18 57.46 57.72 63.76 66.22 68.85 69.32 68.78 68.35 68.14
57.72 57.59 57.35 58.07 59.09 58.45 58.75 59.36 59.87 60.08 61.11 60.71 61.15 63.50 65.63 65.18 64.88 64.61 65.09 64.90 64.61 64.43 63.76 61.96 60.15 58.88 56.14 55.48 54.42 55.07 55.14 55.26 56.58 58.46 59.02 58.22 60.00 62.80 65.78 68.54 68.79 68.46 68.15
56.94 57.33 57.53 59.09 59.46 59.12 59.19 59.57 60.48 61.22 61.25 62.11 62.16 62.76 64.58 65.22 64.97 64.69 64.56 64.50 63.97 63.10 62.96 61.10 60.00 58.15 56.71 55.22 54.69 55.16 56.09 57.66 58.30 59.22 59.86 60.09 60.38 61.81 62.95 66.65 68.26 68.87 68.36
56.85 57.24 57.34 58.21 58.99 59.43 59.51 59.77 60.15 60.66 61.43 62.93 63.26 63.10 63.67 65.04 64.87 64.55 64.18 64.14 63.70 62.90 61.27 60.51 58.78 58.43 55.50 55.40 55.63 56.16 56.81 58.41 59.70 61.20 60.24 60.69 61.28 61.40 61.22 63.56 64.62 65.58 66.80
56.76 57.14 57.35 58.15 58.49 58.68 59.40 60.17 61.24 62.59 62.20 62.28 63.51 64.43 64.30 64.82 64.89 64.65 63.89 63.58 62.52 61.59 60.14 58.73 58.27 56.97 56.29 56.58 58.05 58.24 58.47 59.22 59.97 59.72 59.89 60.42 60.40 60.46 60.55 60.34 61.87 61.86 63.23
55.88 56.18 56.55 56.93 57.57 58.12 58.07 57.80 58.14 58.68 60.41 62.11 63.36 63.74 63.90 64.35 63.88 63.66 63.35 62.69 60.95 60.70 59.93 59.01 57.93 55.93 56.85 57.83 57.42 57.35 58.22 58.61 59.27 59.23 59.13 58.20 59.32 60.19 60.45 59.90 60.01 59.34 60.18
57.11 56.36 56.77 57.32 57.93 58.18 58.45 58.64 58.87 59.52 61.62 62.49 62.70 63.03 63.32 62.97 63.08 62.18 61.97 61.53 60.98 59.99 59.68 58.82 58.11 57.40 57.18 58.67 57.03 56.00 54.76 56.59 58.31 58.86 57.91 57.05 57.33 58.52 59.40 59.05 58.73 58.62 58.49
54.46 53.98 56.78 58.36 59.13 59.28 59.27 59.86 60.29 61.10 60.84 60.98 61.96 62.16 62.64 62.72 62.44 61.62 61.15 60.93 60.37 60.71 59.57 59.36 59.10 58.92 57.18 57.60 57.94 57.04 53.95 53.03 55.32 55.98 55.58 55.06 55.82 56.53 57.34 58.19 58.26 58.16 57.42
52.37 55.64 56.94 58.16 59.15 59.21 60.09 60.20 59.08 58.26 58.10 59.35 60.25 62.34 62.28 62.32 61.59 61.91 61.92 61.41 61.23 61.34 60.71 60.47 60.58 59.89 58.94 57.56 58.58 59.72 58.90 56.98 53.75 52.24 55.14 54.63 55.00 55.63 56.52 57.17 57.87 58.15 57.50
53.98 54.98 55.63 55.70 55.75 56.36 60.02 60.32 59.33 58.78 59.61 60.10 60.84 61.07 61.36 61.34 61.15 61.01 60.56 60.36 60.53 60.91 60.16 59.77 59.55 59.37 59.37 58.46 58.21 58.16 58.19 58.24 57.49 54.30 52.44 52.28 54.11 54.47 56.68 57.56 58.74 58.28 57.53
50.46 51.51 51.02 52.06 52.27 53.48 54.71 55.44 56.47 58.18 58.84 58.96 58.97 59.08 60.10 60.45 60.11 59.79 59.80 59.44 59.54 59.72 60.42 59.84 59.56 59.52 59.24 59.28 58.62 58.26 57.38 56.64 56.56 54.77 52.83 51.39 52.00 52.83 54.04 55.56 55.51 56.80 57.01

GFSSE_sfc_wetblb_096.txt.gz
Wetbulb
67.10 71.02 75.14 75.42 75.39 75.35 75.08 74.54 74.85 75.17 75.30 75.47 74.53 74.48 74.13 74.09 73.63 72.85 71.96 72.13 72.24 72.83 73.79 73.41 73.10 72.89 72.63 72.09 72.13 71.29 70.78 71.03 71.16 70.94 71.03 71.12 69.90 69.74 69.57 69.56 69.79 69.21 71.43
69.24 72.09 75.00 75.58 75.67 75.56 75.49 75.06 75.01 74.91 74.82 74.71 74.41 74.25 74.05 73.51 72.97 71.90 72.13 72.10 72.46 73.27 73.23 72.67 71.44 72.05 71.22 70.80 71.25 70.83 70.25 69.85 69.10 68.79 69.02 69.16 69.46 69.16 69.11 68.57 69.39 68.04 69.71
70.34 72.53 73.37 75.29 75.27 75.03 75.16 74.65 75.06 75.04 74.87 74.48 73.40 73.33 73.25 73.15 72.30 72.68 73.11 73.13 72.64 73.42 73.19 72.12 71.38 70.81 71.25 69.44 68.84 69.29 68.99 68.62 68.39 68.32 67.83 64.69 65.48 68.13 68.37 68.07 68.00 68.16 68.54
71.30 71.86 72.08 74.87 75.02 74.88 74.85 74.73 74.53 74.32 74.53 74.62 74.00 73.58 73.22 73.17 72.14 72.85 73.09 73.57 73.58 73.00 71.82 70.79 70.32 70.39 70.28 69.02 68.73 68.56 68.37 68.33 68.07 67.15 64.12 64.47 65.66 68.55 68.28 67.83 67.74 67.61 67.43
70.61 71.45 71.96 74.57 74.74 74.78 74.42 74.62 74.16 74.38 74.10 73.91 74.06 73.98 73.93 73.22 72.28 72.39 73.14 73.70 73.35 72.73 71.60 69.98 69.55 70.20 69.87 69.82 69.55 69.25 68.34 68.08 67.54 65.05 63.13 63.33 63.99 67.34 68.32 68.21 67.63 67.65 67.38
69.19 70.57 72.84 74.12 74.45 74.16 73.98 74.03 74.05 73.90 73.69 73.77 73.14 73.51 73.22 73.61 72.84 72.17 73.18 73.35 72.75 72.18 70.90 69.39 69.47 70.06 70.72 70.20 69.23 68.74 68.34 67.82 65.66 62.21 63.08 65.64 64.07 68.34 68.34 67.91 67.64 67.54 67.37
69.02 70.10 72.32 74.05 74.21 73.98 73.45 73.18 73.16 73.05 73.67 73.44 73.25 72.97 72.99 73.10 73.00 72.86 72.70 72.76 72.88 72.47 70.81 69.27 69.48 70.08 69.78 69.45 69.53 69.50 68.92 67.30 62.33 62.12 62.54 63.11 64.24 68.40 68.41 67.95 67.67 67.54 67.25
69.01 69.35 71.27 72.02 72.96 73.55 73.52 73.31 73.05 72.63 71.96 72.86 73.50 73.45 73.11 72.95 73.22 73.02 72.74 72.49 72.81 72.24 70.88 69.57 69.23 69.49 69.17 69.41 68.84 69.37 68.78 66.03 62.80 61.84 62.45 63.04 67.86 68.25 68.19 67.83 67.41 67.24 67.06
66.44 66.88 67.28 69.05 70.22 70.47 70.83 70.88 70.42 70.03 69.48 69.53 72.36 72.75 72.59 71.80 72.21 72.56 72.36 72.28 72.10 72.14 71.65 70.39 69.32 69.09 69.05 69.21 68.15 68.16 68.23 65.78 61.25 62.22 63.50 63.58 68.90 68.22 67.78 67.36 67.05 66.81 66.66
64.36 64.79 65.50 65.71 64.51 63.87 64.38 67.35 66.93 67.08 67.82 68.43 70.14 71.08 70.35 70.21 70.69 71.27 70.81 71.13 71.23 70.40 71.43 71.23 70.17 69.18 69.19 69.45 68.10 66.98 67.22 65.63 61.11 61.98 63.00 63.60 68.67 68.24 67.50 66.89 66.78 66.54 66.23
63.32 62.67 63.42 63.39 63.42 63.41 63.83 64.54 65.20 65.07 64.87 66.27 68.80 68.91 68.54 68.15 68.61 68.51 68.52 68.91 69.69 69.89 69.93 71.47 70.86 69.90 68.91 67.93 67.08 65.32 65.09 61.84 60.99 61.61 62.21 65.88 68.91 68.59 67.84 67.09 66.54 66.25 65.88
60.79 62.10 62.61 62.69 62.43 62.76 63.69 62.59 62.16 62.30 61.06 61.50 65.53 66.96 66.98 66.88 67.41 68.39 66.48 66.97 68.46 68.89 68.88 70.42 70.76 70.24 68.01 63.48 62.64 63.15 55.88 58.03 60.09 61.17 61.65 66.05 68.98 68.87 68.56 67.65 67.06 66.56 65.94
60.48 61.20 62.28 62.32 61.27 62.37 62.27 61.35 62.15 61.96 62.35 62.67 63.06 65.90 66.35 66.94 66.05 66.06 65.40 66.49 65.61 65.71 67.48 68.53 68.09 66.01 63.30 59.80 57.68 56.27 54.20 55.16 56.20 60.53 62.93 66.07 68.81 68.92 68.57 68.16 67.69 67.33 66.96
58.33 60.93 61.91 61.64 61.46 60.88 61.18 61.52 61.85 62.86 62.40 62.47 62.59 64.45 65.36 64.83 65.07 64.95 64.75 65.47 65.43 65.83 65.59 66.03 65.59 63.74 61.53 57.25 55.21 53.63 53.37 52.73 52.68 54.18 59.31 64.73 68.09 69.29 69.04 68.74 68.25 67.91 67.85
57.31 59.36 60.04 60.56 60.81 60.48 60.02 60.03 59.48 59.46 60.36 60.89 62.55 64.97 66.54 65.81 65.43 65.46 65.08 65.54 65.96 65.68 65.19 63.65 63.92 62.69 59.21 56.84 53.99 53.10 52.52 51.96 51.84 53.26 55.94 60.84 65.52 68.62 69.72 69.25 68.93 68.67 68.46
57.36 57.66 59.31 59.74 60.73 60.28 59.99 59.10 59.08 58.12 59.53 60.16 60.85 62.81 66.07 66.05 65.81 65.70 65.46 65.21 65.73 65.81 65.18 64.31 61.87 60.99 59.35 56.69 54.02 53.40 53.42 53.38 52.46 54.31 55.69 57.58 62.48 65.91 68.33 69.70 69.42 69.02 68.65
54.37 57.66 57.71 58.38 59.12 59.25 59.46 58.82 58.43 58.45 59.34 59.73 60.34 60.33 63.47 65.03 65.44 65.45 65.48 65.24 65.31 65.45 64.47 63.06 61.36 59.58 57.11 56.18 54.35 54.24 53.82 53.70 54.30 55.07 56.88 56.87 58.28 62.28 65.06 67.81 69.77 69.26 68.59
49.66 55.08 57.16 59.19 58.51 58.25 57.95 57.81 58.54 59.17 59.01 59.59 60.07 60.61 61.55 64.15 64.30 64.25 64.72 65.11 65.45 64.62 63.87 62.42 61.27 59.84 58.48 55.43 55.23 54.05 54.36 54.73 54.99 55.63 57.38 58.63 58.06 59.28 61.78 65.36 67.82 69.37 69.04
48.28 50.58 55.99 56.95 57.43 58.03 57.94 57.95 58.29 59.25 59.75 60.62 61.02 61.75 61.68 62.75 63.97 63.88 64.32 64.65 64.53 62.18 62.41 62.42 60.73 59.91 58.19 56.81 55.21 54.77 54.88 55.27 56.15 58.48 58.24 58.67 59.23 59.54 59.45 62.24 64.26 65.59 67.21
50.79 53.22 55.75 56.57 56.89 57.37 58.12 58.14 58.79 59.28 60.02 61.19 61.17 61.36 62.28 62.44 62.63 63.70 64.02 64.31 62.79 61.27 60.70 61.78 61.18 59.07 57.70 57.10 57.18 56.62 55.70 56.51 57.36 58.32 59.19 60.22 60.09 59.87 59.80 60.04 61.56 62.68 64.46
54.50 55.09 55.61 56.02 56.21 56.90 56.36 58.00 57.96 58.65 59.62 60.53 61.31 62.11 62.29 63.09 63.50 63.16 63.33 63.76 60.66 60.19 59.46 60.45 60.22 58.57 56.84 56.93 56.04 55.88 57.12 57.69 58.00 59.00 59.03 59.05 58.94 59.54 60.10 60.14 60.77 61.41 62.18
56.46 55.72 55.74 56.08 56.35 56.96 56.93 56.98 57.56 57.26 58.33 59.87 61.25 62.22 62.92 62.91 63.98 64.04 63.35 63.10 61.67 60.15 59.09 59.43 59.69 58.09 57.28 57.89 55.33 55.49 53.84 55.89 57.69 58.67 57.88 57.83 57.66 58.82 59.48 59.70 59.71 59.66 58.90
53.11 53.39 56.44 57.17 57.19 57.62 57.99 58.18 58.89 59.08 59.12 59.18 59.78 60.92 62.00 62.89 62.88 62.88 63.32 62.87 61.70 61.36 60.42 60.20 59.09 57.73 55.85 57.45 58.06 56.26 52.81 52.30 54.95 55.97 56.67 56.87 56.09 56.82 58.20 58.95 58.62 58.01 58.25
53.58 54.03 56.76 57.29 55.28 56.16 56.48 58.45 57.96 57.75 57.51 58.56 58.77 59.97 61.20 62.44 62.16 61.85 61.82 61.15 61.18 61.07 59.94 59.73 59.46 58.70 57.97 56.02 56.90 58.24 58.22 56.38 53.67 52.33 54.66 54.87 55.01 55.89 56.65 57.19 58.03 57.87 57.56
51.44 51.40 53.30 53.47 53.24 53.94 55.16 59.00 59.07 58.16 58.51 59.52 59.70 59.04 59.89 61.89 62.03 62.06 61.73 61.31 60.84 60.74 60.53 59.83 59.45 58.95 59.27 57.97 57.30 57.18 56.80 56.72 56.33 53.78 52.01 53.40 53.74 55.03 56.19 56.79 58.26 57.87 57.46
48.16 49.41 49.35 49.66 49.88 51.04 52.12 52.99 54.33 55.29 56.14 57.39 57.99 58.28 58.90 60.51 60.38 60.02 59.87 59.64 59.65 59.96 60.27 60.15 59.71 59.12 59.20 58.45 58.19 57.45 56.95 56.12 56.01 55.11 53.04 52.25 51.96 53.63 53.98 56.26 56.95 57.31 56.99

GFSSE_sfc_wetblb_099.txt.gz
Wetbulb
70.23 73.60 75.66 75.66 74.97 75.16 74.92 74.68 75.22 75.39 75.54 75.29 75.04 74.91 74.84 73.91 73.43 72.61 72.05 72.12 72.67 73.46 73.49 73.33 73.47 72.96 72.95 72.80 72.53 72.17 71.94 71.95 72.13 71.46 71.44 70.83 70.35 70.24 70.35 70.38 71.30 70.54 71.77
71.07 73.70 75.34 75.77 75.79 75.69 75.36 75.38 75.32 75.31 75.29 75.22 74.94 74.59 74.26 73.91 73.30 72.86 72.15 72.28 73.06 73.93 73.62 73.32 73.23 72.87 72.72 71.98 71.09 71.10 70.93 70.41 69.98 69.66 69.61 69.35 69.83 69.54 69.31 69.20 70.37 69.67 70.14
71.30 73.62 73.79 75.37 75.80 75.70 75.10 75.10 74.95 75.08 74.94 74.99 74.79 74.77 74.41 73.81 72.95 72.16 72.09 72.27 73.14 73.73 73.17 71.99 72.00 71.28 70.79 71.15 70.65 70.16 70.06 69.38 68.92 68.58 68.15 67.71 68.02 68.71 68.63 68.19 68.29 68.69 68.90
72.05 73.66 73.39 74.89 75.08 75.29 75.02 74.85 74.79 74.83 74.76 74.42 73.69 74.19 73.88 73.50 72.40 72.46 72.90 72.63 73.57 73.69 73.06 71.78 71.85 71.83 69.53 69.11 69.20 68.94 68.77 68.55 68.29 67.69 67.84 67.88 67.71 68.41 68.18 68.04 68.00 67.90 67.85
72.07 73.39 73.11 74.76 74.46 74.58 74.76 74.90 74.83 74.74 74.68 74.50 74.21 73.71 73.90 73.20 72.51 72.76 73.76 73.91 73.07 73.01 72.38 71.77 71.55 71.26 69.40 68.87 68.80 68.57 68.52 68.33 67.54 67.36 67.94 68.32 68.38 68.42 68.64 68.29 68.04 67.87 67.60
71.70 73.14 73.30 74.48 74.38 74.30 74.33 74.70 74.51 74.31 74.35 74.29 74.22 73.96 73.35 73.60 72.72 73.49 73.62 72.62 72.70 71.91 71.52 70.32 70.51 70.49 70.68 70.16 69.70 69.01 68.61 68.15 66.54 67.43 67.58 68.05 68.18 68.55 68.39 68.11 67.98 67.80 67.63
70.23 72.49 73.10 73.74 74.06 73.54 73.73 73.55 74.24 74.42 74.20 73.76 73.30 73.29 73.02 72.97 72.92 73.42 73.18 72.78 72.49 72.01 70.57 69.69 69.81 69.87 70.15 70.16 69.39 69.08 68.60 66.91 66.50 67.24 67.71 68.05 68.38 68.51 68.42 68.08 67.74 67.57 67.44
67.15 71.12 72.31 71.82 73.05 73.34 73.37 73.27 73.01 73.31 73.28 73.06 73.41 73.36 73.16 73.31 72.76 72.96 73.00 72.37 72.30 71.76 70.20 69.67 70.20 70.11 69.98 69.62 69.70 70.23 68.69 66.21 65.71 66.87 67.60 68.09 69.04 68.40 68.26 67.82 67.55 67.42 67.39
65.78 66.95 71.18 72.10 71.95 72.09 72.14 72.10 71.96 71.73 70.59 69.84 71.62 73.16 72.86 72.19 72.56 72.38 71.99 72.05 72.27 71.81 71.02 70.16 70.62 70.39 69.62 69.98 69.40 70.07 68.18 65.82 66.44 66.83 66.97 68.02 68.84 68.30 67.97 67.65 67.33 67.21 67.08
64.66 64.88 65.60 69.26 70.68 70.93 70.45 69.20 68.87 68.93 68.79 69.46 70.34 71.31 70.73 70.56 71.20 71.22 70.44 70.94 71.78 71.59 71.10 70.30 70.39 70.26 70.08 70.12 69.13 69.08 67.29 65.39 66.48 66.60 67.24 67.79 68.48 68.31 67.67 67.31 67.04 66.74 66.62
63.89 63.67 64.05 65.34 66.57 67.76 68.13 67.06 66.99 66.77 66.58 68.33 69.25 68.92 69.34 71.56 71.53 70.85 69.06 68.95 70.17 70.80 70.92 70.75 70.28 69.85 69.19 68.54 67.87 66.92 66.64 66.88 66.36 66.13 66.90 66.60 68.89 68.58 67.93 67.19 67.02 66.71 66.32
59.95 63.20 63.54 63.70 64.58 65.25 65.71 66.13 65.45 64.43 63.31 65.69 69.53 70.25 70.63 70.93 70.85 70.35 68.12 67.57 69.38 69.41 69.28 70.50 70.49 69.51 68.06 68.23 67.02 64.90 66.86 66.79 66.29 66.16 66.05 66.22 69.03 69.00 68.33 67.59 67.08 66.77 66.37
57.42 62.88 63.59 63.45 63.64 64.39 64.94 64.91 64.56 63.65 64.30 63.62 63.88 68.41 68.59 69.08 69.75 70.17 69.96 69.60 69.48 66.39 68.54 68.15 69.53 69.13 67.73 67.26 66.15 64.70 62.94 64.55 65.91 66.11 65.82 65.70 68.14 69.48 69.05 68.35 67.77 67.34 66.80
54.21 59.33 63.37 63.56 63.17 63.76 64.62 64.33 64.32 64.38 64.13 63.99 63.14 63.83 66.54 68.83 67.93 69.39 68.90 69.08 68.24 67.40 67.60 68.26 68.19 68.89 68.09 66.40 64.44 63.48 61.92 61.32 63.12 64.67 65.37 65.00 67.20 69.33 69.30 69.11 68.37 68.03 67.89
52.82 57.76 62.18 63.93 63.11 63.46 63.56 64.15 64.19 64.19 64.22 63.85 63.47 63.71 66.14 66.04 65.97 67.50 68.51 68.64 67.95 67.17 67.18 68.47 67.70 67.55 67.37 66.44 63.34 60.22 60.37 60.18 60.80 60.94 62.10 61.16 64.95 68.11 69.63 69.66 69.24 68.84 68.57
50.88 56.17 61.24 62.50 63.62 63.41 63.39 63.41 63.39 62.79 62.37 62.13 62.26 62.94 63.97 66.29 66.23 66.36 66.25 66.86 68.56 68.16 68.30 67.08 66.45 66.13 64.35 63.73 60.24 59.87 57.93 58.94 59.43 59.45 59.64 60.64 61.82 65.13 68.04 69.53 69.71 69.51 69.32
50.24 53.52 57.59 61.09 62.84 62.79 63.06 63.31 63.06 63.25 62.81 61.90 61.80 62.26 62.84 64.60 65.71 66.74 67.50 66.29 67.03 67.96 67.74 66.26 64.16 63.60 62.45 61.83 60.20 59.30 59.09 59.09 58.90 58.66 59.27 60.63 61.47 61.65 65.00 67.12 68.91 69.42 69.64
49.91 50.87 54.46 58.83 61.30 61.89 62.64 63.06 62.33 62.42 62.22 61.60 61.56 62.10 62.34 62.94 64.46 65.45 66.34 66.45 67.78 66.75 66.85 64.61 63.70 62.16 62.95 60.04 59.86 58.71 59.59 59.18 59.39 59.60 59.80 60.58 61.63 61.83 62.42 64.92 66.90 68.79 69.38
48.90 50.35 52.00 56.51 59.03 60.26 60.78 60.89 61.19 61.47 61.57 62.12 62.43 62.45 62.82 62.91 63.46 64.33 65.29 65.59 66.39 66.45 65.64 65.33 63.89 63.52 60.71 59.67 58.53 59.05 58.78 59.19 59.19 59.61 59.89 60.39 61.53 62.16 62.70 62.11 63.32 64.70 67.14
49.34 50.58 52.25 55.65 58.20 59.65 60.38 60.40 60.72 60.37 60.67 61.43 62.05 62.47 62.61 63.13 63.44 64.12 64.59 64.98 65.70 64.87 64.03 64.28 63.46 62.74 62.55 60.58 59.92 58.86 59.26 59.14 59.19 59.49 60.15 61.12 62.11 62.28 62.71 63.26 63.37 63.21 63.38
49.54 53.26 56.73 57.43 58.70 59.39 58.55 58.39 58.60 58.80 60.15 60.96 61.82 62.88 62.88 63.19 62.95 63.41 64.25 64.38 64.89 63.87 62.90 63.11 63.71 61.52 60.76 59.39 58.16 57.51 58.68 58.98 59.38 60.33 60.90 61.34 62.11 62.74 63.23 63.42 64.06 64.25 64.06
54.73 56.84 57.60 58.33 58.77 59.29 59.68 59.94 60.25 60.19 60.84 61.78 62.37 62.63 63.19 63.28 63.44 62.85 64.04 63.37 63.18 62.67 62.49 62.32 61.53 60.72 59.58 59.02 57.01 56.84 54.20 57.59 59.75 60.26 60.83 61.03 61.40 62.34 62.01 62.23 62.68 63.54 64.38
52.97 54.64 56.09 57.09 57.46 58.70 59.34 59.92 59.91 60.13 60.31 59.87 60.20 61.09 62.55 63.09 63.86 63.35 64.38 63.92 63.09 62.78 61.35 61.08 61.20 59.88 57.27 58.37 58.47 57.08 54.81 53.90 57.30 60.03 60.17 61.27 60.64 60.63 61.46 62.23 62.32 62.92 63.75
51.46 53.62 55.28 55.14 54.49 55.28 56.30 57.60 58.48 57.39 56.80 58.10 60.94 61.46 61.57 62.15 63.44 63.72 64.11 64.06 62.92 62.25 61.04 60.13 59.84 59.47 58.42 56.05 57.51 58.45 60.43 59.09 56.23 55.43 57.96 58.77 60.33 59.43 59.78 60.69 61.30 62.06 62.76
49.19 50.32 51.26 51.99 52.03 52.07 52.90 54.11 57.90 57.35 59.20 59.36 60.44 60.51 60.73 61.28 62.65 63.30 63.05 63.55 61.92 60.73 60.47 59.84 59.15 58.85 58.59 57.47 57.01 58.07 58.04 58.50 58.49 56.41 55.32 56.64 56.87 57.66 59.18 59.98 61.09 61.85 61.88
47.09 48.01 48.32 48.25 48.34 49.53 49.95 50.69 52.07 54.44 55.23 54.48 55.37 56.66 56.25 57.92 61.32 62.05 62.26 61.62 61.45 61.02 60.46 60.07 59.56 58.91 58.55 58.46 58.53 58.30 57.37 56.80 56.47 56.89 55.11 55.87 56.13 58.09 58.07 58.81 59.85 60.62 60.99

GFSSE_sfc_wetblb_102.txt.gz
Wetbulb
71.99 74.67 75.41 75.25 74.94 74.80 74.79 75.08 75.59 75.74 75.25 75.69 75.34 75.19 74.45 73.80 73.71 72.37 71.86 72.47 72.33 72.52 72.24 72.75 72.75 72.78 72.96 72.92 72.59 72.45 72.10 72.06 72.13 71.27 71.40 71.18 70.80 70.91 70.81 70.74 72.01 71.58 71.97
71.68 74.41 75.29 75.62 75.27 75.12 75.33 75.42 75.87 75.68 75.49 75.75 75.44 74.79 74.61 73.88 73.29 72.37 71.96 72.23 73.14 73.94 73.21 73.51 73.18 73.09 72.94 72.28 71.96 71.63 71.47 71.12 70.43 69.96 69.76 69.50 70.18 69.99 69.68 69.70 71.26 70.35 70.86
72.93 74.10 73.92 75.12 75.36 75.57 75.64 75.53 75.49 75.64 75.55 75.49 75.57 74.74 74.50 74.22 73.43 72.85 72.29 72.32 73.61 73.79 73.59 73.69 73.26 72.63 72.18 71.12 70.96 71.01 70.57 69.92 69.12 68.44 68.85 67.94 68.48 68.87 68.63 68.53 68.93 69.17 69.27
72.98 73.97 74.14 74.84 75.14 75.01 75.39 74.89 75.32 75.18 75.28 75.13 75.02 75.21 74.41 74.04 73.21 72.40 72.16 72.31 73.54 73.50 73.79 73.11 72.45 72.19 71.13 70.62 70.12 70.12 69.69 69.08 68.56 68.29 67.86 67.51 67.36 68.06 68.22 68.09 68.05 68.02 68.06
72.57 73.60 73.92 74.36 74.64 74.81 74.65 75.00 75.01 75.13 74.86 74.55 74.38 74.17 74.11 73.73 72.85 72.70 72.85 73.24 73.70 72.99 72.95 72.70 72.19 70.47 69.85 69.48 68.94 68.77 68.61 68.20 67.66 67.48 67.94 68.46 68.54 68.54 68.34 68.11 67.90 67.57 67.48
70.00 73.56 73.63 73.79 73.91 73.95 73.85 74.12 74.50 74.78 74.82 74.61 74.41 74.01 74.05 73.41 72.99 73.23 73.24 73.56 72.84 72.65 72.44 71.36 71.30 69.69 69.66 69.15 68.70 68.38 68.35 68.04 67.21 67.43 67.72 67.79 68.18 68.27 68.23 67.82 67.84 67.77 67.61
68.10 72.21 73.21 73.29 73.42 73.13 73.61 73.78 74.20 74.07 73.98 73.82 73.43 73.51 73.16 72.95 73.23 73.52 72.79 72.24 72.31 72.30 71.37 70.61 70.71 69.99 69.76 69.83 69.58 69.07 68.43 67.57 67.25 67.39 67.79 68.40 68.80 68.37 68.21 67.96 67.66 67.42 67.31
67.08 68.74 72.95 71.94 72.45 72.87 72.98 73.21 73.39 73.39 73.23 73.06 72.58 72.73 73.16 73.04 73.11 72.81 72.63 72.31 72.22 71.48 70.60 70.08 70.19 70.09 70.13 69.97 69.52 69.39 68.11 66.41 65.86 67.09 67.76 68.42 68.84 68.44 68.15 67.74 67.43 67.27 67.12
68.36 67.52 70.13 72.62 72.10 71.63 72.28 72.46 72.58 72.53 72.41 72.05 72.81 72.92 72.72 72.16 72.33 72.68 72.16 72.14 71.92 71.80 71.12 70.83 70.93 70.61 70.25 69.78 69.89 70.32 68.16 66.38 66.80 67.03 67.14 68.30 68.61 68.39 67.93 67.57 67.31 67.12 66.95
67.75 67.52 66.62 69.91 72.28 72.37 72.46 71.08 70.98 71.23 70.63 70.55 70.82 71.23 71.27 71.19 71.48 71.59 71.16 71.00 71.54 71.73 71.15 70.64 71.03 70.96 70.16 70.44 69.71 69.83 67.39 65.86 67.20 66.99 67.30 68.22 68.39 68.37 67.91 67.47 67.21 66.97 66.67
59.91 66.18 66.72 66.72 69.90 71.78 72.01 70.91 69.68 69.16 68.57 68.49 69.17 68.80 69.88 71.89 71.94 71.33 69.62 69.33 70.65 70.74 70.84 70.64 70.82 70.64 69.71 69.14 68.82 68.42 66.70 67.79 67.61 66.69 67.08 67.93 68.65 68.43 67.88 67.50 67.23 66.90 66.62
55.24 57.97 66.23 66.44 67.07 68.26 69.67 70.71 70.59 69.49 67.70 69.39 70.19 71.11 71.42 71.00 71.08 70.80 68.64 67.61 69.70 69.98 69.84 70.33 70.33 69.99 68.51 68.59 68.70 66.12 68.00 67.88 67.51 67.11 67.09 67.44 68.67 69.01 68.28 67.54 67.33 67.04 66.60
53.98 55.45 58.54 66.53 66.49 66.14 68.20 69.06 68.18 64.33 64.05 65.28 69.12 71.29 69.76 71.17 71.03 70.88 70.94 70.82 70.45 67.26 69.71 69.74 69.81 69.35 67.99 66.46 67.55 67.43 66.96 67.73 67.48 67.29 67.12 66.54 67.95 69.79 69.06 68.37 67.70 67.33 67.02
53.04 54.57 57.34 61.80 66.98 65.88 66.54 68.08 68.78 66.44 63.91 64.13 65.07 66.81 68.24 68.23 69.73 69.33 69.64 70.73 70.60 70.36 68.86 68.96 68.56 69.62 69.14 67.53 66.47 66.83 66.46 65.92 66.69 67.08 67.06 65.46 66.94 68.72 69.91 69.49 68.65 68.08 67.73
52.48 54.81 56.18 59.73 65.21 65.96 65.16 66.96 68.16 67.90 67.48 67.03 66.53 66.18 65.92 66.66 67.02 67.97 69.39 70.01 70.52 71.26 69.46 67.29 68.27 68.39 69.01 68.68 67.06 65.32 65.24 65.42 65.24 65.54 66.37 63.51 65.61 67.32 69.21 69.78 69.45 68.86 68.53
52.71 53.79 56.00 58.25 62.93 65.65 65.04 65.56 67.18 67.77 68.01 67.50 67.18 66.43 66.57 66.63 66.75 67.59 67.03 67.94 68.79 70.05 69.58 68.84 68.19 68.26 66.44 68.08 67.24 66.78 64.30 63.67 64.05 64.33 64.85 64.87 63.05 65.21 67.00 68.60 69.15 69.27 69.29
53.47 54.47 54.69 56.08 59.38 63.77 65.59 65.64 66.01 66.32 66.92 66.60 66.63 66.67 65.84 65.47 65.51 66.16 66.87 67.51 68.37 69.61 69.78 69.35 68.92 68.73 68.31 66.14 65.73 66.20 64.75 63.05 62.23 61.98 63.36 63.88 63.91 60.93 63.55 66.60 68.01 69.16 69.10
53.40 53.59 54.33 54.69 56.94 61.21 65.17 66.13 65.59 66.24 66.63 66.98 67.27 66.59 65.13 64.49 64.66 65.12 65.49 66.15 67.58 68.68 69.09 68.79 68.45 67.01 66.68 63.62 63.29 63.53 64.69 63.21 62.10 61.54 61.46 62.61 62.93 63.29 63.13 64.01 66.75 68.26 69.05
53.47 53.42 52.87 54.36 55.69 58.63 62.14 63.78 65.63 65.99 65.82 65.71 65.55 65.01 64.35 64.46 64.78 64.72 65.02 65.64 66.42 66.89 66.81 66.81 66.38 66.71 65.29 65.04 63.12 63.79 61.68 61.44 61.62 61.22 61.32 61.58 62.35 63.09 64.22 63.23 62.98 63.99 66.05
55.17 53.80 53.64 53.72 55.02 57.67 59.94 62.02 63.37 64.19 64.43 64.71 64.43 64.27 64.40 64.62 64.89 65.03 64.89 65.08 65.54 65.20 65.64 65.22 64.61 64.73 65.01 64.46 62.70 61.48 60.57 61.19 60.15 60.62 60.42 60.74 62.22 63.03 63.87 64.63 65.02 63.66 62.26
54.87 54.06 53.46 53.38 54.85 58.81 60.68 60.12 61.64 61.98 62.81 63.15 63.48 63.93 64.14 64.52 64.38 64.59 64.53 64.54 64.72 64.26 64.53 64.85 65.14 62.71 62.75 64.46 62.63 61.51 59.07 61.02 60.03 59.45 59.72 59.45 60.24 62.08 63.12 63.94 64.96 65.66 65.43
56.09 56.83 57.11 56.98 58.55 60.76 61.08 62.09 63.08 63.34 63.52 63.53 64.01 64.01 64.37 64.45 64.67 64.40 64.37 63.99 64.28 64.91 64.49 63.99 64.03 62.00 62.10 63.06 60.51 60.10 57.09 59.01 58.93 60.38 60.49 59.35 60.16 61.43 62.94 63.76 64.61 65.09 65.55
52.88 54.63 56.76 57.11 57.89 58.77 59.82 61.07 61.12 61.12 60.94 60.52 61.17 62.75 63.07 62.89 64.10 64.67 64.24 64.08 63.84 65.31 65.01 64.28 64.14 61.52 59.88 61.05 62.00 58.53 53.85 52.77 57.11 59.01 57.96 59.62 60.29 61.35 62.47 63.51 64.20 64.58 64.87
49.74 51.73 53.20 54.47 54.59 55.58 56.92 57.08 57.97 58.66 58.70 60.45 60.85 61.85 63.22 63.26 62.95 63.65 64.47 64.68 65.34 65.48 64.57 63.97 62.52 61.50 60.75 58.41 59.62 59.72 59.31 59.73 53.81 52.96 59.08 60.94 61.59 60.65 62.32 63.25 63.52 64.24 64.84
48.32 49.71 50.39 51.57 52.30 53.24 53.45 53.68 55.39 58.86 59.94 59.84 59.82 59.91 59.87 59.30 60.14 62.56 63.55 64.12 64.39 63.68 64.02 62.37 60.79 60.56 60.74 59.72 58.14 57.60 57.44 57.36 57.61 55.78 54.35 57.89 58.88 60.94 62.39 62.74 62.95 63.64 62.93
46.60 48.35 48.98 49.21 49.00 50.42 50.19 48.87 49.00 50.01 53.03 53.14 53.18 53.50 53.75 55.09 55.05 55.07 57.27 62.86 62.59 62.64 62.36 61.64 60.82 60.74 59.08 58.31 57.92 57.13 56.79 55.30 54.73 55.29 54.62 55.63 56.35 58.74 59.39 60.34 60.39 61.41 62.57

GFSSE_sfc_wetblb_105.txt.gz
Wetbulb
71.13 73.52 75.48 75.27 74.98 74.78 74.63 75.10 75.99 76.12 75.66 75.49 74.78 74.54 74.02 73.73 73.82 71.63 71.71 71.60 71.80 71.92 71.70 72.30 72.26 72.53 72.52 72.56 72.16 72.07 72.22 72.00 71.81 71.31 70.92 71.42 71.30 71.09 70.96 71.12 71.70 71.10 71.87
73.01 73.49 75.26 75.41 75.01 74.62 74.64 75.19 75.85 75.67 75.72 75.41 75.26 74.73 74.38 73.95 73.07 71.81 72.06 72.22 72.16 72.19 72.65 72.85 72.64 73.01 72.68 72.65 71.70 71.96 71.78 71.05 70.18 70.05 69.70 69.60 70.35 69.99 70.12 70.44 71.73 70.66 71.48
71.70 73.10 73.07 75.23 75.38 75.53 75.35 75.22 75.39 75.57 75.60 75.21 75.42 74.91 74.30 74.15 73.33 72.30 71.77 72.04 73.06 73.36 73.15 73.57 72.82 72.77 72.31 71.72 70.96 70.68 70.78 70.17 69.34 69.50 69.73 67.52 68.42 68.82 68.91 69.07 69.48 69.42 69.82
72.35 72.92 73.72 74.99 75.02 74.96 75.35 75.10 75.24 75.43 74.86 75.23 75.31 74.93 74.48 73.88 73.66 72.97 72.22 71.99 73.19 73.03 72.76 73.21 73.04 72.26 71.63 70.37 70.66 70.46 69.96 69.05 67.98 68.25 67.37 66.73 66.66 68.00 68.02 68.10 68.11 68.28 68.29
71.70 72.66 72.97 74.32 74.53 74.47 74.59 74.75 74.71 74.74 74.92 74.88 74.78 74.60 74.46 73.98 73.58 72.61 72.12 72.43 73.40 72.99 72.83 72.91 72.19 71.66 71.05 70.02 69.70 69.71 69.05 68.13 67.90 67.65 67.13 67.70 67.58 68.08 68.08 67.81 67.51 67.55 67.88
69.90 71.74 73.45 73.89 74.07 73.73 73.61 74.34 74.14 74.28 74.22 74.05 74.07 74.12 73.90 73.62 72.91 73.04 73.63 73.29 73.43 72.56 72.28 72.49 71.22 70.45 69.80 69.31 68.61 68.29 67.91 67.50 67.55 67.36 67.17 67.25 68.00 68.51 67.94 67.97 67.95 67.65 67.60
69.39 71.19 71.27 73.65 73.77 73.82 73.61 73.37 73.32 73.69 74.18 73.86 73.89 73.32 73.24 72.88 73.03 73.01 72.71 72.71 72.74 72.10 71.97 71.36 71.00 69.83 69.08 68.96 68.76 68.50 68.17 68.12 67.07 66.46 67.00 67.51 68.46 68.19 67.92 67.75 67.51 67.27 67.16
68.65 70.11 71.50 72.62 73.23 73.42 73.43 73.29 73.35 73.57 73.23 73.14 73.23 73.00 72.98 73.13 72.90 72.17 72.45 72.07 72.27 71.96 71.52 70.99 70.97 70.25 69.66 69.80 69.59 69.16 68.53 67.27 65.80 66.35 67.11 67.82 68.71 68.20 67.90 67.45 67.16 67.07 66.94
67.68 69.02 70.25 72.15 71.86 71.74 72.27 72.78 73.11 73.21 73.31 73.36 72.64 72.49 72.36 72.95 73.09 72.59 72.60 71.99 72.18 71.75 71.73 71.21 71.14 70.51 70.03 70.06 69.92 70.06 68.44 66.47 65.61 66.05 66.53 67.49 68.97 68.24 67.80 67.40 67.10 66.89 66.71
61.05 66.38 68.85 69.79 71.28 71.71 72.10 71.41 71.51 71.86 72.01 72.19 71.85 71.08 70.74 70.47 71.68 72.13 71.69 71.40 72.02 71.99 71.09 71.04 71.08 70.95 70.70 70.37 70.29 69.98 68.00 66.39 65.78 66.28 66.39 67.57 69.27 68.54 67.94 67.44 67.26 67.04 66.72
58.20 59.41 61.76 68.47 69.32 70.75 71.33 71.19 70.46 70.46 70.10 69.40 69.37 68.74 69.20 70.81 71.03 70.88 69.55 69.54 70.71 71.45 71.21 70.83 71.11 70.95 70.03 69.21 69.38 69.25 67.18 66.54 65.94 66.23 65.99 68.38 68.90 68.65 68.21 67.65 67.45 67.21 66.85
55.69 56.59 57.88 62.00 67.61 68.82 69.77 70.65 71.14 70.43 70.39 70.16 69.87 69.66 70.07 70.06 70.16 69.97 68.26 67.99 69.88 70.41 70.31 70.70 70.74 70.37 68.87 67.68 68.33 67.12 67.68 66.94 66.66 66.44 66.11 68.49 68.72 69.00 68.33 67.80 67.62 67.39 66.98
54.32 55.81 56.92 58.05 64.09 67.09 67.91 69.02 69.57 70.08 69.68 68.50 68.67 69.75 69.78 70.30 71.12 70.77 70.41 70.02 70.35 67.67 69.72 69.52 69.14 68.38 67.51 65.87 66.59 67.39 66.29 66.47 66.95 66.79 66.92 67.97 68.33 69.57 69.31 68.61 67.92 67.69 67.38
54.28 54.74 56.14 57.31 59.23 65.59 67.26 67.10 68.48 69.06 68.50 65.72 64.45 66.50 68.54 69.38 69.63 68.62 68.86 69.04 70.32 70.07 69.13 68.79 69.02 68.77 68.22 67.34 65.22 66.07 66.22 65.84 66.58 66.82 66.65 66.40 67.84 68.45 69.86 69.68 68.79 68.14 67.82
53.14 56.00 57.34 57.68 57.72 62.38 66.38 66.43 66.97 68.41 68.35 67.72 66.54 66.01 65.88 67.07 68.10 68.78 67.75 68.86 70.44 70.20 70.17 68.30 68.38 68.18 68.66 68.19 67.23 64.86 65.60 65.53 65.19 65.71 66.24 64.24 66.45 67.76 68.27 69.82 69.83 69.25 68.53
52.95 54.21 57.15 57.28 57.94 60.73 65.68 66.06 66.01 66.84 67.45 67.49 67.73 67.60 66.74 66.31 66.42 66.81 66.97 67.62 68.15 69.45 69.81 68.34 67.61 67.27 66.90 67.50 67.65 66.48 64.53 64.57 64.96 64.75 65.00 65.11 65.10 66.47 67.66 68.15 69.84 69.37 69.36
53.42 54.43 55.29 56.82 58.19 59.10 62.38 65.15 65.78 65.68 66.43 66.50 66.80 67.98 67.26 66.88 66.48 66.21 66.64 66.76 67.02 67.59 67.94 69.04 67.80 67.22 67.94 67.02 66.81 67.46 64.89 64.58 62.20 63.35 63.84 64.35 64.36 63.59 65.82 67.20 67.71 69.03 69.56
54.18 54.04 55.02 55.51 56.37 57.42 59.38 64.06 65.30 65.76 65.75 67.01 67.02 67.02 67.40 66.79 66.35 65.39 65.14 65.67 66.84 67.40 67.61 67.64 68.12 67.65 67.51 67.92 66.45 66.75 66.24 64.81 62.32 61.47 61.39 62.16 63.28 63.48 62.36 64.59 66.56 67.97 69.02
57.13 56.21 55.05 55.55 54.52 55.82 57.81 62.03 65.31 65.24 65.92 66.31 67.14 67.02 67.06 66.55 65.90 64.75 64.34 64.97 65.46 66.35 66.30 66.88 67.34 66.87 66.37 66.45 66.32 66.65 65.43 64.27 63.86 61.60 60.05 60.95 61.26 62.10 62.64 63.11 62.84 64.17 66.26
57.19 57.81 57.59 56.26 55.02 54.54 56.87 59.71 62.25 63.90 65.23 66.24 65.65 65.37 65.31 65.02 64.72 64.54 64.33 64.56 64.90 65.15 65.17 65.45 65.14 66.36 65.94 65.71 64.19 64.29 64.73 64.79 63.82 61.71 59.50 59.54 60.02 61.36 61.81 62.89 63.73 62.54 62.64
56.12 56.42 57.66 55.62 55.07 54.48 55.28 57.19 59.31 60.43 62.88 64.07 64.77 64.79 64.47 64.46 64.44 64.66 64.48 64.18 64.65 63.96 63.97 64.48 63.52 63.94 63.90 64.90 62.61 62.18 62.68 62.95 62.09 59.72 59.37 59.74 59.38 60.88 61.30 61.89 62.76 63.99 64.41
52.85 53.56 55.09 57.43 56.74 55.12 56.76 60.11 60.75 62.02 62.50 63.88 64.58 64.21 64.54 64.32 64.60 64.30 64.32 64.12 64.47 63.86 63.37 63.61 63.73 62.18 63.55 64.10 61.30 60.11 56.82 59.03 61.07 61.70 61.19 59.67 58.72 59.34 59.69 60.70 62.16 62.88 63.43
49.44 51.20 52.30 54.59 56.34 57.98 58.09 60.82 62.02 61.80 61.35 61.11 61.66 61.72 63.31 63.46 63.54 63.25 63.78 63.49 64.00 64.17 63.25 63.84 64.08 62.88 60.83 62.36 63.18 59.73 55.73 54.20 57.65 60.75 60.36 60.06 59.55 59.19 59.11 59.78 60.94 61.85 62.82
47.63 50.61 51.03 52.55 53.22 54.04 54.95 56.73 57.33 58.07 58.36 60.44 60.85 61.75 61.99 61.11 59.89 59.64 60.08 61.58 63.02 63.88 63.55 63.72 64.03 63.48 62.74 60.42 61.96 62.12 61.70 58.63 54.28 53.78 60.07 60.04 60.20 59.22 59.12 60.15 60.97 61.45 62.99
46.90 48.96 50.31 50.58 50.98 51.47 51.26 52.29 52.93 51.91 55.06 56.53 57.75 57.56 57.70 57.26 56.52 54.96 54.65 56.53 59.68 62.58 63.21 63.14 63.09 62.86 62.92 61.44 60.23 59.52 59.79 59.72 57.92 55.32 52.50 56.72 59.69 59.04 59.36 60.14 60.82 62.41 63.02
45.97 46.70 47.83 48.17 47.82 49.60 49.59 48.90 48.69 48.84 48.97 48.53 49.29 50.87 51.69 52.86 52.68 51.91 52.36 53.81 54.27 56.73 61.97 62.75 62.93 62.08 61.53 60.85 60.59 59.30 57.66 56.80 55.70 54.69 53.92 54.61 55.37 57.47 59.24 59.74 60.86 62.04 62.27

GFSSE_sfc_wetblb_108.txt.gz
Wetbulb
70.51 72.20 75.89 75.68 75.32 75.08 74.89 74.99 75.87 76.27 75.98 75.21 74.17 73.95 73.89 73.70 72.95 71.36 71.51 71.64 71.68 71.75 71.73 72.24 72.27 72.51 72.35 72.13 72.45 72.16 72.26 72.28 71.80 71.47 71.32 71.67 71.62 71.32 71.73 71.59 72.11 70.75 72.08
70.74 72.63 75.29 75.73 75.31 75.15 75.21 75.54 75.66 75.60 75.71 75.59 75.22 74.62 73.83 73.88 72.96 71.39 72.00 71.42 71.75 71.79 71.87 72.64 72.51 72.98 72.76 72.16 72.16 72.05 71.77 70.84 70.08 70.21 69.90 69.69 70.24 70.48 70.82 70.68 71.74 70.58 71.20
70.66 73.15 72.76 75.49 75.39 75.31 75.40 75.03 75.09 75.12 75.37 75.13 74.88 74.85 74.44 74.08 73.12 71.71 71.55 71.78 72.36 72.36 73.05 72.98 72.86 73.03 72.82 71.54 71.58 71.25 70.89 70.11 69.01 69.54 69.50 66.56 66.74 69.06 69.15 69.67 69.82 69.91 70.16
70.60 71.83 72.75 74.71 74.77 74.99 75.13 74.48 74.64 74.99 75.06 74.77 74.65 74.64 73.99 73.47 73.38 72.77 71.98 71.56 72.29 72.61 72.55 73.42 73.17 72.78 72.00 70.63 70.31 70.17 69.85 68.72 68.41 68.43 66.21 65.82 66.03 68.19 68.44 68.36 68.52 68.34 68.56
69.29 71.56 72.20 74.42 74.79 74.64 74.32 74.81 74.83 74.27 74.57 74.31 74.16 74.15 73.92 73.54 73.59 73.14 72.14 72.75 73.29 73.36 72.48 73.00 73.18 72.29 72.02 70.41 70.16 69.95 69.23 67.96 68.02 66.80 64.41 63.93 64.32 67.82 68.08 67.71 67.65 68.33 68.08
68.13 70.69 71.44 74.00 73.90 73.96 74.19 74.11 74.66 74.64 74.11 73.79 73.98 74.30 74.23 73.93 73.15 73.30 73.16 72.96 73.01 72.75 72.53 72.66 71.81 71.33 71.08 70.19 69.57 69.21 68.18 67.43 67.74 63.87 63.47 66.32 66.01 68.67 68.20 68.49 68.04 67.92 67.85
67.51 69.22 71.64 73.45 73.96 74.08 73.61 73.45 73.38 73.78 74.33 74.21 73.91 73.88 73.89 73.79 73.44 73.15 72.98 72.75 73.03 72.71 72.52 71.86 71.02 70.32 69.72 69.23 68.50 68.33 67.98 68.05 65.44 63.51 62.71 63.89 65.85 68.70 68.19 67.82 67.58 67.38 67.35
66.78 68.23 69.81 72.16 73.13 73.38 73.22 72.91 73.00 73.10 73.33 73.71 73.51 73.61 73.48 73.63 73.54 73.07 72.93 72.45 72.68 72.34 72.32 71.96 71.15 70.11 69.24 69.08 69.23 69.11 68.96 67.43 64.77 62.57 63.48 65.28 68.98 68.69 68.05 67.78 67.50 67.21 67.09
59.82 64.81 67.70 68.65 70.82 71.55 72.10 72.43 72.69 73.15 73.25 73.30 72.62 72.98 72.63 72.87 72.98 73.03 72.87 72.53 72.62 72.53 71.95 71.50 71.87 70.77 69.91 69.93 70.53 69.93 68.64 66.90 62.59 62.65 64.48 65.63 69.41 69.01 68.35 67.66 67.29 67.25 67.11
56.65 58.02 57.37 65.98 68.70 70.15 70.64 71.08 71.40 71.81 71.85 71.99 71.81 71.26 70.51 70.51 71.25 72.37 71.73 71.67 72.18 72.40 71.94 71.55 71.54 71.38 70.81 70.62 70.37 69.81 68.19 66.58 62.82 62.94 63.16 65.59 69.98 68.90 68.55 67.92 67.57 67.33 67.03
55.51 55.34 55.81 58.54 66.28 68.04 69.66 70.41 70.01 70.37 70.28 70.05 69.66 68.89 68.68 69.12 69.44 69.89 69.50 69.48 70.75 71.59 71.84 71.25 71.17 70.93 70.08 69.31 69.41 68.85 67.65 64.38 62.63 62.40 62.29 68.60 69.47 68.98 68.63 68.10 67.82 67.61 67.31
51.23 52.56 53.22 54.78 57.24 66.16 68.13 68.94 69.64 69.27 68.32 68.18 67.65 67.46 67.30 67.04 67.16 69.46 68.26 67.84 69.77 70.19 70.70 71.14 70.91 70.33 68.99 67.18 66.96 67.58 65.84 64.79 63.32 62.24 63.05 69.03 69.84 68.95 68.94 68.29 67.91 67.74 67.43
49.75 51.36 52.81 53.70 55.04 61.08 65.38 66.92 68.07 68.17 68.60 67.44 66.13 66.91 67.23 67.55 67.91 67.52 67.41 67.55 67.79 67.01 68.43 69.32 68.75 68.09 67.15 66.67 64.98 65.96 65.16 64.32 64.24 62.54 65.07 68.68 69.62 68.85 68.93 68.78 68.24 67.99 67.75
49.27 51.39 52.69 53.01 53.89 55.14 64.43 64.85 66.62 67.08 67.54 65.21 63.48 63.94 65.61 66.60 67.87 67.50 66.97 67.82 67.75 67.43 66.97 67.13 67.10 66.74 65.88 65.36 64.02 64.46 64.71 63.70 63.75 62.86 64.06 66.81 69.03 69.12 69.32 69.64 68.96 68.25 68.02
48.80 50.80 52.28 53.25 53.34 54.10 58.36 64.20 64.69 65.94 66.51 66.58 63.79 63.02 63.96 65.58 65.52 67.11 67.04 67.07 67.28 67.90 67.06 66.15 66.36 66.78 66.11 65.91 65.42 63.33 62.02 63.19 61.63 61.81 62.54 64.48 67.08 68.67 69.13 69.66 70.32 69.49 68.59
50.07 50.09 51.58 52.91 53.71 53.77 54.05 63.11 63.94 64.67 66.01 65.44 65.44 63.82 63.66 63.90 64.33 64.92 65.02 64.75 65.14 66.79 67.67 66.37 65.75 66.32 66.53 66.74 65.82 66.19 62.40 61.39 61.26 61.06 60.85 63.35 65.53 67.09 68.54 68.45 69.45 70.14 69.82
50.62 51.14 51.39 52.38 53.34 52.99 52.91 57.48 63.89 65.07 65.85 65.27 65.30 65.56 64.41 63.40 63.35 63.01 63.59 63.14 63.36 64.28 64.43 64.97 65.10 64.75 65.50 65.89 65.28 65.39 65.65 62.34 60.28 60.37 60.21 62.32 63.73 64.23 66.59 68.32 68.31 69.04 69.86
53.82 53.95 53.92 54.92 52.75 52.75 52.24 53.61 62.17 64.30 65.09 65.14 65.76 65.24 65.06 65.18 63.75 62.57 61.78 62.02 63.15 63.12 63.11 62.99 63.44 63.64 63.78 63.76 63.48 63.93 64.80 64.79 62.29 59.96 59.99 59.19 61.40 63.34 64.15 66.50 67.71 68.64 69.00
53.99 54.06 54.87 55.51 53.86 52.03 51.66 52.32 55.98 63.45 65.09 65.12 65.23 64.26 64.91 65.58 64.81 62.32 61.29 61.02 61.40 61.57 61.94 62.59 62.93 63.28 63.12 62.74 63.46 63.65 63.43 63.38 63.07 63.03 61.07 59.69 59.14 60.24 60.61 62.55 64.54 65.52 66.97
52.56 53.18 53.31 54.48 55.37 53.10 51.06 51.32 53.07 60.91 63.09 64.54 64.43 64.16 63.31 62.95 62.30 61.11 60.64 60.61 60.85 60.41 60.75 61.68 61.92 62.28 62.59 62.54 63.58 63.77 63.55 63.49 62.94 62.49 60.67 60.57 58.57 57.29 59.53 59.12 61.12 61.23 63.47
50.26 51.60 52.45 53.06 54.65 55.54 50.03 48.89 50.78 54.13 57.95 62.67 63.49 62.63 62.31 62.17 62.01 60.92 60.51 60.52 60.51 59.90 59.86 60.27 60.23 60.54 60.91 62.24 60.55 62.23 62.49 62.71 63.23 63.48 63.15 60.32 59.15 58.32 58.49 59.54 60.26 61.28 61.27
48.82 49.79 50.66 52.11 53.22 54.63 55.01 52.60 52.31 56.22 58.18 59.69 61.52 61.33 62.90 62.77 62.82 61.68 60.51 60.42 60.66 60.08 60.04 59.85 59.62 59.65 59.98 61.13 60.22 59.68 56.48 59.13 62.02 62.51 62.21 60.59 59.12 58.06 57.44 58.70 59.29 60.27 60.45
47.05 48.32 50.09 51.45 52.14 53.15 53.63 56.27 56.51 57.26 57.35 57.13 58.00 59.37 60.73 60.23 59.00 58.65 58.00 58.27 59.34 60.61 60.14 60.61 60.44 59.78 58.81 60.09 60.28 58.77 55.10 53.86 55.59 59.77 60.41 60.48 60.51 59.30 58.43 57.66 58.15 59.59 61.12
46.16 48.10 48.93 50.48 50.39 51.32 51.84 53.20 52.92 54.10 54.36 55.96 57.79 57.93 57.68 57.08 55.02 53.75 53.50 54.99 55.42 56.96 58.47 60.63 61.28 60.58 59.97 58.05 59.40 60.67 60.85 57.93 54.09 53.50 58.55 59.53 60.24 59.97 58.79 57.86 57.73 58.31 59.51
45.58 46.21 47.12 48.65 48.39 49.67 50.44 51.18 51.43 51.34 51.57 51.88 51.93 52.10 52.54 53.25 53.23 51.83 52.27 52.92 53.35 53.61 53.45 53.76 57.95 60.05 59.94 58.97 58.78 59.11 59.65 60.04 59.69 56.68 53.81 55.79 59.03 58.95 58.78 57.74 58.18 58.60 59.46
44.56 44.63 45.40 45.14 45.52 46.84 46.73 48.61 48.69 47.81 47.89 47.94 47.29 47.31 47.72 48.76 49.43 48.97 49.62 50.11 50.97 50.96 51.25 52.28 53.01 56.96 59.78 60.18 59.77 59.70 58.93 57.46 56.85 57.51 55.31 55.17 55.46 57.09 58.08 58.23 57.63 59.41 60.75

GFSSE_sfc_wetblb_111.txt.gz
Wetbulb
69.55 71.93 75.48 76.05 75.52 75.22 74.81 74.93 75.72 75.35 75.60 74.83 74.01 73.75 73.88 73.37 71.96 71.44 71.65 71.89 71.65 71.70 72.22 72.30 72.36 72.01 71.90 72.54 72.07 71.91 72.52 72.09 71.88 71.69 71.34 71.52 71.68 71.94 72.19 71.82 71.55 70.61 71.72
70.34 72.50 74.50 75.76 75.39 75.09 75.04 75.56 75.14 75.43 75.02 74.98 74.76 73.86 73.60 74.05 71.75 71.54 71.47 71.37 71.60 71.68 72.10 72.48 72.66 72.95 72.28 71.95 72.25 71.96 71.54 70.58 70.14 70.34 70.10 69.62 70.25 71.11 71.10 71.07 71.50 70.29 70.67
69.66 72.39 73.04 75.00 75.02 75.43 75.21 74.90 74.84 75.19 74.75 74.83 74.39 74.23 73.93 73.89 72.54 71.49 71.80 71.50 71.49 71.80 72.36 72.62 72.76 73.07 72.00 71.23 71.86 71.06 70.67 69.62 68.97 69.70 69.37 65.99 66.37 69.04 69.58 69.81 70.04 70.15 70.10
69.63 71.44 72.35 74.21 74.57 74.93 75.08 74.50 74.31 74.66 74.97 74.42 74.18 73.89 73.81 73.76 73.11 72.30 71.58 71.31 71.54 72.42 72.61 72.87 72.97 72.63 71.53 71.25 70.09 70.52 69.93 68.69 68.39 68.36 65.98 65.90 65.87 68.24 68.23 68.47 68.38 68.41 68.60
68.47 70.45 71.70 74.06 74.22 73.75 74.24 74.83 74.61 74.60 74.43 74.24 74.38 74.50 74.36 73.74 73.47 73.21 72.52 72.25 72.54 72.82 72.88 72.92 72.86 72.46 70.93 70.38 70.33 70.13 69.45 68.20 68.07 66.18 63.10 62.95 64.54 67.75 67.92 67.55 68.27 68.39 67.83
67.42 69.29 72.13 73.49 73.89 73.54 73.50 73.70 74.22 74.53 74.37 74.13 74.07 74.01 74.06 73.42 72.78 73.16 73.16 72.57 72.25 72.56 72.50 72.47 72.23 71.47 71.36 70.26 69.93 69.71 68.77 67.94 67.69 62.09 62.45 66.60 65.20 68.62 68.78 68.53 67.96 67.88 67.76
65.49 68.21 69.88 72.96 73.21 73.33 73.43 73.46 73.58 73.64 73.60 73.72 73.82 73.78 73.73 73.30 73.27 73.50 73.32 72.78 72.73 72.77 72.51 72.00 71.85 71.16 70.58 70.11 69.42 68.82 67.97 67.77 64.16 62.57 61.18 64.58 65.48 68.78 68.47 67.97 67.57 67.38 67.33
59.29 64.91 68.26 70.04 71.54 72.57 73.01 72.72 72.81 72.95 73.20 73.54 73.56 73.61 73.72 73.31 73.18 72.95 73.05 72.68 72.83 72.55 72.28 72.10 71.34 70.65 69.83 69.28 68.81 68.72 68.82 67.28 64.36 61.86 61.68 64.33 68.68 68.88 68.66 68.02 67.67 67.41 67.19
56.51 57.08 56.85 65.59 69.21 70.72 71.27 71.73 72.22 72.12 72.64 73.06 72.58 72.68 72.62 72.56 72.99 73.19 72.90 72.69 72.73 72.86 72.86 72.50 72.01 70.65 69.69 69.18 69.89 69.87 68.72 67.24 63.00 61.45 63.82 64.99 69.67 69.37 68.75 68.09 67.67 67.44 67.27
53.92 54.55 54.05 57.75 65.96 68.40 69.13 70.52 70.78 71.33 71.43 71.57 71.29 70.93 70.25 70.15 71.00 72.37 71.63 71.72 72.44 72.63 72.52 72.07 72.17 71.65 70.59 70.22 70.44 69.65 68.28 67.03 62.40 61.79 62.23 64.81 70.23 69.42 68.93 68.11 67.76 67.63 67.49
52.54 52.00 51.71 53.41 54.96 64.03 68.01 70.05 69.92 69.99 69.91 69.78 69.53 68.80 68.52 68.77 69.07 69.60 69.47 69.60 70.97 71.69 72.15 71.93 71.67 71.48 70.25 69.24 69.63 68.93 67.78 65.26 62.40 61.76 61.35 67.11 69.99 69.52 69.30 68.36 67.88 67.79 67.56
47.62 48.61 50.42 50.78 52.59 55.15 66.13 66.43 68.45 69.64 68.15 68.00 67.91 67.05 66.73 66.91 67.70 69.09 67.86 67.76 69.60 70.39 70.75 71.68 71.37 70.61 69.01 67.40 67.13 67.59 65.73 64.59 63.18 62.13 61.21 68.14 70.11 69.93 69.47 68.65 68.11 67.95 67.76
46.79 48.43 50.37 50.61 50.95 51.93 57.14 64.34 65.19 67.16 68.16 67.59 66.41 65.79 66.04 66.64 65.98 66.15 66.16 68.01 67.70 67.08 68.38 69.83 69.43 68.27 67.03 66.20 65.67 65.47 65.32 64.38 64.16 63.14 63.60 68.04 70.48 70.06 69.55 69.12 68.46 68.09 67.94
46.87 48.74 50.41 51.01 50.69 51.36 52.22 61.04 63.76 65.11 66.69 67.00 65.88 64.55 64.10 65.80 66.10 66.34 66.49 67.08 66.95 66.88 66.32 66.75 66.95 66.72 66.23 66.61 65.35 63.91 65.01 64.73 64.60 63.87 61.51 66.75 69.60 70.44 69.57 69.35 69.09 68.44 68.21
47.74 48.99 49.67 50.67 50.97 51.43 51.20 54.30 62.52 63.27 65.61 66.73 65.94 63.37 62.98 64.24 64.59 65.33 65.81 66.68 67.51 67.83 66.76 65.71 66.68 66.03 65.64 65.18 65.08 64.44 63.69 64.08 63.33 63.48 61.16 64.42 67.45 69.58 70.38 70.32 69.66 69.50 68.70
50.58 51.00 50.36 51.16 51.06 51.33 50.98 51.03 58.58 62.56 63.91 65.63 65.22 63.04 62.61 63.18 63.84 64.32 64.13 64.58 65.36 66.51 67.73 65.99 65.24 65.68 65.36 65.64 64.85 64.61 63.46 62.81 63.30 62.56 61.36 62.71 65.42 67.65 69.36 70.27 70.43 70.50 69.97
52.60 53.52 54.04 55.52 55.44 51.54 50.74 50.68 53.20 61.46 63.67 63.16 65.25 64.37 63.14 62.86 62.94 63.61 63.18 62.53 62.55 62.88 63.25 63.44 64.29 64.45 64.25 64.97 64.93 66.11 65.54 65.05 61.97 62.97 61.90 61.76 63.86 64.41 66.96 69.67 70.06 70.52 70.99
51.56 51.73 52.62 54.19 54.40 54.95 53.88 50.31 51.17 58.27 61.45 62.00 63.77 65.23 64.24 64.16 62.48 61.97 61.62 61.81 62.35 62.08 61.81 61.62 62.07 62.09 62.47 62.98 62.22 62.93 63.49 64.29 64.20 63.37 61.65 61.35 62.43 63.96 64.46 66.93 68.24 69.25 70.04
49.75 50.52 50.87 52.43 53.29 54.41 55.42 52.37 49.87 51.86 60.10 62.42 63.87 65.06 65.12 64.68 64.63 62.68 61.07 60.83 60.64 60.38 60.52 61.07 61.24 61.91 61.20 60.83 61.08 62.43 62.67 62.92 63.62 64.40 62.07 60.54 60.57 62.23 62.40 63.52 64.97 65.81 67.21
49.00 49.38 50.42 51.24 52.19 53.06 54.88 53.69 49.86 50.09 55.64 61.72 63.20 64.42 64.33 63.89 62.80 62.64 61.54 60.00 59.71 58.95 58.92 59.49 60.04 60.69 60.78 60.77 62.07 62.42 62.73 63.24 62.87 62.78 62.32 61.38 59.01 59.36 59.35 60.46 61.52 63.09 64.39
48.13 48.84 49.78 50.47 51.74 51.71 52.14 52.40 51.90 48.10 51.61 57.93 61.02 62.38 63.74 62.79 61.87 60.72 60.07 59.81 59.66 58.63 58.38 58.81 58.66 59.29 59.21 59.57 58.79 60.24 61.28 62.33 62.26 63.07 62.79 62.00 61.74 60.73 58.71 59.12 59.73 60.66 61.57
47.36 48.00 48.98 50.38 50.23 51.44 51.81 51.32 54.19 52.22 54.26 55.41 58.88 58.97 60.26 60.44 59.53 59.27 58.50 58.07 58.31 58.75 58.86 58.66 58.17 57.37 57.87 58.95 58.31 57.05 56.19 56.94 60.32 61.96 62.94 62.76 61.74 61.04 59.38 58.29 58.60 59.98 60.28
45.92 46.75 47.76 49.50 48.79 50.40 51.16 52.29 53.28 54.46 54.59 54.40 55.56 56.98 56.52 55.80 54.89 54.86 55.26 55.60 54.83 55.30 55.86 56.72 58.69 57.98 57.65 58.83 59.25 58.13 52.97 52.05 53.86 58.89 61.00 61.89 61.84 61.23 60.50 59.76 58.66 58.65 59.07
45.01 46.58 46.75 47.68 47.25 47.90 48.57 50.53 51.45 51.45 51.58 52.66 53.52 53.38 54.26 53.58 52.39 52.54 52.96 53.30 53.78 53.69 52.78 53.27 54.54 54.02 55.92 56.36 58.81 59.12 59.07 57.61 53.94 53.27 57.30 59.77 60.89 60.51 60.26 59.76 58.81 57.97 58.46
44.83 44.92 45.61 45.52 45.45 46.62 46.54 46.59 48.44 48.53 49.96 50.20 50.50 49.72 49.75 50.16 49.71 50.04 50.53 50.67 51.00 51.40 51.11 51.19 50.59 51.31 51.65 52.83 56.68 57.75 57.92 58.05 57.82 55.85 53.71 56.07 59.00 60.25 60.21 60.29 59.90 59.30 58.72
44.41 44.17 44.61 43.68 43.41 43.96 44.33 44.42 45.44 45.47 45.97 46.33 46.04 45.58 46.33 47.46 47.93 48.01 48.40 49.15 49.28 49.07 48.90 49.41 49.22 48.63 49.46 49.56 49.75 51.06 56.16 55.93 55.30 56.17 55.38 55.90 56.01 57.88 59.49 59.88 59.87 58.61 58.28

GFSSE_sfc_wetblb_114.txt.gz
Wetbulb
67.82 71.79 74.93 75.38 75.24 75.14 74.54 74.49 74.80 74.59 74.28 74.40 74.11 73.83 73.67 72.70 71.64 71.75 71.99 71.55 71.44 71.59 72.19 72.05 71.48 71.23 71.95 72.07 71.92 72.17 72.25 72.09 72.03 71.53 71.17 71.55 71.72 71.78 71.86 71.69 71.38 70.07 71.29
69.19 72.30 73.87 75.07 74.40 74.27 74.67 74.98 75.35 75.02 74.80 74.49 74.06 73.57 73.46 73.17 71.38 71.49 71.25 71.30 71.34 71.66 72.21 72.74 72.70 72.37 72.17 72.31 72.22 71.91 70.80 70.51 70.43 70.09 69.86 69.63 70.63 71.24 71.07 71.43 71.12 69.73 70.29
69.09 71.20 72.28 74.48 74.25 73.74 74.17 74.32 74.68 74.81 74.23 74.48 74.14 73.79 73.45 73.43 71.77 71.89 71.43 71.52 71.58 71.60 72.05 72.60 72.76 72.72 71.54 72.27 71.76 71.07 70.29 69.28 69.31 69.44 68.24 65.28 66.10 69.64 70.01 69.96 70.19 70.23 69.61
68.92 70.16 71.76 73.97 74.06 74.30 74.28 74.33 74.23 74.79 74.53 74.22 74.27 73.75 73.59 73.55 72.63 71.88 71.68 71.44 71.76 72.34 72.65 72.75 73.04 72.14 71.15 70.62 70.99 70.61 69.98 68.66 68.64 69.18 65.75 64.67 65.74 68.07 68.22 68.58 68.54 68.63 68.59
67.35 69.32 71.57 73.63 73.59 73.88 74.01 74.10 74.00 74.36 74.42 74.32 74.32 74.34 73.91 73.53 73.48 72.85 72.34 71.98 71.95 72.21 72.68 72.85 72.73 72.31 71.39 70.84 69.79 70.08 69.46 68.43 67.36 65.63 62.40 62.64 64.02 67.19 67.55 67.86 67.80 67.74 67.83
65.25 68.79 71.14 72.97 73.64 73.03 73.41 73.32 73.79 74.17 74.26 74.14 73.99 74.25 74.01 73.40 73.20 73.10 73.17 72.82 71.93 72.38 72.71 72.91 72.62 71.59 71.28 70.65 70.54 70.17 69.40 68.12 66.93 61.46 61.83 65.08 64.37 68.16 68.60 68.12 67.82 67.61 67.30
59.71 65.39 68.62 71.43 72.25 72.88 72.92 72.89 73.13 73.25 73.47 73.95 73.86 73.51 73.28 73.02 73.19 73.26 72.96 72.58 72.32 72.55 72.30 72.37 72.22 71.41 70.44 70.16 70.12 69.77 68.99 67.95 62.86 61.70 61.94 64.57 64.69 69.13 68.81 68.24 67.57 67.58 67.26
55.81 56.97 59.95 69.06 70.81 71.68 72.37 72.36 72.33 72.40 73.01 73.13 72.94 72.93 73.50 73.28 73.32 73.23 73.12 73.01 72.76 72.34 72.36 72.35 72.24 71.57 70.77 70.33 69.78 69.32 68.85 66.98 63.81 61.29 60.71 63.51 67.29 69.09 68.60 68.09 67.70 67.47 67.24
54.10 54.46 53.50 57.99 65.03 69.34 70.68 71.07 71.74 72.24 72.11 72.10 72.24 72.23 72.07 72.31 72.64 72.63 72.78 72.77 72.78 72.71 72.85 72.76 72.42 71.55 70.60 69.88 69.65 69.42 68.54 67.16 62.18 60.73 62.72 63.56 69.08 69.55 69.16 68.25 67.68 67.53 67.34
51.25 51.87 50.83 52.57 54.84 60.71 67.10 69.75 70.22 70.92 71.33 71.51 71.24 70.64 69.97 70.02 70.71 71.86 71.44 71.78 72.54 72.57 72.49 72.41 72.40 71.91 70.92 70.16 69.76 69.60 68.27 67.20 62.30 60.60 61.04 63.24 68.50 70.05 69.40 68.57 67.86 67.69 67.54
50.13 48.29 49.05 49.95 51.29 53.65 61.41 67.33 68.56 69.81 69.59 69.59 69.44 68.66 68.29 68.60 68.65 68.80 68.98 69.42 70.70 71.84 72.20 72.20 71.86 71.52 70.37 69.11 69.42 69.14 67.64 65.11 62.99 61.73 60.68 63.88 68.71 70.29 69.72 68.96 68.17 68.05 67.78
45.59 46.90 48.58 48.73 49.68 50.39 54.76 60.80 64.53 67.01 68.70 67.95 67.97 67.63 67.31 67.11 67.53 68.50 67.20 67.55 69.43 70.35 70.64 71.81 71.71 70.80 69.22 67.45 67.23 67.91 66.00 64.80 63.58 62.90 61.52 64.72 67.97 70.47 70.05 69.32 68.35 68.14 68.01
45.15 47.19 49.19 49.24 49.57 49.08 50.98 54.05 60.30 63.85 65.90 67.81 67.50 66.36 65.72 66.02 65.51 65.39 65.09 66.27 67.06 66.54 68.32 69.32 69.49 68.91 67.00 66.39 66.00 65.69 65.59 64.54 63.81 63.78 63.95 65.70 67.58 70.36 70.12 69.78 68.82 68.28 68.10
46.64 48.51 49.67 49.63 49.55 49.65 49.70 50.27 53.98 59.74 63.56 65.46 66.54 65.92 65.05 64.32 65.08 65.58 65.74 65.65 65.78 66.93 66.65 66.56 67.00 66.85 66.02 66.07 65.12 64.91 65.17 65.17 64.89 64.44 62.94 64.66 67.48 69.42 70.87 70.14 69.47 68.66 68.32
50.39 51.57 52.37 53.11 52.51 51.22 49.43 49.73 51.39 55.53 60.78 63.32 65.60 65.96 64.38 63.61 63.42 64.59 65.04 65.49 67.40 67.71 67.31 66.64 66.57 65.85 65.81 65.50 65.92 64.79 63.75 64.48 64.16 64.38 63.49 62.34 65.44 68.87 70.87 71.29 70.18 69.52 68.86
51.52 51.67 52.63 53.34 54.10 54.07 53.09 50.09 49.54 52.52 57.99 61.84 63.39 65.09 65.01 62.32 62.53 63.71 63.85 64.03 64.76 66.16 67.36 65.99 65.42 64.48 65.34 65.43 65.14 65.06 64.35 63.17 63.80 63.47 63.33 62.05 64.06 66.77 69.30 70.75 71.11 70.48 69.70
49.97 50.86 50.97 52.29 53.46 53.58 54.03 54.20 51.75 50.65 55.75 59.78 61.73 62.73 65.06 63.97 62.03 62.72 63.06 62.79 62.92 63.41 64.98 65.91 64.47 63.89 63.49 63.89 64.18 65.09 64.71 63.73 62.49 63.65 63.42 62.73 62.17 63.94 66.82 69.61 70.04 69.91 70.59
48.48 48.72 49.95 51.97 52.16 52.90 52.87 54.17 53.58 51.17 51.57 57.00 59.70 60.83 62.92 64.88 62.55 61.91 62.00 62.67 63.20 61.97 61.36 61.13 61.33 61.47 61.73 61.41 62.02 63.02 64.25 63.15 64.11 63.29 62.08 62.67 62.14 63.30 64.60 66.83 68.31 69.56 69.71
47.41 48.12 48.60 50.09 50.47 51.71 52.11 53.85 53.69 51.19 50.60 53.39 58.82 60.76 62.04 63.74 64.48 61.43 62.14 61.58 61.42 60.84 60.10 60.22 59.94 60.44 59.96 60.06 60.35 60.78 61.34 61.87 62.74 64.26 62.93 61.76 60.51 62.05 63.22 63.71 64.70 65.91 67.36
46.89 47.44 49.27 49.86 50.67 50.48 51.37 51.59 52.38 53.13 51.51 52.73 56.44 59.39 61.55 62.58 63.34 62.73 62.25 61.53 61.23 60.31 58.87 59.63 58.87 59.30 59.37 59.18 60.35 60.69 60.14 60.85 61.31 61.91 62.68 62.97 62.25 60.84 60.97 61.64 62.41 63.86 64.48
46.14 47.07 48.68 48.78 48.91 49.57 50.00 49.13 50.36 51.94 53.23 52.30 54.41 58.83 58.92 59.11 59.74 60.13 61.08 60.72 60.63 59.17 58.20 58.26 57.63 57.26 57.34 58.34 57.47 57.58 58.86 60.84 61.14 61.86 62.45 62.64 61.81 60.35 59.46 59.85 60.78 61.21 62.78
45.22 46.68 47.48 47.91 47.27 48.40 49.65 50.58 51.92 51.99 53.61 54.56 56.35 55.65 55.09 55.21 55.78 56.62 57.10 57.35 57.27 58.00 57.80 57.70 58.19 57.12 56.81 57.21 55.83 55.45 53.64 54.09 57.70 60.72 61.59 62.06 61.76 62.41 61.74 59.87 59.11 58.91 59.45
43.44 45.59 45.75 45.94 45.94 47.06 48.27 50.47 51.24 52.37 52.19 52.29 53.57 54.07 53.02 53.14 53.62 53.91 54.34 55.25 54.79 54.64 53.55 54.10 53.94 53.84 54.29 55.95 57.49 56.93 53.01 49.60 52.06 55.70 58.38 60.57 61.18 61.68 61.95 61.64 60.69 59.69 59.43
42.95 45.73 46.08 45.59 45.82 45.81 46.67 47.66 47.93 48.51 48.06 49.60 51.03 51.50 51.24 50.61 50.80 51.76 51.94 51.75 51.99 52.17 50.87 51.89 51.35 51.83 52.08 52.07 54.87 56.82 56.81 56.36 52.69 51.54 55.69 57.05 59.97 60.77 61.30 61.39 60.75 59.56 58.59
44.06 44.39 42.66 43.08 44.22 44.30 44.23 44.56 46.13 45.56 47.27 47.64 47.47 47.06 47.57 48.13 47.97 48.28 49.09 49.26 49.36 49.84 49.81 50.32 48.55 48.23 48.98 48.89 49.22 49.79 50.31 52.96 56.04 54.15 52.09 54.20 57.30 59.14 60.45 60.77 60.77 60.12 59.49
44.45 44.14 43.94 43.04 42.13 42.67 42.91 42.07 42.47 42.68 43.09 43.47 44.29 43.82 44.20 44.83 44.54 45.18 46.70 47.52 47.77 47.62 47.73 48.88 49.04 48.20 47.43 46.93 47.26 47.34 47.93 47.79 46.52 47.54 48.86 51.24 53.67 55.88 58.32 59.83 59.97 59.99 59.83

GFSSE_sfc_wetblb_117.txt.gz
Wetbulb
67.27 71.34 74.22 74.58 73.58 73.72 74.37 73.73 74.12 73.91 74.11 73.96 73.73 73.73 73.12 71.99 71.59 71.94 71.43 71.03 71.21 71.55 71.68 71.39 70.90 70.94 71.35 71.73 72.07 72.07 71.77 71.93 72.03 71.71 71.50 71.83 71.76 71.65 71.83 71.40 71.14 69.71 70.85
68.29 70.91 74.04 74.68 74.14 73.34 73.62 73.72 73.92 73.98 74.29 73.62 73.91 73.57 73.25 71.70 71.25 71.13 71.25 71.01 71.11 71.71 72.29 72.15 71.79 71.27 71.91 72.03 71.87 71.37 71.07 70.92 70.31 69.80 69.85 70.09 70.93 71.29 71.59 71.09 71.06 69.44 70.03
67.68 70.24 71.85 73.85 74.25 74.02 74.14 74.15 74.31 74.35 74.04 73.94 73.97 73.58 72.99 72.29 71.50 71.42 70.95 71.11 71.21 71.35 71.96 72.37 72.52 71.50 72.00 72.05 71.73 70.69 69.50 69.52 69.59 68.63 67.94 64.93 66.42 70.20 70.19 70.22 70.35 69.70 69.05
67.01 69.11 71.45 73.76 73.67 73.81 73.29 73.97 73.85 74.20 74.04 73.80 73.59 73.32 73.40 73.11 72.05 71.70 71.37 71.28 71.73 72.17 72.65 72.35 72.67 71.96 71.65 71.64 71.09 70.52 69.30 68.34 69.01 68.76 64.29 63.92 65.37 68.11 68.69 68.78 68.95 68.92 68.47
64.92 68.40 70.88 73.22 73.26 72.48 73.77 73.77 73.55 73.20 73.70 73.85 73.78 74.01 73.49 73.24 73.12 72.56 71.96 71.62 71.78 72.03 71.97 72.24 72.47 72.16 71.44 70.90 70.28 70.47 69.63 68.20 67.76 65.81 61.96 62.25 63.33 66.46 67.35 67.32 67.73 67.55 67.68
59.46 64.44 69.68 71.81 72.39 72.61 73.58 73.37 73.25 73.28 73.37 73.58 73.21 73.16 73.49 73.20 73.19 73.12 72.72 72.85 71.92 72.12 71.96 72.67 72.42 72.05 71.55 70.88 69.81 70.27 69.57 68.32 66.36 60.71 60.89 62.65 63.89 67.24 67.30 67.81 67.86 67.40 67.30
54.43 56.97 61.16 68.71 70.79 72.43 72.36 71.67 72.11 72.90 73.14 73.54 73.18 72.93 72.93 73.01 73.02 72.62 72.68 72.73 72.27 71.81 71.98 72.31 72.25 71.57 70.78 70.32 70.26 70.13 69.75 68.46 61.35 60.75 61.23 63.24 63.82 69.03 68.32 67.85 67.32 67.26 67.17
53.46 54.00 54.78 60.54 63.42 68.13 70.65 71.96 71.87 71.81 72.74 72.96 73.06 72.92 73.04 72.90 72.98 72.70 72.59 72.50 72.52 72.01 72.08 72.27 72.35 71.87 71.04 70.25 70.26 70.10 69.63 67.30 62.96 60.80 60.55 63.20 65.51 69.53 68.86 68.28 67.63 67.37 66.92
51.66 51.37 50.24 52.47 56.46 61.71 66.26 69.03 70.79 71.33 72.01 72.05 72.16 72.24 72.22 72.04 72.57 72.37 72.72 72.67 72.55 72.39 72.27 72.53 72.60 71.96 71.54 70.88 70.64 70.11 68.70 66.91 60.93 60.55 61.44 62.22 66.33 69.97 69.29 68.37 67.76 67.55 67.35
48.84 48.12 47.91 49.35 51.00 53.00 56.75 65.64 67.65 69.45 70.53 71.22 71.08 70.50 69.64 69.61 70.52 71.50 71.34 71.41 72.47 72.46 72.42 72.21 72.53 72.18 71.40 71.02 70.38 69.40 67.93 66.93 62.50 60.45 60.14 62.23 67.04 69.98 69.76 68.96 68.13 67.71 67.56
47.96 46.78 47.77 48.29 49.06 50.24 53.00 60.10 61.94 66.50 68.00 68.95 68.80 68.21 67.84 68.05 68.27 68.29 68.22 68.89 70.33 71.45 72.02 72.19 72.11 71.67 70.15 69.15 69.20 68.73 67.49 64.72 62.78 61.38 60.17 62.96 66.99 69.69 70.33 69.50 68.67 67.97 67.88
44.68 46.72 48.43 48.48 48.54 48.91 51.91 51.82 55.46 60.42 63.91 66.61 67.92 67.66 66.93 66.87 67.17 68.09 66.60 67.11 68.85 69.93 70.37 71.58 71.84 70.99 69.29 67.52 66.93 67.68 66.39 64.79 63.53 63.03 62.08 64.57 65.98 68.85 70.38 70.26 69.26 68.35 68.08
45.82 49.80 51.42 50.92 50.26 49.05 49.27 50.41 49.87 54.17 58.60 62.89 66.22 67.12 66.83 65.99 65.00 65.01 64.71 64.96 65.89 65.68 67.28 68.71 68.92 69.34 67.25 66.66 65.88 65.50 65.67 64.67 63.94 63.82 64.56 66.06 66.99 67.71 69.74 70.95 69.84 68.92 68.26
49.88 51.13 52.33 52.88 52.51 51.76 50.64 49.99 48.80 50.39 54.54 58.46 62.42 65.87 65.62 65.26 65.04 64.39 64.89 65.11 64.71 65.73 65.92 66.71 67.40 67.63 67.00 66.39 65.85 65.04 64.89 64.86 64.55 64.36 63.46 65.17 66.78 67.63 69.04 70.68 70.99 69.64 68.76
49.48 50.51 51.05 51.80 52.38 52.97 52.68 51.45 50.76 49.86 51.33 54.25 58.80 63.05 65.31 64.24 63.82 64.35 64.84 64.89 65.15 65.14 65.63 65.80 66.16 66.21 65.83 65.42 65.68 65.19 64.62 64.62 64.48 64.77 64.02 63.17 65.10 66.80 67.78 69.34 71.04 70.02 69.65
48.88 49.22 50.09 51.15 51.95 52.52 52.29 52.38 52.82 50.75 51.06 53.11 56.99 59.44 62.09 63.12 63.37 63.26 63.40 63.50 64.51 65.42 65.76 66.39 65.09 65.00 65.10 65.10 65.35 65.55 65.70 65.09 64.44 64.42 64.30 63.48 63.83 65.39 67.20 68.11 69.75 70.67 69.90
47.63 48.58 48.73 50.81 51.45 51.14 51.39 51.69 53.16 53.17 52.01 51.22 54.12 56.95 58.60 61.44 62.25 63.02 62.60 62.26 62.91 63.73 64.03 64.39 63.51 63.25 63.72 64.23 64.69 64.92 64.83 64.78 64.04 64.13 64.51 64.02 62.73 62.66 64.78 67.17 69.21 70.04 70.51
46.62 47.01 48.19 50.16 50.20 50.37 50.41 51.32 52.48 53.00 52.04 51.16 52.54 55.44 57.38 59.52 61.50 61.83 62.16 61.69 62.36 61.77 61.70 61.40 61.04 60.67 61.71 61.44 62.13 62.32 63.34 63.56 63.97 63.03 62.91 63.42 63.62 63.13 63.55 65.40 67.31 68.94 69.47
45.93 46.53 47.09 48.84 49.38 48.83 50.10 50.76 50.91 51.79 52.58 52.79 52.82 54.87 57.35 58.95 60.69 61.81 61.91 62.29 61.12 61.58 59.92 59.73 59.73 59.78 58.84 59.27 59.74 59.98 60.12 60.64 61.47 63.41 62.87 62.80 62.23 62.22 62.27 63.19 64.19 65.46 67.06
45.63 46.34 47.40 48.91 48.12 48.51 50.95 51.06 51.35 51.93 52.80 54.52 54.49 56.95 58.20 58.26 59.56 60.07 61.30 61.77 60.94 60.49 59.91 59.14 58.00 58.64 58.76 59.06 59.47 59.60 59.06 59.43 59.85 60.58 61.46 62.56 62.62 61.84 60.80 61.04 62.36 62.93 63.96
45.01 45.49 46.21 46.09 46.14 46.83 48.61 49.29 50.36 50.62 52.09 55.07 55.76 54.84 54.49 55.20 56.43 56.88 58.13 58.99 59.61 59.16 59.40 59.24 58.20 56.88 56.84 58.53 56.60 55.80 56.62 58.24 59.00 60.08 60.76 61.02 61.36 61.85 61.71 61.21 60.75 61.43 61.96
43.51 44.19 44.93 44.95 45.21 45.88 47.16 48.65 51.05 51.84 53.93 54.09 54.72 53.42 52.04 52.64 53.48 54.09 55.12 55.56 55.91 56.75 55.43 55.31 54.23 56.35 57.91 58.38 55.50 54.93 50.73 51.92 55.06 57.92 59.21 60.25 60.61 61.51 61.36 60.36 59.55 59.93 60.90
41.71 42.30 44.14 43.89 44.29 44.41 44.87 47.78 48.85 51.52 51.79 50.53 51.09 51.36 50.28 49.74 51.13 52.06 52.31 52.77 53.90 53.73 52.98 52.07 52.46 51.88 51.97 54.66 54.76 55.01 51.80 47.59 51.85 53.58 55.60 58.11 59.08 59.89 60.89 61.27 61.29 59.95 59.08
41.62 42.43 42.59 42.84 43.24 43.36 43.70 44.65 45.62 47.10 46.39 46.98 47.46 47.54 47.64 47.34 47.49 48.79 49.32 49.87 50.23 51.16 50.84 50.75 50.53 50.10 50.98 48.99 51.67 51.93 51.09 51.84 49.28 48.34 52.65 54.28 56.76 57.03 58.71 60.23 61.11 61.39 61.09
41.91 41.52 41.64 41.59 42.00 43.43 43.03 42.22 42.42 42.45 45.05 46.44 46.07 45.31 46.11 45.52 44.59 45.31 47.25 47.93 47.45 47.61 48.71 48.73 48.00 47.96 48.23 48.19 47.16 47.87 48.92 48.92 49.58 46.60 46.32 47.43 49.81 53.73 56.89 59.14 60.00 60.75 61.04
42.51 41.36 41.11 40.25 39.59 40.18 42.54 42.20 42.02 41.70 41.50 41.22 41.11 40.78 41.70 42.61 42.87 42.68 43.42 44.02 44.92 46.36 46.09 45.85 44.72 45.05 44.83 46.00 45.42 45.49 44.73 45.94 45.10 44.83 44.10 44.40 45.02 48.55 49.43 51.42 57.98 59.36 60.31